# Wetter Temperatur Luftdruck Luftfeuchtigkeit Sichtweite Windgeschwindigkeit Windrichtung Zeit
1 Snow -7 989 93 4200 2.57 290 14:37 01.02.2023
2 Clouds -7 989 93 10000 2.06 280 13:20 01.02.2023
3 Clouds -8 988 100 10000 2.06 280 12:50 01.02.2023
4 Clouds -8 988 92 10000 1.54 250 11:56 01.02.2023
5 Clouds -8 986 92 10000 2.06 270 08:51 01.02.2023
6 Clouds -7 983 93 10000 1.54 290 03:18 01.02.2023
7 Clouds -8 982 92 8000 1.54 240 21:38 31.01.2023
8 Clouds -8 981 92 10000 1.54 270 19:48 31.01.2023
9 Clouds -8 981 92 10000 1.54 280 18:50 31.01.2023
10 Clear -6 980 93 10000 2.06 280 15:36 31.01.2023
11 Clouds -5 980 93 10000 2.06 270 15:18 31.01.2023
12 Clouds -4 980 86 10000 3.6 310 14:19 31.01.2023
13 Clouds -4 980 93 10000 3.09 330 12:19 31.01.2023
14 Clouds -4 980 93 10000 4.12 330 10:47 31.01.2023
15 Clouds -4 983 93 10000 3.6 330 09:51 31.01.2023
16 Clouds -4 979 93 10000 3.6 330 08:59 31.01.2023
17 Clouds -4 979 93 10000 4.12 330 08:34 31.01.2023
18 Clouds -4 978 93 10000 5.14 340 05:32 31.01.2023
19 Clouds -7 977 93 10000 5.66 350 23:54 30.01.2023
20 Clouds -6 976 93 10000 5.66 350 22:50 30.01.2023
21 Clouds -6 976 93 10000 5.14 360 21:56 30.01.2023
22 Clouds -5 975 93 10000 6.69 360 20:47 30.01.2023
23 Clouds -5 975 93 10000 6.17 10 19:30 30.01.2023
24 Clouds -4 974 93 10000 6.17 10 17:26 30.01.2023
25 Clouds -3 971 86 10000 7.2 30 14:57 30.01.2023
26 Snow -4 971 93 10000 7.2 30 14:26 30.01.2023
27 Snow -3 970 93 5000 5.66 30 12:21 30.01.2023
28 Snow -3 970 93 5000 5.66 30 12:21 30.01.2023
29 Snow -3 970 93 9000 6.17 60 10:30 30.01.2023
30 Snow -3 969 93 9000 6.69 60 09:54 30.01.2023
31 Snow -3 969 100 2500 6.17 60 08:40 30.01.2023
32 Snow -3 969 100 3000 5.66 70 06:23 30.01.2023
33 Snow -3 974 93 6000 4.63 110 01:31 30.01.2023
34 Snow -3 976 100 7000 4.12 120 23:34 29.01.2023
35 Snow -3 978 100 10000 3.09 150 22:37 29.01.2023
36 Clouds -4 979 93 3800 4.12 170 20:57 29.01.2023
37 Fog -5 980 100 1700 4.12 170 20:25 29.01.2023
38 Fog -6 980 93 1200 5.66 160 19:33 29.01.2023
39 Clouds -5 981 93 10000 3.09 180 18:26 29.01.2023
40 Clear -5 983 93 10000 4.12 210 16:50 29.01.2023
41 Clear -5 983 93 10000 3.09 200 16:20 29.01.2023
42 Clear -5 983 93 10000 3.09 200 16:20 29.01.2023
43 Clear -4 984 93 10000 3.09 200 14:20 29.01.2023
44 Clear -5 985 93 10000 3.09 220 13:18 29.01.2023
45 Clear -5 985 93 10000 3.09 220 12:38 29.01.2023
46 Clear -5 986 93 10000 3.09 220 12:19 29.01.2023
47 Clear -5 986 93 10000 3.09 230 11:37 29.01.2023
48 Clear -6 987 100 10000 2.57 230 10:53 29.01.2023
49 Clear -7 987 93 10000 3.09 240 08:45 29.01.2023
50 Clear -7 988 93 10000 4.12 220 04:49 29.01.2023
51 Clouds -4 988 93 10000 4.12 230 23:51 28.01.2023
52 Clear -4 989 93 10000 4.63 230 21:28 28.01.2023
53 Clear -3 989 86 10000 6.17 220 19:58 28.01.2023
54 Clear -4 989 93 10000 5.66 220 19:24 28.01.2023
55 Clear -3 990 93 10000 6.17 230 17:46 28.01.2023
56 Clear -2 990 93 10000 6.17 230 16:57 28.01.2023
57 Clear -2 991 100 10000 6.69 220 16:19 28.01.2023
58 Clouds -2 991 100 10000 6.17 220 15:37 28.01.2023
59 Clouds 0 991 100 10000 5.66 230 13:50 28.01.2023
60 Clouds 0 992 100 10000 5.66 220 12:31 28.01.2023
61 Snow 0 993 100 10000 7.2 220 10:35 28.01.2023
62 Snow 0 994 93 3300 7.2 220 09:49 28.01.2023
63 Snow 0 998 93 10000 8.75 210 04:37 28.01.2023
64 Clouds -1 1001 100 10000 9.26 210 00:30 28.01.2023
65 Snow -1 1002 100 10000 8.75 210 23:35 27.01.2023
66 Snow -2 1006 93 2600 8.23 210 19:48 27.01.2023
67 Clouds -3 1007 93 10000 7.72 220 17:58 27.01.2023
68 Clouds -4 1008 93 10000 6.69 210 17:21 27.01.2023
69 Snow -4 1008 93 10000 6.69 210 16:57 27.01.2023
70 Clear -6 1009 93 10000 5.66 210 15:37 27.01.2023
71 Clear -7 1011 93 10000 4.63 220 14:27 27.01.2023
72 Clear -8 1012 92 10000 4.63 220 13:36 27.01.2023
73 Clear -10 1013 92 10000 4.12 230 10:20 27.01.2023
74 Clear -10 1014 85 10000 3.6 220 08:34 27.01.2023
75 Clear -8 1015 86 10000 2.06 240 00:28 27.01.2023
76 Clear -7 1015 93 10000 2.57 300 22:20 26.01.2023
77 Clouds -16 1018 95 10000 1.51 297 20:56 26.01.2023
78 Clear -6 1015 86 10000 3.09 310 19:59 26.01.2023
79 Clouds -15 1017 96 10000 1.58 295 17:57 26.01.2023
80 Clouds -5 1012 86 10000 3.6 320 16:50 26.01.2023
81 Clouds -5 1012 93 10000 3.6 330 16:20 26.01.2023
82 Clear -5 1012 86 10000 4.12 330 15:42 26.01.2023
83 Clear -5 1012 86 10000 4.12 330 15:24 26.01.2023
84 Clear -6 1011 86 10000 3.09 300 13:54 26.01.2023
85 Clear -7 1010 93 10000 2.57 250 12:31 26.01.2023
86 Clear -7 1009 93 10000 2.57 250 10:56 26.01.2023
87 Clear -7 1009 93 10000 2.57 250 10:56 26.01.2023
88 Clear -8 1008 92 10000 2.57 240 10:25 26.01.2023
89 Clear -7 1008 93 10000 2.57 270 09:40 26.01.2023
90 Clear -7 1006 93 10000 2.06 270 06:57 26.01.2023
91 Clouds -4 1002 93 10000 3.09 320 23:42 25.01.2023
92 Clear -3 1001 86 10000 4.12 330 22:56 25.01.2023
93 Clear -3 999 93 10000 4.63 320 21:43 25.01.2023
94 Clear -3 998 100 10000 4.63 330 21:20 25.01.2023
95 Clouds 0 994 93 10000 4.12 330 18:30 25.01.2023
96 Snow 1 992 93 3600 4.63 340 16:58 25.01.2023
97 Clouds 3 991 100 6000 3.09 310 15:34 25.01.2023
98 Clouds 3 990 100 10000 6.17 240 12:37 25.01.2023
99 Clouds 3 990 100 10000 7.2 230 09:54 25.01.2023
100 Clouds 3 990 100 10000 7.72 240 09:29 25.01.2023
101 Clouds 2 991 100 10000 7.2 230 06:52 25.01.2023
102 Snow -1 1002 100 2800 7.72 190 00:33 25.01.2023
103 Clouds -4 1008 93 10000 4.63 190 22:39 24.01.2023
104 Clouds -5 1010 93 10000 5.66 200 21:28 24.01.2023
105 Clear -5 1012 93 10000 4.63 210 19:39 24.01.2023
106 Clear -6 1013 100 10000 4.63 210 18:30 24.01.2023
107 Clear -6 1015 93 10000 3.6 240 17:19 24.01.2023
108 Clear -6 1014 93 10000 4.12 230 16:52 24.01.2023
109 Clear -5 1015 93 10000 2.57 230 14:49 24.01.2023
110 Clear -5 1016 93 10000 3.09 230 12:29 24.01.2023
111 Clear -4 1015 100 10000 3.09 250 10:36 24.01.2023
112 Clouds -1 1014 93 10000 1.03 0 08:21 24.01.2023
113 Clouds -1 1014 93 10000 3.09 240 07:50 24.01.2023
114 Clouds 0 1012 93 10000 4.12 240 05:21 24.01.2023
115 Clouds -1 1013 93 10000 8.75 210 00:44 24.01.2023
116 Clouds -1 1014 100 10000 10.29 210 23:35 23.01.2023
117 Clouds -1 1015 93 10000 10.29 210 21:50 23.01.2023
118 Clouds -1 1017 93 10000 10.29 210 19:30 23.01.2023
119 Clouds -1 1018 93 10000 8.75 210 17:41 23.01.2023
120 Clouds -1 1019 93 10000 9.26 210 15:33 23.01.2023
121 Clouds -1 1019 86 10000 8.23 220 13:58 23.01.2023
122 Clouds -2 1020 86 10000 7.72 200 13:21 23.01.2023
123 Clouds -2 1020 86 10000 8.23 210 12:44 23.01.2023
124 Clouds -2 1021 93 10000 9.26 210 11:42 23.01.2023
125 Clouds -2 1022 93 10000 11.32 220 08:25 23.01.2023
126 Clouds -4 1024 100 7000 10.8 200 02:43 23.01.2023
127 Clouds -4 1026 100 10000 8.75 190 22:55 22.01.2023
128 Clouds -3 1028 100 10000 8.75 200 21:19 22.01.2023
129 Clouds -2 1028 93 10000 9.26 200 20:24 22.01.2023
130 Clouds -2 1028 93 10000 9.77 200 19:45 22.01.2023
131 Clouds -2 1029 93 10000 9.77 200 18:53 22.01.2023
132 Clouds -2 1029 93 5000 6.69 200 17:57 22.01.2023
133 Clouds -2 1029 93 10000 8.23 200 17:26 22.01.2023
134 Clouds -2 1029 93 10000 8.75 210 16:21 22.01.2023
135 Clouds -2 1029 100 5000 6.69 200 14:54 22.01.2023
136 Clouds -1 1029 93 10000 7.72 220 13:40 22.01.2023
137 Clouds -1 1029 93 5000 9.77 210 12:47 22.01.2023
138 Clouds -1 1029 93 2400 9.77 210 11:35 22.01.2023
139 Clouds -1 1028 93 7000 9.77 200 09:35 22.01.2023
140 Clouds -1 1028 93 6000 8.23 210 06:40 22.01.2023
141 Clouds -3 1029 93 10000 7.2 210 02:27 22.01.2023
142 Clouds -7 1030 93 10000 4.12 180 23:32 21.01.2023
143 Clouds -8 1030 92 10000 4.63 200 22:34 21.01.2023
144 Clouds -19 1033 100 4703 1.53 174 19:48 21.01.2023
145 Clouds -20 1033 100 4549 0.93 162 17:40 21.01.2023
146 Fog -8 1027 92 300 3.09 210 14:37 21.01.2023
147 Clouds -7 1026 93 1100 3.09 250 12:57 21.01.2023
148 Clouds -7 1026 93 1100 3.09 250 12:35 21.01.2023
149 Fog -7 1025 93 800 2.57 240 11:27 21.01.2023
150 Clouds -6 1023 100 10000 3.09 250 09:31 21.01.2023
151 Snow -3 1018 93 5000 1.54 240 04:37 21.01.2023
152 Clouds -2 1013 93 3700 3.6 220 22:29 20.01.2023
153 Clouds -2 1013 93 3700 3.6 220 22:29 20.01.2023
154 Clouds -2 1013 93 4100 4.63 230 21:39 20.01.2023
155 Clouds -2 1013 93 5000 4.12 220 20:58 20.01.2023
156 Clouds -2 1012 93 4600 3.6 210 19:52 20.01.2023
157 Clouds -2 1010 93 8000 6.17 220 16:47 20.01.2023
158 Clouds -1 1008 93 10000 6.17 210 14:47 20.01.2023
159 Clouds -1 1007 93 10000 7.2 210 13:51 20.01.2023
160 Clouds -1 1006 86 10000 7.2 220 10:24 20.01.2023
161 Clouds -2 1005 93 10000 6.69 220 08:54 20.01.2023
162 Clouds -2 1003 93 10000 6.17 220 05:56 20.01.2023
163 Clouds -2 1001 93 6000 5.14 220 02:30 20.01.2023
164 Clouds -3 999 93 10000 2.06 230 22:36 19.01.2023
165 Clouds -3 999 93 10000 2.06 230 22:36 19.01.2023
166 Clouds -2 998 86 10000 1.54 250 21:20 19.01.2023
167 Clouds -3 997 93 10000 1.54 320 19:29 19.01.2023
168 Clouds -2 996 93 10000 1.54 10 16:56 19.01.2023
169 Clouds -1 997 86 10000 2.57 20 13:30 19.01.2023
170 Clouds -1 999 93 10000 2.06 100 09:37 19.01.2023
171 Clouds -1 999 100 10000 2.57 130 05:57 19.01.2023
172 Clouds 1 999 93 10000 5.66 170 22:26 18.01.2023
173 Snow -1 997 100 4800 5.14 160 20:20 18.01.2023
174 Snow -1 997 93 10000 4.63 150 19:38 18.01.2023
175 Snow -2 996 100 6000 4.63 140 19:20 18.01.2023
176 Snow -2 997 93 2600 5.14 100 15:57 18.01.2023
177 Snow -2 998 93 2000 5.14 90 13:54 18.01.2023
178 Snow -2 999 93 7000 4.63 100 11:44 18.01.2023
179 Snow -2 1000 93 3000 6.17 80 09:27 18.01.2023
180 Clouds -4 1002 93 10000 5.66 100 02:59 18.01.2023
181 Clouds -3 1003 93 10000 4.63 110 00:20 18.01.2023
182 Clouds -2 1003 93 10000 4.12 170 20:57 17.01.2023
183 Clouds -1 1002 93 10000 3.09 160 19:36 17.01.2023
184 Clouds -1 1002 93 10000 4.12 190 18:41 17.01.2023
185 Clouds -1 1001 93 5000 5.66 210 17:37 17.01.2023
186 Clouds -1 999 93 4200 8.23 220 15:26 17.01.2023
187 Clouds -2 999 100 3600 7.72 220 14:25 17.01.2023
188 Clear -4 1000 93 10000 4.84 214 13:31 17.01.2023
189 Clouds -2 996 93 10000 7.2 220 11:44 17.01.2023
190 Clouds -3 994 93 10000 6.17 220 09:35 17.01.2023
191 Clouds -3 991 93 10000 7.2 220 08:20 17.01.2023
192 Clouds -2 989 93 10000 7.2 210 05:52 17.01.2023
193 Clouds -1 982 93 9000 7.72 220 00:57 17.01.2023
194 Clouds 1 980 93 10000 5.66 210 23:50 16.01.2023
195 Snow 1 979 93 10000 5.66 210 22:19 16.01.2023
196 Snow 1 978 100 3200 5.14 190 20:49 16.01.2023
197 Snow 1 977 100 10000 4.63 180 19:42 16.01.2023
198 Snow 1 977 100 10000 4.63 170 18:55 16.01.2023
199 Snow 1 977 100 6000 4.12 160 18:21 16.01.2023
200 Snow 1 977 100 6000 5.14 160 18:21 16.01.2023
201 Snow 1 977 100 8000 5.14 150 17:36 16.01.2023
202 Snow 1 976 100 6000 4.63 150 16:29 16.01.2023
203 Snow 1 977 100 2000 5.66 130 13:39 16.01.2023
204 Snow 1 978 100 5000 5.14 140 11:57 16.01.2023
205 Snow 1 979 93 10000 6.69 160 10:21 16.01.2023
206 Snow 1 980 100 2900 6.17 160 00:55 16.01.2023
207 Snow 1 979 100 2300 5.66 130 22:27 15.01.2023
208 Snow 1 979 100 4300 5.66 130 20:47 15.01.2023
209 Snow 1 979 100 3900 7.72 120 20:23 15.01.2023
210 Snow 1 981 100 3300 7.2 100 18:26 15.01.2023
211 Snow 1 985 100 10000 5.66 100 16:38 15.01.2023
212 Snow -1 990 93 2000 4.12 80 12:51 15.01.2023
213 Snow -2 991 100 3700 4.12 80 11:38 15.01.2023
214 Snow -2 992 93 6000 4.63 80 10:41 15.01.2023
215 Clouds -2 993 93 2800 4.63 80 10:21 15.01.2023
216 Clouds -17 999 100 258 0.76 49 01:53 15.01.2023
217 Fog -5 996 100 650 1.54 60 23:21 14.01.2023
218 Fog -4 996 93 1200 1.54 360 22:26 14.01.2023
219 Clouds -4 996 100 6000 0.51 0 21:36 14.01.2023
220 Clouds -4 996 100 9000 2.06 330 21:18 14.01.2023
221 Clouds -3 996 93 5000 2.06 240 20:39 14.01.2023
222 Clouds -2 996 100 4800 1.54 260 18:47 14.01.2023
223 Clouds -1 996 93 10000 2.06 240 17:35 14.01.2023
224 Clouds -1 995 100 10000 1.54 270 15:29 14.01.2023
225 Clouds 0 995 100 10000 2.57 240 14:25 14.01.2023
226 Fog 0 994 100 1900 2.57 240 13:42 14.01.2023
227 Fog 0 994 100 900 1.54 230 11:46 14.01.2023
228 Fog 0 994 100 1300 1.54 170 10:46 14.01.2023
229 Snow 0 993 100 8000 1.54 140 08:19 14.01.2023
230 Clouds 0 994 93 10000 3.09 190 23:36 13.01.2023
231 Clouds 0 994 93 10000 3.6 200 22:47 13.01.2023
232 Clouds 0 994 93 10000 3.6 200 22:29 13.01.2023
233 Clouds 0 994 93 10000 2.06 230 21:35 13.01.2023
234 Clouds 0 993 100 6000 6.17 200 19:42 13.01.2023
235 Clouds 0 992 100 4000 6.69 210 18:21 13.01.2023
236 Clouds 0 991 100 10000 6.17 210 16:35 13.01.2023
237 Clouds 0 988 100 2000 7.72 210 13:24 13.01.2023
238 Clouds 0 988 100 1500 7.72 210 12:20 13.01.2023
239 Fog 0 987 100 1500 6.17 220 10:26 13.01.2023
240 Clouds 1 986 93 7000 7.2 200 09:46 13.01.2023
241 Clouds 1 986 93 8000 8.23 210 08:55 13.01.2023
242 Clouds 1 985 100 3000 8.75 210 08:21 13.01.2023
243 Clouds 1 985 100 1000 7.72 210 06:52 13.01.2023
244 Clouds 1 984 100 5000 9.77 210 05:23 13.01.2023
245 Drizzle 1 984 100 6000 9.77 200 00:21 13.01.2023
246 Drizzle 2 984 93 4800 9.77 200 22:43 12.01.2023
247 Snow 1 984 100 4000 9.26 210 20:55 12.01.2023
248 Snow 2 985 93 7000 9.26 200 19:44 12.01.2023
249 Snow 2 985 93 7000 9.26 190 17:35 12.01.2023
250 Snow 2 985 93 7000 9.26 190 16:25 12.01.2023
251 Clouds 2 986 93 6000 9.77 190 14:45 12.01.2023
252 Clouds 2 986 93 10000 9.26 190 14:22 12.01.2023
253 Clouds 2 986 93 5000 9.77 190 12:50 12.01.2023
254 Clouds 2 987 93 6000 8.75 190 10:38 12.01.2023
255 Clouds 2 987 93 10000 9.26 190 08:31 12.01.2023
256 Clouds 1 988 100 10000 8.75 200 03:58 12.01.2023
257 Snow 1 988 100 5000 6.69 170 23:59 11.01.2023
258 Snow 1 989 100 4600 7.2 160 23:40 11.01.2023
259 Snow 1 989 93 5000 7.72 160 23:21 11.01.2023
260 Snow 0 990 100 5000 5.66 140 21:45 11.01.2023
261 Snow -2 992 93 7000 5.14 110 19:59 11.01.2023
262 Snow -4 994 93 2800 5.66 110 18:35 11.01.2023
263 Clouds -7 997 93 6000 5.66 110 16:47 11.01.2023
264 Snow -8 999 92 10000 5.14 120 14:47 11.01.2023
265 Clouds -9 1000 92 10000 4.63 120 12:43 11.01.2023
266 Clouds -9 1000 92 9000 4.12 130 11:54 11.01.2023
267 Clouds -10 1001 85 6000 3.09 130 10:20 11.01.2023
268 Snow -10 1001 85 2000 1.54 150 07:38 11.01.2023
269 Mist -10 1001 85 1300 3.09 170 07:20 11.01.2023
270 Snow -9 1004 92 10000 3.09 140 23:58 10.01.2023
271 Snow -8 1004 92 6000 3.09 140 22:45 10.01.2023
272 Snow -8 1005 92 10000 3.09 140 21:30 10.01.2023
273 Snow -8 1006 92 10000 3.6 140 19:57 10.01.2023
274 Snow -8 1006 92 3800 3.6 140 19:34 10.01.2023
275 Snow -8 1006 92 9000 3.09 130 18:47 10.01.2023
276 Snow -8 1007 92 9000 3.6 130 17:54 10.01.2023
277 Snow -7 1008 86 10000 3.09 150 15:48 10.01.2023
278 Snow -7 1008 86 10000 3.09 150 15:23 10.01.2023
279 Clouds -7 1009 86 10000 3.09 140 14:21 10.01.2023
280 Clouds -7 1010 86 10000 3.09 130 11:57 10.01.2023
281 Clouds -8 1011 92 10000 3.6 170 08:58 10.01.2023
282 Clouds -8 1011 92 10000 3.6 170 08:25 10.01.2023
283 Clouds -8 1011 92 10000 4.12 160 07:26 10.01.2023
284 Clouds -8 1011 86 10000 4.63 180 04:51 10.01.2023
285 Clouds -8 1011 92 10000 5.14 170 22:51 09.01.2023
286 Snow -8 1011 92 10000 4.12 160 21:21 09.01.2023
287 Snow -8 1011 92 10000 4.12 170 20:34 09.01.2023
288 Snow -8 1011 92 9000 6.17 150 18:42 09.01.2023
289 Clouds -8 1011 92 10000 5.66 150 17:51 09.01.2023
290 Snow -8 1011 92 10000 5.66 150 16:58 09.01.2023
291 Snow -8 1011 92 10000 4.63 150 16:30 09.01.2023
292 Clouds -8 1011 86 10000 4.63 140 15:22 09.01.2023
293 Clouds -8 1011 86 10000 4.63 140 15:22 09.01.2023
294 Clouds -8 1011 86 10000 4.63 150 14:43 09.01.2023
295 Snow -8 1011 86 4500 6.17 130 12:54 09.01.2023
296 Snow -9 1011 92 4000 6.17 140 12:18 09.01.2023
297 Snow -9 1012 85 1900 5.14 140 11:19 09.01.2023
298 Snow -9 1012 85 2500 6.17 140 07:23 09.01.2023
299 Snow -9 1012 85 10000 7.72 150 06:21 09.01.2023
300 Snow -9 1013 85 6000 6.17 150 02:53 09.01.2023
301 Snow -9 1014 85 5000 7.72 140 22:29 08.01.2023
302 Snow -9 1014 85 4300 7.2 140 21:22 08.01.2023
303 Snow -9 1014 85 4300 7.2 140 20:54 08.01.2023
304 Snow -9 1015 85 10000 7.72 130 18:52 08.01.2023
305 Snow -9 1015 85 5000 7.72 140 17:37 08.01.2023
306 Snow -9 1015 85 4700 7.72 140 17:18 08.01.2023
307 Snow -10 1016 92 4100 7.2 130 15:36 08.01.2023
308 Snow -11 1016 92 3100 7.72 130 13:59 08.01.2023
309 Snow -11 1016 85 2900 7.2 130 13:31 08.01.2023
310 Snow -11 1017 85 6000 7.72 120 12:54 08.01.2023
311 Clouds -11 1018 85 10000 7.2 120 10:52 08.01.2023
312 Clouds -11 1018 85 10000 8.23 120 09:36 08.01.2023
313 Clouds -11 1018 85 10000 6.69 120 07:49 08.01.2023
314 Clear -12 1021 85 10000 4.63 90 00:30 08.01.2023
315 Clear -13 1022 85 10000 4.12 90 22:48 07.01.2023
316 Clear -14 1022 85 10000 4.12 80 22:24 07.01.2023
317 Clear -15 1022 92 10000 4.63 70 21:48 07.01.2023
318 Clear -15 1022 85 10000 4.63 70 20:46 07.01.2023
319 Clear -15 1022 85 10000 5.14 70 20:22 07.01.2023
320 Clear -14 1023 85 10000 4.63 100 18:45 07.01.2023
321 Clouds -14 1023 85 10000 5.66 100 17:51 07.01.2023
322 Clouds -14 1023 85 10000 5.66 100 17:28 07.01.2023
323 Clouds -14 1023 85 10000 4.63 110 16:37 07.01.2023
324 Clouds -15 1023 85 10000 3.6 100 15:46 07.01.2023
325 Clouds -15 1023 85 10000 3.6 100 15:26 07.01.2023
326 Clouds -15 1024 85 10000 3.09 110 14:27 07.01.2023
327 Clear -15 1024 85 10000 4.12 120 13:47 07.01.2023
328 Clouds -16 1024 85 10000 3.6 100 13:23 07.01.2023
329 Clouds -15 1024 85 10000 3.09 110 12:22 07.01.2023
330 Clouds -25 1028 100 4221 1.4 103 11:18 07.01.2023
331 Clouds -26 1028 100 4725 1.35 105 10:25 07.01.2023
332 Clouds -15 1024 85 10000 2.57 90 08:21 07.01.2023
333 Clouds -15 1024 85 5000 2.06 90 07:44 07.01.2023
334 Snow -15 1024 85 6000 2.06 80 06:50 07.01.2023
335 Clouds -26 1028 100 1266 0.77 111 00:42 07.01.2023
336 Clouds -27 1028 100 2020 0.44 185 22:23 06.01.2023
337 Clouds -27 1028 100 2020 0.44 185 21:58 06.01.2023
338 Clouds -27 1028 100 2095 0.45 212 20:59 06.01.2023
339 Clouds -27 1028 100 2130 0.52 208 19:57 06.01.2023
340 Clear -16 1024 92 10000 1.03 250 19:39 06.01.2023
341 Clear -17 1024 92 10000 1.54 240 19:21 06.01.2023
342 Clouds -27 1028 100 2174 0.64 201 18:25 06.01.2023
343 Clouds -27 1028 100 1675 0.7 209 16:55 06.01.2023
344 Clouds -27 1028 100 1475 0.72 215 16:23 06.01.2023
345 Clouds -27 1028 100 1475 0.72 215 15:53 06.01.2023
346 Clouds -27 1028 100 1475 0.72 215 15:34 06.01.2023
347 Clouds -27 1029 100 1392 0.71 225 13:48 06.01.2023
348 Clouds -27 1029 100 2244 0.28 227 12:21 06.01.2023
349 Clouds -26 1030 100 2175 0.36 211 10:57 06.01.2023
350 Clouds -27 1030 100 2407 0.36 258 08:53 06.01.2023
351 Clouds -27 1030 100 2912 0.64 5 05:26 06.01.2023
352 Clouds -25 1031 100 2937 1.27 9 23:39 05.01.2023
353 Clouds -25 1031 100 3022 1.36 8 22:45 05.01.2023
354 Clouds -24 1030 100 3161 1.49 3 21:19 05.01.2023
355 Clouds -24 1030 100 2714 1.49 8 17:39 05.01.2023
356 Clouds -24 1029 100 3383 1.59 8 17:21 05.01.2023
357 Clouds -23 1029 100 4555 1.52 3 15:58 05.01.2023
358 Clouds -23 1029 100 4555 1.52 3 15:34 05.01.2023
359 Clouds -23 1029 100 5357 1.54 6 14:33 05.01.2023
360 Clouds -22 1029 100 4858 1.59 14 12:41 05.01.2023
361 Clouds -22 1028 100 5670 1.6 14 11:36 05.01.2023
362 Clouds -21 1028 100 6169 1.61 18 09:43 05.01.2023
363 Clouds -20 1026 100 6123 1.79 25 08:22 05.01.2023
364 Clouds -21 1026 100 6260 1.69 23 06:49 05.01.2023
365 Clouds -18 1025 100 6595 1.88 26 02:56 05.01.2023
366 Clouds -6 1021 86 10000 3.6 20 22:27 04.01.2023
367 Clouds -6 1021 93 10000 6.17 40 21:31 04.01.2023
368 Clear -6 1021 93 10000 5.14 30 20:21 04.01.2023
369 Clear -6 1020 93 10000 5.14 40 19:45 04.01.2023
370 Clear -6 1020 93 10000 5.14 40 19:27 04.01.2023
371 Clouds -6 1020 86 10000 4.63 30 18:18 04.01.2023
372 Clear -7 1020 86 10000 3.6 10 16:30 04.01.2023
373 Clear -8 1020 86 10000 3.6 360 14:50 04.01.2023
374 Clear -9 1020 85 10000 3.6 360 12:19 04.01.2023
375 Clear -10 1020 92 10000 4.12 350 11:23 04.01.2023
376 Clear -11 1020 92 10000 3.6 350 10:44 04.01.2023
377 Clear -11 1020 92 10000 3.6 350 10:24 04.01.2023
378 Clear -11 1020 85 10000 4.63 350 09:24 04.01.2023
379 Clear -12 1019 85 10000 6.17 340 05:38 04.01.2023
380 Clear -13 1019 85 10000 5.14 340 01:20 04.01.2023
381 Clear -12 1019 85 10000 4.63 350 23:37 03.01.2023
382 Clear -11 1018 85 10000 4.12 350 22:56 03.01.2023
383 Clear -11 1018 85 10000 4.63 350 21:37 03.01.2023
384 Clear -12 1017 85 10000 3.6 360 20:28 03.01.2023
385 Clear -12 1015 85 10000 4.12 20 18:22 03.01.2023
386 Clouds -11 1015 92 10000 3.6 10 16:39 03.01.2023
387 Clouds -11 1013 85 10000 4.12 20 14:21 03.01.2023
388 Clouds -12 1013 92 10000 5.14 20 13:32 03.01.2023
389 Clouds -12 1013 92 10000 5.14 20 13:32 03.01.2023
390 Clouds -11 1012 85 10000 3.6 360 12:58 03.01.2023
391 Clear -11 1012 85 10000 1.54 30 12:31 03.01.2023
392 Snow -11 1011 92 10000 5.14 50 11:41 03.01.2023
393 Snow -11 1011 92 10000 5.14 50 11:41 03.01.2023
394 Snow -12 1009 92 6000 3.09 60 07:55 03.01.2023
395 Clouds -12 1008 85 10000 3.6 70 04:26 03.01.2023
396 Clouds -13 1008 85 5000 4.63 70 03:46 03.01.2023
397 Clouds -13 1008 85 5000 4.63 70 03:26 03.01.2023
398 Clouds -13 1008 85 10000 2.57 110 22:46 02.01.2023
399 Clouds -13 1008 85 10000 2.57 110 22:24 02.01.2023
400 Fog -11 1007 92 1000 1.54 210 20:46 02.01.2023
401 Fog -11 1007 92 1000 1.54 210 20:26 02.01.2023
402 Clouds -13 1007 92 10000 2.06 90 18:26 02.01.2023
403 Clear -9 1007 85 10000 2.06 230 15:31 02.01.2023
404 Clear -9 1006 92 10000 2.57 270 13:39 02.01.2023
405 Clear -7 1006 93 10000 3.09 240 12:18 02.01.2023
406 Clear -7 1005 93 10000 3.09 240 10:52 02.01.2023
407 Clear -8 1003 86 10000 2.06 250 07:39 02.01.2023
408 Clear -5 998 86 10000 2.57 300 02:48 02.01.2023
409 Clear -3 995 93 10000 2.57 280 22:41 01.01.2023
410 Clouds -2 993 93 10000 3.09 290 21:38 01.01.2023
411 Clouds -2 992 93 10000 4.12 290 20:48 01.01.2023
412 Clear -1 990 93 10000 4.63 300 19:49 01.01.2023
413 Clear -1 989 93 10000 4.63 310 18:24 01.01.2023
414 Clouds -1 987 93 10000 6.17 310 17:22 01.01.2023
415 Snow 0 987 93 4900 6.69 320 16:33 01.01.2023
416 Snow -1 985 93 2600 3.6 320 14:59 01.01.2023
417 Snow -1 983 93 2300 6.69 310 13:41 01.01.2023
418 Snow -1 982 100 3500 4.63 290 12:41 01.01.2023
419 Snow -1 982 100 2500 3.6 270 11:38 01.01.2023
420 Snow -1 981 100 2300 4.12 280 10:36 01.01.2023
421 Snow -1 980 100 3600 5.14 280 08:54 01.01.2023
422 Snow 0 979 93 4600 5.14 290 08:21 01.01.2023
423 Snow 0 977 100 7000 5.66 270 07:21 01.01.2023
424 Snow 1 975 100 4800 4.12 130 01:45 01.01.2023
425 Snow 1 976 100 8000 4.12 130 23:43 31.12.2022
426 Snow 1 976 100 5000 5.14 130 22:33 31.12.2022
427 Snow 1 977 100 6000 5.14 130 21:37 31.12.2022
428 Snow 1 977 100 6000 4.63 130 21:18 31.12.2022
429 Snow 1 978 100 4200 6.17 120 19:41 31.12.2022
430 Snow 1 979 93 3100 6.17 120 18:44 31.12.2022
431 Snow 0 979 100 2800 7.2 120 18:19 31.12.2022
432 Snow 0 980 100 3700 6.69 120 17:47 31.12.2022
433 Snow 0 981 100 2500 8.23 120 16:50 31.12.2022
434 Snow 0 981 100 2500 8.23 120 16:22 31.12.2022
435 Snow 0 984 93 4200 6.17 120 14:39 31.12.2022
436 Clouds -1 985 100 10000 7.72 120 13:38 31.12.2022
437 Clouds -1 986 93 10000 9.26 110 12:40 31.12.2022
438 Clouds -1 987 93 10000 8.23 120 12:19 31.12.2022
439 Clouds -1 987 93 10000 8.23 120 12:19 31.12.2022
440 Clouds -1 988 93 2400 7.72 110 11:50 31.12.2022
441 Clouds -1 991 93 10000 5.14 140 10:35 31.12.2022
442 Clouds -1 991 93 10000 5.66 120 09:53 31.12.2022
443 Clouds -2 992 100 10000 6.17 120 09:18 31.12.2022
444 Clouds -1 993 93 3600 5.66 140 07:25 31.12.2022
445 Clouds -3 996 93 6000 4.63 120 00:35 31.12.2022
446 Clouds -3 996 93 6000 4.63 120 00:35 31.12.2022
447 Clouds -3 996 93 6000 4.63 120 00:35 31.12.2022
448 Clouds -3 996 93 6000 4.63 120 00:35 31.12.2022
449 Snow -3 996 93 5000 4.63 120 23:45 30.12.2022
450 Snow -3 996 93 4200 4.63 120 22:49 30.12.2022
451 Snow -4 995 100 3700 4.63 120 21:43 30.12.2022
452 Snow -4 996 100 4500 4.63 120 21:23 30.12.2022
453 Snow -4 995 93 5000 5.14 110 18:58 30.12.2022
454 Snow -4 995 93 3100 5.14 120 17:42 30.12.2022
455 Snow -4 995 93 3100 5.14 120 17:23 30.12.2022
456 Snow -4 995 93 3100 5.14 110 15:50 30.12.2022
457 Snow -4 995 93 4000 5.66 120 13:56 30.12.2022
458 Snow -4 996 93 9000 7.72 120 09:51 30.12.2022
459 Snow -5 997 93 7000 8.75 110 06:56 30.12.2022
460 Clouds -7 999 93 10000 8.23 120 02:41 30.12.2022
461 Clouds -7 1001 93 10000 7.2 110 00:53 30.12.2022
462 Clouds -7 1002 93 10000 7.72 110 22:41 29.12.2022
463 Clouds -7 1003 93 10000 8.23 110 21:29 29.12.2022
464 Clouds -6 1004 93 10000 7.72 120 20:53 29.12.2022
465 Clouds -6 1005 93 10000 7.2 120 19:55 29.12.2022
466 Clouds -6 1005 93 10000 5.66 130 17:56 29.12.2022
467 Clouds -6 1006 93 10000 4.12 140 17:27 29.12.2022
468 Clouds -6 1006 93 10000 4.12 140 16:55 29.12.2022
469 Clouds -5 1006 93 10000 5.66 130 15:58 29.12.2022
470 Clouds -5 1007 93 10000 3.6 140 13:55 29.12.2022
471 Clouds -5 1007 93 10000 3.09 140 12:34 29.12.2022
472 Clouds -6 1006 93 10000 2.57 140 10:27 29.12.2022
473 Clouds -19 1009 100 1808 1.11 147 06:32 29.12.2022
474 Fog -11 1003 92 650 1.03 230 23:29 28.12.2022
475 Fog -11 1002 92 1100 1.54 240 22:21 28.12.2022
476 Clouds -10 1002 92 5000 2.06 250 21:20 28.12.2022
477 Fog -10 1001 85 1200 0.51 0 20:20 28.12.2022
478 Clouds -8 1000 86 10000 1.03 300 18:47 28.12.2022
479 Clouds -7 999 86 8000 1.54 310 16:22 28.12.2022
480 Clouds -6 998 93 10000 2.06 50 14:26 28.12.2022
481 Clouds -6 997 93 10000 3.09 70 12:48 28.12.2022
482 Clouds -6 997 93 10000 2.57 80 11:33 28.12.2022
483 Snow -6 996 93 7000 2.57 80 09:34 28.12.2022
484 Clouds -7 996 93 10000 3.09 90 07:43 28.12.2022
485 Snow -7 996 93 10000 2.57 90 06:45 28.12.2022
486 Clouds -7 997 86 10000 4.63 120 01:18 28.12.2022
487 Snow -7 998 93 10000 5.14 120 22:28 27.12.2022
488 Snow -7 999 93 10000 4.63 120 19:51 27.12.2022
489 Clouds -7 1000 93 10000 5.14 120 18:41 27.12.2022
490 Clouds -7 1000 93 10000 4.63 120 16:59 27.12.2022
491 Clouds -18 1004 100 2522 2.01 95 15:55 27.12.2022
492 Clouds -19 1005 100 6535 1.7 86 14:25 27.12.2022
493 Clouds -8 1003 92 8000 3.6 160 12:23 27.12.2022
494 Clouds -10 1003 85 10000 4.63 150 09:48 27.12.2022
495 Clouds -10 1003 92 10000 4.63 160 09:24 27.12.2022
496 Clouds -10 1003 92 10000 4.63 160 08:47 27.12.2022
497 Clouds -7 1004 93 10000 6.17 160 04:54 27.12.2022
498 Clouds -6 1006 93 10000 7.2 180 23:39 26.12.2022
499 Clouds -6 1006 93 10000 7.2 180 23:39 26.12.2022
500 Snow -6 1006 93 10000 6.69 180 21:50 26.12.2022
501 Snow -6 1006 93 10000 7.72 180 20:44 26.12.2022
502 Clouds -5 1006 93 10000 6.17 180 19:51 26.12.2022
503 Clouds -5 1007 93 10000 6.69 180 18:42 26.12.2022
504 Clouds -5 1007 93 10000 9.26 190 16:53 26.12.2022
505 Clouds -5 1008 93 10000 6.69 180 15:37 26.12.2022
506 Clouds -4 1008 93 3400 5.66 190 12:58 26.12.2022
507 Clouds -4 1008 100 9000 7.72 180 09:44 26.12.2022
508 Clouds -5 1010 93 2600 6.69 170 05:41 26.12.2022
509 Clouds -16 1012 85 10000 4.12 110 23:39 25.12.2022
510 Clouds -15 1012 85 10000 1.03 0 22:48 25.12.2022
511 Clouds -14 1012 85 10000 2.06 190 22:19 25.12.2022
512 Clouds -15 1011 85 10000 2.06 220 19:38 25.12.2022
513 Clouds -15 1010 85 10000 2.57 250 17:52 25.12.2022
514 Clouds -15 1010 85 10000 2.57 250 17:34 25.12.2022
515 Clouds -14 1010 85 10000 2.06 240 16:40 25.12.2022
516 Clouds -13 1008 85 10000 3.09 250 13:30 25.12.2022
517 Clouds -13 1008 85 10000 3.09 250 13:30 25.12.2022
518 Mist -12 1007 85 4000 3.09 240 11:35 25.12.2022
519 Clear -10 1000 85 10000 2.06 240 03:20 25.12.2022
520 Clouds -11 997 92 10000 2.06 250 22:39 24.12.2022
521 Clouds -12 995 85 10000 2.57 240 19:52 24.12.2022
522 Snow -11 994 85 10000 3.09 230 16:59 24.12.2022
523 Clear -12 993 85 10000 3.09 230 15:28 24.12.2022
524 Snow -13 992 85 10000 2.57 230 14:22 24.12.2022
525 Clouds -14 991 85 10000 3.09 230 11:54 24.12.2022
526 Clouds -15 991 85 10000 3.09 240 10:23 24.12.2022
527 Clouds -15 990 85 10000 3.09 250 09:37 24.12.2022
528 Clouds -17 990 85 10000 2.57 240 07:59 24.12.2022
529 Clouds -13 987 92 10000 2.57 260 02:51 24.12.2022
530 Clouds -11 986 92 10000 1.54 240 00:29 24.12.2022
531 Clouds -12 986 92 9000 3.09 160 22:30 23.12.2022
532 Mist -12 986 85 3900 2.57 120 21:30 23.12.2022
533 Mist -12 986 85 3900 2.57 120 21:30 23.12.2022
534 Clouds -13 985 85 10000 2.06 90 19:40 23.12.2022
535 Clear -11 985 85 10000 4.63 180 19:22 23.12.2022
536 Clear -11 985 85 10000 4.63 180 18:53 23.12.2022
537 Clear -11 985 85 10000 3.6 180 18:21 23.12.2022
538 Clear -11 986 85 10000 3.09 190 16:48 23.12.2022
539 Clouds -12 986 92 10000 3.09 210 15:45 23.12.2022
540 Clouds -12 986 85 10000 2.57 220 12:28 23.12.2022
541 Clear -10 986 85 10000 4.63 210 09:52 23.12.2022
542 Clear -10 986 85 10000 4.63 210 09:33 23.12.2022
543 Clouds -7 985 93 10000 4.63 220 07:20 23.12.2022
544 Clouds -6 985 93 10000 4.12 240 06:48 23.12.2022
545 Snow -5 985 93 9000 1.54 270 23:24 22.12.2022
546 Snow -5 985 100 10000 1.54 250 22:58 22.12.2022
547 Snow -5 985 100 3900 1.54 240 21:48 22.12.2022
548 Clouds -5 985 100 10000 1.03 0 19:43 22.12.2022
549 Snow -5 985 93 10000 1.54 70 19:18 22.12.2022
550 Snow -5 985 93 4700 2.57 90 17:31 22.12.2022
551 Snow -5 985 93 10000 3.6 90 16:39 22.12.2022
552 Snow -5 985 93 10000 3.09 80 15:35 22.12.2022
553 Snow -5 986 93 3100 3.09 80 14:51 22.12.2022
554 Snow -5 986 93 3000 3.09 90 13:35 22.12.2022
555 Snow -5 986 93 1300 2.57 90 12:59 22.12.2022
556 Snow -5 987 93 1600 3.09 100 10:51 22.12.2022
557 Snow -5 987 93 1600 3.09 100 10:30 22.12.2022
558 Snow -5 987 93 2000 3.6 110 09:21 22.12.2022
559 Snow -5 987 93 1800 3.09 100 08:27 22.12.2022
560 Clouds -5 988 93 10000 2.57 110 05:28 22.12.2022
561 Clouds -5 988 93 10000 3.09 80 04:18 22.12.2022
562 Clouds -5 990 93 10000 3.09 100 23:51 21.12.2022
563 Clouds -5 991 93 10000 3.09 70 21:58 21.12.2022
564 Clouds -5 991 93 6000 3.09 80 21:23 21.12.2022
565 Clouds -5 991 93 4300 3.09 60 20:52 21.12.2022
566 Clouds -5 992 93 9000 3.09 80 20:18 21.12.2022
567 Clouds -5 992 93 10000 3.09 80 19:43 21.12.2022
568 Clouds -5 992 93 10000 3.09 80 19:23 21.12.2022
569 Clouds -5 992 93 10000 2.57 80 18:45 21.12.2022
570 Clouds -5 992 93 10000 3.6 80 17:36 21.12.2022
571 Clouds -5 994 93 10000 2.57 80 14:58 21.12.2022
572 Clouds -5 994 93 10000 2.06 70 13:26 21.12.2022
573 Clouds -5 995 93 10000 2.57 70 11:46 21.12.2022
574 Clouds -5 995 93 10000 2.57 110 11:19 21.12.2022
575 Clouds -5 996 93 10000 3.09 110 09:36 21.12.2022
576 Clouds -5 996 93 10000 3.6 100 07:32 21.12.2022
577 Clouds -5 999 93 10000 4.63 110 01:56 21.12.2022
578 Snow -5 1001 93 2500 5.66 100 22:43 20.12.2022
579 Snow -6 1002 93 5000 5.14 100 21:21 20.12.2022
580 Snow -6 1002 93 4000 5.66 100 20:22 20.12.2022
581 Snow -7 1003 93 2600 5.66 80 18:50 20.12.2022
582 Snow -7 1003 93 2600 5.66 80 18:28 20.12.2022
583 Snow -7 1004 93 3600 6.17 80 17:52 20.12.2022
584 Snow -7 1004 93 3600 6.17 80 17:32 20.12.2022
585 Snow -8 1005 92 6000 5.66 90 16:32 20.12.2022
586 Snow -8 1006 92 4500 6.17 90 15:29 20.12.2022
587 Snow -8 1007 92 6000 5.66 100 14:37 20.12.2022
588 Snow -8 1007 92 3000 4.12 90 13:58 20.12.2022
589 Clouds -8 1008 92 10000 6.17 110 12:44 20.12.2022
590 Clouds -8 1008 92 10000 6.17 110 12:23 20.12.2022
591 Clouds -8 1008 92 10000 3.6 90 11:28 20.12.2022
592 Clouds -9 1010 85 10000 3.6 80 08:23 20.12.2022
593 Clouds -22 1014 100 3579 0.52 50 00:27 20.12.2022
594 Clouds -11 1012 92 2300 1.54 350 22:36 19.12.2022
595 Clouds -11 1011 85 2200 0.51 0 21:39 19.12.2022
596 Clouds -12 1010 92 3900 1.54 280 19:53 19.12.2022
597 Clouds -12 1010 92 3900 1.54 280 19:31 19.12.2022
598 Clouds -13 1009 92 1800 0.51 0 18:24 19.12.2022
599 Clouds -13 1009 92 10000 2.57 290 16:35 19.12.2022
600 Clouds -13 1009 92 10000 2.57 290 16:35 19.12.2022
601 Clouds -8 1007 86 10000 1.54 310 13:24 19.12.2022
602 Clouds -8 1006 92 10000 1.54 260 11:55 19.12.2022
603 Clouds -7 1005 93 10000 3.09 200 08:47 19.12.2022
604 Clouds -5 1005 93 7000 4.12 220 07:25 19.12.2022
605 Clouds -3 1004 100 5000 3.6 140 00:56 19.12.2022
606 Snow -3 1005 93 5000 4.12 140 21:50 18.12.2022
607 Snow -3 1005 93 5000 4.12 140 21:31 18.12.2022
608 Snow -3 1005 93 4500 4.63 140 20:57 18.12.2022
609 Snow -3 1006 93 5000 5.66 130 19:45 18.12.2022
610 Snow -3 1006 93 5000 5.66 130 19:23 18.12.2022
611 Snow -4 1007 100 9000 5.14 110 17:52 18.12.2022
612 Clouds -4 1009 100 10000 4.63 120 16:18 18.12.2022
613 Clouds -4 1009 100 10000 4.63 120 15:37 18.12.2022
614 Clouds -4 1009 100 10000 4.12 110 15:18 18.12.2022
615 Clouds -3 1011 93 10000 4.12 160 13:35 18.12.2022
616 Clouds -3 1011 93 10000 3.6 160 12:51 18.12.2022
617 Clouds -3 1012 93 10000 3.09 160 11:53 18.12.2022
618 Clouds -4 1012 93 10000 2.57 150 10:18 18.12.2022
619 Clouds -5 1012 100 10000 2.57 200 08:46 18.12.2022
620 Clouds -5 1012 93 6000 2.06 210 07:20 18.12.2022
621 Clouds -5 1012 93 5000 2.57 250 06:19 18.12.2022
622 Clouds -5 1011 93 10000 6.17 220 01:58 18.12.2022
623 Clouds -5 1010 93 10000 6.17 210 23:39 17.12.2022
624 Clouds -3 1010 100 10000 5.66 220 21:33 17.12.2022
625 Clouds -3 1009 93 6000 6.17 200 18:50 17.12.2022
626 Clouds -4 1009 100 4200 6.69 190 15:51 17.12.2022
627 Clouds -4 1010 93 10000 5.66 200 13:33 17.12.2022
628 Snow -4 1009 93 2500 3.6 230 11:23 17.12.2022
629 Snow -4 1009 93 5000 5.14 210 10:44 17.12.2022
630 Snow -4 1009 93 10000 5.66 200 09:40 17.12.2022
631 Clouds -5 1008 93 10000 4.63 220 07:24 17.12.2022
632 Clouds -5 1008 93 10000 4.63 220 07:24 17.12.2022
633 Clear -6 1008 93 10000 5.66 220 06:44 17.12.2022
634 Clear -12 1007 92 10000 5.14 210 23:32 16.12.2022
635 Clear -12 1005 85 10000 5.66 220 20:34 16.12.2022
636 Clear -14 1004 92 10000 4.12 220 18:42 16.12.2022
637 Clear -15 1003 85 10000 3.6 230 15:37 16.12.2022
638 Clear -14 1002 85 10000 3.09 240 14:46 16.12.2022
639 Clear -15 1001 85 10000 3.09 230 13:22 16.12.2022
640 Clear -15 1001 85 10000 2.57 240 11:57 16.12.2022
641 Clouds -15 999 92 10000 3.09 250 09:41 16.12.2022
642 Clouds -14 998 92 10000 2.57 260 08:54 16.12.2022
643 Fog -14 998 85 10000 3.09 240 07:55 16.12.2022
644 Clouds -13 997 85 10000 3.09 250 06:58 16.12.2022
645 Snow -13 993 85 10000 3.6 230 23:19 15.12.2022
646 Clouds -13 993 85 4300 3.6 230 21:58 15.12.2022
647 Snow -14 992 85 9000 3.6 230 20:24 15.12.2022
648 Clouds -15 992 85 10000 1.54 210 19:21 15.12.2022
649 Snow -14 992 85 10000 3.6 220 17:28 15.12.2022
650 Snow -14 991 85 10000 3.09 230 16:31 15.12.2022
651 Clear -15 991 85 10000 3.09 250 14:57 15.12.2022
652 Clouds -14 990 85 10000 2.57 250 12:59 15.12.2022
653 Clouds -13 990 85 10000 3.6 250 12:25 15.12.2022
654 Snow -14 989 85 1800 4.63 170 09:19 15.12.2022
655 Mist -14 989 85 1300 4.63 180 08:41 15.12.2022
656 Clouds -14 990 78 2300 3.09 190 05:45 15.12.2022
657 Clouds -14 990 85 10000 2.57 190 02:25 15.12.2022
658 Clouds -13 991 85 10000 1.54 190 21:24 14.12.2022
659 Clouds -13 991 85 10000 1.54 180 20:50 14.12.2022
660 Clouds -13 991 92 8000 1.03 0 19:59 14.12.2022
661 Clouds -12 992 85 10000 1.54 80 17:52 14.12.2022
662 Clouds -13 992 92 10000 1.54 70 16:56 14.12.2022
663 Clouds -14 992 85 8000 2.57 40 14:59 14.12.2022
664 Clouds -13 992 92 10000 3.09 50 13:21 14.12.2022
665 Clouds -12 992 85 8000 2.06 70 11:20 14.12.2022
666 Clouds -12 992 85 3000 2.57 70 10:23 14.12.2022
667 Clouds -12 992 85 10000 3.09 60 08:46 14.12.2022
668 Snow -12 993 92 5000 5.14 50 22:43 13.12.2022
669 Clouds -12 994 85 10000 4.63 40 21:45 13.12.2022
670 Clouds -12 994 85 6000 5.14 50 20:48 13.12.2022
671 Clouds -12 994 85 6000 5.14 50 20:48 13.12.2022
672 Snow -12 994 85 3700 6.17 60 19:39 13.12.2022
673 Snow -13 997 85 4500 7.2 50 16:42 13.12.2022
674 Snow -14 998 85 8000 6.69 40 14:59 13.12.2022
675 Snow -14 1000 85 1500 6.69 30 13:42 13.12.2022
676 Snow -15 1003 78 2500 6.69 40 10:54 13.12.2022
677 Snow -15 1003 78 2000 7.2 30 10:27 13.12.2022
678 Snow -15 1003 78 2000 7.2 30 10:27 13.12.2022
679 Clear -18 1006 84 10000 5.66 20 08:45 13.12.2022
680 Clear -16 1018 85 10000 4.63 10 22:42 12.12.2022
681 Clear -19 1019 77 10000 4.63 20 21:59 12.12.2022
682 Clear -17 1020 85 10000 3.09 20 20:41 12.12.2022
683 Clear -17 1020 85 10000 3.09 20 20:41 12.12.2022
684 Clouds -16 1022 85 10000 2.57 50 18:31 12.12.2022
685 Clouds -24 1028 100 5317 1.46 12 15:41 12.12.2022
686 Clouds -24 1029 100 6245 1.44 12 14:25 12.12.2022
687 Clouds -15 1027 85 10000 3.09 40 09:46 12.12.2022
688 Clouds -15 1027 85 10000 3.6 40 09:18 12.12.2022
689 Clouds -16 1027 85 10000 4.12 60 04:51 12.12.2022
690 Clear -16 1028 85 10000 4.63 50 01:51 12.12.2022
691 Clouds -14 1027 85 10000 4.12 70 22:18 11.12.2022
692 Clouds -13 1027 85 10000 5.14 70 20:40 11.12.2022
693 Clouds -13 1027 85 10000 4.63 70 19:39 11.12.2022
694 Clear -13 1027 85 10000 5.14 60 18:40 11.12.2022
695 Clouds -12 1027 78 10000 4.63 60 17:53 11.12.2022
696 Clouds -12 1027 78 10000 4.63 60 17:26 11.12.2022
697 Clouds -12 1026 85 10000 3.6 50 16:49 11.12.2022
698 Clear -12 1026 85 10000 5.14 50 15:45 11.12.2022
699 Clear -11 1026 85 10000 5.14 70 13:39 11.12.2022
700 Clear -10 1025 92 10000 6.17 60 12:42 11.12.2022
701 Clear -9 1025 92 10000 5.66 60 10:44 11.12.2022
702 Clouds -6 1022 93 10000 6.69 70 03:38 11.12.2022
703 Clouds -5 1021 86 6000 7.2 70 00:28 11.12.2022
704 Clouds -5 1020 86 10000 7.2 70 22:38 10.12.2022
705 Clouds -5 1020 86 10000 7.2 70 22:19 10.12.2022
706 Snow -5 1019 86 8000 7.72 70 21:18 10.12.2022
707 Clouds -5 1019 86 10000 7.2 60 20:19 10.12.2022
708 Clouds -6 1019 93 10000 7.2 60 17:53 10.12.2022
709 Clouds -6 1019 93 10000 7.2 60 16:46 10.12.2022
710 Clouds -6 1019 93 10000 5.66 60 15:43 10.12.2022
711 Clouds -6 1019 93 10000 5.66 60 15:24 10.12.2022
712 Clouds -6 1018 86 10000 4.12 60 13:44 10.12.2022
713 Clouds -6 1018 86 10000 5.66 60 12:23 10.12.2022
714 Clouds -7 1018 93 10000 6.69 60 10:55 10.12.2022
715 Clouds -7 1018 93 10000 6.17 60 09:44 10.12.2022
716 Clouds -7 1018 93 10000 6.69 60 07:22 10.12.2022
717 Clouds -7 1018 93 10000 6.69 50 06:52 10.12.2022
718 Clouds -8 1016 86 10000 7.72 50 23:38 09.12.2022
719 Clouds -8 1016 86 8000 8.23 50 22:42 09.12.2022
720 Snow -8 1016 92 8000 7.72 50 21:29 09.12.2022
721 Clouds -8 1015 92 10000 8.23 50 20:59 09.12.2022
722 Clouds -7 1015 86 10000 9.26 50 19:46 09.12.2022
723 Clouds -7 1015 86 6000 7.2 50 17:56 09.12.2022
724 Clouds -7 1014 86 8000 7.2 50 17:18 09.12.2022
725 Clouds -7 1014 93 5000 8.23 50 16:18 09.12.2022
726 Clouds -7 1014 93 6000 7.72 50 15:27 09.12.2022
727 Clouds -6 1013 93 10000 7.72 60 12:37 09.12.2022
728 Clouds -5 1013 93 10000 7.72 50 10:50 09.12.2022
729 Clouds -4 1012 86 8000 8.23 60 10:20 09.12.2022
730 Clouds -4 1010 100 10000 7.2 50 05:37 09.12.2022
731 Clouds -4 1010 93 10000 4.63 30 03:18 09.12.2022
732 Snow -4 1010 100 8000 7.2 50 22:48 08.12.2022
733 Snow -4 1010 100 10000 6.69 60 20:51 08.12.2022
734 Clouds -4 1009 100 10000 7.2 50 18:55 08.12.2022
735 Clouds -4 1009 93 10000 6.69 60 16:23 08.12.2022
736 Clouds -4 1009 93 10000 6.17 60 14:29 08.12.2022
737 Clouds -5 1009 93 10000 7.2 60 12:25 08.12.2022
738 Snow -5 1009 93 2000 8.23 50 10:34 08.12.2022
739 Snow -6 1009 93 2000 6.69 40 09:28 08.12.2022
740 Clouds -7 1009 93 10000 6.69 30 06:49 08.12.2022
741 Clouds -6 1009 93 10000 3.09 90 22:36 07.12.2022
742 Clouds -6 1009 93 10000 3.09 100 22:18 07.12.2022
743 Clouds -6 1008 93 10000 3.6 110 21:45 07.12.2022
744 Clouds -6 1008 93 10000 3.09 120 19:48 07.12.2022
745 Clouds -6 1007 93 10000 4.63 170 17:41 07.12.2022
746 Clouds -3 1005 93 10000 5.14 170 14:41 07.12.2022
747 Clouds -4 1004 93 10000 2.06 120 12:39 07.12.2022
748 Clouds -4 1003 93 2000 1.54 130 10:46 07.12.2022
749 Clouds -4 1003 93 5000 1.54 120 09:56 07.12.2022
750 Mist -4 1003 93 1500 0.51 230 08:51 07.12.2022
751 Clouds -5 1002 100 10000 1.03 0 06:49 07.12.2022
752 Clouds -4 1001 93 10000 1.03 320 05:23 07.12.2022
753 Clouds -3 1001 93 10000 1.03 0 23:37 06.12.2022
754 Clouds -3 1000 93 10000 0.51 0 20:53 06.12.2022
755 Clouds -2 999 93 3900 1.54 340 18:28 06.12.2022
756 Clouds -2 998 93 4500 1.03 0 16:56 06.12.2022
757 Clouds -2 998 93 3700 2.06 300 16:20 06.12.2022
758 Clouds -2 998 100 3700 2.06 300 15:34 06.12.2022
759 Clouds -2 998 100 4200 1.54 250 14:32 06.12.2022
760 Snow -1 997 93 2800 4.12 210 13:00 06.12.2022
761 Clouds -1 997 100 10000 4.63 210 12:40 06.12.2022
762 Clouds -1 998 100 10000 4.12 190 09:43 06.12.2022
763 Snow -2 998 100 5000 3.6 160 06:44 06.12.2022
764 Clouds -1 1002 100 7000 6.69 190 01:32 06.12.2022
765 Clouds 1 1005 100 1300 6.69 220 22:37 05.12.2022
766 Snow 0 1006 100 3700 4.63 220 21:19 05.12.2022
767 Snow 0 1007 100 4200 5.14 220 20:36 05.12.2022
768 Snow -1 1007 100 2900 5.14 220 19:46 05.12.2022
769 Clouds -1 1008 100 10000 5.14 230 18:37 05.12.2022
770 Clouds -2 1009 100 5000 5.66 220 16:49 05.12.2022
771 Snow -2 1010 93 3500 6.17 220 15:24 05.12.2022
772 Snow -3 1012 93 1800 5.66 210 13:27 05.12.2022
773 Clouds -3 1013 93 4000 6.69 200 12:52 05.12.2022
774 Clouds -3 1013 93 4000 6.69 200 12:34 05.12.2022
775 Clouds -3 1014 93 2000 8.23 200 10:58 05.12.2022
776 Snow -5 1022 93 10000 2.57 0 04:52 05.12.2022
777 Clouds -6 1028 93 8000 2.57 0 23:25 04.12.2022
778 Clouds -6 1029 93 10000 2.06 0 22:37 04.12.2022
779 Clouds -6 1029 93 10000 2.06 170 22:18 04.12.2022
780 Clouds -6 1029 93 10000 3.09 170 21:27 04.12.2022
781 Clouds -5 1030 93 10000 1.54 170 19:47 04.12.2022
782 Clouds -5 1030 93 10000 3.09 190 19:22 04.12.2022
783 Clouds -5 1031 93 8000 2.57 190 17:24 04.12.2022
784 Clouds -5 1031 93 10000 2.06 170 16:59 04.12.2022
785 Snow -5 1031 93 10000 2.06 190 16:36 04.12.2022
786 Snow -5 1031 93 10000 2.57 180 16:18 04.12.2022
787 Snow -5 1031 86 10000 1.03 0 14:46 04.12.2022
788 Snow -5 1032 93 10000 1.03 100 13:37 04.12.2022
789 Snow -5 1032 93 10000 1.54 70 12:44 04.12.2022
790 Clouds -5 1032 93 6000 1.54 60 11:59 04.12.2022
791 Snow -5 1033 93 4400 1.54 30 09:33 04.12.2022
792 Clouds -5 1032 93 10000 2.57 40 07:33 04.12.2022
793 Clouds -4 1035 93 10000 3.09 60 02:22 04.12.2022
794 Clouds -4 1036 93 10000 4.12 60 23:43 03.12.2022
795 Clouds -4 1036 93 10000 4.63 50 22:23 03.12.2022
796 Clouds -4 1036 93 10000 3.6 50 21:28 03.12.2022
797 Clouds -4 1036 93 10000 2.06 80 20:34 03.12.2022
798 Clouds -4 1037 100 10000 3.6 80 18:40 03.12.2022
799 Clouds -4 1037 100 10000 3.09 80 16:57 03.12.2022
800 Snow -4 1037 100 9000 3.09 90 14:28 03.12.2022
801 Clouds -4 1038 93 10000 3.09 70 12:55 03.12.2022
802 Clouds -4 1038 93 10000 3.09 70 12:24 03.12.2022
803 Clouds -4 1039 93 10000 3.09 60 10:26 03.12.2022
804 Clouds -4 1039 93 10000 2.57 70 07:39 03.12.2022
805 Clouds -4 1041 93 10000 3.09 50 01:30 03.12.2022
806 Clouds -4 1041 100 10000 3.09 50 22:58 02.12.2022
807 Clouds -4 1041 100 10000 2.57 40 20:54 02.12.2022
808 Clouds -4 1041 100 10000 2.57 50 20:54 02.12.2022
809 Clouds -4 1041 100 10000 2.57 40 19:26 02.12.2022
810 Clouds -4 1041 100 10000 3.6 50 15:59 02.12.2022
811 Clouds -3 1040 93 10000 4.12 60 14:44 02.12.2022
812 Clouds -3 1040 93 10000 4.12 60 14:26 02.12.2022
813 Clouds -3 1040 93 10000 3.09 60 13:26 02.12.2022
814 Clouds -3 1040 100 8000 3.6 70 11:41 02.12.2022
815 Clouds -2 1039 93 7000 3.09 60 08:48 02.12.2022
816 Clouds -2 1038 93 5000 3.09 60 07:24 02.12.2022
817 Snow -2 1037 93 8000 1.54 70 23:54 01.12.2022
818 Snow -2 1036 93 7000 1.54 90 21:49 01.12.2022
819 Snow -2 1036 93 7000 1.54 90 21:31 01.12.2022
820 Snow -2 1036 93 6000 1.54 100 20:18 01.12.2022
821 Snow -2 1035 93 5000 1.03 180 18:23 01.12.2022
822 Snow -2 1035 93 4200 1.54 180 15:59 01.12.2022
823 Snow -2 1035 93 2000 1.54 220 11:55 01.12.2022
824 Snow -2 1035 93 3000 1.54 230 10:28 01.12.2022
825 Snow -2 1035 93 2500 2.06 220 09:54 01.12.2022
826 Snow -2 1035 93 2000 2.06 220 09:36 01.12.2022
827 Clouds -2 1034 93 6000 1.03 190 02:00 01.12.2022
828 Clouds -2 1035 93 10000 1.54 170 22:38 30.11.2022
829 Clouds -2 1035 93 10000 1.03 0 21:19 30.11.2022
830 Clouds -2 1035 93 10000 1.03 0 20:45 30.11.2022
831 Clouds -2 1034 93 10000 1.03 0 20:22 30.11.2022
832 Clouds -2 1034 93 7000 1.03 0 18:33 30.11.2022
833 Clouds -2 1035 93 10000 1.54 160 17:36 30.11.2022
834 Snow -2 1035 93 10000 1.54 0 16:19 30.11.2022
835 Clouds -2 1035 100 8000 1.03 0 14:27 30.11.2022
836 Snow -2 1035 100 3000 1.54 130 13:39 30.11.2022
837 Mist -1 1036 93 2000 2.06 170 10:30 30.11.2022
838 Mist -1 1036 93 2500 4.12 180 08:39 30.11.2022
839 Clouds -1 1036 93 5000 4.12 170 07:56 30.11.2022
840 Clouds -2 1036 100 10000 4.63 190 23:36 29.11.2022
841 Clouds -2 1035 93 7000 3.09 170 22:49 29.11.2022
842 Clouds -2 1035 93 9000 3.6 180 21:26 29.11.2022
843 Clouds -2 1035 93 1300 3.6 180 20:37 29.11.2022
844 Mist -3 1035 93 2200 3.6 170 18:58 29.11.2022
845 Clouds -4 1035 100 10000 3.6 190 16:59 29.11.2022
846 Clouds -4 1035 100 10000 3.6 190 16:24 29.11.2022
847 Clouds -3 1035 93 10000 4.63 170 14:49 29.11.2022
848 Clouds -2 1035 93 10000 3.6 170 12:55 29.11.2022
849 Mist -1 1035 93 1500 3.6 170 11:32 29.11.2022
850 Mist -1 1035 93 3000 3.09 170 10:53 29.11.2022
851 Clouds -2 1035 100 5000 3.6 170 09:38 29.11.2022
852 Clouds -2 1034 100 6000 3.6 170 08:34 29.11.2022
853 Mist -2 1033 100 2700 4.12 170 00:36 29.11.2022
854 Fog -2 1033 93 1800 4.12 170 23:34 28.11.2022
855 Mist -2 1033 93 2500 3.09 170 22:32 28.11.2022
856 Mist -2 1033 93 4500 3.09 170 21:43 28.11.2022
857 Clouds -2 1032 93 1900 3.6 170 20:33 28.11.2022
858 Mist -2 1032 93 2500 3.6 170 19:38 28.11.2022
859 Clouds -2 1032 93 1500 4.12 180 18:29 28.11.2022
860 Clouds -2 1032 93 1700 3.6 180 17:50 28.11.2022
861 Mist -3 1031 100 4300 3.09 170 15:31 28.11.2022
862 Clouds -3 1031 100 10000 1.54 150 14:24 28.11.2022
863 Clouds -3 1031 100 6000 2.57 170 13:46 28.11.2022
864 Clouds -3 1031 93 5000 3.6 170 11:53 28.11.2022
865 Clouds -3 1030 93 6000 3.6 180 09:27 28.11.2022
866 Clouds -3 1029 93 7000 4.12 170 05:49 28.11.2022
867 Clouds -3 1029 93 9000 4.63 180 04:41 28.11.2022
868 Clouds -3 1028 93 2100 3.6 170 03:23 28.11.2022
869 Clouds -4 1028 100 8000 3.6 170 00:43 28.11.2022
870 Clouds -3 1028 93 6000 5.66 180 22:28 27.11.2022
871 Clouds -4 1028 100 10000 3.6 170 21:19 27.11.2022
872 Clouds -3 1028 93 7000 5.14 180 18:57 27.11.2022
873 Clouds -3 1028 100 7000 5.14 180 16:44 27.11.2022
874 Clouds -2 1028 93 10000 5.66 170 14:22 27.11.2022
875 Clouds -3 1028 100 10000 4.63 180 12:31 27.11.2022
876 Clouds -3 1029 100 10000 4.63 170 10:39 27.11.2022
877 Clouds -3 1028 93 10000 4.63 170 07:55 27.11.2022
878 Clouds -5 1030 93 3300 4.12 170 23:41 26.11.2022
879 Clouds -5 1030 93 10000 4.63 170 21:44 26.11.2022
880 Clouds -5 1030 93 6000 3.6 160 20:35 26.11.2022
881 Clouds -4 1030 93 3300 3.6 170 18:57 26.11.2022
882 Clouds -3 1030 93 5000 4.12 170 16:49 26.11.2022
883 Clouds -3 1030 93 2900 4.12 170 15:38 26.11.2022
884 Clouds -4 1030 93 10000 4.12 170 12:54 26.11.2022
885 Clouds -4 1030 93 10000 4.12 170 11:23 26.11.2022
886 Clouds -5 1029 93 9000 4.12 160 09:44 26.11.2022
887 Clouds -5 1029 93 10000 3.6 160 08:39 26.11.2022
888 Clouds -6 1027 93 10000 4.12 170 22:59 25.11.2022
889 Clouds -6 1027 93 10000 4.12 170 21:38 25.11.2022
890 Clouds -7 1027 93 10000 2.57 160 20:33 25.11.2022
891 Clouds -7 1027 93 10000 2.06 160 19:24 25.11.2022
892 Clouds -8 1026 92 10000 2.57 160 15:42 25.11.2022
893 Snow -9 1026 92 10000 3.09 160 12:20 25.11.2022
894 Clouds -9 1025 92 10000 2.57 110 08:53 25.11.2022
895 Clouds -9 1025 92 10000 1.54 140 08:33 25.11.2022
896 Clouds -9 1024 92 10000 2.57 110 06:42 25.11.2022
897 Clouds -8 1025 86 10000 2.06 120 01:25 25.11.2022
898 Clouds -7 1025 93 10000 2.06 120 23:41 24.11.2022
899 Clouds -6 1025 93 10000 2.57 150 22:35 24.11.2022
900 Mist -5 1024 93 2800 2.06 160 21:39 24.11.2022
901 Clouds -5 1024 93 10000 2.06 160 19:48 24.11.2022
902 Clouds -5 1024 93 10000 3.09 160 17:47 24.11.2022
903 Clouds -5 1024 93 10000 3.09 160 17:23 24.11.2022
904 Clouds -5 1023 93 10000 3.09 160 16:40 24.11.2022
905 Clouds -4 1023 93 10000 1.54 130 14:23 24.11.2022
906 Clouds -4 1023 93 10000 2.06 130 12:41 24.11.2022
907 Clouds -4 1023 100 10000 1.54 140 11:37 24.11.2022
908 Clouds -3 1023 93 10000 2.57 110 08:47 24.11.2022
909 Clouds -4 1023 100 10000 1.54 120 04:46 24.11.2022
910 Clouds -4 1024 100 10000 2.06 170 00:40 24.11.2022
911 Clouds -4 1024 100 10000 3.09 0 23:32 23.11.2022
912 Clouds -3 1023 93 10000 2.57 0 21:47 23.11.2022
913 Clouds -3 1023 93 10000 4.63 110 20:49 23.11.2022
914 Clouds -3 1023 93 10000 4.12 100 19:34 23.11.2022
915 Clouds -4 1023 100 10000 3.09 70 18:54 23.11.2022
916 Clouds -3 1023 93 10000 3.6 80 17:29 23.11.2022
917 Clouds -3 1023 93 10000 3.6 80 17:29 23.11.2022
918 Clouds -4 1023 93 10000 3.09 60 13:42 23.11.2022
919 Clouds -4 1023 93 10000 3.09 60 13:23 23.11.2022
920 Clouds -4 1023 93 10000 3.09 70 12:23 23.11.2022
921 Clouds -5 1023 100 10000 2.06 60 11:45 23.11.2022
922 Clouds -5 1023 93 10000 4.12 70 10:46 23.11.2022
923 Clouds -6 1022 100 10000 3.6 70 09:45 23.11.2022
924 Clouds -6 1022 100 10000 3.6 70 09:27 23.11.2022
925 Clouds -6 1022 93 10000 3.09 70 08:57 23.11.2022
926 Clouds -6 1022 93 10000 3.6 60 08:30 23.11.2022
927 Clouds -8 1022 86 10000 3.6 50 05:19 23.11.2022
928 Clouds -13 1022 85 8000 3.09 60 23:58 22.11.2022
929 Clouds -15 1022 85 3700 4.12 70 22:37 22.11.2022
930 Clouds -16 1022 85 5000 4.12 80 21:34 22.11.2022
931 Clouds -16 1021 85 10000 3.6 70 20:50 22.11.2022
932 Clouds -16 1021 85 10000 3.6 70 20:27 22.11.2022
933 Clouds -16 1021 85 10000 4.12 60 19:34 22.11.2022
934 Clouds -17 1021 85 10000 4.63 60 17:48 22.11.2022
935 Clouds -17 1021 85 10000 4.63 60 16:24 22.11.2022
936 Fog -15 1021 85 10000 1.54 30 14:20 22.11.2022
937 Mist -15 1021 85 2000 2.06 70 12:26 22.11.2022
938 Mist -16 1020 85 1800 3.09 50 09:27 22.11.2022
939 Mist -17 1020 85 3000 2.57 40 07:59 22.11.2022
940 Clouds -17 1020 85 5000 2.06 40 06:37 22.11.2022
941 Mist -16 1020 85 3700 1.54 90 23:42 21.11.2022
942 Clouds -16 1020 85 10000 3.09 50 22:51 21.11.2022
943 Clouds -16 1020 85 10000 1.54 50 22:20 21.11.2022
944 Clouds -16 1020 85 8000 1.03 60 21:23 21.11.2022
945 Mist -16 1020 92 1700 1.03 0 19:49 21.11.2022
946 Mist -16 1020 92 1700 1.03 0 19:31 21.11.2022
947 Mist -16 1020 92 1700 1.03 0 19:31 21.11.2022
948 Mist -16 1020 85 4400 1.03 0 18:46 21.11.2022
949 Clouds -16 1020 85 6000 1.03 0 16:59 21.11.2022
950 Clouds -15 1020 78 3100 1.54 80 16:40 21.11.2022
951 Clouds -15 1020 85 2800 2.06 70 15:54 21.11.2022
952 Mist -15 1020 85 2200 2.06 60 15:23 21.11.2022
953 Mist -14 1020 85 5000 0.51 0 13:52 21.11.2022
954 Clouds -14 1021 85 8000 1.03 0 11:41 21.11.2022
955 Clouds -15 1021 92 10000 0.51 170 09:29 21.11.2022
956 Mist -14 1020 85 2800 2.06 50 07:43 21.11.2022
957 Clouds -12 1021 92 10000 1.54 80 22:48 20.11.2022
958 Fog -12 1021 85 1200 1.54 50 21:36 20.11.2022
959 Clouds -12 1021 92 10000 2.06 40 20:34 20.11.2022
960 Clouds -12 1021 85 10000 3.09 10 18:57 20.11.2022
961 Clear -11 1022 85 10000 2.06 40 16:47 20.11.2022
962 Clear -12 1022 92 10000 2.57 20 15:32 20.11.2022
963 Clear -11 1022 92 10000 1.54 30 14:54 20.11.2022
964 Clouds -11 1023 92 10000 2.06 30 13:34 20.11.2022
965 Clouds -10 1023 92 10000 2.06 40 12:44 20.11.2022
966 Clouds -10 1023 85 10000 1.54 50 11:38 20.11.2022
967 Clear -10 1023 85 10000 1.54 60 10:51 20.11.2022
968 Clouds -11 1024 85 6000 3.09 50 09:42 20.11.2022
969 Fog -10 1024 85 600 2.06 50 08:47 20.11.2022
970 Clouds -10 1024 92 10000 2.06 20 07:30 20.11.2022
971 Fog -8 1025 86 450 1.03 40 05:23 20.11.2022
972 Fog -6 1026 100 550 1.03 0 01:23 20.11.2022
973 Fog -6 1026 100 550 1.54 270 00:42 20.11.2022
974 Fog -6 1026 100 550 1.54 270 00:24 20.11.2022
975 Fog -5 1027 93 650 0.51 0 23:53 19.11.2022
976 Fog -5 1027 93 900 1.03 0 23:25 19.11.2022
977 Fog -5 1027 93 600 1.03 0 22:41 19.11.2022
978 Fog -5 1027 93 750 0.51 0 21:33 19.11.2022
979 Fog -5 1027 93 800 0.51 0 20:57 19.11.2022
980 Fog -5 1027 100 550 1.03 0 20:37 19.11.2022
981 Fog -5 1028 100 750 1.54 250 19:25 19.11.2022
982 Clouds -5 1028 100 2300 2.06 190 17:41 19.11.2022
983 Clouds -5 1028 100 10000 1.03 0 17:21 19.11.2022
984 Clouds -4 1028 93 5000 1.03 0 16:28 19.11.2022
985 Clouds -4 1029 100 10000 2.57 180 14:39 19.11.2022
986 Clouds -4 1029 100 9000 2.06 180 12:23 19.11.2022
987 Clouds -4 1029 100 10000 2.06 210 10:57 19.11.2022
988 Clouds -4 1029 100 5000 2.57 210 09:25 19.11.2022
989 Clouds -3 1029 93 10000 1.54 180 05:44 19.11.2022
990 Clouds -3 1030 100 3900 0.51 0 03:25 19.11.2022
991 Clouds -4 1030 93 10000 2.57 60 00:18 19.11.2022
992 Clouds -5 1030 100 10000 2.57 60 23:25 18.11.2022
993 Clouds -5 1030 93 10000 2.57 40 21:54 18.11.2022
994 Clouds -6 1030 100 10000 2.06 50 21:33 18.11.2022
995 Clouds -7 1029 100 10000 3.09 60 20:38 18.11.2022
996 Fog -7 1029 100 1100 3.6 60 19:47 18.11.2022
997 Fog -6 1029 93 800 3.09 60 18:49 18.11.2022
998 Fog -6 1029 100 1200 2.57 90 17:44 18.11.2022
999 Clouds -6 1027 93 2600 3.09 40 14:32 18.11.2022
1000 Fog -6 1027 93 500 3.09 30 11:31 18.11.2022
1001 Fog -10 1026 92 3000 5.14 50 08:46 18.11.2022
1002 Mist -10 1025 92 4000 3.6 40 07:51 18.11.2022
1003 Clouds -11 1024 92 3600 2.57 40 05:19 18.11.2022
1004 Clouds -7 1023 93 10000 2.06 360 00:51 18.11.2022
1005 Clouds -5 1022 93 10000 1.03 0 22:20 17.11.2022
1006 Clouds -5 1022 100 9000 1.54 290 20:46 17.11.2022
1007 Clouds -5 1021 100 7000 2.06 310 19:51 17.11.2022
1008 Mist -5 1021 100 3400 1.03 0 18:47 17.11.2022
1009 Clouds -5 1021 93 6000 1.54 250 17:33 17.11.2022
1010 Clouds -5 1021 93 6000 1.54 230 16:53 17.11.2022
1011 Mist -6 1021 93 4100 1.03 0 14:40 17.11.2022
1012 Fog -7 1020 93 300 3.09 210 11:22 17.11.2022
1013 Fog -7 1020 93 300 3.09 210 11:22 17.11.2022
1014 Fog -10 1020 92 600 1.54 210 08:32 17.11.2022
1015 Clouds -11 1019 92 4500 1.54 200 05:30 17.11.2022
1016 Clouds -10 1019 85 10000 0.51 0 00:21 17.11.2022
1017 Clear -10 1019 92 10000 1.03 0 22:30 16.11.2022
1018 Clear -7 1019 93 10000 2.06 220 20:36 16.11.2022
1019 Clouds -6 1019 93 10000 1.54 220 19:53 16.11.2022
1020 Clouds -8 1020 92 10000 1.54 260 18:43 16.11.2022
1021 Clouds -9 1019 92 10000 1.03 0 17:20 16.11.2022
1022 Clear -7 1020 93 10000 1.03 0 13:59 16.11.2022
1023 Clear -6 1020 93 10000 1.54 60 09:48 16.11.2022
1024 Clear -6 1020 93 10000 1.03 0 05:27 16.11.2022
1025 Clear -5 1021 93 10000 4.63 340 01:25 16.11.2022
1026 Clear -5 1021 93 10000 5.14 320 22:27 15.11.2022
1027 Clear -5 1022 100 10000 3.6 310 20:45 15.11.2022
1028 Clear -4 1022 93 10000 3.09 320 19:34 15.11.2022
1029 Clear -4 1022 100 10000 3.6 310 18:26 15.11.2022
1030 Clear -3 1022 93 10000 3.6 330 17:21 15.11.2022
1031 Clear -3 1022 93 10000 3.6 330 16:19 15.11.2022
1032 Clear -3 1022 100 10000 4.12 340 14:44 15.11.2022
1033 Clouds -3 1023 100 10000 3.6 320 12:59 15.11.2022
1034 Clear -2 1023 100 10000 3.6 330 11:43 15.11.2022
1035 Fog -2 1023 100 10000 4.12 320 10:41 15.11.2022
1036 Clouds -2 1022 93 10000 3.6 340 06:57 15.11.2022
1037 Clear -5 1020 100 10000 2.06 330 00:34 15.11.2022
1038 Clouds -3 1020 93 3700 3.09 10 22:54 14.11.2022
1039 Clouds -2 1019 93 2700 2.06 10 21:18 14.11.2022
1040 Clouds -2 1019 100 1900 3.09 360 20:37 14.11.2022
1041 Fog -1 1019 93 1100 1.54 330 18:29 14.11.2022
1042 Fog 0 1019 100 1300 1.54 260 15:40 14.11.2022
1043 Fog 1 1020 100 400 3.09 250 11:50 14.11.2022
1044 Fog 1 1020 100 400 3.09 250 11:28 14.11.2022
1045 Fog 1 1020 100 400 3.09 250 11:28 14.11.2022
1046 Fog 1 1020 100 400 3.09 250 11:28 14.11.2022
1047 Fog 1 1021 100 400 4.12 240 08:48 14.11.2022
1048 Fog 1 1021 100 400 4.12 240 08:48 14.11.2022
1049 Fog 1 1021 100 400 4.12 240 08:48 14.11.2022
1050 Drizzle 1 1021 100 400 3.6 220 07:53 14.11.2022
1051 Clouds 1 1022 100 650 2.06 230 05:59 14.11.2022
1052 Fog 0 1025 100 500 3.09 210 23:51 13.11.2022
1053 Snow 0 1025 100 3400 3.6 200 21:46 13.11.2022
1054 Fog 0 1025 100 900 3.6 200 20:55 13.11.2022
1055 Fog 0 1026 100 700 2.06 190 19:24 13.11.2022
1056 Fog 0 1026 100 1400 2.57 160 17:51 13.11.2022
1057 Fog 0 1026 100 1600 2.57 160 17:00 13.11.2022
1058 Fog 0 1026 100 550 1.54 170 14:54 13.11.2022
1059 Fog 0 1026 100 500 2.06 110 13:24 13.11.2022
1060 Fog 0 1025 100 450 2.57 90 12:34 13.11.2022
1061 Fog 0 1025 100 450 2.57 90 12:34 13.11.2022
1062 Fog 0 1025 100 450 2.57 90 12:34 13.11.2022
1063 Fog 0 1025 100 450 2.57 90 12:34 13.11.2022
1064 Fog 0 1025 100 450 2.57 90 12:34 13.11.2022
1065 Fog 2 1024 100 500 1.54 30 10:48 13.11.2022
1066 Fog 1 1021 100 1700 3.6 340 06:31 13.11.2022
1067 Mist 2 1015 100 4100 4.63 330 00:34 13.11.2022
1068 Clouds 2 1011 100 7000 5.66 340 21:59 12.11.2022
1069 Clouds 2 1009 100 10000 4.63 330 21:23 12.11.2022
1070 Clouds 2 1007 93 10000 6.17 330 19:53 12.11.2022
1071 Clouds 1 1002 100 6000 6.17 330 17:53 12.11.2022
1072 Clouds 2 998 100 5000 6.17 310 16:21 12.11.2022
1073 Clouds 4 996 81 5000 6.69 310 14:50 12.11.2022
1074 Rain 5 990 93 10000 3.6 280 11:23 12.11.2022
1075 Clear 4 987 93 10000 3.09 240 08:28 12.11.2022
1076 Rain 3 989 100 10000 7.2 230 00:41 12.11.2022
1077 Clouds 2 990 100 10000 4.63 230 21:43 11.11.2022
1078 Fog 2 990 100 700 4.12 230 20:45 11.11.2022
1079 Fog 2 990 100 400 3.09 220 19:30 11.11.2022
1080 Fog 2 989 100 1000 5.66 240 18:42 11.11.2022
1081 Clear 2 989 93 10000 4.12 240 17:41 11.11.2022
1082 Clouds 3 988 87 10000 6.69 260 15:30 11.11.2022
1083 Rain 3 986 93 10000 8.23 260 14:20 11.11.2022
1084 Rain 4 984 93 4000 5.66 250 12:46 11.11.2022
1085 Rain 3 985 93 3000 5.66 150 09:36 11.11.2022
1086 Rain 2 987 100 2000 6.17 130 08:27 11.11.2022
1087 Rain 2 987 100 2000 6.17 130 08:27 11.11.2022
1088 Fog -2 998 100 1400 5.14 120 03:48 11.11.2022
1089 Clouds -1 1002 100 10000 2.06 180 22:54 10.11.2022
1090 Clouds 0 1004 93 10000 2.57 230 21:51 10.11.2022
1091 Clouds 0 1004 93 10000 2.57 230 21:30 10.11.2022
1092 Fog 0 1003 100 1200 2.06 180 20:47 10.11.2022
1093 Fog 0 1003 100 800 1.54 170 20:20 10.11.2022
1094 Clouds 0 1003 100 5000 1.54 180 18:59 10.11.2022
1095 Clouds 0 1004 100 10000 1.54 210 17:59 10.11.2022
1096 Clouds 0 1003 100 10000 1.03 110 16:25 10.11.2022
1097 Clouds 0 1003 93 10000 1.54 90 13:40 10.11.2022
1098 Clouds 0 1003 93 10000 2.57 120 11:28 10.11.2022
1099 Mist -1 1002 100 5000 2.06 110 08:21 10.11.2022
1100 Clouds -1 1003 93 10000 3.6 90 01:25 10.11.2022
1101 Clouds -1 1004 93 10000 3.09 70 23:21 09.11.2022
1102 Clouds -2 1004 100 6000 3.09 70 21:57 09.11.2022
1103 Snow -2 1004 100 6000 3.6 70 20:47 09.11.2022
1104 Snow -2 1004 100 6000 3.6 70 20:28 09.11.2022
1105 Snow -2 1004 100 5000 4.12 50 19:29 09.11.2022
1106 Snow -2 1005 100 6000 4.63 50 18:30 09.11.2022
1107 Snow -2 1005 100 2800 4.63 60 15:45 09.11.2022
1108 Snow -2 1006 100 10000 4.63 60 14:41 09.11.2022
1109 Clouds -2 1006 100 10000 4.63 60 14:22 09.11.2022
1110 Clouds -2 1006 100 10000 5.14 60 12:57 09.11.2022
1111 Clouds -2 1006 93 10000 4.63 40 09:45 09.11.2022
1112 Snow -3 1006 100 3000 3.6 30 07:47 09.11.2022
1113 Snow -3 1006 100 3000 2.57 20 06:55 09.11.2022
1114 Clouds -5 1006 100 10000 4.63 40 22:50 08.11.2022
1115 Mist -5 1006 93 4200 4.12 70 21:43 08.11.2022
1116 Clouds -5 1005 93 6000 4.12 60 21:21 08.11.2022
1117 Clouds -5 1005 93 10000 6.17 60 20:39 08.11.2022
1118 Clouds -4 1005 93 10000 5.66 50 19:35 08.11.2022
1119 Clouds -4 1005 93 10000 5.66 50 19:35 08.11.2022
1120 Snow -4 1004 100 10000 3.6 30 17:38 08.11.2022
1121 Clouds -3 1003 100 10000 4.63 60 16:19 08.11.2022
1122 Clouds -2 1003 93 10000 4.12 40 14:52 08.11.2022
1123 Clouds -2 1003 100 10000 4.63 50 13:35 08.11.2022
1124 Snow -2 1002 100 10000 3.6 50 11:55 08.11.2022
1125 Clouds -3 1001 93 10000 3.09 40 08:25 08.11.2022
1126 Clouds -4 1000 100 4000 3.6 40 06:29 08.11.2022
1127 Fog -3 999 100 550 2.06 200 23:52 07.11.2022
1128 Fog -3 999 100 600 2.57 200 22:23 07.11.2022
1129 Fog -3 1000 100 550 2.57 220 21:20 07.11.2022
1130 Fog -2 999 93 550 3.09 230 19:59 07.11.2022
1131 Fog -2 999 93 800 2.06 250 17:44 07.11.2022
1132 Fog -2 1000 100 1600 2.57 250 16:26 07.11.2022
1133 Fog -2 1000 100 1000 3.09 230 15:33 07.11.2022
1134 Fog -1 1000 100 700 2.57 250 13:54 07.11.2022
1135 Clouds 0 1000 93 10000 2.06 290 12:32 07.11.2022
1136 Fog 0 999 100 700 2.06 310 10:46 07.11.2022
1137 Snow 0 999 100 10000 1.54 290 09:22 07.11.2022
1138 Clouds 0 999 100 10000 1.54 290 07:21 07.11.2022
1139 Clear -1 999 100 10000 0.51 0 02:28 07.11.2022
1140 Clouds 0 999 100 750 1.03 100 00:36 07.11.2022
1141 Rain 0 1000 100 800 1.54 130 21:52 06.11.2022
1142 Snow 0 1000 100 1000 2.06 120 21:18 06.11.2022
1143 Snow 0 1000 100 1600 2.06 140 19:58 06.11.2022
1144 Snow 0 1000 100 1800 1.54 150 19:28 06.11.2022
1145 Clouds 0 1001 100 10000 2.06 170 18:21 06.11.2022
1146 Clouds 0 1001 100 7000 2.06 170 17:46 06.11.2022
1147 Snow 0 1001 100 10000 1.54 150 17:19 06.11.2022
1148 Snow 0 1001 100 8000 2.57 160 16:20 06.11.2022
1149 Fog 0 1002 100 800 2.57 170 15:26 06.11.2022
1150 Clouds -1 1003 100 10000 2.57 150 12:47 06.11.2022
1151 Clouds -1 1003 100 6000 2.57 130 11:40 06.11.2022
1152 Clouds -1 1004 93 10000 2.06 140 10:33 06.11.2022
1153 Clouds -1 1005 93 10000 3.6 140 07:44 06.11.2022
1154 Clouds 1 1011 93 10000 4.12 180 23:25 05.11.2022
1155 Clouds 2 1011 93 10000 4.63 180 22:29 05.11.2022
1156 Clouds 3 1012 93 10000 3.6 190 18:42 05.11.2022
1157 Clouds 4 1013 87 10000 4.63 190 16:40 05.11.2022
1158 Clouds 4 1013 93 10000 4.12 200 14:43 05.11.2022
1159 Clouds 4 1014 93 10000 5.66 190 13:40 05.11.2022
1160 Clouds 4 1014 100 7000 6.17 200 11:51 05.11.2022
1161 Clouds 5 1014 93 10000 5.14 200 08:59 05.11.2022
1162 Clouds 5 1014 93 10000 8.23 220 07:23 05.11.2022
1163 Clouds 5 1014 93 10000 8.23 220 06:54 05.11.2022
1164 Clouds 6 1013 100 10000 6.69 220 00:37 05.11.2022
1165 Clouds 6 1013 100 10000 7.2 210 23:27 04.11.2022
1166 Clouds 6 1013 100 9000 6.17 220 20:44 04.11.2022
1167 Clouds 6 1013 100 10000 6.69 210 19:31 04.11.2022
1168 Clouds 6 1013 100 5000 7.2 210 17:39 04.11.2022
1169 Clouds 6 1012 100 2500 6.17 190 14:25 04.11.2022
1170 Drizzle 6 1013 100 1500 6.17 200 12:28 04.11.2022
1171 Drizzle 6 1012 100 2500 5.66 200 11:57 04.11.2022
1172 Drizzle 5 1012 100 2000 5.66 190 09:25 04.11.2022
1173 Drizzle 5 1012 100 700 6.69 190 08:19 04.11.2022
1174 Fog 5 1012 100 6000 6.17 190 05:51 04.11.2022
1175 Fog 3 1012 100 1700 3.6 160 00:39 04.11.2022
1176 Clouds 2 1013 100 800 3.6 160 21:18 03.11.2022
1177 Fog 2 1013 100 800 3.6 160 20:44 03.11.2022
1178 Fog 2 1013 100 750 3.6 150 19:41 03.11.2022
1179 Clouds 2 1013 100 900 3.6 130 18:18 03.11.2022
1180 Fog 2 1013 100 1000 3.6 140 16:54 03.11.2022
1181 Clouds 1 1014 100 700 3.6 140 14:56 03.11.2022
1182 Drizzle 1 1014 100 400 4.12 140 13:23 03.11.2022
1183 Drizzle 1 1014 100 300 3.6 130 12:30 03.11.2022
1184 Fog 1 1015 100 600 3.6 140 10:21 03.11.2022
1185 Fog 1 1014 100 500 3.09 160 07:43 03.11.2022
1186 Fog -2 1014 100 1000 2.57 160 21:37 02.11.2022
1187 Fog -2 1014 100 800 2.57 160 20:44 02.11.2022
1188 Fog -2 1014 100 900 2.57 170 19:59 02.11.2022
1189 Fog -2 1013 100 1000 2.06 130 17:29 02.11.2022
1190 Fog -1 1013 100 550 2.57 130 16:19 02.11.2022
1191 Fog -1 1013 100 450 2.06 140 14:53 02.11.2022
1192 Fog -1 1013 100 300 2.06 140 12:45 02.11.2022
1193 Clouds -2 1013 100 10000 2.57 120 11:50 02.11.2022
1194 Clouds -4 1013 100 10000 3.6 120 09:22 02.11.2022
1195 Clouds -3 1013 93 1600 3.6 110 05:35 02.11.2022
1196 Fog -2 1014 100 650 1.54 150 00:27 02.11.2022
1197 Fog -2 1013 100 550 2.06 120 22:19 01.11.2022
1198 Fog -2 1013 100 450 1.54 170 21:38 01.11.2022
1199 Fog -1 1013 100 400 1.54 150 20:26 01.11.2022
1200 Fog -1 1013 100 450 1.54 140 19:43 01.11.2022
1201 Fog -1 1013 100 450 2.06 120 18:53 01.11.2022
1202 Fog -1 1013 100 450 1.03 0 17:31 01.11.2022
1203 Fog -1 1012 100 500 1.03 0 16:20 01.11.2022
1204 Fog 0 1012 100 300 0.51 0 14:22 01.11.2022
1205 Fog 1 1011 100 100 0.51 0 12:27 01.11.2022
1206 Fog 1 1011 100 100 1.03 0 11:24 01.11.2022
1207 Fog 1 1011 100 400 2.06 320 10:23 01.11.2022
1208 Fog 0 1010 100 400 1.03 0 08:42 01.11.2022
1209 Fog 1 1010 100 1400 2.06 290 07:29 01.11.2022
1210 Fog 1 1009 100 6000 1.03 50 06:47 01.11.2022
1211 Clouds 1 1009 100 8000 2.06 60 05:56 01.11.2022
1212 Fog 1 1008 100 1000 1.54 80 03:37 01.11.2022
1213 Fog 1 1008 100 550 3.09 100 21:55 31.10.2022
1214 Fog 1 1009 100 650 2.57 160 20:40 31.10.2022
1215 Fog 1 1009 100 1300 5.14 150 18:54 31.10.2022
1216 Fog 1 1009 100 600 4.12 140 17:48 31.10.2022
1217 Fog 1 1009 100 650 3.6 130 16:42 31.10.2022
1218 Fog 1 1010 100 300 3.09 150 13:24 31.10.2022
1219 Fog -1 1011 93 500 2.06 200 10:20 31.10.2022
1220 Fog -2 1011 100 10000 1.03 230 08:37 31.10.2022
1221 Clear -2 1010 100 10000 3.09 260 04:49 31.10.2022
1222 Clouds -2 1011 93 10000 2.57 230 02:20 31.10.2022
1223 Clouds -2 1010 86 10000 2.06 260 23:18 30.10.2022
1224 Clouds -1 1009 80 10000 2.06 290 20:49 30.10.2022
1225 Clouds -1 1009 74 10000 2.06 270 20:21 30.10.2022
1226 Clouds -1 1008 74 10000 1.03 310 18:20 30.10.2022
1227 Clear -1 1007 74 10000 1.54 320 15:59 30.10.2022
1228 Clear 1 1005 64 10000 3.09 300 13:52 30.10.2022
1229 Clear 1 1004 64 10000 4.63 310 12:52 30.10.2022
1230 Clear 0 1003 69 10000 4.63 310 11:24 30.10.2022
1231 Clear -1 1002 74 10000 4.12 330 09:37 30.10.2022
1232 Clear -2 1001 80 10000 4.63 310 08:25 30.10.2022
1233 Clear 0 992 69 10000 7.2 310 00:50 30.10.2022
1234 Clear 0 992 69 10000 7.2 310 00:27 30.10.2022
1235 Clouds 0 991 74 10000 6.69 320 23:44 29.10.2022
1236 Clouds 2 987 86 10000 6.69 320 20:54 29.10.2022
1237 Clouds 2 981 93 10000 6.69 320 17:47 29.10.2022
1238 Rain 3 979 100 10000 5.66 320 16:22 29.10.2022
1239 Rain 4 978 100 10000 6.69 320 15:37 29.10.2022
1240 Rain 5 977 100 1300 3.09 30 14:47 29.10.2022
1241 Rain 5 980 100 6000 2.57 150 12:34 29.10.2022
1242 Rain 5 985 100 3900 6.17 170 10:40 29.10.2022
1243 Clouds 5 990 100 1000 5.14 200 07:37 29.10.2022
1244 Fog 4 992 100 450 4.63 190 05:56 29.10.2022
1245 Clouds 4 994 100 500 4.12 190 03:54 29.10.2022
1246 Fog 4 998 100 400 2.57 220 22:33 28.10.2022
1247 Clouds 5 999 100 400 2.57 240 20:46 28.10.2022
1248 Fog 5 999 100 350 3.6 220 18:58 28.10.2022
1249 Fog 5 999 100 500 4.12 220 18:31 28.10.2022
1250 Fog 4 1000 100 250 4.12 190 15:30 28.10.2022
1251 Fog 4 1000 100 250 4.12 190 15:30 28.10.2022
1252 Fog 4 1000 100 350 4.63 190 14:43 28.10.2022
1253 Fog 3 1001 100 300 4.63 180 12:31 28.10.2022
1254 Fog 2 1002 100 400 5.14 160 11:34 28.10.2022
1255 Fog 2 1003 100 500 4.63 150 10:47 28.10.2022
1256 Snow 1 1003 100 500 4.63 160 09:47 28.10.2022
1257 Fog 1 1004 100 600 4.63 170 08:21 28.10.2022
1258 Clouds 0 1007 93 6000 5.14 120 03:43 28.10.2022
1259 Clouds -2 1010 100 10000 4.12 100 23:49 27.10.2022
1260 Mist -2 1010 100 3700 3.09 100 22:40 27.10.2022
1261 Clouds -2 1011 100 2300 3.6 110 21:35 27.10.2022
1262 Fog -2 1011 93 1400 3.6 110 20:27 27.10.2022
1263 Clouds -2 1011 100 1200 3.09 90 18:22 27.10.2022
1264 Fog -1 1012 93 300 2.06 140 13:58 27.10.2022
1265 Fog -2 1011 100 2000 1.03 0 09:20 27.10.2022
1266 Clouds -2 1010 93 10000 0.51 0 06:21 27.10.2022
1267 Clouds 0 1008 93 7000 1.54 310 23:55 26.10.2022
1268 Clouds 0 1008 100 10000 1.54 310 22:47 26.10.2022
1269 Clouds 0 1008 100 10000 2.57 320 22:22 26.10.2022
1270 Clouds 0 1006 100 5000 3.09 330 19:34 26.10.2022
1271 Fog 1 1005 100 650 1.54 340 16:35 26.10.2022
1272 Clouds 1 1004 100 2200 1.03 0 14:36 26.10.2022
1273 Clouds 0 1004 100 2500 2.06 130 12:37 26.10.2022
1274 Snow -1 1005 93 1000 3.6 120 09:41 26.10.2022
1275 Snow -1 1005 93 1500 4.12 120 08:53 26.10.2022
1276 Snow -2 1006 100 2500 3.6 110 08:22 26.10.2022
1277 Clear -2 1009 93 10000 3.6 160 00:45 26.10.2022
1278 Clouds -1 1009 86 10000 3.09 160 00:20 26.10.2022
1279 Clouds -1 1010 93 10000 4.12 160 21:47 25.10.2022
1280 Clouds -1 1010 100 10000 4.12 160 20:53 25.10.2022
1281 Clouds 0 1011 93 10000 4.12 160 19:19 25.10.2022
1282 Clouds 0 1011 93 10000 3.6 160 17:51 25.10.2022
1283 Clouds -1 1012 100 10000 3.6 140 13:57 25.10.2022
1284 Clouds -3 1013 100 10000 3.09 140 11:38 25.10.2022
1285 Clouds -3 1013 93 10000 3.09 120 10:37 25.10.2022
1286 Fog -4 1013 93 1500 2.06 110 09:33 25.10.2022
1287 Fog -6 1013 93 5000 3.09 90 08:18 25.10.2022
1288 Fog -6 1013 93 5000 3.09 90 07:54 25.10.2022
1289 Clear -6 1013 93 10000 2.57 110 06:55 25.10.2022
1290 Clouds -6 1013 93 10000 1.54 180 03:41 25.10.2022
1291 Clear -3 1013 93 10000 1.03 210 00:34 25.10.2022
1292 Clear -5 1013 93 10000 1.03 240 23:28 24.10.2022
1293 Clear -3 1013 93 10000 2.06 210 22:24 24.10.2022
1294 Clear -4 1013 100 10000 0.51 220 21:32 24.10.2022
1295 Clouds -3 1013 93 10000 1.03 210 20:41 24.10.2022
1296 Clear -2 1013 86 10000 0.51 0 18:52 24.10.2022
1297 Clear -2 1013 80 10000 0.51 0 17:35 24.10.2022
1298 Clear -1 1013 80 10000 1.03 290 16:32 24.10.2022
1299 Clear 1 1013 74 10000 1.54 230 14:22 24.10.2022
1300 Clear 0 1012 74 10000 1.03 0 13:26 24.10.2022
1301 Clear 0 1012 74 10000 2.06 290 10:40 24.10.2022
1302 Clear -1 1010 80 10000 4.63 330 07:56 24.10.2022
1303 Clear 1 1005 69 10000 6.17 320 23:46 23.10.2022
1304 Clear 2 1002 60 10000 5.66 310 20:42 23.10.2022
1305 Clear 2 1001 60 10000 5.14 310 19:34 23.10.2022
1306 Clouds 3 1000 51 10000 6.69 300 17:30 23.10.2022
1307 Clouds 3 1000 51 10000 7.72 310 16:41 23.10.2022
1308 Clear 4 998 48 10000 7.72 290 15:19 23.10.2022
1309 Clear 3 997 55 10000 7.2 290 12:31 23.10.2022
1310 Clear 3 997 55 10000 6.17 280 10:58 23.10.2022
1311 Clear 0 995 74 10000 5.66 260 06:56 23.10.2022
1312 Clear 0 995 93 10000 2.57 250 23:35 22.10.2022
1313 Clear 0 995 100 10000 4.12 240 22:30 22.10.2022
1314 Clear 0 995 100 10000 3.6 240 21:41 22.10.2022
1315 Clouds 1 995 93 10000 3.6 240 20:29 22.10.2022
1316 Clouds 2 995 93 10000 5.14 240 19:31 22.10.2022
1317 Rain 3 995 87 10000 7.72 220 18:23 22.10.2022
1318 Rain 4 996 81 10000 7.72 230 16:50 22.10.2022
1319 Clouds 5 997 87 10000 6.69 220 15:21 22.10.2022
1320 Clouds 5 998 87 10000 8.75 220 14:31 22.10.2022
1321 Clouds 4 1002 93 10000 8.75 220 11:40 22.10.2022
1322 Clouds 3 1003 100 10000 9.26 220 09:46 22.10.2022
1323 Clouds 3 1004 100 10000 6.17 220 08:37 22.10.2022
1324 Fog 2 1006 100 1700 3.6 180 06:27 22.10.2022
1325 Clouds 0 1011 100 8000 1.54 180 01:25 22.10.2022
1326 Clouds 1 1013 74 10000 3.6 170 22:53 21.10.2022
1327 Clear 1 1014 64 10000 4.12 180 21:34 21.10.2022
1328 Clear 1 1014 64 10000 3.6 180 20:39 21.10.2022
1329 Clear 0 1016 80 10000 3.09 150 18:28 21.10.2022
1330 Clear 1 1017 74 10000 3.09 110 14:47 21.10.2022
1331 Clear 1 1017 69 10000 1.54 130 13:40 21.10.2022
1332 Clear 0 1018 74 10000 2.06 120 11:47 21.10.2022
1333 Clear -1 1018 80 10000 2.06 110 10:24 21.10.2022
1334 Clear -1 1018 80 10000 2.06 80 08:45 21.10.2022
1335 Clear -2 1018 86 10000 2.06 90 08:20 21.10.2022
1336 Clear -1 1018 80 10000 2.57 60 04:30 21.10.2022
1337 Clear 2 1016 80 10000 3.09 50 23:23 20.10.2022
1338 Clear 3 1016 80 10000 1.54 360 20:57 20.10.2022
1339 Clear 4 1015 75 10000 2.06 330 19:43 20.10.2022
1340 Clear 4 1015 75 10000 1.54 310 18:34 20.10.2022
1341 Clear 3 1015 80 10000 0.51 0 17:38 20.10.2022
1342 Clear 5 1014 70 10000 2.06 280 14:38 20.10.2022
1343 Clear 4 1014 81 10000 2.57 270 12:32 20.10.2022
1344 Clouds 3 1014 87 10000 1.54 260 11:29 20.10.2022
1345 Clouds 1 1014 93 10000 1.54 230 10:51 20.10.2022
1346 Clouds 1 1014 93 10000 1.03 0 09:22 20.10.2022
1347 Clear 0 1013 93 10000 1.54 260 06:24 20.10.2022
1348 Clear 2 1010 93 10000 2.57 330 02:22 20.10.2022
1349 Clear 3 1008 87 10000 3.6 330 23:39 19.10.2022
1350 Clear 2 1008 86 10000 2.57 280 22:23 19.10.2022
1351 Clear 2 1007 86 10000 2.06 270 21:20 19.10.2022
1352 Clear 1 1007 93 10000 2.57 240 19:55 19.10.2022
1353 Clear 2 1007 86 10000 3.6 240 17:47 19.10.2022
1354 Clear 2 1007 93 10000 4.63 230 16:24 19.10.2022
1355 Clouds 2 1009 86 10000 3.6 210 14:20 19.10.2022
1356 Clear 0 1010 93 10000 3.6 230 11:42 19.10.2022
1357 Clear -2 1011 93 10000 3.09 230 08:47 19.10.2022
1358 Fog -3 1014 100 10000 2.06 230 07:23 19.10.2022
1359 Clear 0 1012 86 10000 4.12 320 01:33 19.10.2022
1360 Clear 0 1011 93 10000 4.63 330 23:22 18.10.2022
1361 Clouds 1 1010 86 10000 3.6 340 21:49 18.10.2022
1362 Clouds 1 1010 86 10000 3.6 340 21:49 18.10.2022
1363 Clear 1 1010 86 10000 4.63 340 21:19 18.10.2022
1364 Clear 2 1009 80 10000 3.6 330 20:26 18.10.2022
1365 Clouds 1 1009 86 10000 2.06 320 18:55 18.10.2022
1366 Clear 2 1008 80 10000 3.6 320 16:56 18.10.2022
1367 Clear 3 1007 75 10000 2.57 320 14:59 18.10.2022
1368 Clear 2 1007 80 10000 3.6 320 13:38 18.10.2022
1369 Clear 2 1006 80 10000 3.09 340 11:39 18.10.2022
1370 Clear 1 1006 93 10000 3.6 310 10:24 18.10.2022
1371 Clear 1 1005 86 10000 1.54 280 08:40 18.10.2022
1372 Clear 1 1005 86 10000 2.57 310 05:45 18.10.2022
1373 Clear 3 1005 93 10000 2.06 270 22:56 17.10.2022
1374 Clear 3 1005 93 10000 2.06 250 21:21 17.10.2022
1375 Clear 3 1004 93 10000 2.06 250 20:43 17.10.2022
1376 Clear 3 1004 93 10000 2.57 240 20:20 17.10.2022
1377 Clear 3 1004 93 10000 2.57 240 19:34 17.10.2022
1378 Clear 4 1003 93 10000 2.57 240 17:37 17.10.2022
1379 Clear 6 1002 87 10000 3.6 250 15:54 17.10.2022
1380 Clear 7 1002 75 10000 5.66 260 14:35 17.10.2022
1381 Clouds 5 1000 87 10000 4.12 250 12:25 17.10.2022
1382 Clouds 3 996 100 10000 3.6 240 06:42 17.10.2022
1383 Clouds 8 994 93 10000 7.72 220 00:24 17.10.2022
1384 Clouds 8 995 93 10000 5.66 190 22:25 16.10.2022
1385 Clouds 9 995 93 10000 6.17 180 20:59 16.10.2022
1386 Clouds 9 996 93 10000 6.69 200 19:50 16.10.2022
1387 Rain 10 996 93 10000 6.17 200 18:35 16.10.2022
1388 Rain 10 997 93 10000 4.12 140 17:41 16.10.2022
1389 Rain 10 998 100 10000 4.63 130 15:58 16.10.2022
1390 Clouds 9 1000 93 10000 3.09 90 14:45 16.10.2022
1391 Clouds 9 1002 87 10000 4.12 190 12:23 16.10.2022
1392 Clouds 8 1003 87 10000 6.17 220 10:28 16.10.2022
1393 Clouds 8 1003 93 10000 5.14 220 09:26 16.10.2022
1394 Rain 10 1002 100 10000 6.17 180 02:37 16.10.2022
1395 Rain 9 1004 100 10000 5.66 130 23:41 15.10.2022
1396 Clouds 9 1005 100 10000 4.63 150 21:29 15.10.2022
1397 Clouds 9 1006 93 10000 4.12 140 20:57 15.10.2022
1398 Clouds 9 1006 93 10000 3.6 140 18:54 15.10.2022
1399 Clouds 8 1008 100 10000 3.6 160 15:50 15.10.2022
1400 Clouds 8 1008 100 10000 3.6 160 15:31 15.10.2022
1401 Rain 8 1008 100 10000 4.12 150 11:59 15.10.2022
1402 Rain 8 1008 100 10000 3.6 140 11:24 15.10.2022
1403 Clouds 8 1008 100 10000 3.6 170 08:56 15.10.2022
1404 Clouds 6 1008 100 700 4.12 110 03:53 15.10.2022
1405 Clouds 5 1008 100 10000 2.06 200 00:39 15.10.2022
1406 Clouds 5 1008 100 10000 2.57 200 22:24 14.10.2022
1407 Fog 5 1008 100 350 0.51 0 21:37 14.10.2022
1408 Fog 5 1008 100 350 1.54 230 20:26 14.10.2022
1409 Clouds 6 1008 100 10000 2.57 230 17:18 14.10.2022
1410 Clouds 7 1008 93 10000 2.06 240 14:25 14.10.2022
1411 Fog 6 1007 100 8000 1.03 0 12:44 14.10.2022
1412 Rain 5 1007 100 10000 1.54 210 10:21 14.10.2022
1413 Rain 5 1007 100 1500 2.57 250 07:57 14.10.2022
1414 Fog 5 1007 100 500 2.06 250 06:18 14.10.2022
1415 Fog 5 1007 100 400 2.06 230 05:49 14.10.2022
1416 Rain 5 1007 100 400 2.06 230 05:31 14.10.2022
1417 Fog 5 1007 100 350 2.06 160 00:53 14.10.2022
1418 Clouds 5 1007 100 10000 2.57 220 22:32 13.10.2022
1419 Clouds 5 1006 100 10000 4.63 230 21:29 13.10.2022
1420 Clouds 6 1006 100 10000 5.14 220 20:19 13.10.2022
1421 Clouds 7 1006 93 10000 5.66 210 19:38 13.10.2022
1422 Clouds 7 1006 100 10000 3.6 190 18:43 13.10.2022
1423 Clouds 6 1006 100 9000 4.12 190 17:24 13.10.2022
1424 Rain 6 1006 100 10000 5.14 180 15:48 13.10.2022
1425 Rain 5 1007 100 5000 5.14 180 14:25 13.10.2022
1426 Clouds 6 1007 100 10000 6.69 200 12:50 13.10.2022
1427 Clouds 7 1007 93 10000 6.69 200 11:37 13.10.2022
1428 Drizzle 5 1008 100 600 5.14 200 09:46 13.10.2022
1429 Fog 4 1008 100 350 5.66 200 08:32 13.10.2022
1430 Fog 3 1008 100 1200 5.66 200 07:35 13.10.2022
1431 Clear 1 1009 93 10000 3.6 210 01:53 13.10.2022
1432 Clear 1 1009 93 10000 2.57 230 00:57 13.10.2022
1433 Clear 2 1009 86 10000 3.6 230 22:47 12.10.2022
1434 Clear 2 1009 86 10000 3.6 230 22:28 12.10.2022
1435 Clear 2 1009 86 10000 3.6 220 21:22 12.10.2022
1436 Clear 3 1009 87 10000 3.09 230 20:52 12.10.2022
1437 Clear 3 1008 93 10000 4.12 220 19:38 12.10.2022
1438 Clear 3 1008 93 10000 4.12 220 18:26 12.10.2022
1439 Clear 5 1007 81 10000 4.12 220 17:47 12.10.2022
1440 Clear 5 1007 81 10000 4.12 220 17:47 12.10.2022
1441 Clear 6 1006 70 10000 5.66 230 15:45 12.10.2022
1442 Clear 7 1005 70 10000 4.63 240 13:57 12.10.2022
1443 Clear 6 1005 75 10000 4.63 230 13:22 12.10.2022
1444 Clouds 3 1002 93 10000 3.6 240 09:41 12.10.2022
1445 Clear 2 1001 100 10000 3.09 240 07:58 12.10.2022
1446 Clear 2 1001 100 10000 3.09 220 07:38 12.10.2022
1447 Clouds 2 1000 93 10000 1.54 220 06:43 12.10.2022
1448 Clouds 6 996 100 10000 4.12 230 00:58 12.10.2022
1449 Clouds 6 996 100 10000 2.57 220 22:18 11.10.2022
1450 Rain 6 996 100 10000 0.51 0 20:39 11.10.2022
1451 Rain 8 996 93 10000 4.12 170 18:46 11.10.2022
1452 Rain 8 997 100 8000 4.12 160 16:38 11.10.2022
1453 Rain 8 998 93 7000 4.63 160 14:35 11.10.2022
1454 Clouds 8 999 93 10000 6.17 180 12:44 11.10.2022
1455 Rain 8 1000 93 10000 6.69 180 10:29 11.10.2022
1456 Clouds 8 1000 93 10000 6.69 180 09:30 11.10.2022
1457 Clouds 8 1000 93 10000 6.69 180 09:30 11.10.2022
1458 Clouds 8 1000 93 10000 6.69 180 09:30 11.10.2022
1459 Clouds 10 1000 81 10000 6.69 200 05:39 11.10.2022
1460 Clouds 9 1001 87 10000 7.2 200 02:22 11.10.2022
1461 Clouds 9 1002 87 10000 7.2 200 00:31 11.10.2022
1462 Clouds 9 1002 87 10000 8.23 200 21:35 10.10.2022
1463 Clouds 10 1002 81 10000 7.2 200 19:49 10.10.2022
1464 Clouds 9 1003 87 10000 7.72 200 18:30 10.10.2022
1465 Clouds 9 1003 93 10000 4.63 170 16:51 10.10.2022
1466 Clouds 9 1004 87 10000 5.66 190 15:24 10.10.2022
1467 Clouds 9 1005 93 10000 4.63 190 12:54 10.10.2022
1468 Clouds 7 1005 100 10000 5.14 190 11:56 10.10.2022
1469 Fog 4 1005 100 200 4.12 210 08:45 10.10.2022
1470 Mist 3 1004 100 4600 3.6 210 05:42 10.10.2022
1471 Clear 3 1004 93 10000 4.12 210 03:48 10.10.2022
1472 Clear 2 1004 86 10000 4.63 220 00:31 10.10.2022
1473 Clear 3 1004 80 10000 3.09 210 22:37 09.10.2022
1474 Clear 3 1004 80 10000 2.57 230 22:18 09.10.2022
1475 Clear 3 1003 80 10000 2.57 240 21:21 09.10.2022
1476 Clear 4 1003 81 10000 3.6 240 20:20 09.10.2022
1477 Clear 4 1003 81 10000 3.6 240 19:37 09.10.2022
1478 Clear 4 1002 87 10000 3.09 240 18:43 09.10.2022
1479 Clear 6 1001 75 10000 4.12 230 16:56 09.10.2022
1480 Clear 7 1001 65 10000 4.12 230 16:33 09.10.2022
1481 Clear 8 1001 61 10000 5.14 240 15:38 09.10.2022
1482 Clear 8 1000 61 10000 4.63 240 14:31 09.10.2022
1483 Clear 8 999 61 10000 4.12 240 13:23 09.10.2022
1484 Clear 8 999 61 10000 5.66 270 12:28 09.10.2022
1485 Clear 5 997 81 10000 3.09 230 10:48 09.10.2022
1486 Clear 2 996 93 10000 2.57 240 08:30 09.10.2022
1487 Clear 2 996 93 10000 2.57 240 08:30 09.10.2022
1488 Clear 2 996 93 10000 2.57 240 08:30 09.10.2022
1489 Clear 3 992 93 10000 3.09 230 03:38 09.10.2022
1490 Rain 4 991 93 10000 4.12 230 02:50 09.10.2022
1491 Clouds 4 990 93 10000 3.6 240 00:38 09.10.2022
1492 Clouds 5 990 87 10000 4.12 220 22:56 08.10.2022
1493 Clouds 6 989 87 10000 4.12 220 21:50 08.10.2022
1494 Clouds 7 989 81 10000 3.6 220 20:27 08.10.2022
1495 Clouds 7 988 87 10000 4.63 220 18:53 08.10.2022
1496 Clouds 9 987 76 10000 7.2 210 16:38 08.10.2022
1497 Clouds 10 987 71 10000 6.69 220 14:54 08.10.2022
1498 Clouds 9 987 81 10000 5.14 230 13:25 08.10.2022
1499 Clouds 8 987 93 10000 5.14 210 10:40 08.10.2022
1500 Clouds 8 987 93 10000 4.63 220 10:21 08.10.2022
1501 Clouds 8 987 93 10000 5.14 220 08:48 08.10.2022
1502 Clouds 8 988 100 10000 3.6 240 03:53 08.10.2022
1503 Clouds 7 990 100 10000 4.63 220 00:37 08.10.2022
1504 Clouds 7 990 100 5000 4.12 170 23:21 07.10.2022
1505 Clouds 7 991 100 5000 4.12 160 22:50 07.10.2022
1506 Rain 8 992 93 6000 5.14 190 21:29 07.10.2022
1507 Clouds 7 993 93 10000 5.66 190 19:42 07.10.2022
1508 Clear 8 994 81 10000 6.69 210 17:48 07.10.2022
1509 Clear 9 994 76 10000 6.69 210 16:41 07.10.2022
1510 Clouds 10 995 71 10000 7.2 210 14:59 07.10.2022
1511 Clouds 10 994 71 10000 7.72 220 13:23 07.10.2022
1512 Clear 8 992 81 10000 5.14 230 10:29 07.10.2022
1513 Clear 6 992 93 10000 5.66 230 09:24 07.10.2022
1514 Clear 4 991 100 10000 5.14 230 08:18 07.10.2022
1515 Clear 5 988 87 10000 5.66 240 01:54 07.10.2022
1516 Clear 7 986 81 10000 6.17 230 22:52 06.10.2022
1517 Clear 7 986 81 10000 5.66 230 21:48 06.10.2022
1518 Clear 7 986 81 10000 5.66 230 21:25 06.10.2022
1519 Clear 8 985 81 10000 5.66 230 20:36 06.10.2022
1520 Clear 8 985 81 10000 6.17 220 18:46 06.10.2022
1521 Clear 8 985 87 10000 6.17 210 18:19 06.10.2022
1522 Clear 11 984 76 10000 6.69 230 15:33 06.10.2022
1523 Clouds 10 983 87 10000 6.17 240 12:29 06.10.2022
1524 Rain 10 982 93 5000 7.72 150 08:20 06.10.2022
1525 Clouds 8 992 100 10000 5.14 140 03:39 06.10.2022
1526 Clouds 8 997 93 10000 5.14 150 00:39 06.10.2022
1527 Clouds 6 999 100 6000 4.63 120 21:52 05.10.2022
1528 Rain 6 1001 93 10000 5.14 110 19:31 05.10.2022
1529 Rain 6 1002 87 10000 5.66 100 17:36 05.10.2022
1530 Rain 6 1003 87 10000 4.63 120 16:22 05.10.2022
1531 Clouds 5 1004 87 10000 5.14 120 14:52 05.10.2022
1532 Clouds 4 1004 93 10000 5.14 110 14:19 05.10.2022
1533 Drizzle 4 1005 93 10000 3.6 120 12:26 05.10.2022
1534 Clouds 4 1005 93 10000 5.14 150 09:51 05.10.2022
1535 Clouds 5 1006 93 10000 3.09 140 07:57 05.10.2022
1536 Clouds 5 1007 93 10000 2.57 140 06:22 05.10.2022
1537 Clouds 5 1007 93 10000 3.6 170 04:35 05.10.2022
1538 Clouds 6 1008 93 10000 3.09 150 01:22 05.10.2022
1539 Clouds 6 1008 100 10000 3.09 160 00:27 05.10.2022
1540 Clouds 6 1009 93 10000 2.06 140 22:39 04.10.2022
1541 Clouds 6 1010 93 10000 2.06 70 20:40 04.10.2022
1542 Clouds 6 1010 93 10000 2.57 80 19:47 04.10.2022
1543 Clouds 6 1010 93 10000 2.06 70 18:39 04.10.2022
1544 Clouds 6 1011 93 10000 2.06 70 17:50 04.10.2022
1545 Clouds 7 1011 87 10000 1.03 0 16:41 04.10.2022
1546 Clouds 6 1011 93 10000 2.57 80 13:19 04.10.2022
1547 Clouds 7 1012 93 10000 2.57 40 09:52 04.10.2022
1548 Clouds 6 1012 100 10000 3.09 60 07:34 04.10.2022
1549 Fog 7 1013 100 500 1.54 130 02:32 04.10.2022
1550 Fog 7 1013 100 550 1.54 150 23:41 03.10.2022
1551 Clouds 8 1013 93 10000 1.03 80 21:55 03.10.2022
1552 Clouds 8 1013 93 10000 1.03 80 21:23 03.10.2022
1553 Clouds 8 1013 93 10000 1.03 90 20:28 03.10.2022
1554 Clouds 7 1013 100 10000 1.54 80 18:35 03.10.2022
1555 Clouds 8 1013 93 10000 1.03 0 17:26 03.10.2022
1556 Clouds 10 1012 81 10000 2.06 240 15:47 03.10.2022
1557 Clouds 10 1012 87 10000 1.54 260 14:21 03.10.2022
1558 Clouds 9 1011 87 10000 2.06 270 12:31 03.10.2022
1559 Clouds 8 1011 100 10000 2.06 240 10:40 03.10.2022
1560 Clouds 8 1010 93 10000 1.54 250 09:40 03.10.2022
1561 Clouds 7 1009 100 10000 2.06 250 07:27 03.10.2022
1562 Clouds 9 1008 100 6000 2.57 260 03:34 03.10.2022
1563 Clouds 9 1007 100 4000 5.14 210 22:39 02.10.2022
1564 Clouds 8 1006 100 5000 4.63 180 20:52 02.10.2022
1565 Rain 8 1006 100 10000 4.12 180 18:47 02.10.2022
1566 Clouds 8 1006 100 10000 3.09 170 17:53 02.10.2022
1567 Clouds 8 1006 100 5000 4.63 180 16:44 02.10.2022
1568 Mist 8 1006 100 3600 4.63 190 16:18 02.10.2022
1569 Fog 8 1006 100 500 3.6 190 14:52 02.10.2022
1570 Fog 7 1006 100 350 3.09 170 13:45 02.10.2022
1571 Fog 7 1006 100 550 2.57 160 12:30 02.10.2022
1572 Fog 6 1006 100 450 3.6 180 11:40 02.10.2022
1573 Fog 6 1006 100 300 3.09 170 11:19 02.10.2022
1574 Mist 5 1006 100 1100 3.09 150 09:28 02.10.2022
1575 Rain 4 1006 93 10000 3.09 120 07:41 02.10.2022
1576 Clear 3 1007 93 10000 4.12 130 02:55 02.10.2022
1577 Clear 3 1007 93 10000 3.09 150 00:50 02.10.2022
1578 Clear 3 1007 93 10000 3.09 140 00:22 02.10.2022
1579 Clear 4 1007 87 10000 2.57 160 22:53 01.10.2022
1580 Clear 4 1007 93 10000 3.09 150 20:53 01.10.2022
1581 Clouds 4 1008 93 10000 2.57 150 18:50 01.10.2022
1582 Clouds 5 1008 75 10000 1.03 170 16:36 01.10.2022
1583 Clouds 4 1008 81 10000 2.06 220 14:41 01.10.2022
1584 Clouds 5 1008 81 10000 3.09 220 13:32 01.10.2022
1585 Clouds 4 1008 87 10000 3.09 230 12:33 01.10.2022
1586 Clouds 4 1008 87 10000 4.12 210 11:21 01.10.2022
1587 Clear 4 1008 81 10000 2.57 250 10:32 01.10.2022
1588 Clouds 3 1008 93 10000 1.54 220 09:28 01.10.2022
1589 Clouds 3 1008 93 10000 2.06 230 08:58 01.10.2022
1590 Clouds 2 1008 100 9000 2.06 240 05:28 01.10.2022
1591 Clouds 2 1008 100 10000 1.03 210 03:32 01.10.2022
1592 Clouds 2 1008 100 10000 1.03 220 00:29 01.10.2022
1593 Clouds 3 1008 93 10000 1.54 190 22:48 30.09.2022
1594 Clouds 3 1008 93 10000 1.03 110 21:29 30.09.2022
1595 Clouds 3 1008 93 10000 1.03 100 20:44 30.09.2022
1596 Clouds 3 1008 93 10000 1.54 70 20:18 30.09.2022
1597 Clouds 3 1008 93 10000 1.54 80 17:38 30.09.2022
1598 Clouds 4 1008 87 10000 2.06 70 15:56 30.09.2022
1599 Clouds 4 1008 87 10000 3.09 80 13:30 30.09.2022
1600 Clouds 4 1008 81 10000 2.57 80 11:58 30.09.2022
1601 Clouds 3 1008 87 10000 2.57 70 10:40 30.09.2022
1602 Clouds 2 1008 86 10000 2.57 70 08:37 30.09.2022
1603 Clouds 1 1009 93 10000 3.6 60 06:26 30.09.2022
1604 Clear 1 1010 86 10000 4.12 70 02:39 30.09.2022
1605 Clear 3 1011 87 10000 5.14 70 22:40 29.09.2022
1606 Clear 4 1011 81 10000 5.14 70 21:28 29.09.2022
1607 Clear 4 1011 81 10000 5.66 70 20:57 29.09.2022
1608 Clear 6 1012 70 10000 4.63 70 18:45 29.09.2022
1609 Clear 7 1011 65 10000 4.12 80 17:24 29.09.2022
1610 Clear 9 1012 53 10000 4.63 80 16:28 29.09.2022
1611 Clear 9 1012 53 10000 5.14 80 15:36 29.09.2022
1612 Clear 10 1012 57 10000 5.66 70 14:29 29.09.2022
1613 Clouds 8 1014 81 10000 4.12 80 10:29 29.09.2022
1614 Clouds 5 1015 93 10000 4.12 70 06:58 29.09.2022
1615 Clear 7 1016 87 10000 3.09 80 02:49 29.09.2022
1616 Clouds 7 1016 93 10000 2.57 70 23:55 28.09.2022
1617 Clouds 8 1016 87 10000 2.57 100 22:44 28.09.2022
1618 Clouds 8 1016 87 10000 3.09 100 21:29 28.09.2022
1619 Clouds 8 1016 87 10000 2.57 100 20:24 28.09.2022
1620 Clouds 8 1016 87 10000 2.06 100 18:41 28.09.2022
1621 Clouds 8 1015 87 10000 4.12 120 15:26 28.09.2022
1622 Clouds 8 1016 87 10000 3.6 110 13:26 28.09.2022
1623 Clouds 7 1016 93 10000 4.12 120 10:59 28.09.2022
1624 Clouds 7 1016 93 10000 3.09 100 09:18 28.09.2022
1625 Clouds 7 1015 93 10000 3.6 140 07:19 28.09.2022
1626 Mist 7 1015 100 4200 2.57 100 02:36 28.09.2022
1627 Clouds 7 1015 100 8000 2.57 100 01:33 28.09.2022
1628 Clouds 7 1015 100 10000 3.09 100 23:20 27.09.2022
1629 Clouds 7 1015 100 10000 2.57 90 21:44 27.09.2022
1630 Clouds 8 1015 93 10000 3.09 80 20:38 27.09.2022
1631 Clouds 8 1015 93 10000 2.57 70 19:48 27.09.2022
1632 Clouds 8 1015 93 10000 2.57 70 18:40 27.09.2022
1633 Clouds 8 1015 100 6000 3.09 70 17:44 27.09.2022
1634 Clouds 8 1014 93 9000 2.57 60 15:31 27.09.2022
1635 Rain 8 1015 93 2600 3.09 70 14:55 27.09.2022
1636 Clouds 8 1014 100 10000 2.57 90 12:42 27.09.2022
1637 Fog 8 1014 100 10000 4.12 70 11:32 27.09.2022
1638 Clouds 7 1014 93 10000 3.6 50 08:49 27.09.2022
1639 Rain 6 1014 100 10000 3.09 60 06:39 27.09.2022
1640 Clear 5 1013 100 10000 3.09 80 01:57 27.09.2022
1641 Fog 5 1013 93 1600 2.57 70 01:27 27.09.2022
1642 Clear 6 1013 93 10000 3.09 90 23:26 26.09.2022
1643 Clear 7 1013 87 10000 3.09 90 22:34 26.09.2022
1644 Clouds 8 1012 87 10000 3.09 100 20:45 26.09.2022
1645 Clouds 8 1012 87 10000 2.57 110 19:30 26.09.2022
1646 Clouds 9 1011 81 10000 3.09 110 18:31 26.09.2022
1647 Clouds 8 1011 93 10000 2.57 120 16:34 26.09.2022
1648 Clouds 8 1010 87 10000 3.09 100 14:28 26.09.2022
1649 Clouds 7 1010 87 10000 3.6 100 11:29 26.09.2022
1650 Clouds 6 1010 93 10000 3.6 110 10:38 26.09.2022
1651 Clouds 6 1009 93 10000 3.09 100 10:20 26.09.2022
1652 Clouds 6 1009 93 10000 3.09 100 09:54 26.09.2022
1653 Clouds 6 1009 93 10000 3.09 100 09:24 26.09.2022
1654 Drizzle 5 1009 100 7000 3.09 80 07:37 26.09.2022
1655 Clear 4 1009 87 10000 2.57 70 02:51 26.09.2022
1656 Clouds 7 1011 70 10000 4.12 110 23:46 25.09.2022
1657 Clouds 7 1011 75 10000 2.57 100 21:54 25.09.2022
1658 Clouds 7 1011 75 10000 2.57 100 21:34 25.09.2022
1659 Clouds 8 1011 65 10000 2.57 100 20:45 25.09.2022
1660 Clouds 7 1012 75 10000 3.09 100 19:32 25.09.2022
1661 Clouds 8 1012 70 10000 3.6 110 18:40 25.09.2022
1662 Clouds 8 1012 70 10000 3.09 110 18:20 25.09.2022
1663 Clouds 10 1012 57 10000 3.6 140 16:35 25.09.2022
1664 Clouds 11 1012 53 10000 3.09 170 15:44 25.09.2022
1665 Clouds 11 1013 53 10000 3.09 130 14:22 25.09.2022
1666 Clear 11 1014 57 10000 3.6 140 12:51 25.09.2022
1667 Clear 8 1015 76 10000 3.09 120 10:29 25.09.2022
1668 Clear 5 1015 93 10000 3.6 120 08:24 25.09.2022
1669 Clear 4 1015 100 10000 3.6 110 05:36 25.09.2022
1670 Clear 5 1016 93 10000 3.09 120 01:32 25.09.2022
1671 Clear 6 1016 93 10000 4.12 120 22:35 24.09.2022
1672 Clear 8 1017 81 10000 3.6 120 20:54 24.09.2022
1673 Clouds 10 1017 71 10000 2.57 140 19:22 24.09.2022
1674 Clouds 11 1017 71 10000 2.06 110 17:19 24.09.2022
1675 Clouds 11 1017 66 10000 2.06 120 16:23 24.09.2022
1676 Clouds 11 1017 66 10000 2.06 120 16:23 24.09.2022
1677 Clear 12 1017 62 10000 4.12 150 15:19 24.09.2022
1678 Clear 11 1017 66 10000 4.63 150 13:23 24.09.2022
1679 Clear 11 1017 71 10000 4.12 150 12:40 24.09.2022
1680 Clear 9 1018 81 10000 3.09 130 10:19 24.09.2022
1681 Clear 8 1017 87 10000 3.6 130 09:22 24.09.2022
1682 Clear 8 1017 81 10000 3.6 130 08:43 24.09.2022
1683 Clear 6 1017 93 10000 4.63 120 05:55 24.09.2022
1684 Clear 6 1017 87 10000 4.12 120 04:31 24.09.2022
1685 Clear 6 1017 81 10000 3.6 120 23:47 23.09.2022
1686 Clear 8 1017 81 10000 3.6 140 21:44 23.09.2022
1687 Clear 8 1017 81 10000 3.6 140 21:24 23.09.2022
1688 Clear 8 1017 87 10000 3.6 140 20:54 23.09.2022
1689 Clouds 10 1017 76 10000 3.09 140 19:20 23.09.2022
1690 Clouds 12 1016 71 10000 3.09 160 17:50 23.09.2022
1691 Clouds 12 1016 66 10000 4.63 160 13:41 23.09.2022
1692 Clouds 10 1017 76 10000 3.09 160 10:24 23.09.2022
1693 Clouds 9 1016 87 10000 4.63 150 07:43 23.09.2022
1694 Clouds 9 1017 93 10000 4.12 170 02:32 23.09.2022
1695 Clouds 9 1017 93 10000 5.14 190 23:29 22.09.2022
1696 Clouds 9 1017 100 6000 3.09 160 22:28 22.09.2022
1697 Clouds 9 1017 93 10000 3.6 170 21:35 22.09.2022
1698 Clouds 10 1017 87 10000 3.09 170 20:23 22.09.2022
1699 Clouds 10 1017 87 10000 3.6 180 18:57 22.09.2022
1700 Clouds 14 1017 67 10000 3.09 200 15:23 22.09.2022
1701 Clouds 10 1017 87 10000 3.6 220 10:51 22.09.2022
1702 Clouds 9 1017 87 10000 3.6 200 10:19 22.09.2022
1703 Clouds 8 1016 100 10000 4.63 210 07:55 22.09.2022
1704 Clouds 9 1016 93 10000 4.12 220 04:56 22.09.2022
1705 Clouds 8 1017 100 10000 4.12 210 00:36 22.09.2022
1706 Clouds 8 1017 87 10000 4.63 200 22:29 21.09.2022
1707 Clouds 7 1018 87 10000 6.17 210 21:18 21.09.2022
1708 Clear 8 1018 76 10000 6.69 220 18:50 21.09.2022
1709 Clear 9 1018 66 10000 7.2 220 17:41 21.09.2022
1710 Clear 10 1019 57 10000 6.17 210 15:35 21.09.2022
1711 Clear 9 1020 53 10000 5.66 210 13:39 21.09.2022
1712 Clear 8 1020 61 10000 5.14 210 11:34 21.09.2022
1713 Clouds 8 1021 54 10000 3.01 211 10:52 21.09.2022
1714 Fog 4 1020 75 10000 3.6 220 09:39 21.09.2022
1715 Fog 3 1020 80 10000 2.06 210 08:24 21.09.2022
1716 Clear 1 1019 80 10000 2.57 340 02:54 21.09.2022
1717 Clear 2 1019 80 10000 3.09 340 02:34 21.09.2022
1718 Clear 1 1019 86 10000 3.09 340 01:50 21.09.2022
1719 Clear 3 1018 75 10000 3.6 330 23:58 20.09.2022
1720 Clear 4 1017 75 10000 3.09 330 21:40 20.09.2022
1721 Clear 4 1017 75 10000 2.06 340 20:32 20.09.2022
1722 Clouds 7 1016 61 10000 3.6 10 17:54 20.09.2022
1723 Clouds 9 1014 57 10000 5.14 340 15:33 20.09.2022
1724 Clouds 9 1013 61 10000 5.66 350 13:59 20.09.2022
1725 Clouds 7 1012 70 10000 6.17 350 11:28 20.09.2022
1726 Clouds 6 1010 81 10000 5.14 360 08:30 20.09.2022
1727 Clouds 6 1010 75 10000 6.69 350 07:32 20.09.2022
1728 Clouds 6 1009 81 10000 6.17 360 04:33 20.09.2022
1729 Clouds 7 1008 81 10000 6.17 360 01:29 20.09.2022
1730 Clouds 8 1008 76 10000 5.66 360 22:33 19.09.2022
1731 Clouds 8 1008 81 10000 5.66 360 21:28 19.09.2022
1732 Clouds 8 1008 81 10000 6.17 10 20:39 19.09.2022
1733 Clouds 9 1008 81 10000 5.14 360 18:43 19.09.2022
1734 Clouds 10 1007 76 10000 6.17 10 16:37 19.09.2022
1735 Clouds 10 1006 81 10000 5.66 20 13:45 19.09.2022
1736 Clouds 10 1006 81 10000 5.14 10 11:43 19.09.2022
1737 Clouds 9 1005 87 10000 5.14 10 09:35 19.09.2022
1738 Clouds 9 1004 87 10000 4.63 20 08:20 19.09.2022
1739 Clouds 9 1003 93 10000 4.12 10 02:46 19.09.2022
1740 Clouds 10 1002 87 10000 4.12 10 23:26 18.09.2022
1741 Clouds 9 1002 93 10000 3.6 360 21:53 18.09.2022
1742 Clouds 10 1001 93 10000 3.6 10 20:34 18.09.2022
1743 Rain 9 1001 100 10000 4.12 360 18:42 18.09.2022
1744 Rain 10 1001 87 10000 4.12 360 17:45 18.09.2022
1745 Clouds 10 1000 87 10000 4.63 10 16:32 18.09.2022
1746 Clouds 10 999 87 10000 5.14 10 14:39 18.09.2022
1747 Clouds 10 999 87 10000 6.17 20 12:56 18.09.2022
1748 Clouds 10 998 87 10000 5.66 20 11:51 18.09.2022
1749 Rain 9 996 100 10000 5.14 20 06:45 18.09.2022
1750 Rain 10 994 100 10000 5.14 20 01:32 18.09.2022
1751 Rain 10 994 100 10000 5.14 20 00:48 18.09.2022
1752 Rain 10 994 93 10000 5.14 20 22:23 17.09.2022
1753 Rain 10 994 93 10000 5.66 20 20:48 17.09.2022
1754 Rain 10 994 93 10000 5.14 20 19:28 17.09.2022
1755 Rain 10 993 100 10000 6.17 30 17:19 17.09.2022
1756 Rain 10 993 93 10000 6.17 20 13:59 17.09.2022
1757 Rain 9 993 100 10000 5.66 20 12:33 17.09.2022
1758 Clouds 9 993 93 10000 6.17 20 10:47 17.09.2022
1759 Clouds 9 994 93 10000 6.17 30 06:29 17.09.2022
1760 Clouds 10 994 93 10000 7.72 40 03:34 17.09.2022
1761 Clouds 11 995 87 10000 6.69 50 23:23 16.09.2022
1762 Clouds 11 995 87 10000 6.69 60 21:33 16.09.2022
1763 Clouds 11 995 87 10000 7.2 50 20:41 16.09.2022
1764 Clouds 12 994 87 10000 6.17 50 18:18 16.09.2022
1765 Clouds 12 994 93 6000 7.72 50 16:18 16.09.2022
1766 Clouds 12 994 87 10000 6.17 60 14:40 16.09.2022
1767 Clouds 12 994 87 10000 5.66 60 12:31 16.09.2022
1768 Clouds 11 994 93 10000 5.66 60 09:34 16.09.2022
1769 Rain 10 994 100 10000 5.66 60 07:21 16.09.2022
1770 Rain 10 994 100 10000 5.66 60 06:47 16.09.2022
1771 Clouds 10 994 100 10000 5.66 60 05:19 16.09.2022
1772 Rain 10 995 100 10000 5.14 70 23:50 15.09.2022
1773 Rain 10 995 100 10000 5.14 70 21:24 15.09.2022
1774 Rain 10 996 100 5000 4.12 80 20:25 15.09.2022
1775 Clouds 10 996 100 4500 4.63 70 18:53 15.09.2022
1776 Clouds 11 996 93 10000 4.63 80 17:34 15.09.2022
1777 Rain 11 996 93 10000 4.63 80 16:57 15.09.2022
1778 Clouds 11 996 93 10000 4.63 80 14:58 15.09.2022
1779 Clouds 10 996 100 10000 3.6 90 12:49 15.09.2022
1780 Rain 10 996 100 10000 4.12 90 10:34 15.09.2022
1781 Rain 10 997 93 10000 4.12 80 08:57 15.09.2022
1782 Rain 10 998 100 6000 3.6 70 04:24 15.09.2022
1783 Rain 10 999 93 10000 3.6 80 02:18 15.09.2022
1784 Clear 11 999 87 10000 4.12 110 22:26 14.09.2022
1785 Clouds 12 999 87 10000 3.6 100 20:19 14.09.2022
1786 Rain 12 1000 93 10000 3.6 90 19:32 14.09.2022
1787 Rain 12 1000 93 10000 4.12 90 17:26 14.09.2022
1788 Rain 12 1000 93 10000 4.12 110 15:56 14.09.2022
1789 Clouds 12 1000 93 10000 3.6 120 14:34 14.09.2022
1790 Drizzle 11 1001 93 10000 4.12 130 11:40 14.09.2022
1791 Clouds 10 1001 93 10000 3.6 130 09:48 14.09.2022
1792 Clouds 10 1001 93 10000 3.6 130 09:48 14.09.2022
1793 Clouds 9 1001 93 10000 2.57 80 07:39 14.09.2022
1794 Clouds 9 1001 93 10000 2.06 100 06:47 14.09.2022
1795 Clouds 9 1002 93 10000 3.09 140 04:33 14.09.2022
1796 Clear 9 1003 93 10000 3.6 170 01:48 14.09.2022
1797 Clear 9 1003 93 10000 3.6 170 01:27 14.09.2022
1798 Clear 10 1003 93 10000 3.09 180 00:50 14.09.2022
1799 Clouds 10 1003 93 10000 3.09 180 23:54 13.09.2022
1800 Clouds 11 1003 87 10000 3.6 180 23:36 13.09.2022
1801 Clouds 11 1003 87 10000 4.12 190 23:18 13.09.2022
1802 Clouds 12 1003 87 10000 4.63 190 21:50 13.09.2022
1803 Clouds 12 1003 87 10000 4.12 180 19:45 13.09.2022
1804 Rain 12 1003 93 10000 5.14 190 17:44 13.09.2022
1805 Rain 12 1004 93 10000 3.6 180 15:55 13.09.2022
1806 Rain 12 1004 87 10000 4.63 180 14:36 13.09.2022
1807 Clouds 12 1005 87 10000 4.12 170 12:32 13.09.2022
1808 Clouds 9 1006 100 9000 3.09 140 08:43 13.09.2022
1809 Fog 7 1007 100 350 3.09 160 05:45 13.09.2022
1810 Clouds 9 1009 81 10000 2.06 210 00:19 13.09.2022
1811 Clouds 10 1010 81 10000 1.54 240 22:50 12.09.2022
1812 Clouds 11 1010 76 10000 2.57 240 21:37 12.09.2022
1813 Clouds 11 1010 81 10000 1.54 210 20:25 12.09.2022
1814 Clouds 12 1010 82 10000 1.03 170 18:44 12.09.2022
1815 Clouds 13 1010 71 10000 1.03 0 16:32 12.09.2022
1816 Clouds 13 1010 76 10000 1.54 240 14:36 12.09.2022
1817 Clouds 11 1010 87 10000 1.54 280 11:29 12.09.2022
1818 Clouds 11 1010 87 10000 2.57 210 09:46 12.09.2022
1819 Clouds 10 1010 93 10000 3.6 210 04:50 12.09.2022
1820 Clouds 10 1010 93 10000 3.09 190 04:20 12.09.2022
1821 Clouds 10 1012 93 10000 3.6 200 23:34 11.09.2022
1822 Clouds 9 1013 93 10000 4.63 220 22:18 11.09.2022
1823 Clear 9 1013 87 10000 3.6 220 20:48 11.09.2022
1824 Clear 10 1013 81 10000 4.12 230 19:56 11.09.2022
1825 Clear 11 1013 76 10000 4.12 220 19:23 11.09.2022
1826 Clouds 13 1013 76 10000 4.63 220 18:20 11.09.2022
1827 Clouds 14 1013 76 10000 4.12 210 16:36 11.09.2022
1828 Clouds 14 1014 71 10000 4.63 200 14:33 11.09.2022
1829 Clouds 14 1014 76 10000 5.14 200 12:40 11.09.2022
1830 Clouds 10 1015 100 10000 2.06 190 08:48 11.09.2022
1831 Fog 9 1015 100 450 1.54 180 06:56 11.09.2022
1832 Fog 9 1016 100 450 2.06 220 00:50 11.09.2022
1833 Clouds 8 1016 100 10000 2.06 230 22:55 10.09.2022
1834 Clouds 9 1016 93 10000 2.57 220 21:25 10.09.2022
1835 Clouds 11 1016 87 10000 3.6 230 19:47 10.09.2022
1836 Clouds 11 1016 87 10000 3.6 230 19:28 10.09.2022
1837 Clouds 13 1016 82 10000 4.12 230 18:51 10.09.2022
1838 Clouds 14 1016 71 10000 3.6 220 15:49 10.09.2022
1839 Clouds 14 1017 71 10000 2.06 240 14:42 10.09.2022
1840 Clouds 11 1017 93 10000 3.09 220 12:52 10.09.2022
1841 Clouds 9 1017 100 7000 2.57 200 10:46 10.09.2022
1842 Fog 8 1017 100 400 1.54 180 09:28 10.09.2022
1843 Fog 8 1017 100 300 2.06 180 08:28 10.09.2022
1844 Mist 8 1017 100 4700 2.57 210 06:41 10.09.2022
1845 Fog 9 1018 100 500 2.57 200 00:19 10.09.2022
1846 Fog 9 1018 100 600 2.57 210 23:31 09.09.2022
1847 Clouds 10 1018 93 10000 2.57 220 21:50 09.09.2022
1848 Clouds 10 1018 93 10000 2.06 220 20:41 09.09.2022
1849 Clouds 10 1019 93 10000 3.09 180 19:24 09.09.2022
1850 Clouds 11 1019 81 10000 5.14 190 18:38 09.09.2022
1851 Clouds 11 1019 81 10000 6.17 200 16:23 09.09.2022
1852 Clouds 11 1020 81 10000 5.66 210 13:48 09.09.2022
1853 Clouds 11 1021 81 10000 4.63 210 11:58 09.09.2022
1854 Clouds 10 1021 93 10000 4.12 210 09:22 09.09.2022
1855 Clouds 7 1022 93 10000 3.6 220 04:29 09.09.2022
1856 Clear 6 1022 93 10000 3.6 220 00:46 09.09.2022
1857 Clear 6 1022 93 10000 3.6 230 21:52 08.09.2022
1858 Clear 7 1022 87 10000 3.6 220 20:51 08.09.2022
1859 Clear 7 1022 87 10000 3.6 220 20:29 08.09.2022
1860 Clear 9 1022 76 10000 4.12 220 19:39 08.09.2022
1861 Clouds 12 1022 58 10000 4.12 220 17:40 08.09.2022
1862 Clouds 12 1023 54 10000 4.63 230 16:19 08.09.2022
1863 Clouds 12 1023 54 10000 4.12 230 13:56 08.09.2022
1864 Clouds 10 1024 61 10000 4.12 210 12:50 08.09.2022
1865 Clouds 10 1024 61 10000 4.12 220 11:36 08.09.2022
1866 Clouds 7 1024 70 10000 3.09 220 09:58 08.09.2022
1867 Clouds 4 1024 81 10000 2.06 230 07:45 08.09.2022
1868 Clouds 3 1024 80 10000 2.06 250 05:30 08.09.2022
1869 Clear 3 1025 80 10000 1.03 260 02:36 08.09.2022
1870 Clear 3 1025 80 10000 1.54 290 02:18 08.09.2022
1871 Clouds 6 1025 70 10000 1.54 300 00:21 08.09.2022
1872 Clouds 7 1025 65 10000 1.54 290 21:58 07.09.2022
1873 Clouds 7 1025 65 10000 1.03 0 21:38 07.09.2022
1874 Clouds 6 1025 75 10000 1.03 0 20:30 07.09.2022
1875 Clouds 7 1025 65 10000 1.54 30 19:23 07.09.2022
1876 Clouds 8 1025 61 10000 2.57 30 16:30 07.09.2022
1877 Clouds 6 1025 75 10000 4.12 50 11:32 07.09.2022
1878 Clouds 6 1025 70 10000 5.14 60 10:36 07.09.2022
1879 Clouds 5 1024 81 10000 5.14 30 08:33 07.09.2022
1880 Clouds 3 1023 93 10000 3.09 10 06:31 07.09.2022
1881 Clear 5 1021 81 10000 3.09 10 00:49 07.09.2022
1882 Clear 6 1021 81 10000 3.09 10 21:58 06.09.2022
1883 Clear 6 1020 87 10000 3.09 10 21:36 06.09.2022
1884 Clouds 8 1020 76 10000 4.63 20 19:39 06.09.2022
1885 Clouds 10 1020 71 10000 5.14 30 18:40 06.09.2022
1886 Clouds 10 1019 61 10000 6.17 20 17:50 06.09.2022
1887 Clouds 11 1019 66 10000 4.12 20 16:47 06.09.2022
1888 Clouds 11 1019 66 10000 4.12 20 16:24 06.09.2022
1889 Clouds 10 1019 76 10000 4.63 360 14:27 06.09.2022
1890 Clouds 9 1019 81 10000 4.12 340 13:44 06.09.2022
1891 Clouds 9 1019 87 10000 4.12 350 13:18 06.09.2022
1892 Clouds 10 1018 71 10000 4.63 340 10:55 06.09.2022
1893 Clear 10 1018 71 10000 5.14 330 09:22 06.09.2022
1894 Clear 8 1018 81 10000 3.6 330 07:53 06.09.2022
1895 Clear 8 1018 76 10000 3.09 320 06:19 06.09.2022
1896 Clear 9 1020 71 10000 2.57 320 01:20 06.09.2022
1897 Rain 9 1021 87 10000 2.57 290 22:53 05.09.2022
1898 Clear 10 1021 81 10000 3.09 230 21:38 05.09.2022
1899 Clear 10 1022 81 10000 2.57 240 20:20 05.09.2022
1900 Clear 12 1022 66 10000 2.57 240 18:53 05.09.2022
1901 Clear 12 1022 66 10000 3.09 250 18:24 05.09.2022
1902 Clouds 14 1023 54 10000 3.09 260 17:50 05.09.2022
1903 Clear 14 1024 54 10000 3.6 240 15:53 05.09.2022
1904 Clear 15 1025 51 10000 4.63 250 14:34 05.09.2022
1905 Clouds 13 1026 58 10000 4.12 260 12:51 05.09.2022
1906 Clouds 12 1028 66 10000 4.12 260 10:35 05.09.2022
1907 Clouds 8 1028 93 10000 1.54 280 08:36 05.09.2022
1908 Clear 7 1029 93 10000 1.03 0 03:47 05.09.2022
1909 Clear 9 1029 81 10000 4.12 340 00:18 05.09.2022
1910 Clear 9 1029 81 10000 3.6 330 22:28 04.09.2022
1911 Clear 9 1029 76 10000 2.57 330 21:49 04.09.2022
1912 Clouds 10 1029 71 10000 2.06 320 19:50 04.09.2022
1913 Clouds 11 1029 62 10000 2.57 330 18:33 04.09.2022
1914 Clouds 11 1028 62 10000 1.54 360 17:26 04.09.2022
1915 Clouds 11 1029 57 10000 3.09 10 15:23 04.09.2022
1916 Clouds 10 1029 61 10000 3.09 360 14:24 04.09.2022
1917 Clouds 8 1028 65 10000 3.09 350 12:26 04.09.2022
1918 Clouds 7 1028 70 10000 4.12 20 10:59 04.09.2022
1919 Clouds 6 1028 75 10000 3.6 10 09:24 04.09.2022
1920 Clouds 6 1027 70 10000 3.09 10 06:27 04.09.2022
1921 Clouds 6 1026 75 10000 5.66 30 02:31 04.09.2022
1922 Clouds 8 1025 70 10000 4.63 360 22:26 03.09.2022
1923 Clouds 8 1024 70 10000 5.14 20 21:25 03.09.2022
1924 Clouds 8 1024 70 10000 3.6 10 20:51 03.09.2022
1925 Clouds 10 1023 71 10000 4.63 360 17:37 03.09.2022
1926 Rain 9 1023 81 10000 4.12 350 16:49 03.09.2022
1927 Clouds 9 1023 71 10000 5.14 360 14:47 03.09.2022
1928 Clouds 9 1023 71 10000 4.12 360 14:28 03.09.2022
1929 Clouds 9 1023 71 10000 5.66 360 13:44 03.09.2022
1930 Clouds 9 1023 71 10000 5.66 360 11:31 03.09.2022
1931 Clouds 7 1022 75 10000 5.14 360 08:57 03.09.2022
1932 Clouds 7 1022 75 10000 4.63 350 07:23 03.09.2022
1933 Clouds 7 1022 81 10000 4.63 350 04:45 03.09.2022
1934 Clouds 7 1022 87 10000 5.14 360 00:48 03.09.2022
1935 Clouds 7 1022 87 10000 4.63 350 23:28 02.09.2022
1936 Clouds 7 1022 93 10000 4.12 350 21:36 02.09.2022
1937 Clouds 7 1022 93 10000 4.12 360 20:40 02.09.2022
1938 Clouds 7 1022 93 10000 4.63 360 19:47 02.09.2022
1939 Clouds 8 1022 93 5000 4.63 10 18:43 02.09.2022
1940 Clouds 8 1022 93 5000 4.63 10 18:24 02.09.2022
1941 Rain 8 1023 87 10000 4.63 350 16:51 02.09.2022
1942 Rain 8 1023 81 10000 5.14 360 15:48 02.09.2022
1943 Clouds 9 1024 66 10000 5.14 360 12:56 02.09.2022
1944 Clouds 8 1024 70 10000 5.66 350 10:25 02.09.2022
1945 Clouds 8 1024 70 10000 5.66 350 10:25 02.09.2022
1946 Clouds 8 1025 70 10000 5.66 360 09:41 02.09.2022
1947 Clouds 7 1025 75 10000 4.12 360 08:35 02.09.2022
1948 Clouds 6 1025 81 10000 4.12 360 06:42 02.09.2022
1949 Clear 5 1025 81 10000 5.14 10 03:53 02.09.2022
1950 Clear 6 1025 75 10000 3.6 360 22:54 01.09.2022
1951 Clear 6 1025 75 10000 2.57 360 21:45 01.09.2022
1952 Clear 6 1025 75 10000 2.57 360 21:25 01.09.2022
1953 Clear 7 1025 70 10000 3.09 360 20:46 01.09.2022
1954 Clouds 9 1025 57 10000 4.12 10 19:20 01.09.2022
1955 Clear 10 1025 53 10000 6.69 20 17:48 01.09.2022
1956 Clouds 11 1024 50 10000 7.2 20 16:29 01.09.2022
1957 Clouds 10 1025 49 10000 6.17 30 14:33 01.09.2022
1958 Clouds 11 1025 53 10000 6.17 20 12:59 01.09.2022
1959 Clouds 9 1025 61 10000 6.17 40 11:54 01.09.2022
1960 Clouds 8 1025 65 10000 6.17 40 11:33 01.09.2022
1961 Clouds 9 1025 61 10000 4.63 30 10:40 01.09.2022
1962 Clouds 7 1026 81 10000 3.6 20 08:30 01.09.2022
1963 Clouds 5 1025 93 10000 3.09 360 06:23 01.09.2022
1964 Clouds 7 1025 81 10000 4.12 10 01:33 01.09.2022
1965 Clouds 8 1024 81 10000 3.6 10 00:18 01.09.2022
1966 Clouds 9 1024 76 10000 3.6 360 21:44 31.08.2022
1967 Clouds 10 1023 71 10000 2.57 350 19:50 31.08.2022
1968 Clouds 11 1023 66 10000 2.06 20 18:18 31.08.2022
1969 Clouds 12 1023 58 10000 4.12 60 16:23 31.08.2022
1970 Rain 12 1023 54 10000 5.14 50 14:35 31.08.2022
1971 Clouds 12 1023 54 10000 3.6 40 12:23 31.08.2022
1972 Clouds 11 1023 57 10000 3.09 30 11:26 31.08.2022
1973 Clear 9 1023 61 10000 2.57 50 08:54 31.08.2022
1974 Clear 6 1023 87 10000 2.06 10 05:26 31.08.2022
1975 Clear 7 1025 70 10000 1.03 290 23:21 30.08.2022
1976 Clear 7 1025 75 10000 1.03 70 21:43 30.08.2022
1977 Clear 7 1025 75 10000 1.03 0 20:57 30.08.2022
1978 Clouds 10 1025 53 10000 2.57 10 18:32 30.08.2022
1979 Clouds 10 1026 57 10000 4.12 350 15:23 30.08.2022
1980 Clouds 10 1027 57 10000 4.12 10 13:24 30.08.2022
1981 Clouds 10 1027 57 10000 4.12 20 13:24 30.08.2022
1982 Clouds 9 1027 57 10000 4.12 30 11:22 30.08.2022
1983 Clouds 9 1027 61 10000 4.12 20 10:49 30.08.2022
1984 Clouds 7 1027 81 10000 3.6 20 07:42 30.08.2022
1985 Clouds 7 1025 81 10000 2.57 360 02:33 30.08.2022
1986 Clear 8 1023 81 10000 4.63 40 23:20 29.08.2022
1987 Clear 9 1023 81 10000 4.12 20 22:24 29.08.2022
1988 Clear 10 1022 81 10000 3.6 10 21:25 29.08.2022
1989 Clear 12 1022 71 10000 2.57 10 19:52 29.08.2022
1990 Clouds 14 1021 67 10000 5.14 350 17:52 29.08.2022
1991 Clouds 14 1021 67 10000 5.14 350 17:24 29.08.2022
1992 Clouds 14 1020 62 10000 2.57 350 16:37 29.08.2022
1993 Clear 16 1020 55 10000 4.12 320 14:45 29.08.2022
1994 Clouds 15 1020 58 10000 3.6 340 12:53 29.08.2022
1995 Clouds 14 1019 58 10000 3.6 340 11:19 29.08.2022
1996 Clouds 12 1019 71 10000 3.09 350 09:45 29.08.2022
1997 Clear 10 1018 81 10000 3.09 330 08:28 29.08.2022
1998 Clear 9 1016 81 10000 1.54 310 02:49 29.08.2022
1999 Clear 11 1015 71 10000 2.06 300 23:55 28.08.2022
2000 Clear 12 1014 71 10000 1.03 0 22:36 28.08.2022
2001 Clear 13 1014 66 10000 1.54 280 21:40 28.08.2022
2002 Clear 14 1013 62 10000 2.06 260 20:43 28.08.2022
2003 Clear 16 1013 55 10000 2.06 240 19:20 28.08.2022
2004 Clear 17 1013 51 10000 3.6 260 18:20 28.08.2022
2005 Clear 17 1013 51 10000 3.6 270 16:57 28.08.2022
2006 Clouds 17 1013 48 10000 5.66 250 15:55 28.08.2022
2007 Clear 17 1013 48 10000 5.14 250 14:21 28.08.2022
2008 Clear 16 1012 58 10000 5.14 220 12:31 28.08.2022
2009 Clear 12 1012 82 10000 3.09 230 10:40 28.08.2022
2010 Clear 11 1012 87 10000 3.09 230 09:40 28.08.2022
2011 Clear 10 1012 93 10000 3.6 220 08:32 28.08.2022
2012 Clear 9 1012 100 10000 3.09 220 07:34 28.08.2022
2013 Clouds 14 1011 100 10000 3.6 230 01:28 28.08.2022
2014 Clouds 15 1011 100 10000 3.09 230 00:22 28.08.2022
2015 Clouds 15 1011 100 10000 4.12 220 22:31 27.08.2022
2016 Clouds 15 1012 94 10000 5.66 220 20:53 27.08.2022
2017 Clouds 15 1012 94 6000 5.66 210 19:38 27.08.2022
2018 Clouds 16 1013 82 10000 4.63 210 16:37 27.08.2022
2019 Rain 16 1012 88 10000 5.66 210 15:31 27.08.2022
2020 Clouds 18 1013 72 10000 6.17 200 14:18 27.08.2022
2021 Clouds 17 1014 82 10000 6.17 190 12:22 27.08.2022
2022 Clouds 17 1014 82 10000 5.14 210 10:30 27.08.2022
2023 Clear 17 1014 82 10000 3.09 180 09:40 27.08.2022
2024 Clear 13 1015 94 10000 2.06 150 06:55 27.08.2022
2025 Clear 13 1017 87 10000 3.6 170 02:27 27.08.2022
2026 Clear 14 1018 82 10000 3.09 190 23:51 26.08.2022
2027 Clear 15 1018 82 10000 4.63 190 21:59 26.08.2022
2028 Clear 16 1019 72 10000 4.12 200 20:23 26.08.2022
2029 Clear 19 1019 59 10000 6.69 190 18:32 26.08.2022
2030 Clear 21 1020 56 10000 5.66 210 16:40 26.08.2022
2031 Clear 21 1020 56 10000 7.2 220 15:26 26.08.2022
2032 Clear 22 1021 52 10000 7.2 210 13:26 26.08.2022
2033 Clear 21 1021 52 10000 7.2 220 12:34 26.08.2022
2034 Clear 19 1022 63 10000 7.2 210 11:22 26.08.2022
2035 Clear 18 1022 67 10000 6.17 200 09:53 26.08.2022
2036 Clouds 11 1023 100 6000 3.09 160 04:56 26.08.2022
2037 Clear 13 1023 94 10000 3.09 170 00:55 26.08.2022
2038 Clear 14 1023 82 10000 4.12 210 22:45 25.08.2022
2039 Clear 15 1023 77 10000 4.12 210 20:57 25.08.2022
2040 Clear 18 1023 67 10000 4.63 210 19:47 25.08.2022
2041 Clear 19 1022 68 10000 5.14 220 18:36 25.08.2022
2042 Clear 20 1022 63 10000 6.17 220 17:32 25.08.2022
2043 Clear 21 1023 60 10000 6.17 210 16:45 25.08.2022
2044 Clear 21 1023 60 10000 5.66 210 15:37 25.08.2022
2045 Clear 21 1023 60 10000 4.63 210 14:30 25.08.2022
2046 Clear 18 1024 67 10000 5.14 210 11:34 25.08.2022
2047 Clear 17 1024 67 10000 4.12 220 10:45 25.08.2022
2048 Clear 12 1024 87 10000 3.09 220 07:55 25.08.2022
2049 Fog 9 1024 100 450 1.54 210 03:54 25.08.2022
2050 Clear 12 1025 93 10000 0.51 240 23:38 24.08.2022
2051 Clear 12 1025 87 10000 1.03 0 23:18 24.08.2022
2052 Clear 11 1025 93 10000 1.03 190 21:56 24.08.2022
2053 Clear 13 1025 82 10000 1.03 190 21:30 24.08.2022
2054 Clear 15 1025 72 10000 2.06 160 19:56 24.08.2022
2055 Clear 16 1025 67 10000 1.54 130 17:28 24.08.2022
2056 Clear 16 1026 55 10000 1.54 210 15:54 24.08.2022
2057 Clear 16 1026 55 10000 1.54 220 15:35 24.08.2022
2058 Clouds 16 1027 58 10000 0.51 350 12:52 24.08.2022
2059 Clouds 16 1027 58 10000 0.51 350 12:52 24.08.2022
2060 Clear 15 1027 58 10000 1.54 90 11:21 24.08.2022
2061 Clear 12 1026 71 10000 3.09 60 08:58 24.08.2022
2062 Fog 10 1025 87 10000 1.54 20 06:40 24.08.2022
2063 Clear 10 1024 100 10000 2.06 260 00:55 24.08.2022
2064 Clear 12 1023 87 10000 1.03 0 22:41 23.08.2022
2065 Clear 12 1022 87 10000 3.09 240 21:55 23.08.2022
2066 Clouds 14 1022 76 10000 1.54 240 20:49 23.08.2022
2067 Clear 15 1021 72 10000 4.12 240 19:24 23.08.2022
2068 Clear 16 1021 63 10000 6.17 230 18:18 23.08.2022
2069 Clear 16 1021 63 10000 6.69 230 17:28 23.08.2022
2070 Clear 17 1021 55 10000 7.2 240 16:26 23.08.2022
2071 Clear 17 1020 51 10000 8.23 220 14:30 23.08.2022
2072 Clouds 17 1020 51 10000 8.75 230 12:46 23.08.2022
2073 Clouds 16 1020 55 10000 8.23 220 11:19 23.08.2022
2074 Clouds 15 1020 58 10000 8.23 220 10:33 23.08.2022
2075 Clear 14 1020 62 10000 6.69 220 09:38 23.08.2022
2076 Clear 14 1019 62 10000 5.66 240 08:47 23.08.2022
2077 Clear 13 1019 66 10000 5.66 230 08:19 23.08.2022
2078 Clear 12 1019 71 10000 4.63 230 07:33 23.08.2022
2079 Clear 11 1018 76 10000 5.14 230 06:23 23.08.2022
2080 Clear 11 1016 76 10000 5.14 230 01:49 23.08.2022
2081 Clear 12 1015 76 10000 4.12 240 00:27 23.08.2022
2082 Clear 13 1015 76 10000 4.63 240 23:32 22.08.2022
2083 Clear 14 1013 71 10000 5.66 220 22:25 22.08.2022
2084 Clear 15 1012 67 10000 3.6 240 20:44 22.08.2022
2085 Clear 17 1012 59 10000 6.17 240 19:44 22.08.2022
2086 Clouds 18 1011 72 10000 7.2 220 18:37 22.08.2022
2087 Clouds 19 1009 63 10000 9.26 210 15:55 22.08.2022
2088 Clouds 20 1008 68 10000 8.23 220 15:18 22.08.2022
2089 Clouds 18 1008 82 10000 7.2 200 12:53 22.08.2022
2090 Rain 16 1008 94 10000 4.63 200 09:27 22.08.2022
2091 Rain 16 1008 100 10000 5.14 170 06:58 22.08.2022
2092 Clouds 17 1009 88 10000 5.14 150 02:28 22.08.2022
2093 Clear 18 1009 82 10000 5.14 170 00:36 22.08.2022
2094 Clouds 18 1010 82 10000 6.17 170 23:32 21.08.2022
2095 Clouds 20 1010 72 10000 5.66 150 21:55 21.08.2022
2096 Clouds 21 1010 68 10000 6.69 160 21:19 21.08.2022
2097 Clouds 22 1010 60 10000 6.69 160 19:58 21.08.2022
2098 Clear 23 1010 60 10000 6.17 160 18:36 21.08.2022
2099 Clear 24 1011 56 10000 5.66 160 16:48 21.08.2022
2100 Clouds 24 1011 56 10000 7.2 160 15:52 21.08.2022
2101 Clouds 24 1012 56 10000 7.72 170 14:41 21.08.2022
2102 Clouds 24 1012 56 10000 8.23 170 13:48 21.08.2022
2103 Clouds 25 1012 53 10000 8.75 170 12:55 21.08.2022
2104 Clear 23 1013 60 10000 7.72 170 10:36 21.08.2022
2105 Clear 22 1013 64 10000 7.72 160 08:57 21.08.2022
2106 Clear 21 1013 68 10000 6.69 160 08:39 21.08.2022
2107 Clear 20 1014 72 10000 7.2 160 07:53 21.08.2022
2108 Clear 19 1014 77 10000 5.66 160 05:39 21.08.2022
2109 Clear 21 1015 68 10000 6.69 170 00:54 21.08.2022
2110 Clear 21 1015 73 10000 5.14 160 23:20 20.08.2022
2111 Clouds 22 1016 68 10000 4.12 150 21:46 20.08.2022
2112 Clear 23 1016 64 10000 3.6 160 20:50 20.08.2022
2113 Clear 24 1016 60 10000 3.6 160 19:42 20.08.2022
2114 Clear 25 1016 57 10000 5.14 180 18:45 20.08.2022
2115 Clear 26 1016 53 10000 5.14 180 18:25 20.08.2022
2116 Clouds 26 1016 57 10000 6.69 190 17:20 20.08.2022
2117 Clouds 27 1016 65 10000 6.17 170 15:52 20.08.2022
2118 Clouds 26 1017 69 10000 4.63 170 13:39 20.08.2022
2119 Clouds 24 1018 73 10000 4.12 160 11:53 20.08.2022
2120 Clouds 22 1018 83 10000 4.12 170 10:39 20.08.2022
2121 Clouds 20 1018 88 10000 2.57 160 09:18 20.08.2022
2122 Clouds 19 1018 94 10000 2.06 170 06:40 20.08.2022
2123 Clouds 18 1018 100 10000 4.12 180 04:40 20.08.2022
2124 Clouds 19 1018 94 10000 5.14 180 00:53 20.08.2022
2125 Clouds 20 1017 94 10000 3.6 140 23:21 19.08.2022
2126 Clouds 20 1017 94 10000 3.6 170 22:35 19.08.2022
2127 Clouds 21 1017 88 10000 3.09 200 20:30 19.08.2022
2128 Clear 23 1017 78 10000 3.6 180 18:51 19.08.2022
2129 Clouds 22 1018 83 10000 3.6 180 15:54 19.08.2022
2130 Clouds 19 1018 94 10000 3.09 150 13:40 19.08.2022
2131 Clouds 18 1018 100 10000 3.6 130 11:39 19.08.2022
2132 Fog 17 1018 100 600 3.09 100 10:29 19.08.2022
2133 Mist 14 1019 100 4000 4.12 70 07:21 19.08.2022
2134 Clouds 13 1020 87 10000 5.14 80 01:24 19.08.2022
2135 Clouds 12 1020 93 10000 5.14 70 00:31 19.08.2022
2136 Clear 12 1021 87 10000 4.63 70 23:48 18.08.2022
2137 Clear 12 1021 87 10000 4.63 60 22:52 18.08.2022
2138 Clear 13 1021 82 10000 4.12 60 22:18 18.08.2022
2139 Clouds 12 1021 87 10000 4.12 60 21:40 18.08.2022
2140 Clear 13 1021 82 10000 3.6 70 20:27 18.08.2022
2141 Clouds 14 1021 76 10000 4.12 80 19:30 18.08.2022
2142 Clouds 15 1021 72 10000 4.63 100 17:55 18.08.2022
2143 Clouds 16 1021 67 10000 4.12 80 17:18 18.08.2022
2144 Clouds 16 1021 67 10000 4.12 60 14:57 18.08.2022
2145 Clouds 14 1021 71 10000 4.12 40 14:19 18.08.2022
2146 Clouds 15 1021 72 10000 3.6 50 13:34 18.08.2022
2147 Clouds 13 1020 82 10000 3.09 10 11:51 18.08.2022
2148 Clouds 12 1018 87 10000 3.6 360 09:43 18.08.2022
2149 Clouds 12 1017 87 10000 3.6 350 08:42 18.08.2022
2150 Clouds 12 1015 93 10000 4.63 340 07:19 18.08.2022
2151 Clouds 13 1011 100 10000 3.09 300 04:37 18.08.2022
2152 Rain 18 1008 100 10000 5.66 170 23:35 17.08.2022
2153 Thunderstorm 19 1008 100 10000 6.17 200 21:46 17.08.2022
2154 Thunderstorm 19 1009 88 10000 6.17 240 20:20 17.08.2022
2155 Thunderstorm 24 1008 73 10000 5.66 160 19:29 17.08.2022
2156 Clouds 25 1009 64 10000 7.2 170 17:36 17.08.2022
2157 Clear 25 1010 64 10000 4.63 170 16:35 17.08.2022
2158 Clear 25 1010 64 10000 6.69 190 15:28 17.08.2022
2159 Clouds 27 1011 57 10000 7.2 190 13:30 17.08.2022
2160 Clouds 26 1011 61 10000 7.2 180 11:38 17.08.2022
2161 Clear 23 1012 73 10000 5.14 170 09:31 17.08.2022
2162 Clear 21 1012 83 10000 5.14 160 08:24 17.08.2022
2163 Clouds 18 1014 94 10000 1.54 200 03:36 17.08.2022
2164 Rain 20 1015 77 10000 4.63 180 00:19 17.08.2022
2165 Clear 20 1015 82 10000 4.63 170 22:35 16.08.2022
2166 Rain 22 1015 78 10000 5.14 170 20:52 16.08.2022
2167 Clear 24 1015 64 10000 4.12 180 19:53 16.08.2022
2168 Clear 26 1015 53 10000 3.6 190 18:40 16.08.2022
2169 Clear 26 1015 50 10000 5.66 210 17:43 16.08.2022
2170 Clear 27 1016 53 10000 5.66 200 15:48 16.08.2022
2171 Clouds 27 1016 53 10000 6.17 200 14:55 16.08.2022
2172 Clouds 26 1016 57 10000 6.69 200 14:37 16.08.2022
2173 Clouds 26 1016 53 10000 6.69 200 12:44 16.08.2022
2174 Clear 24 1016 64 10000 4.12 150 10:37 16.08.2022
2175 Clear 22 1016 68 10000 2.57 150 09:44 16.08.2022
2176 Clear 19 1017 77 10000 3.09 150 08:47 16.08.2022
2177 Clear 18 1017 77 10000 3.6 140 07:33 16.08.2022
2178 Clear 17 1017 82 10000 3.6 150 02:19 16.08.2022
2179 Clear 18 1017 77 10000 3.6 150 22:30 15.08.2022
2180 Clear 18 1017 77 10000 3.6 150 22:30 15.08.2022
2181 Clear 19 1017 68 10000 2.57 160 21:54 15.08.2022
2182 Clear 19 1018 72 10000 3.09 190 20:52 15.08.2022
2183 Clear 20 1018 72 10000 3.09 210 20:19 15.08.2022
2184 Clear 21 1017 68 10000 3.6 190 18:41 15.08.2022
2185 Clear 23 1017 60 10000 4.12 200 17:23 15.08.2022
2186 Clouds 23 1017 64 10000 5.14 170 16:21 15.08.2022
2187 Clear 22 1018 56 10000 3.6 150 13:56 15.08.2022
2188 Clouds 22 1019 49 10000 3.09 120 12:37 15.08.2022
2189 Clear 18 1019 59 10000 4.63 110 10:18 15.08.2022
2190 Clear 16 1019 67 10000 4.12 120 08:27 15.08.2022
2191 Clear 12 1020 82 10000 2.57 80 06:20 15.08.2022
2192 Clear 12 1020 82 10000 1.54 200 02:19 15.08.2022
2193 Clear 14 1019 76 10000 1.03 250 22:39 14.08.2022
2194 Clear 15 1019 62 10000 2.57 210 21:39 14.08.2022
2195 Clear 18 1018 48 10000 1.03 0 20:21 14.08.2022
2196 Clear 18 1018 48 10000 2.06 310 19:30 14.08.2022
2197 Clear 19 1018 45 10000 2.57 290 18:19 14.08.2022
2198 Clear 19 1018 45 10000 3.09 260 16:54 14.08.2022
2199 Clear 20 1018 42 10000 3.09 290 15:50 14.08.2022
2200 Clear 18 1018 48 10000 3.09 290 14:34 14.08.2022
2201 Clouds 19 1018 45 10000 3.09 270 13:50 14.08.2022
2202 Clouds 19 1018 45 10000 3.09 270 13:22 14.08.2022
2203 Clouds 18 1018 51 10000 3.6 200 12:34 14.08.2022
2204 Clouds 17 1018 55 10000 3.09 230 10:55 14.08.2022
2205 Clear 14 1018 82 10000 2.57 220 08:52 14.08.2022
2206 Clouds 13 1017 94 10000 3.6 240 06:22 14.08.2022
2207 Clouds 13 1017 94 10000 4.12 230 03:36 14.08.2022
2208 Clouds 13 1017 94 10000 6.17 230 00:33 14.08.2022
2209 Clouds 13 1017 94 10000 4.63 210 22:56 13.08.2022
2210 Clouds 13 1018 87 10000 5.66 210 21:43 13.08.2022
2211 Clouds 14 1018 76 10000 5.14 200 20:46 13.08.2022
2212 Clouds 15 1018 67 10000 6.17 220 19:45 13.08.2022
2213 Clear 17 1018 51 10000 6.17 210 18:19 13.08.2022
2214 Clear 18 1019 48 10000 7.2 210 15:40 13.08.2022
2215 Clear 17 1019 48 10000 4.12 230 14:32 13.08.2022
2216 Clouds 17 1020 48 10000 6.17 210 13:46 13.08.2022
2217 Clouds 16 1020 51 10000 5.66 210 11:53 13.08.2022
2218 Clear 15 1020 54 10000 3.6 200 10:31 13.08.2022
2219 Clear 14 1020 62 10000 2.57 230 09:19 13.08.2022
2220 Clear 9 1020 81 10000 1.54 250 05:57 13.08.2022
2221 Clear 11 1019 66 10000 2.57 290 00:30 13.08.2022
2222 Clear 12 1018 58 10000 2.57 290 22:23 12.08.2022
2223 Clear 14 1017 54 10000 2.57 280 20:58 12.08.2022
2224 Clear 16 1017 47 10000 2.57 270 19:43 12.08.2022
2225 Clear 16 1017 44 10000 4.63 290 18:52 12.08.2022
2226 Clear 17 1016 41 10000 5.14 270 17:36 12.08.2022
2227 Clear 18 1016 42 10000 6.17 280 16:24 12.08.2022
2228 Clear 18 1014 42 10000 6.69 280 14:44 12.08.2022
2229 Clear 17 1014 48 10000 6.17 270 12:56 12.08.2022
2230 Clouds 16 1013 55 10000 5.66 260 11:19 12.08.2022
2231 Clear 14 1012 67 10000 5.14 250 08:31 12.08.2022
2232 Clear 11 1012 81 10000 4.12 240 06:56 12.08.2022
2233 Clear 10 1010 81 10000 3.6 240 03:20 12.08.2022
2234 Clear 11 1009 76 10000 2.57 240 00:27 12.08.2022
2235 Clear 12 1009 71 10000 2.57 240 23:35 11.08.2022
2236 Clear 14 1008 62 10000 4.63 250 22:28 11.08.2022
2237 Clear 14 1009 58 10000 5.66 250 21:43 11.08.2022
2238 Clear 15 1008 58 10000 5.66 250 20:59 11.08.2022
2239 Clear 16 1008 51 10000 6.17 250 20:20 11.08.2022
2240 Clear 17 1008 48 10000 6.69 250 19:32 11.08.2022
2241 Clear 19 1007 39 10000 7.2 260 17:48 11.08.2022
2242 Clear 19 1007 39 10000 7.72 260 16:37 11.08.2022
2243 Clear 20 1006 39 10000 6.69 260 15:25 11.08.2022
2244 Clear 21 1005 49 10000 7.2 250 13:37 11.08.2022
2245 Clouds 19 1005 32 10000 7.2 240 10:58 11.08.2022
2246 Rain 16 1005 94 10000 6.17 220 07:47 11.08.2022
2247 Rain 16 1006 88 10000 7.72 200 03:54 11.08.2022
2248 Rain 17 1007 88 10000 5.66 210 01:33 11.08.2022
2249 Rain 17 1009 82 10000 6.17 220 22:36 10.08.2022
2250 Clear 17 1010 82 10000 7.2 220 21:34 10.08.2022
2251 Clear 17 1010 82 10000 6.69 210 20:55 10.08.2022
2252 Clear 17 1010 88 10000 8.23 220 19:31 10.08.2022
2253 Clear 18 1011 82 10000 7.72 210 18:23 10.08.2022
2254 Rain 18 1012 77 10000 7.72 220 16:41 10.08.2022
2255 Clouds 20 1013 72 10000 8.75 200 13:36 10.08.2022
2256 Clouds 18 1014 82 10000 7.72 200 12:44 10.08.2022
2257 Clouds 17 1015 82 10000 7.72 200 09:55 10.08.2022
2258 Clouds 16 1016 88 10000 6.69 200 08:35 10.08.2022
2259 Clouds 15 1017 94 10000 5.14 190 07:20 10.08.2022
2260 Clouds 14 1018 100 10000 4.12 200 03:32 10.08.2022
2261 Rain 14 1020 94 10000 4.63 220 23:51 09.08.2022
2262 Rain 14 1020 94 10000 4.63 220 23:24 09.08.2022
2263 Rain 14 1020 88 10000 5.14 200 21:36 09.08.2022
2264 Rain 15 1021 77 10000 4.12 210 20:36 09.08.2022
2265 Clear 17 1021 59 10000 6.69 220 18:45 09.08.2022
2266 Clear 18 1021 59 10000 6.69 220 17:31 09.08.2022
2267 Clear 19 1021 52 10000 7.72 220 16:41 09.08.2022
2268 Clear 19 1021 55 10000 7.72 220 15:58 09.08.2022
2269 Clear 19 1021 52 10000 7.72 210 13:51 09.08.2022
2270 Clear 18 1023 31 10000 6.17 220 09:56 09.08.2022
2271 Clear 16 1023 63 10000 5.66 210 08:50 09.08.2022
2272 Clear 15 1023 67 10000 3.6 190 07:53 09.08.2022
2273 Clear 11 1023 81 10000 2.57 210 04:25 09.08.2022
2274 Clear 12 1023 82 10000 1.03 240 23:35 08.08.2022
2275 Clear 12 1023 82 10000 2.06 250 22:55 08.08.2022
2276 Clear 14 1022 67 10000 2.57 190 22:18 08.08.2022
2277 Clear 13 1022 71 10000 0.51 0 21:22 08.08.2022
2278 Clear 16 1022 58 10000 1.54 280 19:51 08.08.2022
2279 Clear 17 1021 51 10000 2.06 290 18:50 08.08.2022
2280 Clear 17 1020 48 10000 3.6 320 16:44 08.08.2022
2281 Clear 17 1020 44 10000 3.09 340 15:40 08.08.2022
2282 Clouds 16 1019 63 10000 3.09 330 13:55 08.08.2022
2283 Clouds 15 1019 67 10000 5.66 340 12:27 08.08.2022
2284 Clouds 15 1017 67 10000 3.09 290 09:48 08.08.2022
2285 Fog 10 1014 100 10000 1.54 270 06:51 08.08.2022
2286 Clear 9 1012 100 10000 1.54 260 02:56 08.08.2022
2287 Clear 11 1011 93 10000 2.57 200 22:42 07.08.2022
2288 Clear 12 1010 87 10000 3.09 190 21:40 07.08.2022
2289 Clouds 12 1010 87 10000 3.09 180 20:26 07.08.2022
2290 Rain 12 1010 87 10000 2.06 190 19:56 07.08.2022
2291 Rain 12 1010 87 10000 4.63 210 19:38 07.08.2022
2292 Clouds 13 1009 87 10000 1.54 250 18:23 07.08.2022
2293 Rain 14 1009 44 10000 4.12 200 16:54 07.08.2022
2294 Clouds 14 1008 82 10000 3.6 200 16:35 07.08.2022
2295 Rain 14 1008 76 10000 1.54 260 15:20 07.08.2022
2296 Rain 17 1006 55 10000 5.14 260 13:26 07.08.2022
2297 Clouds 16 1006 58 10000 5.66 260 11:54 07.08.2022
2298 Clouds 14 1005 62 10000 6.17 260 10:34 07.08.2022
2299 Clouds 11 1000 87 10000 6.17 270 07:36 07.08.2022
2300 Rain 11 995 100 4300 2.57 140 03:20 07.08.2022
2301 Clouds 12 996 93 10000 5.66 190 00:31 07.08.2022
2302 Clear 14 997 88 10000 5.14 170 22:24 06.08.2022
2303 Clouds 15 998 88 10000 5.66 200 20:42 06.08.2022
2304 Clouds 16 998 88 10000 6.17 210 19:41 06.08.2022
2305 Rain 16 998 100 10000 2.57 10 18:28 06.08.2022
2306 Rain 16 999 100 3900 2.57 10 17:32 06.08.2022
2307 Rain 16 1002 94 10000 4.63 50 14:43 06.08.2022
2308 Rain 16 1003 94 10000 3.6 50 13:44 06.08.2022
2309 Clouds 16 1005 94 10000 2.57 50 11:33 06.08.2022
2310 Rain 16 1005 94 10000 3.6 90 10:32 06.08.2022
2311 Rain 15 1006 100 10000 1.03 0 08:32 06.08.2022
2312 Fog 15 1007 100 650 2.06 170 03:52 06.08.2022
2313 Rain 16 1008 100 10000 1.54 210 23:36 05.08.2022
2314 Clear 16 1009 100 10000 2.06 180 22:23 05.08.2022
2315 Clouds 18 1009 88 10000 5.14 220 19:33 05.08.2022
2316 Clouds 18 1009 88 10000 4.12 210 18:44 05.08.2022
2317 Clouds 18 1009 88 10000 5.66 210 17:54 05.08.2022
2318 Clouds 19 1010 82 10000 7.2 200 16:49 05.08.2022
2319 Clouds 19 1010 82 10000 7.2 200 16:49 05.08.2022
2320 Rain 19 1010 82 10000 7.72 200 15:22 05.08.2022
2321 Clouds 19 1009 82 10000 6.69 190 14:19 05.08.2022
2322 Clouds 19 1009 82 10000 7.2 200 13:23 05.08.2022
2323 Clouds 18 1009 88 10000 8.23 200 12:28 05.08.2022
2324 Clouds 18 1009 82 10000 3.6 130 10:49 05.08.2022
2325 Rain 16 1009 94 10000 4.63 170 08:25 05.08.2022
2326 Clouds 16 1009 94 10000 5.14 190 06:41 05.08.2022
2327 Clouds 16 1010 94 10000 6.17 200 00:34 05.08.2022
2328 Clouds 16 1010 94 10000 5.66 190 22:29 04.08.2022
2329 Clouds 16 1009 94 10000 5.66 190 21:26 04.08.2022
2330 Clouds 16 1009 100 10000 3.6 220 20:43 04.08.2022
2331 Clouds 17 1009 94 10000 3.6 220 19:40 04.08.2022
2332 Clouds 17 1009 94 10000 4.12 220 18:36 04.08.2022
2333 Clouds 17 1008 94 10000 5.66 220 17:38 04.08.2022
2334 Clouds 18 1007 94 10000 5.66 220 14:18 04.08.2022
2335 Drizzle 17 1007 100 10000 7.2 220 12:44 04.08.2022
2336 Drizzle 17 1006 100 5000 4.63 200 10:51 04.08.2022
2337 Clouds 17 1006 94 10000 5.66 180 07:53 04.08.2022
2338 Clouds 16 1006 100 8000 5.66 190 04:43 04.08.2022
2339 Clouds 16 1007 100 10000 4.63 180 02:29 04.08.2022
2340 Clouds 15 1008 100 6000 4.63 160 23:45 03.08.2022
2341 Clouds 15 1008 94 10000 6.17 170 22:30 03.08.2022
2342 Clouds 15 1009 94 10000 5.14 160 20:50 03.08.2022
2343 Clouds 14 1009 100 10000 5.14 160 19:44 03.08.2022
2344 Clouds 14 1009 100 6000 4.12 150 18:36 03.08.2022
2345 Clouds 14 1010 88 6000 4.63 170 16:24 03.08.2022
2346 Clouds 17 1010 63 10000 6.17 190 14:51 03.08.2022
2347 Clouds 19 1010 55 10000 7.72 190 12:32 03.08.2022
2348 Clear 14 1009 71 10000 4.12 210 08:50 03.08.2022
2349 Clouds 12 1008 100 10000 3.09 220 04:47 03.08.2022
2350 Clouds 13 1007 100 10000 3.6 230 03:30 03.08.2022
2351 Clouds 14 1007 94 10000 3.09 200 01:35 03.08.2022
2352 Clouds 15 1007 88 10000 4.12 190 23:23 02.08.2022
2353 Clouds 16 1007 82 10000 4.63 190 21:55 02.08.2022
2354 Clear 16 1006 82 10000 5.14 190 21:30 02.08.2022
2355 Clouds 18 1006 77 10000 2.06 140 18:59 02.08.2022
2356 Clear 18 1007 72 10000 2.57 160 16:27 02.08.2022
2357 Rain 18 1008 77 10000 2.57 170 12:53 02.08.2022
2358 Clouds 17 1008 88 10000 0.51 0 09:42 02.08.2022
2359 Mist 15 1009 100 3000 1.54 160 07:56 02.08.2022
2360 Clouds 15 1009 100 10000 2.57 190 07:25 02.08.2022
2361 Rain 15 1009 94 6000 2.06 150 04:55 02.08.2022
2362 Clear 16 1010 77 10000 2.57 210 23:52 01.08.2022
2363 Clear 18 1010 72 10000 2.57 140 22:50 01.08.2022
2364 Clear 19 1010 68 10000 2.57 120 20:53 01.08.2022
2365 Clear 21 1010 56 10000 2.06 100 19:34 01.08.2022
2366 Clear 21 1010 56 10000 2.57 80 18:42 01.08.2022
2367 Clear 21 1011 52 10000 1.03 0 16:54 01.08.2022
2368 Clear 21 1011 52 10000 1.54 260 16:28 01.08.2022
2369 Clouds 21 1012 49 10000 2.06 210 15:30 01.08.2022
2370 Clouds 21 1012 52 10000 2.06 210 14:43 01.08.2022
2371 Clouds 20 1012 55 10000 1.03 0 12:51 01.08.2022
2372 Clouds 18 1013 63 10000 1.54 110 10:29 01.08.2022
2373 Clouds 16 1013 72 10000 1.54 180 08:39 01.08.2022
2374 Clear 12 1013 93 10000 0.51 0 06:21 01.08.2022
2375 Clouds 12 1013 93 10000 1.03 0 04:20 01.08.2022
2376 Clear 13 1013 94 10000 1.54 220 00:49 01.08.2022
2377 Clouds 14 1012 88 10000 2.06 220 22:41 31.07.2022
2378 Clouds 14 1012 82 10000 1.54 230 21:33 31.07.2022
2379 Clouds 15 1012 82 10000 1.54 240 19:56 31.07.2022
2380 Clouds 15 1012 77 10000 1.54 220 18:35 31.07.2022
2381 Clouds 16 1011 72 10000 2.57 250 15:45 31.07.2022
2382 Clouds 15 1011 77 10000 2.06 300 13:44 31.07.2022
2383 Clouds 14 1011 82 10000 2.57 300 12:28 31.07.2022
2384 Clouds 12 1011 87 10000 2.57 330 09:55 31.07.2022
2385 Clouds 11 1011 93 10000 2.57 330 08:18 31.07.2022
2386 Clouds 10 1012 100 10000 3.09 360 03:28 31.07.2022
2387 Clouds 11 1013 87 10000 3.09 360 23:46 30.07.2022
2388 Clouds 12 1014 82 10000 3.6 20 22:19 30.07.2022
2389 Clouds 12 1014 76 10000 4.12 20 21:49 30.07.2022
2390 Clouds 12 1014 76 10000 3.6 20 20:57 30.07.2022
2391 Clouds 13 1014 71 10000 4.12 20 19:59 30.07.2022
2392 Clouds 13 1014 71 10000 5.14 20 18:53 30.07.2022
2393 Clouds 13 1015 71 10000 4.12 20 17:44 30.07.2022
2394 Clouds 13 1015 71 10000 5.14 20 15:54 30.07.2022
2395 Clouds 13 1015 71 10000 5.66 30 15:24 30.07.2022
2396 Clouds 13 1016 66 10000 5.14 20 13:19 30.07.2022
2397 Clouds 13 1017 66 10000 6.69 40 12:19 30.07.2022
2398 Clouds 13 1017 66 10000 5.14 30 10:31 30.07.2022
2399 Clouds 12 1017 66 10000 5.66 20 09:56 30.07.2022
2400 Clouds 11 1018 71 10000 5.66 30 07:55 30.07.2022
2401 Clouds 10 1020 87 10000 2.06 360 03:55 30.07.2022
2402 Clouds 11 1020 81 10000 4.12 40 02:25 30.07.2022
2403 Clear 13 1021 76 10000 3.09 10 22:44 29.07.2022
2404 Clouds 14 1021 71 10000 2.57 360 21:24 29.07.2022
2405 Clear 14 1021 71 10000 2.06 360 20:41 29.07.2022
2406 Clear 15 1022 67 10000 4.63 30 18:26 29.07.2022
2407 Clouds 15 1022 62 10000 5.14 20 15:38 29.07.2022
2408 Clouds 14 1022 62 10000 5.66 30 13:37 29.07.2022
2409 Clouds 13 1022 66 10000 6.17 20 11:28 29.07.2022
2410 Clouds 12 1021 76 10000 6.17 40 08:50 29.07.2022
2411 Clouds 12 1021 76 10000 7.2 50 08:18 29.07.2022
2412 Clouds 12 1019 82 10000 4.63 20 01:58 29.07.2022
2413 Clouds 12 1018 82 10000 3.6 10 22:53 28.07.2022
2414 Clear 13 1017 76 10000 3.09 360 21:28 28.07.2022
2415 Clouds 13 1016 76 10000 3.09 360 20:34 28.07.2022
2416 Clouds 13 1016 76 10000 5.14 10 19:44 28.07.2022
2417 Clouds 14 1015 71 10000 3.6 360 19:24 28.07.2022
2418 Clouds 14 1015 76 10000 3.6 10 17:44 28.07.2022
2419 Clouds 14 1014 76 10000 5.14 360 16:57 28.07.2022
2420 Clouds 15 1014 67 10000 4.63 350 16:28 28.07.2022
2421 Clouds 16 1012 58 10000 3.6 340 13:30 28.07.2022
2422 Clouds 14 1011 67 10000 4.63 350 11:42 28.07.2022
2423 Clouds 13 1007 71 10000 4.12 320 06:46 28.07.2022
2424 Clear 12 1006 76 10000 3.09 320 05:33 28.07.2022
2425 Clouds 11 1004 93 10000 3.09 300 02:40 28.07.2022
2426 Clouds 14 1001 100 10000 2.06 270 22:45 27.07.2022
2427 Clouds 15 1000 94 10000 3.6 280 21:29 27.07.2022
2428 Rain 16 999 94 10000 4.63 210 19:44 27.07.2022
2429 Clouds 17 998 88 10000 3.6 200 18:39 27.07.2022
2430 Clouds 17 998 88 10000 3.6 230 15:52 27.07.2022
2431 Clouds 20 998 68 10000 7.2 210 15:20 27.07.2022
2432 Clouds 19 998 68 10000 7.2 200 14:40 27.07.2022
2433 Clouds 16 997 94 10000 2.06 0 12:50 27.07.2022
2434 Clouds 17 996 88 10000 5.14 180 08:44 27.07.2022
2435 Clouds 17 996 94 10000 5.14 190 07:24 27.07.2022
2436 Clouds 17 996 100 10000 5.66 190 02:42 27.07.2022
2437 Rain 18 996 94 10000 5.66 180 22:39 26.07.2022
2438 Clouds 18 996 94 10000 6.17 170 21:23 26.07.2022
2439 Clouds 18 997 94 10000 7.2 170 20:43 26.07.2022
2440 Rain 19 998 94 10000 6.17 160 18:44 26.07.2022
2441 Rain 18 998 100 4700 4.63 100 18:19 26.07.2022
2442 Rain 18 999 94 10000 3.6 170 16:32 26.07.2022
2443 Rain 19 999 94 10000 4.12 170 15:36 26.07.2022
2444 Rain 19 1000 94 10000 6.17 200 13:46 26.07.2022
2445 Clouds 18 1000 94 10000 4.63 170 11:39 26.07.2022
2446 Clouds 16 999 100 10000 6.17 160 09:32 26.07.2022
2447 Rain 15 1001 100 10000 3.6 140 06:26 26.07.2022
2448 Rain 16 1004 88 10000 3.6 130 00:44 26.07.2022
2449 Clouds 16 1004 88 10000 2.06 140 23:33 25.07.2022
2450 Rain 17 1005 82 10000 1.03 0 22:26 25.07.2022
2451 Rain 17 1005 88 10000 1.03 190 21:43 25.07.2022
2452 Rain 17 1005 88 10000 3.09 150 20:42 25.07.2022
2453 Rain 19 1005 72 10000 4.12 130 19:46 25.07.2022
2454 Rain 19 1006 72 10000 3.09 150 18:19 25.07.2022
2455 Clear 20 1006 63 10000 4.12 140 17:27 25.07.2022
2456 Clear 20 1006 63 10000 4.12 140 17:27 25.07.2022
2457 Clouds 18 1007 77 10000 3.09 140 15:20 25.07.2022
2458 Clear 21 1008 45 10000 5.66 180 12:22 25.07.2022
2459 Clear 19 1009 59 10000 3.09 160 09:58 25.07.2022
2460 Clear 14 1010 71 10000 2.57 70 04:38 25.07.2022
2461 Clear 15 1011 62 10000 2.06 70 23:54 24.07.2022
2462 Clear 15 1011 58 10000 2.06 60 23:18 24.07.2022
2463 Clear 16 1011 55 10000 2.06 50 22:29 24.07.2022
2464 Clear 16 1011 55 10000 1.54 360 21:23 24.07.2022
2465 Clear 18 1011 48 10000 1.54 360 20:50 24.07.2022
2466 Clear 18 1011 48 10000 1.54 360 20:26 24.07.2022
2467 Clear 19 1012 45 10000 2.57 10 18:46 24.07.2022
2468 Clear 19 1012 42 10000 2.57 360 16:29 24.07.2022
2469 Clear 19 1013 42 10000 1.54 0 15:50 24.07.2022
2470 Clear 19 1013 45 10000 2.57 0 14:35 24.07.2022
2471 Clear 18 1013 48 10000 3.6 330 12:54 24.07.2022
2472 Clouds 17 1013 51 10000 1.54 10 11:40 24.07.2022
2473 Clouds 17 1013 51 10000 4.12 340 11:18 24.07.2022
2474 Clouds 16 1013 63 10000 2.06 10 08:33 24.07.2022
2475 Clear 15 1013 67 10000 3.09 60 07:52 24.07.2022
2476 Clear 12 1013 76 10000 2.57 360 05:49 24.07.2022
2477 Clear 14 1012 67 10000 3.6 360 00:30 24.07.2022
2478 Clear 17 1010 55 10000 3.09 10 22:21 23.07.2022
2479 Clear 18 1010 55 10000 2.57 340 20:28 23.07.2022
2480 Clear 20 1009 45 10000 4.63 320 18:50 23.07.2022
2481 Clear 20 1009 42 10000 4.63 330 17:29 23.07.2022
2482 Clear 21 1009 40 10000 3.6 330 16:35 23.07.2022
2483 Clouds 20 1009 45 10000 4.12 320 15:31 23.07.2022
2484 Clouds 20 1009 45 10000 4.12 330 14:59 23.07.2022
2485 Clear 20 1009 45 10000 4.12 320 14:28 23.07.2022
2486 Clear 20 1009 42 10000 4.63 350 13:36 23.07.2022
2487 Clear 17 1010 51 10000 3.09 310 10:49 23.07.2022
2488 Clear 17 1010 51 10000 2.57 360 10:21 23.07.2022
2489 Clear 15 1010 58 10000 4.12 330 08:39 23.07.2022
2490 Clear 13 1010 66 10000 3.09 340 03:39 23.07.2022
2491 Clear 14 1011 71 10000 2.06 310 01:27 23.07.2022
2492 Clear 17 1011 59 10000 2.06 300 22:42 22.07.2022
2493 Clear 20 1010 48 10000 2.57 280 20:52 22.07.2022
2494 Clear 20 1010 48 10000 3.09 290 19:35 22.07.2022
2495 Clouds 21 1010 44 10000 3.11 289 18:28 22.07.2022
2496 Clouds 21 1010 44 10000 3.11 289 18:28 22.07.2022
2497 Clear 22 1010 49 10000 4.63 290 16:55 22.07.2022
2498 Clear 23 1009 46 10000 5.66 270 14:54 22.07.2022
2499 Clouds 22 1009 64 10000 5.14 220 11:22 22.07.2022
2500 Clear 21 1009 68 10000 2.57 210 09:26 22.07.2022
2501 Clear 20 1010 72 10000 2.06 230 08:32 22.07.2022
2502 Clear 17 1010 88 10000 2.06 320 05:19 22.07.2022
2503 Clear 18 1010 88 10000 1.54 280 00:48 22.07.2022
2504 Clear 20 1010 77 10000 4.12 220 22:25 21.07.2022
2505 Clouds 19 1011 77 10000 3.09 160 21:29 21.07.2022
2506 Rain 21 1011 64 10000 4.12 160 19:26 21.07.2022
2507 Rain 23 1012 53 10000 4.12 190 17:39 21.07.2022
2508 Clear 23 1012 53 10000 4.12 190 17:19 21.07.2022
2509 Clear 24 1013 49 10000 4.63 190 14:55 21.07.2022
2510 Clear 24 1013 49 10000 4.63 190 14:29 21.07.2022
2511 Clear 23 1014 40 10000 5.14 200 12:28 21.07.2022
2512 Clear 22 1015 43 10000 4.12 180 10:56 21.07.2022
2513 Clear 21 1015 49 10000 3.09 210 09:27 21.07.2022
2514 Clear 19 1015 68 10000 3.09 190 08:49 21.07.2022
2515 Clear 17 1016 77 10000 2.57 200 07:32 21.07.2022
2516 Clear 14 1016 94 10000 2.57 230 03:55 21.07.2022
2517 Clear 16 1016 82 10000 1.03 0 00:24 21.07.2022
2518 Clear 19 1016 68 10000 3.09 130 22:21 20.07.2022
2519 Clear 20 1016 63 10000 2.57 90 20:51 20.07.2022
2520 Clear 22 1015 56 10000 2.57 100 19:49 20.07.2022
2521 Clouds 21 1016 60 10000 3.09 100 19:20 20.07.2022
2522 Clouds 21 1016 60 10000 3.09 90 18:33 20.07.2022
2523 Clouds 22 1016 52 10000 3.09 100 17:54 20.07.2022
2524 Clouds 22 1016 52 10000 2.57 360 16:19 20.07.2022
2525 Clouds 22 1016 52 10000 2.06 340 14:57 20.07.2022
2526 Clear 22 1016 52 10000 3.09 20 13:57 20.07.2022
2527 Clouds 20 1016 63 10000 3.6 360 11:32 20.07.2022
2528 Clear 17 1015 77 10000 3.09 320 07:50 20.07.2022
2529 Clear 13 1014 94 10000 4.12 340 02:45 20.07.2022
2530 Clear 14 1014 88 10000 3.6 340 00:46 20.07.2022
2531 Clear 15 1013 77 10000 3.09 340 23:37 19.07.2022
2532 Clear 15 1013 77 10000 3.09 330 22:22 19.07.2022
2533 Clear 17 1013 67 10000 2.06 320 21:18 19.07.2022
2534 Clear 18 1012 59 10000 2.06 330 20:23 19.07.2022
2535 Rain 19 1012 59 10000 3.6 110 18:43 19.07.2022
2536 Clouds 19 1012 52 10000 2.06 300 17:57 19.07.2022
2537 Clear 18 1011 59 10000 2.57 60 16:26 19.07.2022
2538 Clouds 17 1011 63 10000 2.06 210 14:36 19.07.2022
2539 Clouds 16 1010 72 10000 3.6 140 11:38 19.07.2022
2540 Clouds 14 1010 82 10000 4.12 180 10:31 19.07.2022
2541 Clouds 15 1010 72 10000 2.06 160 08:48 19.07.2022
2542 Clouds 15 1010 72 10000 2.06 160 08:22 19.07.2022
2543 Clouds 13 1010 87 10000 2.57 140 07:18 19.07.2022
2544 Clear 12 1010 93 10000 2.06 140 05:26 19.07.2022
2545 Clouds 12 1010 93 10000 2.57 150 04:46 19.07.2022
2546 Rain 13 1010 94 10000 2.57 150 00:34 19.07.2022
2547 Clouds 14 1010 82 10000 2.06 160 23:22 18.07.2022
2548 Clear 14 1010 82 10000 2.06 170 22:56 18.07.2022
2549 Clear 14 1010 76 10000 2.57 180 21:53 18.07.2022
2550 Clear 15 1010 77 10000 2.06 130 20:50 18.07.2022
2551 Clouds 15 1010 77 10000 2.06 210 19:24 18.07.2022
2552 Clear 17 1010 55 10000 3.6 220 16:52 18.07.2022
2553 Clear 17 1010 55 10000 2.57 240 15:42 18.07.2022
2554 Clouds 15 1010 62 10000 2.57 220 13:45 18.07.2022
2555 Clouds 16 1010 58 10000 3.6 220 12:37 18.07.2022
2556 Clouds 15 1009 67 10000 3.09 240 10:37 18.07.2022
2557 Clouds 13 1009 94 10000 4.12 230 08:50 18.07.2022
2558 Clouds 12 1009 93 10000 4.12 230 06:54 18.07.2022
2559 Clouds 15 1007 82 10000 2.57 170 23:31 17.07.2022
2560 Clouds 15 1007 82 10000 2.57 110 22:32 17.07.2022
2561 Clouds 15 1007 82 10000 1.54 90 21:44 17.07.2022
2562 Clouds 16 1007 77 10000 0.51 0 20:54 17.07.2022
2563 Clouds 16 1007 77 10000 2.06 240 20:35 17.07.2022
2564 Clouds 16 1007 72 10000 1.03 0 19:26 17.07.2022
2565 Clouds 17 1007 72 10000 1.03 0 18:26 17.07.2022
2566 Clouds 17 1007 67 10000 2.57 190 17:37 17.07.2022
2567 Clouds 17 1006 82 10000 4.63 110 16:50 17.07.2022
2568 Clouds 17 1006 82 10000 4.63 110 16:25 17.07.2022
2569 Rain 19 1006 55 10000 4.12 190 14:20 17.07.2022
2570 Clouds 19 1006 55 10000 3.6 210 13:24 17.07.2022
2571 Clouds 18 1006 63 10000 3.6 190 10:34 17.07.2022
2572 Clouds 17 1006 67 10000 2.06 170 08:43 17.07.2022
2573 Clear 11 1004 93 10000 1.54 230 02:43 17.07.2022
2574 Clear 12 1004 87 10000 3.09 230 01:47 17.07.2022
2575 Clear 14 1003 88 10000 3.6 210 23:19 16.07.2022
2576 Clear 16 1002 77 10000 2.06 180 20:59 16.07.2022
2577 Clouds 17 1002 67 10000 2.06 260 18:59 16.07.2022
2578 Rain 19 1001 59 10000 3.6 170 17:53 16.07.2022
2579 Clouds 19 1001 59 10000 2.57 230 16:24 16.07.2022
2580 Rain 17 1001 82 10000 2.06 140 13:47 16.07.2022
2581 Clouds 18 1000 67 10000 1.03 0 10:35 16.07.2022
2582 Clear 17 1000 72 10000 1.03 0 09:29 16.07.2022
2583 Clear 16 999 82 10000 1.03 0 08:42 16.07.2022
2584 Clouds 15 999 94 10000 1.03 0 07:41 16.07.2022
2585 Rain 13 999 100 10000 1.54 290 03:40 16.07.2022
2586 Rain 14 999 100 10000 2.57 330 01:59 16.07.2022
2587 Clouds 15 999 94 10000 1.54 290 23:21 15.07.2022
2588 Rain 15 999 100 10000 1.54 230 22:37 15.07.2022
2589 Rain 15 999 100 9000 2.57 260 20:47 15.07.2022
2590 Rain 17 999 88 10000 2.06 230 19:51 15.07.2022
2591 Clouds 18 999 72 10000 1.03 250 18:32 15.07.2022
2592 Rain 18 999 77 10000 3.6 130 17:25 15.07.2022
2593 Clouds 20 998 55 10000 3.09 150 14:35 15.07.2022
2594 Clouds 21 998 56 10000 4.63 170 12:43 15.07.2022
2595 Clouds 20 998 59 10000 4.12 190 10:53 15.07.2022
2596 Clouds 18 997 88 10000 3.09 150 07:55 15.07.2022
2597 Clouds 15 996 94 10000 2.06 130 05:54 15.07.2022
2598 Clear 15 996 94 10000 2.57 180 00:47 15.07.2022
2599 Clear 17 995 82 10000 2.57 150 23:25 14.07.2022
2600 Clouds 17 996 82 10000 3.6 160 22:42 14.07.2022
2601 Rain 19 996 82 10000 2.57 120 21:41 14.07.2022
2602 Rain 19 996 82 10000 2.57 120 21:41 14.07.2022
2603 Rain 19 996 82 10000 1.54 110 21:23 14.07.2022
2604 Thunderstorm 19 996 82 10000 1.03 350 20:43 14.07.2022
2605 Clouds 19 996 82 10000 1.03 0 20:19 14.07.2022
2606 Clear 20 996 72 10000 2.06 210 18:38 14.07.2022
2607 Clear 21 996 68 10000 4.12 190 16:20 14.07.2022
2608 Clouds 22 996 60 10000 5.66 190 15:26 14.07.2022
2609 Clouds 21 997 73 10000 5.14 170 13:52 14.07.2022
2610 Clouds 21 998 73 10000 4.12 110 12:36 14.07.2022
2611 Clouds 22 997 68 10000 4.12 130 11:28 14.07.2022
2612 Clouds 21 998 77 10000 3.09 160 10:58 14.07.2022
2613 Clouds 20 998 88 10000 3.6 130 08:58 14.07.2022
2614 Clouds 17 1000 100 9000 3.09 100 05:18 14.07.2022
2615 Clouds 17 1001 100 10000 1.03 40 01:21 14.07.2022
2616 Clouds 17 1001 100 10000 1.03 40 01:21 14.07.2022
2617 Fog 17 1001 100 1200 1.54 60 00:51 14.07.2022
2618 Clouds 18 1002 100 10000 0.51 0 22:31 13.07.2022
2619 Clouds 18 1002 100 10000 0.51 0 21:47 13.07.2022
2620 Clouds 18 1003 100 9000 2.06 150 20:41 13.07.2022
2621 Rain 18 1004 100 10000 2.57 110 18:40 13.07.2022
2622 Rain 18 1004 100 10000 2.57 110 17:31 13.07.2022
2623 Clouds 18 1005 94 10000 4.12 100 16:19 13.07.2022
2624 Rain 20 1006 94 10000 2.06 90 14:47 13.07.2022
2625 Clouds 22 1007 78 10000 2.57 140 11:54 13.07.2022
2626 Clouds 21 1008 83 10000 2.06 140 10:45 13.07.2022
2627 Clouds 20 1008 88 10000 2.06 180 09:54 13.07.2022
2628 Rain 19 1009 94 10000 3.6 130 09:20 13.07.2022
2629 Rain 18 1010 88 10000 3.09 140 05:22 13.07.2022
2630 Clear 20 1012 72 10000 2.57 100 01:22 13.07.2022
2631 Clear 21 1013 64 10000 2.06 90 23:35 12.07.2022
2632 Clear 22 1013 60 10000 1.54 90 21:53 12.07.2022
2633 Clear 24 1013 53 10000 1.54 130 20:58 12.07.2022
2634 Clear 24 1013 53 10000 2.06 110 20:37 12.07.2022
2635 Clear 24 1014 53 10000 2.57 90 18:53 12.07.2022
2636 Clear 24 1014 49 10000 2.06 80 17:38 12.07.2022
2637 Clear 25 1015 46 10000 3.09 50 15:42 12.07.2022
2638 Clouds 24 1016 53 10000 0.51 0 13:55 12.07.2022
2639 Clear 23 1016 53 10000 2.06 270 11:59 12.07.2022
2640 Clear 23 1016 49 10000 1.03 0 10:47 12.07.2022
2641 Clear 22 1016 64 10000 1.54 310 09:22 12.07.2022
2642 Clouds 21 1017 68 10000 2.06 350 08:18 12.07.2022
2643 Clear 19 1017 88 10000 0.51 0 05:57 12.07.2022
2644 Clear 18 1017 94 10000 1.03 0 05:39 12.07.2022
2645 Clear 17 1017 94 10000 0.51 0 01:43 12.07.2022
2646 Clouds 19 1016 88 10000 2.06 340 22:52 11.07.2022
2647 Clear 19 1016 88 10000 1.03 10 21:45 11.07.2022
2648 Clear 20 1016 82 10000 1.03 0 20:33 11.07.2022
2649 Clear 20 1015 82 10000 1.54 350 19:33 11.07.2022
2650 Clouds 21 1015 73 10000 2.06 360 18:32 11.07.2022
2651 Clear 20 1015 82 10000 2.06 350 17:36 11.07.2022
2652 Rain 18 1015 94 10000 0.51 0 15:46 11.07.2022
2653 Clouds 18 1015 88 3300 5.14 50 13:39 11.07.2022
2654 Rain 21 1015 64 10000 1.54 360 11:38 11.07.2022
2655 Clouds 19 1014 77 10000 1.54 60 10:18 11.07.2022
2656 Clear 19 1014 77 10000 1.54 40 09:41 11.07.2022
2657 Clouds 18 1014 82 10000 1.54 70 08:33 11.07.2022
2658 Fog 13 1014 100 200 2.06 20 03:23 11.07.2022
2659 Clear 15 1013 94 10000 1.54 90 00:20 11.07.2022
2660 Clear 15 1013 100 10000 0.51 0 22:55 10.07.2022
2661 Clear 18 1013 82 10000 1.54 160 21:41 10.07.2022
2662 Clouds 19 1012 82 10000 2.06 20 20:47 10.07.2022
2663 Clouds 18 1012 88 10000 1.54 40 19:48 10.07.2022
2664 Clouds 18 1012 82 10000 3.09 80 18:43 10.07.2022
2665 Clouds 19 1011 82 10000 3.6 80 17:37 10.07.2022
2666 Clouds 18 1011 82 10000 1.54 70 16:45 10.07.2022
2667 Rain 19 1011 82 10000 2.57 50 15:24 10.07.2022
2668 Clouds 16 1011 94 9000 4.12 50 14:21 10.07.2022
2669 Rain 16 1010 94 10000 3.6 30 12:27 10.07.2022
2670 Rain 14 1010 100 10000 4.63 30 09:58 10.07.2022
2671 Clouds 14 1010 94 10000 4.63 30 08:44 10.07.2022
2672 Rain 14 1010 94 10000 4.63 30 07:30 10.07.2022
2673 Clear 14 1010 88 10000 3.6 50 01:31 10.07.2022
2674 Clear 16 1010 77 10000 3.6 70 22:43 09.07.2022
2675 Clear 16 1010 77 10000 3.6 60 22:19 09.07.2022
2676 Clear 16 1010 82 10000 2.06 10 20:46 09.07.2022
2677 Rain 15 1010 88 10000 2.06 210 18:37 09.07.2022
2678 Rain 18 1009 59 10000 3.09 110 17:45 09.07.2022
2679 Clouds 19 1009 48 10000 3.6 110 16:44 09.07.2022
2680 Clouds 19 1009 55 10000 3.6 50 15:41 09.07.2022
2681 Clear 19 1009 45 10000 0.51 0 14:36 09.07.2022
2682 Clear 18 1009 59 10000 1.54 180 13:50 09.07.2022
2683 Clouds 16 1010 77 10000 3.09 130 12:45 09.07.2022
2684 Clouds 16 1010 77 10000 3.09 90 11:22 09.07.2022
2685 Clouds 15 1009 82 10000 3.6 130 10:22 09.07.2022
2686 Clear 14 1009 88 10000 2.57 110 07:45 09.07.2022
2687 Clouds 12 1009 93 10000 2.06 90 04:59 09.07.2022
2688 Clear 12 1009 100 10000 2.06 110 02:34 09.07.2022
2689 Drizzle 14 1009 82 10000 2.57 190 22:54 08.07.2022
2690 Clear 14 1009 82 10000 3.09 190 21:58 08.07.2022
2691 Clouds 15 1009 77 10000 3.09 200 20:41 08.07.2022
2692 Rain 15 1009 77 10000 2.57 230 19:53 08.07.2022
2693 Rain 17 1009 59 10000 3.09 270 18:24 08.07.2022
2694 Clear 18 1008 51 10000 3.09 260 16:48 08.07.2022
2695 Clear 17 1008 51 10000 4.12 290 14:53 08.07.2022
2696 Clouds 17 1007 51 10000 5.66 260 13:41 08.07.2022
2697 Clouds 18 1006 51 10000 5.14 290 11:51 08.07.2022
2698 Clear 18 1006 51 10000 5.14 260 10:29 08.07.2022
2699 Clouds 15 1005 67 10000 3.09 270 08:33 08.07.2022
2700 Clouds 14 1004 82 10000 2.06 280 06:50 08.07.2022
2701 Clouds 12 1003 93 10000 1.54 230 01:31 08.07.2022
2702 Clouds 12 1003 93 10000 2.57 170 22:59 07.07.2022
2703 Clouds 12 1003 100 10000 2.57 200 22:34 07.07.2022
2704 Clouds 13 1003 87 10000 3.09 170 20:35 07.07.2022
2705 Rain 13 1004 100 10000 3.09 140 18:20 07.07.2022
2706 Rain 13 1005 94 10000 4.12 120 16:51 07.07.2022
2707 Rain 17 1004 59 10000 4.12 170 14:34 07.07.2022
2708 Clouds 17 1004 55 10000 7.2 210 13:18 07.07.2022
2709 Rain 18 1004 48 10000 5.14 200 12:24 07.07.2022
2710 Rain 18 1004 48 10000 5.14 200 12:24 07.07.2022
2711 Clouds 18 1004 48 10000 5.66 190 11:44 07.07.2022
2712 Rain 18 1004 48 10000 5.66 190 11:24 07.07.2022
2713 Rain 19 1004 42 10000 4.63 220 10:40 07.07.2022
2714 Clouds 18 1004 48 10000 3.09 230 10:22 07.07.2022
2715 Clear 14 1004 82 10000 2.57 200 06:40 07.07.2022
2716 Clear 12 1003 87 10000 3.09 210 01:43 07.07.2022
2717 Clouds 10 1003 82 10000 2.51 168 23:36 06.07.2022
2718 Clear 14 1003 71 10000 3.6 200 23:18 06.07.2022
2719 Clear 14 1003 71 10000 3.6 200 22:52 06.07.2022
2720 Clear 14 1003 71 10000 3.6 200 22:52 06.07.2022
2721 Clear 14 1003 71 10000 3.6 200 22:34 06.07.2022
2722 Clouds 17 1003 51 10000 6.17 210 20:33 06.07.2022
2723 Clear 18 1003 45 10000 7.72 220 19:33 06.07.2022
2724 Clear 19 1003 45 10000 7.2 210 17:22 06.07.2022
2725 Clear 19 1003 42 10000 7.72 210 17:22 06.07.2022
2726 Clouds 20 1003 42 10000 7.72 210 15:58 06.07.2022
2727 Clouds 19 1003 48 10000 7.2 210 13:21 06.07.2022
2728 Clouds 20 1003 42 10000 6.69 220 12:28 06.07.2022
2729 Clouds 19 1003 52 10000 5.14 230 11:44 06.07.2022
2730 Clouds 16 1003 67 10000 4.63 220 09:50 06.07.2022
2731 Clouds 15 1002 77 10000 5.14 230 07:44 06.07.2022
2732 Clouds 14 1002 88 10000 5.14 240 07:19 06.07.2022
2733 Clouds 14 1002 82 10000 4.12 170 00:38 06.07.2022
2734 Clear 15 1003 72 10000 5.14 190 22:43 05.07.2022
2735 Clear 17 1003 67 10000 6.69 190 20:57 05.07.2022
2736 Clouds 18 1003 63 10000 6.69 200 20:33 05.07.2022
2737 Clear 19 1003 59 10000 6.17 210 19:39 05.07.2022
2738 Clouds 19 1003 63 10000 7.2 210 17:55 05.07.2022
2739 Clouds 19 1003 63 10000 6.17 210 17:25 05.07.2022
2740 Clouds 20 1003 63 10000 6.69 220 16:33 05.07.2022
2741 Rain 18 1003 88 10000 6.69 210 14:54 05.07.2022
2742 Rain 17 1003 82 10000 1.03 0 13:36 05.07.2022
2743 Rain 24 1003 40 10000 4.12 180 12:24 05.07.2022
2744 Clear 24 1004 53 10000 2.57 190 10:46 05.07.2022
2745 Clear 23 1005 53 10000 3.09 160 09:57 05.07.2022
2746 Clear 22 1006 56 10000 3.09 100 08:23 05.07.2022
2747 Clear 19 1007 68 10000 5.14 60 06:59 05.07.2022
2748 Clear 18 1008 67 10000 1.03 0 04:37 05.07.2022
2749 Clear 17 1009 67 10000 2.06 130 01:33 05.07.2022
2750 Clear 18 1010 59 10000 3.6 190 23:37 04.07.2022
2751 Clear 19 1010 59 10000 2.57 180 22:56 04.07.2022
2752 Clear 19 1011 59 10000 3.09 180 22:18 04.07.2022
2753 Clear 21 1011 52 10000 4.12 200 20:56 04.07.2022
2754 Clear 22 1011 49 10000 5.14 200 20:36 04.07.2022
2755 Clear 22 1011 49 10000 5.14 190 19:56 04.07.2022
2756 Clear 23 1011 46 10000 5.66 210 19:37 04.07.2022
2757 Clear 23 1011 43 10000 5.14 210 18:35 04.07.2022
2758 Clear 24 1012 40 10000 5.66 220 16:54 04.07.2022
2759 Clear 25 1012 41 10000 5.14 240 15:35 04.07.2022
2760 Clear 25 1013 46 10000 4.63 220 13:47 04.07.2022
2761 Clear 24 1013 49 10000 5.14 210 12:42 04.07.2022
2762 Clouds 22 1013 56 10000 4.63 210 10:40 04.07.2022
2763 Clouds 22 1013 56 10000 4.63 210 10:22 04.07.2022
2764 Clouds 20 1013 72 10000 5.66 200 08:33 04.07.2022
2765 Clouds 18 1013 82 10000 6.17 200 05:57 04.07.2022
2766 Clear 16 1013 82 10000 4.63 200 00:44 04.07.2022
2767 Clear 16 1013 82 10000 4.63 200 00:44 04.07.2022
2768 Clear 17 1013 72 10000 6.17 200 23:38 03.07.2022
2769 Clear 19 1013 63 10000 4.63 200 22:28 03.07.2022
2770 Clear 21 1012 56 10000 5.66 220 20:45 03.07.2022
2771 Clear 22 1012 52 10000 6.17 220 19:42 03.07.2022
2772 Clear 22 1012 52 10000 6.17 220 19:23 03.07.2022
2773 Clear 23 1012 46 10000 6.69 220 17:46 03.07.2022
2774 Clear 23 1012 43 10000 7.72 220 17:18 03.07.2022
2775 Clear 25 1012 35 10000 7.2 210 15:26 03.07.2022
2776 Clear 25 1012 41 10000 8.75 220 14:37 03.07.2022
2777 Clear 24 1012 56 10000 7.2 200 13:49 03.07.2022
2778 Clouds 23 1012 64 10000 7.72 190 12:42 03.07.2022
2779 Clouds 22 1012 68 10000 8.23 200 11:40 03.07.2022
2780 Clouds 21 1012 83 10000 6.69 210 10:40 03.07.2022
2781 Clouds 19 1012 94 10000 5.14 220 09:59 03.07.2022
2782 Clouds 20 1012 94 10000 3.6 180 07:37 03.07.2022
2783 Clouds 20 1013 94 10000 3.09 180 05:22 03.07.2022
2784 Clouds 22 1013 83 10000 3.09 140 00:24 03.07.2022
2785 Clouds 22 1014 88 10000 3.6 160 22:36 02.07.2022
2786 Clear 22 1014 88 10000 3.6 180 21:38 02.07.2022
2787 Clouds 22 1014 83 10000 3.6 170 20:20 02.07.2022
2788 Thunderstorm 21 1015 88 10000 5.14 160 19:49 02.07.2022
2789 Clouds 28 1015 54 10000 4.63 200 17:58 02.07.2022
2790 Clear 28 1015 54 10000 5.66 200 17:37 02.07.2022
2791 Clear 28 1016 50 10000 6.17 180 15:32 02.07.2022
2792 Clear 26 1017 47 10000 5.66 190 12:24 02.07.2022
2793 Clear 26 1017 53 10000 4.63 210 11:28 02.07.2022
2794 Clear 27 1017 44 10000 5.66 190 10:48 02.07.2022
2795 Clear 27 1017 50 10000 4.12 190 09:49 02.07.2022
2796 Clear 25 1017 57 10000 2.06 130 08:36 02.07.2022
2797 Clear 25 1017 53 10000 3.6 140 08:18 02.07.2022
2798 Clear 24 1018 46 10000 2.57 360 02:52 02.07.2022
2799 Clear 24 1018 46 10000 2.06 340 00:27 02.07.2022
2800 Clear 26 1018 41 10000 1.54 360 22:59 01.07.2022
2801 Clear 27 1018 41 10000 1.54 350 22:19 01.07.2022
2802 Clear 28 1018 36 10000 1.54 340 21:37 01.07.2022
2803 Clear 28 1018 36 10000 1.54 320 20:57 01.07.2022
2804 Clear 30 1018 32 10000 2.06 260 19:47 01.07.2022
2805 Clear 30 1019 30 10000 2.57 240 18:42 01.07.2022
2806 Clear 30 1019 32 10000 4.12 220 16:35 01.07.2022
2807 Clear 31 1020 30 10000 3.09 200 13:55 01.07.2022
2808 Clear 30 1020 32 10000 2.57 180 13:22 01.07.2022
2809 Clouds 28 1021 44 10000 3.09 230 10:46 01.07.2022
2810 Clouds 28 1021 50 10000 3.09 230 10:18 01.07.2022
2811 Clear 23 1021 78 10000 1.54 250 05:58 01.07.2022
2812 Clear 22 1021 78 10000 1.54 200 01:30 01.07.2022
2813 Clear 23 1021 73 10000 0.51 0 23:28 30.06.2022
2814 Clear 24 1021 68 10000 1.54 240 22:45 30.06.2022
2815 Clear 24 1021 68 10000 1.54 240 22:45 30.06.2022
2816 Clear 24 1021 68 10000 1.54 240 22:27 30.06.2022
2817 Clear 25 1020 64 10000 2.57 240 21:50 30.06.2022
2818 Clear 27 1020 53 10000 3.6 230 20:31 30.06.2022
2819 Clouds 28 1020 50 10000 4.12 220 19:55 30.06.2022
2820 Clouds 29 1020 47 10000 4.63 220 19:32 30.06.2022
2821 Clear 29 1020 47 10000 5.66 210 18:43 30.06.2022
2822 Clear 30 1020 45 10000 4.63 210 17:49 30.06.2022
2823 Clouds 30 1020 45 10000 3.6 240 16:55 30.06.2022
2824 Clear 29 1020 44 10000 4.63 210 15:44 30.06.2022
2825 Clear 29 1021 44 10000 4.63 200 13:49 30.06.2022
2826 Clear 29 1021 42 10000 5.14 220 12:36 30.06.2022
2827 Clear 29 1021 44 10000 4.12 240 11:56 30.06.2022
2828 Clear 26 1021 53 10000 4.12 220 09:55 30.06.2022
2829 Clear 26 1021 57 10000 3.09 200 09:35 30.06.2022
2830 Clear 23 1021 64 10000 2.57 230 08:19 30.06.2022
2831 Clear 23 1021 64 10000 2.57 230 08:19 30.06.2022
2832 Clouds 23 1021 68 10000 2.57 250 07:24 30.06.2022
2833 Clear 21 1020 73 10000 1.03 0 02:38 30.06.2022
2834 Clear 22 1021 68 10000 2.57 240 23:36 29.06.2022
2835 Clear 24 1020 60 10000 2.06 250 22:41 29.06.2022
2836 Clear 24 1020 60 10000 2.57 230 21:43 29.06.2022
2837 Clear 26 1020 53 10000 3.6 230 20:34 29.06.2022
2838 Clear 28 1020 47 10000 3.6 230 19:48 29.06.2022
2839 Clear 29 1020 42 10000 4.12 250 17:54 29.06.2022
2840 Clear 29 1020 36 10000 5.14 220 16:51 29.06.2022
2841 Clear 29 1021 36 10000 4.63 190 15:32 29.06.2022
2842 Clear 28 1022 36 10000 4.63 180 13:20 29.06.2022
2843 Clear 26 1022 41 10000 4.12 160 11:57 29.06.2022
2844 Clear 24 1023 46 10000 4.12 130 09:35 29.06.2022
2845 Clear 23 1023 49 10000 3.09 130 08:46 29.06.2022
2846 Clear 18 1023 55 10000 3.6 140 05:42 29.06.2022
2847 Clear 18 1024 55 10000 3.6 140 02:21 29.06.2022
2848 Clear 19 1024 55 10000 3.09 140 00:38 29.06.2022
2849 Clear 21 1024 49 10000 3.6 130 23:26 28.06.2022
2850 Clear 22 1024 49 10000 3.09 130 22:48 28.06.2022
2851 Clear 23 1024 46 10000 3.09 120 21:55 28.06.2022
2852 Clear 23 1024 46 10000 3.6 130 21:33 28.06.2022
2853 Clear 24 1023 43 10000 4.63 120 20:51 28.06.2022
2854 Clear 26 1023 38 10000 5.14 120 19:43 28.06.2022
2855 Clear 26 1023 38 10000 5.14 120 19:23 28.06.2022
2856 Clear 26 1024 44 10000 4.63 130 17:44 28.06.2022
2857 Clear 26 1024 44 10000 4.12 140 16:29 28.06.2022
2858 Clear 26 1024 44 10000 4.12 140 15:53 28.06.2022
2859 Clear 25 1025 43 10000 4.63 130 14:21 28.06.2022
2860 Clear 25 1025 43 10000 4.63 130 13:54 28.06.2022
2861 Clear 24 1025 46 10000 5.66 130 13:20 28.06.2022
2862 Clear 23 1025 46 10000 5.66 110 11:37 28.06.2022
2863 Clear 20 1025 52 10000 6.17 110 09:41 28.06.2022
2864 Clear 20 1025 52 10000 6.17 120 08:45 28.06.2022
2865 Clear 18 1025 59 10000 6.69 110 07:58 28.06.2022
2866 Clear 18 1025 63 10000 6.69 110 07:19 28.06.2022
2867 Clear 18 1024 67 10000 5.14 110 01:33 28.06.2022
2868 Clear 21 1024 64 10000 4.12 120 23:44 27.06.2022
2869 Clear 21 1023 68 10000 4.63 100 22:54 27.06.2022
2870 Clear 23 1022 60 10000 4.63 110 21:38 27.06.2022
2871 Clear 24 1022 56 10000 4.12 100 20:54 27.06.2022
2872 Clear 26 1022 53 10000 5.14 110 19:40 27.06.2022
2873 Clear 26 1022 53 10000 4.63 120 18:33 27.06.2022
2874 Clear 26 1022 53 10000 5.14 100 16:36 27.06.2022
2875 Clouds 26 1022 53 10000 5.66 80 15:24 27.06.2022
2876 Clouds 25 1022 57 10000 5.66 130 13:39 27.06.2022
2877 Clouds 25 1022 57 10000 4.63 120 12:56 27.06.2022
2878 Clear 23 1022 60 10000 4.12 130 10:35 27.06.2022
2879 Clear 22 1022 64 10000 4.63 90 09:21 27.06.2022
2880 Clear 21 1022 68 10000 4.63 90 08:30 27.06.2022
2881 Clear 19 1021 77 10000 5.14 110 06:39 27.06.2022
2882 Clear 18 1021 59 10000 5.14 80 03:55 27.06.2022
2883 Clear 20 1020 55 10000 5.14 70 01:18 27.06.2022
2884 Clear 23 1020 49 10000 4.63 70 22:22 26.06.2022
2885 Clear 26 1019 47 10000 5.14 60 20:48 26.06.2022
2886 Clear 27 1018 44 10000 3.6 90 19:42 26.06.2022
2887 Clouds 28 1018 41 10000 1.54 0 18:31 26.06.2022
2888 Clouds 28 1018 44 10000 2.57 360 16:47 26.06.2022
2889 Clouds 28 1018 44 10000 2.57 330 15:26 26.06.2022
2890 Clear 27 1018 47 10000 2.57 30 13:41 26.06.2022
2891 Clear 27 1018 47 10000 2.57 350 13:20 26.06.2022
2892 Clear 26 1017 50 10000 2.06 0 11:26 26.06.2022
2893 Clear 23 1017 60 10000 3.09 220 10:26 26.06.2022
2894 Clear 22 1017 64 10000 3.09 180 09:22 26.06.2022
2895 Clear 19 1017 77 10000 1.03 0 07:41 26.06.2022
2896 Clear 17 1016 77 10000 4.12 170 01:54 26.06.2022
2897 Clear 19 1016 68 10000 5.14 200 00:21 26.06.2022
2898 Clear 19 1016 68 10000 3.6 210 23:49 25.06.2022
2899 Clear 20 1016 63 10000 3.6 210 22:57 25.06.2022
2900 Clear 20 1016 63 10000 4.63 220 22:27 25.06.2022
2901 Clear 23 1016 53 10000 5.66 210 21:40 25.06.2022
2902 Clear 23 1016 49 10000 4.63 220 21:18 25.06.2022
2903 Clear 24 1016 46 10000 4.63 220 20:27 25.06.2022
2904 Clear 26 1016 44 10000 7.2 220 19:21 25.06.2022
2905 Clear 28 1016 36 10000 4.63 200 17:56 25.06.2022
2906 Clear 27 1016 36 10000 3.09 220 17:22 25.06.2022
2907 Clear 27 1016 36 10000 4.63 230 15:26 25.06.2022
2908 Clear 26 1017 38 10000 3.09 0 13:27 25.06.2022
2909 Clear 25 1017 41 10000 3.09 190 12:37 25.06.2022
2910 Clear 24 1017 46 10000 3.6 230 10:34 25.06.2022
2911 Clear 23 1017 49 10000 3.09 220 08:58 25.06.2022
2912 Clear 22 1017 52 10000 2.06 190 08:35 25.06.2022
2913 Clear 20 1017 63 10000 2.06 170 07:45 25.06.2022
2914 Clear 15 1016 82 10000 2.06 220 03:30 25.06.2022
2915 Clear 18 1015 67 10000 2.06 250 00:33 25.06.2022
2916 Clear 19 1014 59 10000 2.57 220 22:51 24.06.2022
2917 Clear 22 1014 43 10000 1.54 260 21:31 24.06.2022
2918 Clear 22 1013 40 10000 1.54 280 20:25 24.06.2022
2919 Clear 22 1013 24 10000 2.57 300 19:52 24.06.2022
2920 Clear 22 1013 43 10000 2.57 250 19:19 24.06.2022
2921 Clear 22 1013 40 10000 3.6 290 18:48 24.06.2022
2922 Clear 22 1013 40 10000 3.6 290 18:30 24.06.2022
2923 Clear 23 1013 40 10000 4.12 260 16:57 24.06.2022
2924 Clear 20 1012 45 10000 3.6 250 15:28 24.06.2022
2925 Clouds 21 1012 42 10000 4.63 250 14:25 24.06.2022
2926 Clouds 20 1012 45 10000 4.63 260 13:53 24.06.2022
2927 Clouds 19 1011 48 10000 2.57 290 11:42 24.06.2022
2928 Clouds 18 1011 51 10000 4.63 260 10:43 24.06.2022
2929 Clouds 17 1010 55 10000 6.17 260 09:42 24.06.2022
2930 Clouds 16 1010 58 10000 5.66 260 08:58 24.06.2022
2931 Clouds 16 1010 58 10000 5.66 260 08:40 24.06.2022
2932 Clear 14 1009 71 10000 4.12 240 06:47 24.06.2022
2933 Rain 14 1009 71 10000 4.12 240 06:27 24.06.2022
2934 Rain 13 1008 71 10000 3.09 230 05:21 24.06.2022
2935 Clear 14 1006 82 10000 2.57 230 00:47 24.06.2022
2936 Clear 16 1005 72 10000 4.12 220 22:43 23.06.2022
2937 Clear 17 1004 72 10000 3.6 220 21:40 23.06.2022
2938 Clear 17 1004 72 10000 4.12 230 20:42 23.06.2022
2939 Clear 18 1004 67 10000 6.17 220 19:55 23.06.2022
2940 Clear 19 1003 59 10000 7.2 220 18:38 23.06.2022
2941 Clear 19 1003 59 10000 8.23 220 17:35 23.06.2022
2942 Clouds 18 1002 63 10000 7.72 210 16:32 23.06.2022
2943 Clouds 19 1002 55 10000 5.66 230 15:26 23.06.2022
2944 Clouds 18 1002 59 10000 7.72 240 14:36 23.06.2022
2945 Clouds 13 1001 87 10000 6.17 220 11:42 23.06.2022
2946 Rain 13 1001 94 10000 5.66 190 10:41 23.06.2022
2947 Rain 15 1001 72 10000 6.17 190 09:19 23.06.2022
2948 Clouds 9 1003 81 10000 2.57 160 04:48 23.06.2022
2949 Clear 10 1004 71 10000 2.57 70 00:27 23.06.2022
2950 Clear 10 1004 71 10000 3.09 70 23:52 22.06.2022
2951 Clouds 11 1004 62 10000 3.09 70 23:18 22.06.2022
2952 Clear 12 1005 62 10000 2.57 40 21:44 22.06.2022
2953 Clear 13 1005 58 10000 2.06 10 20:51 22.06.2022
2954 Clear 14 1005 54 10000 2.57 10 20:18 22.06.2022
2955 Clear 13 1006 58 10000 2.06 340 19:27 22.06.2022
2956 Clouds 14 1006 54 10000 2.06 280 17:33 22.06.2022
2957 Clouds 14 1006 54 10000 2.06 260 16:41 22.06.2022
2958 Clouds 14 1006 54 10000 2.06 260 16:41 22.06.2022
2959 Clouds 13 1006 58 10000 2.57 280 15:28 22.06.2022
2960 Clouds 13 1006 58 10000 3.6 280 14:41 22.06.2022
2961 Clouds 13 1006 58 10000 3.6 270 13:46 22.06.2022
2962 Clouds 13 1006 58 10000 3.6 270 13:24 22.06.2022
2963 Clouds 13 1005 66 10000 5.14 280 11:50 22.06.2022
2964 Clouds 13 1005 66 10000 5.14 280 11:50 22.06.2022
2965 Clouds 13 1005 62 10000 4.63 240 10:58 22.06.2022
2966 Clouds 12 1004 76 10000 5.14 260 10:26 22.06.2022
2967 Clouds 12 1003 82 10000 4.63 260 08:57 22.06.2022
2968 Clouds 13 1002 94 10000 5.14 210 06:39 22.06.2022
2969 Rain 12 1002 82 10000 3.09 120 01:52 22.06.2022
2970 Rain 13 1002 76 10000 2.06 170 00:56 22.06.2022
2971 Rain 15 1003 54 10000 2.06 220 22:40 21.06.2022
2972 Clear 16 1003 51 10000 4.12 230 20:40 21.06.2022
2973 Clear 18 1002 48 10000 4.63 220 19:18 21.06.2022
2974 Clouds 19 1002 48 10000 5.66 220 17:44 21.06.2022
2975 Clear 20 1002 45 10000 6.69 200 16:34 21.06.2022
2976 Clouds 19 1004 45 10000 5.66 190 11:56 21.06.2022
2977 Clouds 18 1004 48 10000 5.66 180 10:27 21.06.2022
2978 Clouds 17 1004 51 10000 5.14 160 08:54 21.06.2022
2979 Clear 15 1005 58 10000 3.6 160 07:35 21.06.2022
2980 Clear 10 1005 76 10000 3.6 140 04:40 21.06.2022
2981 Clear 12 1006 71 10000 2.57 150 23:27 20.06.2022
2982 Clear 14 1006 58 10000 2.57 150 21:59 20.06.2022
2983 Clear 14 1006 58 10000 2.57 140 21:32 20.06.2022
2984 Clear 15 1006 54 10000 3.09 130 20:25 20.06.2022
2985 Clear 16 1006 47 10000 2.57 100 18:56 20.06.2022
2986 Clear 16 1006 47 10000 3.6 80 18:24 20.06.2022
2987 Clouds 16 1006 47 10000 4.12 100 17:44 20.06.2022
2988 Clear 16 1007 51 10000 3.6 90 16:24 20.06.2022
2989 Clear 16 1007 47 10000 3.09 60 14:36 20.06.2022
2990 Clouds 13 1008 58 10000 1.54 0 11:47 20.06.2022
2991 Clouds 12 1008 66 10000 1.54 80 09:55 20.06.2022
2992 Clouds 11 1008 66 10000 1.03 0 08:46 20.06.2022
2993 Clouds 11 1007 62 10000 1.03 0 07:36 20.06.2022
2994 Clouds 9 1007 76 10000 1.54 70 04:30 20.06.2022
2995 Clear 9 1006 71 10000 3.09 80 01:32 20.06.2022
2996 Clear 11 1006 66 10000 3.6 60 23:48 19.06.2022
2997 Clear 13 1005 58 10000 3.09 50 22:19 19.06.2022
2998 Clear 14 1005 54 10000 3.09 40 21:42 19.06.2022
2999 Clear 14 1004 54 10000 4.12 30 20:49 19.06.2022
3000 Clear 15 1004 47 10000 5.66 50 19:49 19.06.2022
3001 Clear 15 1004 47 10000 5.66 50 19:24 19.06.2022
3002 Clouds 16 1003 47 10000 5.66 40 18:32 19.06.2022
3003 Clear 16 1003 47 10000 6.17 40 17:42 19.06.2022
3004 Clear 16 1003 41 10000 4.63 40 16:47 19.06.2022
3005 Clear 16 1003 41 10000 4.63 40 16:23 19.06.2022
3006 Clear 17 1002 41 10000 6.17 60 15:29 19.06.2022
3007 Clear 16 1002 44 10000 5.66 60 14:41 19.06.2022
3008 Clear 15 1002 47 10000 4.63 20 13:52 19.06.2022
3009 Clouds 14 1002 54 10000 5.66 60 12:19 19.06.2022
3010 Clouds 14 1002 54 10000 5.66 40 10:52 19.06.2022
3011 Clear 12 1001 58 10000 7.2 50 08:55 19.06.2022
3012 Clear 13 1001 54 10000 7.2 60 08:31 19.06.2022
3013 Clear 12 1000 62 10000 6.17 70 06:54 19.06.2022
3014 Clear 10 1001 76 10000 5.14 80 03:38 19.06.2022
3015 Clear 11 1001 66 10000 5.66 70 00:28 19.06.2022
3016 Clear 11 1001 66 10000 5.14 70 23:59 18.06.2022
3017 Clear 12 1001 58 10000 5.14 70 23:34 18.06.2022
3018 Clear 14 1002 50 10000 3.6 70 22:23 18.06.2022
3019 Clear 15 1002 47 10000 4.12 70 20:51 18.06.2022
3020 Clear 15 1003 47 10000 3.6 80 20:18 18.06.2022
3021 Clear 16 1003 44 10000 5.14 70 18:57 18.06.2022
3022 Clear 16 1003 47 10000 5.14 60 18:38 18.06.2022
3023 Clear 16 1004 47 10000 3.6 80 17:29 18.06.2022
3024 Clouds 16 1004 47 10000 3.09 100 15:57 18.06.2022
3025 Clear 16 1005 47 10000 4.12 80 14:54 18.06.2022
3026 Clear 15 1005 47 10000 3.6 80 14:35 18.06.2022
3027 Clear 15 1006 47 10000 3.6 80 12:30 18.06.2022
3028 Rain 14 1007 54 10000 3.6 70 11:20 18.06.2022
3029 Clouds 12 1008 62 10000 2.57 80 09:39 18.06.2022
3030 Clouds 12 1008 66 10000 3.6 70 08:46 18.06.2022
3031 Clear 11 1009 66 10000 2.57 80 07:34 18.06.2022
3032 Clear 8 1010 81 10000 4.12 80 05:20 18.06.2022
3033 Clouds 8 1011 81 10000 3.09 60 01:50 18.06.2022
3034 Clouds 8 1011 81 10000 3.6 60 01:21 18.06.2022
3035 Clear 9 1011 76 10000 3.6 60 00:23 18.06.2022
3036 Clear 9 1011 76 10000 3.6 60 00:23 18.06.2022
3037 Clouds 10 1012 71 10000 3.09 60 23:36 17.06.2022
3038 Clear 11 1012 71 10000 2.57 60 22:29 17.06.2022
3039 Clouds 13 1012 62 10000 2.06 360 20:29 17.06.2022
3040 Clouds 13 1012 62 10000 2.57 340 19:24 17.06.2022
3041 Clouds 13 1012 62 10000 2.57 340 19:24 17.06.2022
3042 Clouds 13 1013 62 10000 3.09 360 17:56 17.06.2022
3043 Clouds 14 1013 58 10000 5.14 320 16:44 17.06.2022
3044 Clouds 14 1013 58 10000 5.14 320 16:25 17.06.2022
3045 Clouds 14 1013 54 10000 3.09 360 15:37 17.06.2022
3046 Clouds 14 1013 58 10000 5.14 10 14:23 17.06.2022
3047 Clouds 14 1013 58 10000 4.12 320 13:58 17.06.2022
3048 Clouds 14 1013 58 10000 4.12 320 13:38 17.06.2022
3049 Clouds 12 1013 66 10000 3.6 350 12:24 17.06.2022
3050 Clouds 12 1013 66 10000 4.12 360 11:54 17.06.2022
3051 Clouds 11 1013 66 10000 3.6 10 11:33 17.06.2022
3052 Clouds 9 1013 76 10000 4.63 350 08:56 17.06.2022
3053 Clouds 10 1013 71 10000 4.63 10 08:25 17.06.2022
3054 Clouds 8 1013 81 10000 4.63 10 06:42 17.06.2022
3055 Clouds 7 1012 87 10000 4.63 360 03:45 17.06.2022
3056 Clouds 7 1012 87 10000 5.14 10 01:55 17.06.2022
3057 Clouds 8 1011 87 10000 4.63 360 23:35 16.06.2022
3058 Clouds 8 1011 87 10000 5.66 360 22:41 16.06.2022
3059 Clouds 9 1010 81 10000 6.17 360 21:21 16.06.2022
3060 Clouds 9 1010 81 10000 4.63 360 20:51 16.06.2022
3061 Clouds 9 1010 81 10000 4.63 360 20:27 16.06.2022
3062 Clouds 10 1010 76 10000 5.66 360 19:31 16.06.2022
3063 Clouds 10 1009 87 10000 5.66 10 17:54 16.06.2022
3064 Clouds 10 1009 87 10000 5.66 360 17:33 16.06.2022
3065 Rain 10 1009 87 10000 4.63 350 16:24 16.06.2022
3066 Rain 10 1009 87 10000 5.14 10 15:21 16.06.2022
3067 Rain 9 1008 93 10000 5.66 360 14:27 16.06.2022
3068 Rain 9 1008 93 10000 6.17 360 12:56 16.06.2022
3069 Rain 8 1007 100 10000 6.17 360 12:34 16.06.2022
3070 Rain 8 1007 93 10000 5.66 350 11:49 16.06.2022
3071 Rain 8 1007 93 10000 6.69 360 10:42 16.06.2022
3072 Rain 8 1007 87 10000 6.69 360 09:43 16.06.2022
3073 Rain 8 1006 87 10000 6.69 350 09:19 16.06.2022
3074 Rain 7 1007 93 10000 6.69 10 07:57 16.06.2022
3075 Rain 7 1007 93 10000 7.2 10 06:49 16.06.2022
3076 Rain 7 1008 93 10000 6.17 10 04:27 16.06.2022
3077 Rain 7 1008 93 10000 5.14 360 01:53 16.06.2022
3078 Rain 8 1008 87 10000 6.17 10 01:32 16.06.2022
3079 Rain 8 1009 61 10000 5.14 10 00:31 16.06.2022
3080 Rain 8 1009 93 10000 5.66 10 22:59 15.06.2022
3081 Rain 9 1010 87 10000 5.66 20 21:55 15.06.2022
3082 Rain 10 1010 81 10000 5.66 20 21:20 15.06.2022
3083 Clouds 10 1009 76 10000 7.2 30 20:37 15.06.2022
3084 Clouds 10 1009 81 10000 7.72 10 20:18 15.06.2022
3085 Clouds 12 1010 76 10000 6.17 10 18:47 15.06.2022
3086 Clouds 12 1010 46 10000 6.17 20 17:54 15.06.2022
3087 Clouds 13 1009 76 10000 6.17 20 16:35 15.06.2022
3088 Clouds 13 1010 76 10000 6.17 20 15:23 15.06.2022
3089 Clouds 14 1008 76 10000 7.2 20 13:37 15.06.2022
3090 Clouds 16 1008 72 10000 6.69 20 12:51 15.06.2022
3091 Clouds 17 1008 67 10000 5.14 10 11:37 15.06.2022
3092 Clouds 17 1008 72 10000 4.63 20 10:23 15.06.2022
3093 Clouds 17 1008 67 10000 5.14 20 09:34 15.06.2022
3094 Clouds 17 1008 67 10000 4.63 40 08:27 15.06.2022
3095 Clear 15 1007 77 10000 4.63 40 06:33 15.06.2022
3096 Clear 12 1007 93 10000 3.09 20 03:28 15.06.2022
3097 Clear 12 1007 87 10000 2.57 50 01:37 15.06.2022
3098 Clear 13 1007 82 10000 3.6 40 00:41 15.06.2022
3099 Clouds 14 1007 82 10000 4.12 20 23:38 14.06.2022
3100 Clouds 14 1007 82 10000 3.09 60 22:51 14.06.2022
3101 Clouds 17 1006 59 10000 3.6 30 21:47 14.06.2022
3102 Clouds 17 1006 59 10000 3.6 30 21:26 14.06.2022
3103 Clouds 18 1006 55 10000 3.09 220 20:48 14.06.2022
3104 Clouds 19 1006 48 10000 4.63 220 19:59 14.06.2022
3105 Clear 20 1005 42 10000 2.57 190 18:45 14.06.2022
3106 Clear 20 1005 39 10000 3.6 230 17:29 14.06.2022
3107 Clear 21 1005 45 10000 4.63 200 16:43 14.06.2022
3108 Clear 19 1005 48 10000 4.63 230 15:49 14.06.2022
3109 Clear 19 1005 45 10000 5.66 210 14:57 14.06.2022
3110 Clouds 18 1005 51 10000 5.14 220 14:19 14.06.2022
3111 Rain 19 1005 45 10000 4.12 190 13:32 14.06.2022
3112 Rain 18 1005 48 10000 3.6 240 12:25 14.06.2022
3113 Clouds 20 1005 45 10000 4.12 280 10:59 14.06.2022
3114 Clouds 20 1005 45 10000 4.12 280 10:59 14.06.2022
3115 Clouds 20 1005 52 10000 3.6 240 10:33 14.06.2022
3116 Clouds 17 1005 67 10000 3.6 210 09:28 14.06.2022
3117 Clouds 16 1004 72 10000 3.09 210 08:41 14.06.2022
3118 Clear 14 1004 82 10000 2.06 200 06:54 14.06.2022
3119 Clear 12 1004 93 10000 2.06 220 04:27 14.06.2022
3120 Clear 13 1003 82 10000 2.06 230 01:50 14.06.2022
3121 Clear 14 1003 76 10000 3.09 230 00:27 14.06.2022
3122 Clear 15 1002 67 10000 2.57 170 22:59 13.06.2022
3123 Clear 16 1002 63 10000 2.57 170 22:23 13.06.2022
3124 Clear 17 1002 55 10000 3.09 150 21:41 13.06.2022
3125 Clear 17 1002 63 10000 3.09 170 19:59 13.06.2022
3126 Clear 18 1002 59 10000 4.12 110 19:18 13.06.2022
3127 Clouds 16 1002 72 10000 2.57 120 17:56 13.06.2022
3128 Rain 17 1002 59 10000 4.12 120 17:25 13.06.2022
3129 Rain 19 1002 48 10000 4.63 130 16:31 13.06.2022
3130 Rain 21 1001 40 10000 3.09 0 14:51 13.06.2022
3131 Rain 21 1001 40 10000 3.09 0 14:31 13.06.2022
3132 Clouds 21 1001 42 10000 3.09 170 13:33 13.06.2022
3133 Clouds 20 1001 45 10000 1.54 140 12:23 13.06.2022
3134 Clouds 19 1001 55 10000 3.09 220 10:56 13.06.2022
3135 Clouds 18 1001 55 10000 3.09 190 10:26 13.06.2022
3136 Clouds 16 1002 72 10000 2.57 200 08:52 13.06.2022
3137 Clouds 13 1002 82 10000 4.63 220 06:37 13.06.2022
3138 Clear 12 1002 87 10000 4.12 210 05:35 13.06.2022
3139 Clear 11 1002 87 10000 2.57 210 01:55 13.06.2022
3140 Clear 11 1002 87 10000 4.12 220 01:34 13.06.2022
3141 Clear 14 1002 67 10000 1.54 180 23:48 12.06.2022
3142 Clear 15 1003 58 10000 3.09 180 22:39 12.06.2022
3143 Clear 16 1003 58 10000 3.6 220 21:46 12.06.2022
3144 Clear 17 1003 55 10000 4.63 230 20:53 12.06.2022
3145 Clouds 18 1002 55 10000 4.12 230 19:59 12.06.2022
3146 Clouds 18 1002 55 10000 4.12 230 19:25 12.06.2022
3147 Clouds 18 1003 59 10000 3.09 220 17:36 12.06.2022
3148 Clouds 18 1003 51 10000 3.09 300 15:54 12.06.2022
3149 Clouds 18 1003 55 10000 4.12 260 14:51 12.06.2022
3150 Clouds 17 1003 63 10000 4.12 210 14:19 12.06.2022
3151 Clouds 17 1003 67 10000 5.14 230 13:46 12.06.2022
3152 Clouds 15 1004 77 10000 5.14 240 12:31 12.06.2022
3153 Clouds 15 1003 77 10000 4.12 260 11:19 12.06.2022
3154 Clouds 14 1003 82 10000 4.63 240 10:20 12.06.2022
3155 Clouds 14 1003 82 10000 6.17 210 08:51 12.06.2022
3156 Rain 14 1003 82 10000 6.17 210 08:29 12.06.2022
3157 Clouds 15 1003 77 10000 6.17 210 06:49 12.06.2022
3158 Clear 14 1004 82 10000 5.14 180 04:26 12.06.2022
3159 Clouds 13 1005 87 10000 5.14 200 02:27 12.06.2022
3160 Clear 13 1005 82 10000 6.69 190 01:35 12.06.2022
3161 Clear 14 1005 82 10000 6.17 180 00:48 12.06.2022
3162 Clear 14 1006 82 10000 6.17 180 00:19 12.06.2022
3163 Clouds 14 1007 82 10000 5.14 190 23:21 11.06.2022
3164 Clouds 15 1007 88 10000 6.69 210 22:37 11.06.2022
3165 Clouds 16 1007 94 10000 3.6 180 21:18 11.06.2022
3166 Rain 17 1008 82 10000 5.14 170 20:27 11.06.2022
3167 Rain 18 1008 67 10000 5.14 190 19:36 11.06.2022
3168 Clouds 18 1009 63 10000 5.66 210 18:45 11.06.2022
3169 Clouds 18 1009 63 10000 5.66 210 18:27 11.06.2022
3170 Clear 20 1009 48 10000 6.69 210 17:48 11.06.2022
3171 Rain 20 1009 48 10000 6.69 210 17:26 11.06.2022
3172 Clear 21 1010 37 10000 6.17 200 16:43 11.06.2022
3173 Clear 22 1010 32 10000 4.63 180 16:18 11.06.2022
3174 Clear 22 1011 28 10000 4.63 190 14:44 11.06.2022
3175 Clear 20 1012 30 10000 6.17 200 13:52 11.06.2022
3176 Clear 20 1012 27 10000 4.12 180 12:19 11.06.2022
3177 Clear 20 1012 27 10000 4.12 180 12:19 11.06.2022
3178 Clear 19 1013 29 10000 4.12 220 10:31 11.06.2022
3179 Clear 19 1014 34 10000 3.6 170 09:41 11.06.2022
3180 Clear 18 1014 48 10000 3.09 170 08:44 11.06.2022
3181 Clear 14 1015 58 10000 2.06 190 06:33 11.06.2022
3182 Clear 13 1015 58 10000 1.54 210 05:44 11.06.2022
3183 Clear 11 1015 66 10000 1.03 250 03:18 11.06.2022
3184 Clear 11 1015 62 10000 2.06 250 01:51 11.06.2022
3185 Clear 11 1015 62 10000 2.06 250 01:25 11.06.2022
3186 Clear 13 1014 47 10000 1.03 0 23:26 10.06.2022
3187 Clear 16 1014 38 10000 1.54 310 22:20 10.06.2022
3188 Clear 17 1014 36 10000 1.03 300 21:27 10.06.2022
3189 Clear 18 1014 29 10000 2.06 300 20:37 10.06.2022
3190 Clear 17 1014 33 10000 2.06 280 20:19 10.06.2022
3191 Clear 18 1014 31 10000 3.09 240 19:19 10.06.2022
3192 Clear 18 1013 31 10000 3.09 260 18:30 10.06.2022
3193 Clear 18 1014 31 10000 2.06 0 17:43 10.06.2022
3194 Clear 18 1014 31 10000 3.6 230 17:21 10.06.2022
3195 Clear 18 1014 34 10000 3.09 300 16:25 10.06.2022
3196 Clear 17 1014 33 10000 2.57 0 15:37 10.06.2022
3197 Clear 17 1014 33 10000 2.57 300 13:57 10.06.2022
3198 Clear 16 1014 36 10000 3.6 320 12:50 10.06.2022
3199 Clear 15 1014 38 10000 3.09 300 11:43 10.06.2022
3200 Clear 14 1013 41 10000 2.06 0 10:45 10.06.2022
3201 Clear 14 1013 44 10000 4.12 360 09:54 10.06.2022
3202 Clear 13 1013 50 10000 3.6 340 08:42 10.06.2022
3203 Clear 11 1013 57 10000 3.6 350 07:26 10.06.2022
3204 Clear 10 1012 57 10000 4.63 340 06:44 10.06.2022
3205 Clear 10 1012 57 10000 4.63 340 06:25 10.06.2022
3206 Clear 9 1011 61 10000 5.66 340 03:55 10.06.2022
3207 Clear 11 1010 53 10000 4.12 340 01:41 10.06.2022
3208 Clear 12 1009 58 10000 3.6 360 00:32 10.06.2022
3209 Clear 13 1008 54 10000 2.06 300 23:39 09.06.2022
3210 Clear 15 1008 47 10000 1.03 290 22:18 09.06.2022
3211 Clear 15 1008 47 10000 1.54 290 21:33 09.06.2022
3212 Clear 16 1007 47 10000 1.54 310 20:54 09.06.2022
3213 Clear 15 1007 54 10000 1.03 0 20:21 09.06.2022
3214 Clear 15 1007 51 10000 2.06 340 19:19 09.06.2022
3215 Clear 15 1007 54 10000 2.06 360 18:21 09.06.2022
3216 Clear 16 1007 51 10000 4.12 330 16:50 09.06.2022
3217 Clouds 16 1006 47 10000 5.14 330 15:48 09.06.2022
3218 Clouds 16 1006 47 10000 5.14 330 15:48 09.06.2022
3219 Clear 16 1006 51 10000 3.09 30 14:35 09.06.2022
3220 Rain 15 1006 58 10000 3.09 20 13:51 09.06.2022
3221 Rain 15 1006 58 10000 3.09 20 13:27 09.06.2022
3222 Clouds 14 1007 67 10000 3.6 360 11:54 09.06.2022
3223 Clouds 13 1007 71 10000 4.63 350 11:18 09.06.2022
3224 Clouds 13 1006 71 10000 3.6 10 09:43 09.06.2022
3225 Clouds 13 1006 71 10000 3.6 10 09:23 09.06.2022
3226 Clouds 13 1006 66 10000 5.14 20 07:45 09.06.2022
3227 Clear 12 1007 71 10000 4.12 20 06:28 09.06.2022
3228 Clear 12 1006 76 10000 4.12 10 02:38 09.06.2022
3229 Rain 13 1007 71 10000 2.57 20 23:36 08.06.2022
3230 Rain 14 1007 62 10000 3.6 20 22:58 08.06.2022
3231 Rain 14 1007 62 10000 3.6 360 22:26 08.06.2022
3232 Clear 15 1007 54 10000 3.09 350 21:52 08.06.2022
3233 Clear 16 1006 51 10000 2.57 10 20:59 08.06.2022
3234 Clear 17 1007 33 10000 2.57 320 19:56 08.06.2022
3235 Clear 18 1006 42 10000 4.12 220 19:27 08.06.2022
3236 Clear 19 1006 45 10000 5.14 220 18:42 08.06.2022
3237 Clear 19 1007 34 10000 1.54 120 16:39 08.06.2022
3238 Clear 18 1008 36 10000 1.03 0 15:27 08.06.2022
3239 Rain 15 1009 44 10000 2.57 240 13:44 08.06.2022
3240 Clear 17 1010 36 10000 6.69 220 11:51 08.06.2022
3241 Clear 17 1010 36 10000 6.69 220 11:25 08.06.2022
3242 Clouds 15 1010 44 10000 5.66 220 09:48 08.06.2022
3243 Clouds 15 1010 47 10000 4.63 210 09:20 08.06.2022
3244 Clear 13 1010 47 10000 3.09 200 08:18 08.06.2022
3245 Clear 9 1011 71 10000 1.54 240 05:36 08.06.2022
3246 Clear 8 1011 65 10000 2.06 250 03:20 08.06.2022
3247 Clear 9 1011 57 10000 3.6 220 00:28 08.06.2022
3248 Clear 11 1010 43 10000 1.03 290 23:25 07.06.2022
3249 Clear 13 1010 37 10000 1.54 310 22:42 07.06.2022
3250 Clear 14 1010 33 10000 1.54 300 22:20 07.06.2022
3251 Clear 15 1010 30 10000 1.54 290 21:28 07.06.2022
3252 Clear 15 1010 30 10000 2.06 290 20:52 07.06.2022
3253 Clear 15 1010 30 10000 2.57 280 20:31 07.06.2022
3254 Clear 16 1010 29 10000 3.6 290 19:24 07.06.2022
3255 Clear 16 1010 29 10000 4.12 270 17:57 07.06.2022
3256 Clear 16 1010 25 10000 4.12 250 17:21 07.06.2022
3257 Clear 16 1010 26 10000 3.6 290 16:41 07.06.2022
3258 Clear 16 1010 25 10000 4.63 280 15:43 07.06.2022
3259 Clear 16 1010 25 10000 4.63 280 15:23 07.06.2022
3260 Clear 16 1009 29 10000 3.6 270 14:46 07.06.2022
3261 Clear 16 1009 26 10000 5.14 280 13:58 07.06.2022
3262 Clear 15 1009 33 10000 4.63 270 13:29 07.06.2022
3263 Clear 16 1009 33 10000 4.63 270 12:44 07.06.2022
3264 Clouds 14 1009 47 10000 5.14 290 11:22 07.06.2022
3265 Clouds 13 1008 58 10000 3.09 270 10:19 07.06.2022
3266 Clouds 11 1008 76 10000 3.09 230 08:36 07.06.2022
3267 Clear 9 1008 81 10000 3.09 230 07:22 07.06.2022
3268 Clear 8 1009 76 10000 4.12 180 05:48 07.06.2022
3269 Clear 6 1011 81 10000 4.63 170 02:48 07.06.2022
3270 Clear 7 1013 75 10000 4.63 210 00:35 07.06.2022
3271 Clear 9 1013 66 10000 4.63 210 23:34 06.06.2022
3272 Clear 9 1013 66 10000 5.66 220 22:41 06.06.2022
3273 Clear 10 1014 57 10000 5.66 220 21:41 06.06.2022
3274 Clear 13 1014 43 10000 7.2 230 19:59 06.06.2022
3275 Clear 14 1014 47 10000 6.17 230 19:21 06.06.2022
3276 Clear 15 1014 35 10000 2.57 210 18:38 06.06.2022
3277 Clear 15 1014 38 10000 2.57 220 17:42 06.06.2022
3278 Clear 15 1015 35 10000 3.6 260 16:39 06.06.2022
3279 Clear 15 1015 35 10000 4.12 220 15:40 06.06.2022
3280 Clear 15 1015 35 10000 3.09 0 14:40 06.06.2022
3281 Clear 13 1016 37 10000 3.6 260 13:27 06.06.2022
3282 Clear 12 1016 40 10000 3.6 0 12:38 06.06.2022
3283 Clear 12 1016 40 10000 3.6 280 12:19 06.06.2022
3284 Clear 13 1016 37 10000 3.09 0 11:42 06.06.2022
3285 Clear 12 1016 40 10000 4.63 300 09:41 06.06.2022
3286 Clouds 11 1016 43 10000 4.12 290 08:35 06.06.2022
3287 Clouds 10 1015 49 10000 3.6 330 07:37 06.06.2022
3288 Clear 8 1015 57 10000 3.09 310 05:29 06.06.2022
3289 Clear 8 1015 57 10000 3.09 310 05:29 06.06.2022
3290 Clear 8 1015 57 10000 3.09 310 05:29 06.06.2022
3291 Clear 6 1014 65 10000 2.06 320 03:46 06.06.2022
3292 Clear 7 1013 56 10000 1.54 300 01:29 06.06.2022
3293 Clear 8 1013 53 10000 2.57 310 00:42 06.06.2022
3294 Clear 9 1012 53 10000 2.06 300 23:44 05.06.2022
3295 Clear 10 1012 49 10000 2.06 300 22:47 05.06.2022
3296 Clear 12 1011 43 10000 2.06 290 20:59 05.06.2022
3297 Clear 14 1010 35 10000 4.12 300 19:50 05.06.2022
3298 Clouds 14 1010 38 10000 5.14 330 18:30 05.06.2022
3299 Clear 14 1010 35 10000 1.54 220 17:55 05.06.2022
3300 Clouds 13 1010 50 10000 5.66 340 17:27 05.06.2022
3301 Rain 13 1010 50 10000 5.66 340 16:52 05.06.2022
3302 Clear 13 1010 37 10000 6.69 250 16:34 05.06.2022
3303 Clear 15 1009 33 10000 4.12 260 14:34 05.06.2022
3304 Clear 14 1009 44 10000 3.09 270 12:57 05.06.2022
3305 Clear 14 1009 47 10000 5.66 230 11:49 05.06.2022
3306 Clouds 15 1008 51 10000 4.63 250 10:42 05.06.2022
3307 Clouds 14 1008 50 10000 4.63 250 10:20 05.06.2022
3308 Clear 13 1008 58 10000 4.63 240 08:40 05.06.2022
3309 Clear 12 1008 71 10000 4.12 230 07:48 05.06.2022
3310 Clear 10 1008 76 10000 3.6 240 05:23 05.06.2022
3311 Clear 10 1008 76 10000 3.09 230 04:30 05.06.2022
3312 Clear 12 1007 71 10000 3.09 250 01:33 05.06.2022
3313 Clear 12 1007 87 10000 4.12 230 00:39 05.06.2022
3314 Clear 13 1007 87 10000 3.09 240 22:36 04.06.2022
3315 Clear 14 1007 82 10000 3.6 220 20:33 04.06.2022
3316 Clouds 15 1007 72 10000 4.63 230 18:51 04.06.2022
3317 Clouds 15 1007 77 10000 1.03 0 16:47 04.06.2022
3318 Clouds 13 1008 76 3000 3.6 0 16:18 04.06.2022
3319 Clouds 16 1007 72 10000 2.57 240 14:53 04.06.2022
3320 Rain 13 1008 87 10000 3.09 260 12:38 04.06.2022
3321 Rain 14 1007 88 10000 2.57 240 11:19 04.06.2022
3322 Clouds 15 1007 77 10000 3.09 210 10:44 04.06.2022
3323 Clouds 13 1007 87 10000 2.57 200 09:44 04.06.2022
3324 Clouds 12 1007 87 10000 3.09 240 08:43 04.06.2022
3325 Clouds 12 1007 93 10000 3.09 230 07:41 04.06.2022
3326 Clear 11 1007 93 10000 1.54 220 05:29 04.06.2022
3327 Clear 11 1007 93 10000 2.06 190 01:42 04.06.2022
3328 Clouds 10 1007 100 10000 1.54 170 23:59 03.06.2022
3329 Clear 11 1007 93 10000 1.54 90 22:40 03.06.2022
3330 Clouds 11 1007 93 10000 1.54 100 21:30 03.06.2022
3331 Rain 11 1007 93 10000 1.03 50 20:37 03.06.2022
3332 Rain 11 1007 93 10000 1.03 50 20:37 03.06.2022
3333 Rain 11 1007 93 10000 1.03 50 20:37 03.06.2022
3334 Rain 11 1007 93 10000 1.54 270 18:28 03.06.2022
3335 Rain 14 1007 88 10000 2.57 120 16:47 03.06.2022
3336 Rain 14 1008 88 10000 2.57 170 15:37 03.06.2022
3337 Rain 14 1008 88 10000 5.14 80 13:28 03.06.2022
3338 Clouds 13 1009 87 10000 5.66 70 11:40 03.06.2022
3339 Rain 11 1010 100 10000 4.12 70 09:45 03.06.2022
3340 Rain 11 1011 100 10000 4.12 110 08:58 03.06.2022
3341 Clouds 13 1010 82 10000 4.63 90 07:27 03.06.2022
3342 Clear 12 1010 87 10000 4.12 90 06:35 03.06.2022
3343 Clear 11 1010 93 10000 4.12 110 05:52 03.06.2022
3344 Clouds 12 1010 93 10000 4.12 90 00:30 03.06.2022
3345 Clouds 12 1010 93 10000 4.63 70 22:45 02.06.2022
3346 Clouds 12 1010 93 10000 4.12 80 21:51 02.06.2022
3347 Rain 13 1011 87 10000 4.63 100 20:22 02.06.2022
3348 Rain 13 1011 87 10000 4.63 100 20:22 02.06.2022
3349 Rain 13 1011 87 10000 4.63 100 20:22 02.06.2022
3350 Rain 15 1011 77 10000 3.6 70 19:50 02.06.2022
3351 Rain 15 1011 77 10000 3.6 70 19:31 02.06.2022
3352 Clear 19 1012 48 10000 7.72 60 17:32 02.06.2022
3353 Rain 19 1013 45 10000 5.66 90 16:27 02.06.2022
3354 Clear 20 1014 42 10000 7.72 80 14:22 02.06.2022
3355 Clear 21 1014 37 10000 6.69 60 13:30 02.06.2022
3356 Clear 20 1016 37 10000 5.14 90 12:21 02.06.2022
3357 Clear 19 1017 42 10000 4.63 80 10:20 02.06.2022
3358 Clear 18 1018 45 10000 5.14 80 09:28 02.06.2022
3359 Clouds 18 1018 48 10000 4.12 90 08:27 02.06.2022
3360 Clear 17 1019 59 10000 3.09 80 07:33 02.06.2022
3361 Clear 13 1020 76 10000 2.57 50 04:54 02.06.2022
3362 Clear 12 1020 76 10000 2.57 80 02:48 02.06.2022
3363 Clear 14 1020 67 10000 1.54 160 23:50 01.06.2022
3364 Clouds 13 1020 71 10000 1.54 160 22:32 01.06.2022
3365 Clouds 15 1020 62 10000 1.03 100 21:37 01.06.2022
3366 Clouds 16 1020 58 10000 1.54 140 20:58 01.06.2022
3367 Clear 16 1019 58 10000 2.06 170 20:37 01.06.2022
3368 Clear 16 1019 58 10000 2.06 180 19:25 01.06.2022
3369 Clear 17 1019 48 10000 4.12 170 17:44 01.06.2022
3370 Clouds 17 1019 51 10000 5.66 180 16:38 01.06.2022
3371 Clouds 16 1019 63 10000 4.12 120 14:54 01.06.2022
3372 Clouds 16 1019 67 10000 4.63 100 13:53 01.06.2022
3373 Clouds 14 1019 76 10000 5.14 100 12:26 01.06.2022
3374 Clouds 14 1019 76 10000 5.14 100 12:26 01.06.2022
3375 Rain 12 1019 76 10000 4.63 100 09:41 01.06.2022
3376 Rain 12 1019 76 10000 5.14 100 08:52 01.06.2022
3377 Clouds 11 1019 81 10000 6.69 90 07:24 01.06.2022
3378 Clear 13 1019 54 10000 5.66 90 05:52 01.06.2022
3379 Clear 15 1020 41 10000 4.63 70 00:40 01.06.2022
3380 Clear 16 1020 44 10000 5.14 80 23:28 31.05.2022
3381 Clear 17 1020 44 10000 3.6 90 22:37 31.05.2022
3382 Clear 19 1020 45 10000 6.69 100 21:46 31.05.2022
3383 Clear 20 1019 42 10000 6.17 100 20:45 31.05.2022
3384 Clear 21 1019 37 10000 5.14 90 20:18 31.05.2022
3385 Clear 21 1019 40 10000 6.69 90 18:53 31.05.2022
3386 Clear 22 1020 37 10000 6.69 90 17:50 31.05.2022
3387 Clear 21 1020 40 10000 6.69 100 16:57 31.05.2022
3388 Clear 21 1021 42 10000 7.2 80 15:41 31.05.2022
3389 Clear 20 1021 45 10000 6.69 90 14:18 31.05.2022
3390 Clouds 19 1022 52 10000 6.69 90 12:20 31.05.2022
3391 Clouds 18 1022 55 10000 6.69 100 10:55 31.05.2022
3392 Clouds 17 1022 63 10000 5.66 70 09:31 31.05.2022
3393 Clear 14 1022 71 10000 5.14 70 07:25 31.05.2022
3394 Clouds 14 1022 71 10000 4.12 80 05:20 31.05.2022
3395 Clear 15 1022 62 10000 3.6 90 00:52 31.05.2022
3396 Clear 15 1021 62 10000 3.6 130 23:27 30.05.2022
3397 Clear 16 1021 58 10000 3.6 110 22:56 30.05.2022
3398 Clear 17 1021 55 10000 2.57 90 21:52 30.05.2022
3399 Clear 17 1020 55 10000 3.09 110 21:32 30.05.2022
3400 Clear 19 1019 48 10000 4.12 90 20:20 30.05.2022
3401 Clear 20 1019 45 10000 2.57 120 18:41 30.05.2022
3402 Clear 21 1018 40 10000 5.66 60 17:36 30.05.2022
3403 Clear 21 1018 40 10000 5.66 60 16:41 30.05.2022
3404 Clear 21 1018 40 10000 5.66 60 16:41 30.05.2022
3405 Clear 20 1019 45 10000 6.69 80 14:49 30.05.2022
3406 Clear 18 1018 45 10000 6.69 60 12:24 30.05.2022
3407 Clear 16 1017 51 10000 5.14 60 10:41 30.05.2022
3408 Clear 14 1017 58 10000 4.63 30 09:21 30.05.2022
3409 Clouds 11 1017 71 10000 3.6 30 07:18 30.05.2022
3410 Clear 10 1016 76 10000 3.6 30 05:48 30.05.2022
3411 Clouds 10 1014 81 10000 6.17 40 01:42 30.05.2022
3412 Clouds 11 1013 81 10000 4.63 40 22:57 29.05.2022
3413 Clouds 11 1013 81 10000 4.63 30 22:36 29.05.2022
3414 Clouds 12 1012 76 10000 5.66 30 20:54 29.05.2022
3415 Clouds 13 1011 71 10000 5.66 30 19:32 29.05.2022
3416 Clouds 13 1011 71 10000 4.63 10 18:44 29.05.2022
3417 Clouds 14 1010 67 10000 6.69 40 17:31 29.05.2022
3418 Clear 17 1009 51 10000 5.14 360 15:48 29.05.2022
3419 Clouds 18 1009 48 10000 7.2 30 14:58 29.05.2022
3420 Clouds 18 1008 48 10000 7.2 20 13:53 29.05.2022
3421 Clouds 17 1008 51 10000 5.14 50 11:41 29.05.2022
3422 Clouds 15 1008 62 10000 4.12 80 10:38 29.05.2022
3423 Clouds 12 1007 87 10000 6.17 70 08:51 29.05.2022
3424 Rain 11 1006 87 10000 5.14 60 05:54 29.05.2022
3425 Clear 11 1005 81 10000 5.14 60 04:44 29.05.2022
3426 Clear 11 1005 87 10000 5.14 60 03:41 29.05.2022
3427 Clear 10 1003 87 10000 3.6 10 23:49 28.05.2022
3428 Clear 10 1003 87 10000 3.6 10 23:26 28.05.2022
3429 Clouds 9 1003 87 10000 3.6 350 22:33 28.05.2022
3430 Clouds 10 1003 81 10000 3.09 340 21:34 28.05.2022
3431 Clouds 12 1002 71 10000 2.57 20 19:41 28.05.2022
3432 Clouds 11 1002 71 10000 2.06 50 18:47 28.05.2022
3433 Clear 11 1001 71 10000 3.09 90 17:36 28.05.2022
3434 Clouds 10 1000 76 10000 3.6 80 16:37 28.05.2022
3435 Clouds 10 1000 76 10000 3.6 120 15:39 28.05.2022
3436 Rain 10 999 71 10000 3.6 120 14:18 28.05.2022
3437 Clouds 10 997 66 10000 4.12 100 12:44 28.05.2022
3438 Clouds 9 997 71 10000 3.6 110 12:18 28.05.2022
3439 Clouds 8 996 76 10000 3.6 150 10:51 28.05.2022
3440 Clouds 8 995 70 10000 3.09 130 09:57 28.05.2022
3441 Clouds 7 994 87 10000 3.09 120 08:45 28.05.2022
3442 Clouds 7 993 93 10000 2.57 150 07:23 28.05.2022
3443 Clouds 6 991 93 10000 1.54 120 05:24 28.05.2022
3444 Drizzle 5 990 100 3100 1.03 0 02:38 28.05.2022
3445 Clouds 6 990 93 10000 2.06 330 00:32 28.05.2022
3446 Clouds 6 990 93 10000 3.6 320 22:51 27.05.2022
3447 Clouds 7 990 87 10000 3.09 340 21:43 27.05.2022
3448 Clouds 7 990 87 10000 3.6 340 20:49 27.05.2022
3449 Clouds 7 990 87 10000 3.6 340 20:23 27.05.2022
3450 Rain 7 990 87 10000 3.09 340 19:41 27.05.2022
3451 Clouds 6 991 93 10000 3.09 350 19:21 27.05.2022
3452 Clouds 7 991 87 10000 6.69 30 17:34 27.05.2022
3453 Clouds 7 991 93 10000 7.2 20 16:36 27.05.2022
3454 Clouds 7 991 93 10000 4.12 10 15:22 27.05.2022
3455 Rain 8 991 93 10000 5.66 20 13:44 27.05.2022
3456 Clouds 9 992 81 10000 4.12 360 12:35 27.05.2022
3457 Clouds 9 992 81 10000 5.14 10 11:33 27.05.2022
3458 Clouds 9 993 87 10000 4.63 20 10:52 27.05.2022
3459 Clouds 8 993 87 10000 5.66 20 10:22 27.05.2022
3460 Clouds 8 994 87 10000 5.14 10 09:31 27.05.2022
3461 Rain 8 995 93 10000 4.63 10 07:41 27.05.2022
3462 Rain 9 996 93 10000 3.6 10 05:27 27.05.2022
3463 Clear 12 999 43 10000 3.09 20 01:47 27.05.2022
3464 Clear 13 1000 37 10000 2.57 20 23:55 26.05.2022
3465 Clear 13 1000 37 10000 2.57 50 22:29 26.05.2022
3466 Clear 15 1001 30 10000 2.06 70 21:33 26.05.2022
3467 Clear 17 1002 33 10000 5.14 70 19:49 26.05.2022
3468 Clear 17 1002 36 10000 5.14 80 19:18 26.05.2022
3469 Clear 17 1002 36 10000 5.14 80 19:18 26.05.2022
3470 Clear 18 1002 29 10000 4.12 90 17:36 26.05.2022
3471 Clear 18 1003 25 10000 5.66 90 16:31 26.05.2022
3472 Clear 18 1003 22 10000 5.14 100 15:33 26.05.2022
3473 Clear 18 1004 20 10000 5.14 100 14:21 26.05.2022
3474 Clear 18 1005 27 10000 4.63 110 12:20 26.05.2022
3475 Clear 17 1005 36 10000 5.66 100 11:21 26.05.2022
3476 Clear 14 1006 41 10000 6.17 150 09:39 26.05.2022
3477 Clear 13 1006 50 10000 6.17 110 08:51 26.05.2022
3478 Clear 11 1007 50 10000 6.17 110 06:51 26.05.2022
3479 Clear 11 1008 46 10000 4.63 100 02:54 26.05.2022
3480 Clear 14 1008 35 10000 4.12 120 00:19 26.05.2022
3481 Clear 15 1008 35 10000 4.12 120 22:58 25.05.2022
3482 Clear 17 1008 33 10000 3.6 120 21:44 25.05.2022
3483 Clear 19 1008 32 10000 3.09 130 20:50 25.05.2022
3484 Clear 20 1008 30 10000 3.09 130 19:56 25.05.2022
3485 Clear 21 1008 26 10000 3.6 140 18:48 25.05.2022
3486 Clear 21 1009 26 10000 4.63 160 17:26 25.05.2022
3487 Clear 22 1009 26 10000 5.14 160 16:34 25.05.2022
3488 Clear 22 1009 26 10000 6.17 180 15:36 25.05.2022
3489 Clear 23 1010 24 10000 6.17 180 14:50 25.05.2022
3490 Clear 23 1010 24 10000 6.17 180 14:32 25.05.2022
3491 Clear 22 1010 26 10000 4.12 210 13:23 25.05.2022
3492 Clouds 19 1011 32 10000 4.7 170 11:50 25.05.2022
3493 Clear 19 1011 32 10000 5.14 170 10:42 25.05.2022
3494 Clear 18 1012 31 10000 5.14 160 09:45 25.05.2022
3495 Clouds 14 1012 41 10000 3.92 167 07:42 25.05.2022
3496 Clear 11 1013 40 10000 3.6 130 05:57 25.05.2022
3497 Clear 11 1013 50 10000 3.6 140 02:44 25.05.2022
3498 Clear 13 1012 43 10000 4.63 120 23:52 24.05.2022
3499 Clear 15 1012 35 10000 3.09 120 22:59 24.05.2022
3500 Clear 16 1012 33 10000 3.09 130 21:58 24.05.2022
3501 Clear 16 1012 33 10000 3.09 130 21:37 24.05.2022
3502 Clear 16 1012 33 10000 2.57 140 21:19 24.05.2022
3503 Clear 19 1012 25 10000 3.6 170 19:28 24.05.2022
3504 Clear 19 1012 27 10000 4.12 220 18:38 24.05.2022
3505 Clear 19 1012 25 10000 4.12 230 16:40 24.05.2022
3506 Clear 20 1012 24 10000 4.12 240 15:52 24.05.2022
3507 Clear 20 1012 26 10000 5.14 230 14:41 24.05.2022
3508 Clear 19 1012 29 10000 5.66 220 13:48 24.05.2022
3509 Clear 18 1012 31 10000 5.14 200 12:31 24.05.2022
3510 Clear 16 1013 33 10000 4.63 190 09:52 24.05.2022
3511 Clear 15 1013 38 10000 2.57 190 08:57 24.05.2022
3512 Clear 14 1013 47 10000 2.06 170 08:38 24.05.2022
3513 Clear 10 1013 57 10000 3.09 150 06:41 24.05.2022
3514 Clear 7 1012 65 10000 3.6 130 03:41 24.05.2022
3515 Clear 9 1012 57 10000 2.57 160 01:47 24.05.2022
3516 Clear 11 1012 46 10000 2.57 180 00:34 24.05.2022
3517 Clear 12 1011 46 10000 3.09 230 22:25 23.05.2022
3518 Clear 13 1011 43 10000 2.06 240 21:53 23.05.2022
3519 Clear 14 1011 44 10000 2.57 230 20:53 23.05.2022
3520 Clouds 16 1011 38 10000 2.57 190 19:56 23.05.2022
3521 Clouds 16 1011 51 10000 3.09 130 19:27 23.05.2022
3522 Clear 16 1011 55 10000 4.12 110 18:41 23.05.2022
3523 Clear 16 1011 58 10000 4.63 100 17:56 23.05.2022
3524 Clouds 17 1011 51 10000 4.12 100 16:40 23.05.2022
3525 Clouds 16 1011 58 10000 3.6 110 14:20 23.05.2022
3526 Clouds 11 1012 76 10000 4.63 90 11:57 23.05.2022
3527 Clouds 10 1012 81 10000 4.12 90 10:58 23.05.2022
3528 Clouds 8 1012 93 10000 3.09 90 09:48 23.05.2022
3529 Clouds 7 1012 100 10000 3.6 100 08:47 23.05.2022
3530 Mist 7 1012 93 5000 4.63 100 07:37 23.05.2022
3531 Clouds 6 1012 100 500 4.12 80 06:41 23.05.2022
3532 Fog 7 1012 100 400 4.63 80 03:52 23.05.2022
3533 Fog 8 1011 100 150 3.6 80 02:18 23.05.2022
3534 Fog 8 1011 100 250 3.6 90 01:32 23.05.2022
3535 Clear 10 1011 93 10000 2.57 150 23:18 22.05.2022
3536 Clear 11 1011 87 10000 2.57 160 22:33 22.05.2022
3537 Clear 11 1011 93 10000 3.6 160 21:53 22.05.2022
3538 Clouds 13 1011 87 10000 3.09 100 20:50 22.05.2022
3539 Clouds 13 1011 76 10000 1.54 340 20:23 22.05.2022
3540 Clouds 13 1010 82 10000 2.06 270 19:39 22.05.2022
3541 Clouds 13 1011 82 9000 3.09 280 18:52 22.05.2022
3542 Rain 13 1010 82 10000 4.12 250 18:21 22.05.2022
3543 Rain 14 1010 71 10000 5.14 230 17:26 22.05.2022
3544 Thunderstorm 18 1010 42 10000 1.54 340 15:57 22.05.2022
3545 Clouds 19 1010 39 10000 1.54 0 14:47 22.05.2022
3546 Clouds 18 1010 45 10000 3.09 350 13:22 22.05.2022
3547 Clear 17 1010 44 10000 3.09 180 12:48 22.05.2022
3548 Clear 16 1010 44 10000 2.57 220 11:29 22.05.2022
3549 Clear 13 1010 54 10000 2.06 200 09:40 22.05.2022
3550 Clear 11 1010 57 10000 4.12 210 07:54 22.05.2022
3551 Clear 10 1010 66 10000 2.57 210 07:20 22.05.2022
3552 Clouds 9 1011 71 10000 2.06 0 04:49 22.05.2022
3553 Rain 9 1011 66 10000 4.12 210 01:21 22.05.2022
3554 Rain 10 1011 57 10000 4.63 210 00:26 22.05.2022
3555 Clear 10 1012 61 10000 3.6 220 23:47 21.05.2022
3556 Rain 11 1012 53 10000 3.09 220 22:24 21.05.2022
3557 Clouds 13 1012 40 10000 3.09 210 21:39 21.05.2022
3558 Clear 14 1012 38 10000 5.14 220 20:48 21.05.2022
3559 Clear 14 1012 38 10000 5.66 210 20:19 21.05.2022
3560 Clear 14 1012 38 10000 5.66 220 19:24 21.05.2022
3561 Clear 14 1012 44 10000 4.12 190 17:35 21.05.2022
3562 Clear 12 1012 58 10000 4.12 170 15:38 21.05.2022
3563 Rain 13 1013 54 10000 4.63 200 14:36 21.05.2022
3564 Rain 12 1013 62 10000 4.12 180 13:36 21.05.2022
3565 Rain 14 1013 44 10000 5.14 190 12:40 21.05.2022
3566 Clear 15 1013 41 10000 5.14 170 11:54 21.05.2022
3567 Clear 12 1013 46 10000 3.6 150 10:22 21.05.2022
3568 Clouds 9 1013 61 10000 3.6 130 09:20 21.05.2022
3569 Clouds 8 1013 65 10000 2.57 130 08:47 21.05.2022
3570 Clouds 7 1015 88 10000 1.64 123 06:22 21.05.2022
3571 Clear 9 1014 53 10000 2.57 160 02:24 21.05.2022
3572 Clear 11 1015 43 10000 2.06 140 23:44 20.05.2022
3573 Clear 11 1015 43 10000 2.57 160 22:41 20.05.2022
3574 Clear 11 1015 43 10000 2.57 140 22:18 20.05.2022
3575 Clear 11 1015 43 10000 1.54 130 21:19 20.05.2022
3576 Clear 12 1015 40 10000 1.03 0 20:51 20.05.2022
3577 Clear 12 1015 37 10000 1.54 190 19:55 20.05.2022
3578 Clear 12 1015 35 10000 3.09 220 18:58 20.05.2022
3579 Clear 12 1016 37 10000 4.12 230 18:24 20.05.2022
3580 Clear 13 1016 35 10000 5.66 230 16:28 20.05.2022
3581 Clear 15 1016 28 10000 4.12 210 15:54 20.05.2022
3582 Clear 14 1016 30 10000 4.12 230 15:32 20.05.2022
3583 Clear 15 1016 28 10000 5.14 250 14:27 20.05.2022
3584 Clear 14 1017 28 10000 3.6 190 13:31 20.05.2022
3585 Clear 12 1018 37 10000 4.12 230 10:48 20.05.2022
3586 Clear 11 1019 37 10000 4.63 220 09:32 20.05.2022
3587 Clear 9 1019 46 10000 3.6 240 08:37 20.05.2022
3588 Clear 6 1019 60 10000 2.57 230 06:44 20.05.2022
3589 Clear 5 1019 65 10000 3.09 230 05:52 20.05.2022
3590 Clear 5 1019 65 10000 1.54 140 02:52 20.05.2022
3591 Clear 6 1019 56 10000 3.6 130 23:47 19.05.2022
3592 Clear 6 1019 56 10000 3.6 120 22:37 19.05.2022
3593 Clear 8 1019 45 10000 2.57 110 21:51 19.05.2022
3594 Clear 8 1019 45 10000 2.57 110 21:24 19.05.2022
3595 Clear 10 1019 37 10000 2.57 100 20:52 19.05.2022
3596 Clear 10 1019 40 10000 1.54 70 19:57 19.05.2022
3597 Clear 11 1019 34 10000 1.03 0 19:19 19.05.2022
3598 Clear 10 1019 37 10000 1.54 310 17:46 19.05.2022
3599 Clear 11 1019 37 10000 3.09 10 15:58 19.05.2022
3600 Clear 10 1020 37 10000 2.57 0 14:49 19.05.2022
3601 Clear 9 1020 39 10000 3.09 350 14:20 19.05.2022
3602 Clouds 8 1020 45 10000 3.09 20 12:19 19.05.2022
3603 Clouds 5 1020 52 10000 4.12 320 10:31 19.05.2022
3604 Clouds 5 1020 52 10000 3.09 320 08:46 19.05.2022
3605 Clouds 3 1020 60 10000 3.09 360 07:24 19.05.2022
3606 Clear 0 1019 69 10000 2.57 330 04:23 19.05.2022
3607 Clear 1 1018 64 10000 3.09 340 01:28 19.05.2022
3608 Clear 2 1017 60 10000 2.06 20 23:43 18.05.2022
3609 Clear 3 1017 55 10000 2.57 40 22:44 18.05.2022
3610 Clear 4 1017 52 10000 3.6 30 21:45 18.05.2022
3611 Clear 6 1016 42 10000 3.09 10 21:23 18.05.2022
3612 Clear 6 1016 42 10000 5.14 30 20:21 18.05.2022
3613 Clear 7 1016 36 10000 5.66 360 18:56 18.05.2022
3614 Clear 8 1016 33 10000 5.66 350 17:57 18.05.2022
3615 Clear 8 1016 36 10000 6.69 10 17:37 18.05.2022
3616 Clear 8 1015 33 10000 7.2 350 17:18 18.05.2022
3617 Clear 8 1015 36 10000 7.2 360 15:58 18.05.2022
3618 Clear 8 1015 33 10000 6.69 350 15:35 18.05.2022
3619 Clear 8 1015 39 10000 7.2 340 14:21 18.05.2022
3620 Clear 7 1015 39 10000 7.2 340 12:55 18.05.2022
3621 Clear 7 1015 39 10000 7.2 340 12:24 18.05.2022
3622 Clouds 7 1015 49 10000 5.14 350 11:33 18.05.2022
3623 Clouds 7 1015 52 10000 5.66 350 10:43 18.05.2022
3624 Clouds 6 1014 65 10000 5.14 330 08:19 18.05.2022
3625 Clouds 6 1014 70 10000 5.66 340 07:27 18.05.2022
3626 Clouds 2 1013 75 10000 3.09 230 03:40 18.05.2022
3627 Rain 3 1014 69 10000 3.6 250 00:51 18.05.2022
3628 Clouds 3 1015 69 10000 3.6 220 23:33 17.05.2022
3629 Clear 4 1017 65 10000 1.54 240 21:21 17.05.2022
3630 Clouds 4 1017 65 10000 2.06 230 20:43 17.05.2022
3631 Clouds 4 1018 65 10000 2.57 270 19:31 17.05.2022
3632 Clouds 4 1019 60 10000 4.12 270 18:46 17.05.2022
3633 Rain 5 1019 52 10000 4.63 280 17:34 17.05.2022
3634 Clear 6 1019 45 10000 3.6 270 16:55 17.05.2022
3635 Clouds 5 1020 45 10000 3.09 300 15:49 17.05.2022
3636 Clouds 5 1021 45 10000 2.57 350 14:52 17.05.2022
3637 Clouds 5 1021 45 10000 2.57 350 14:28 17.05.2022
3638 Clouds 4 1022 52 10000 3.09 330 12:37 17.05.2022
3639 Clouds 4 1022 56 10000 3.6 340 10:23 17.05.2022
3640 Clouds 3 1022 75 10000 5.66 10 08:51 17.05.2022
3641 Clouds 2 1022 80 10000 5.14 20 07:41 17.05.2022
3642 Snow 1 1021 93 10000 5.14 360 06:21 17.05.2022
3643 Clouds 2 1018 93 10000 5.14 10 00:47 17.05.2022
3644 Snow 2 1018 93 10000 5.14 360 23:35 16.05.2022
3645 Snow 2 1017 93 10000 5.66 360 22:33 16.05.2022
3646 Snow 2 1016 93 8000 5.14 360 20:56 16.05.2022
3647 Snow 2 1015 93 4900 5.14 350 20:33 16.05.2022
3648 Rain 3 1014 93 10000 4.63 350 18:41 16.05.2022
3649 Clouds 5 1013 81 10000 4.12 340 16:41 16.05.2022
3650 Clouds 6 1012 75 10000 5.66 330 14:48 16.05.2022
3651 Clouds 6 1012 75 10000 4.63 320 13:34 16.05.2022
3652 Clouds 6 1012 75 10000 3.6 330 12:34 16.05.2022
3653 Clouds 6 1011 70 10000 6.17 320 10:34 16.05.2022
3654 Clouds 5 1010 81 10000 5.14 330 07:47 16.05.2022
3655 Clouds 4 1009 81 10000 4.12 320 05:40 16.05.2022
3656 Clear 6 1007 81 10000 3.09 360 00:44 16.05.2022
3657 Clear 8 1007 70 10000 2.57 350 22:42 15.05.2022
3658 Clear 8 1006 70 10000 1.54 350 21:54 15.05.2022
3659 Clear 9 1006 66 10000 1.54 350 21:34 15.05.2022
3660 Clear 9 1006 66 10000 3.09 20 20:38 15.05.2022
3661 Clouds 9 1005 61 10000 3.6 350 18:37 15.05.2022
3662 Clear 10 1005 61 10000 4.12 310 16:52 15.05.2022
3663 Clear 11 1004 62 10000 5.14 310 14:26 15.05.2022
3664 Clouds 12 1003 58 10000 4.63 280 13:44 15.05.2022
3665 Clouds 13 1002 50 10000 1.54 0 11:55 15.05.2022
3666 Clear 13 1002 58 10000 2.57 340 10:43 15.05.2022
3667 Clear 10 1001 66 10000 3.09 320 08:57 15.05.2022
3668 Clear 8 1001 76 10000 2.57 340 07:22 15.05.2022
3669 Clear 7 1000 81 10000 5.14 350 06:42 15.05.2022
3670 Clear 7 999 65 10000 2.06 300 02:38 15.05.2022
3671 Clear 11 999 46 10000 2.06 270 23:59 14.05.2022
3672 Clear 11 999 46 10000 1.54 260 23:35 14.05.2022
3673 Clear 11 999 46 10000 1.54 260 23:35 14.05.2022
3674 Clear 12 999 46 10000 1.03 0 21:45 14.05.2022
3675 Clear 12 999 46 10000 1.03 0 21:24 14.05.2022
3676 Clear 14 999 38 10000 1.54 310 19:54 14.05.2022
3677 Clear 15 999 33 10000 2.57 170 19:20 14.05.2022
3678 Clouds 16 999 33 10000 2.06 150 18:51 14.05.2022
3679 Clouds 16 999 33 10000 2.06 150 18:51 14.05.2022
3680 Clear 16 999 33 10000 2.06 220 17:42 14.05.2022
3681 Clear 15 999 35 10000 3.09 210 15:55 14.05.2022
3682 Clear 16 999 33 10000 3.09 0 14:37 14.05.2022
3683 Clear 15 999 33 10000 2.06 0 12:51 14.05.2022
3684 Clear 15 999 35 10000 3.09 0 11:37 14.05.2022
3685 Clear 14 999 35 10000 2.06 160 10:24 14.05.2022
3686 Clear 13 999 43 10000 2.06 180 09:56 14.05.2022
3687 Clear 12 999 46 10000 2.06 130 08:59 14.05.2022
3688 Clear 9 999 61 10000 2.06 110 07:23 14.05.2022
3689 Clear 2 998 93 10000 1.03 120 03:45 14.05.2022
3690 Clear 7 998 81 10000 1.54 210 00:21 14.05.2022
3691 Clear 7 998 81 10000 2.06 140 23:23 13.05.2022
3692 Clear 8 998 70 10000 1.03 150 22:52 13.05.2022
3693 Clear 7 997 81 10000 0 0 22:20 13.05.2022
3694 Clear 9 997 76 10000 2.06 30 20:57 13.05.2022
3695 Clouds 9 997 76 10000 3.6 330 20:29 13.05.2022
3696 Clouds 10 997 76 10000 1.03 60 19:43 13.05.2022
3697 Rain 10 997 66 10000 2.57 50 18:44 13.05.2022
3698 Rain 11 996 57 10000 5.14 250 17:29 13.05.2022
3699 Clear 13 996 47 10000 2.06 360 16:23 13.05.2022
3700 Clouds 13 995 43 10000 2.57 310 15:43 13.05.2022
3701 Clear 14 995 38 10000 2.57 250 13:57 13.05.2022
3702 Clear 14 994 38 10000 2.57 220 12:33 13.05.2022
3703 Clear 14 994 41 10000 3.09 330 11:29 13.05.2022
3704 Clear 12 994 43 10000 1.54 0 09:43 13.05.2022
3705 Clear 12 994 43 10000 1.54 0 09:43 13.05.2022
3706 Clear 11 994 50 10000 1.54 150 08:50 13.05.2022
3707 Clear 10 994 53 10000 1.03 0 07:49 13.05.2022
3708 Clear 8 993 61 10000 3.09 360 06:35 13.05.2022
3709 Clear 6 992 70 10000 2.57 350 04:48 13.05.2022
3710 Clear 7 991 87 10000 3.09 230 00:42 13.05.2022
3711 Clear 8 991 81 10000 3.6 230 22:47 12.05.2022
3712 Clouds 9 991 76 10000 3.6 220 21:59 12.05.2022
3713 Clear 10 990 71 10000 4.12 230 20:38 12.05.2022
3714 Clouds 11 990 62 10000 3.6 240 19:23 12.05.2022
3715 Clear 13 990 50 10000 2.06 270 17:27 12.05.2022
3716 Clear 14 990 47 10000 2.06 0 16:23 12.05.2022
3717 Clear 12 990 58 10000 2.06 230 14:42 12.05.2022
3718 Clouds 10 990 76 10000 1.54 0 13:47 12.05.2022
3719 Clouds 6 990 100 10000 1.03 180 11:23 12.05.2022
3720 Fog 5 990 100 200 3.09 150 09:31 12.05.2022
3721 Fog 4 990 100 150 3.6 110 08:51 12.05.2022
3722 Fog 4 990 100 150 3.09 130 07:40 12.05.2022
3723 Fog 3 991 100 200 2.57 140 06:34 12.05.2022
3724 Fog 4 991 100 300 2.57 210 02:59 12.05.2022
3725 Fog 4 992 100 700 3.6 230 00:39 12.05.2022
3726 Clouds 5 992 93 10000 2.06 260 22:39 11.05.2022
3727 Clouds 6 992 100 10000 4.12 270 21:52 11.05.2022
3728 Clouds 6 992 100 10000 4.12 270 21:24 11.05.2022
3729 Clouds 7 991 100 6000 4.12 230 18:58 11.05.2022
3730 Rain 8 991 93 10000 3.09 180 16:55 11.05.2022
3731 Rain 8 991 93 10000 3.6 160 15:38 11.05.2022
3732 Rain 7 992 100 10000 3.6 150 14:39 11.05.2022
3733 Rain 7 992 100 3000 3.6 160 14:19 11.05.2022
3734 Rain 7 993 100 4000 4.12 150 11:54 11.05.2022
3735 Rain 7 993 100 7000 4.12 150 11:23 11.05.2022
3736 Rain 7 995 100 10000 4.12 150 08:46 11.05.2022
3737 Rain 7 997 93 10000 4.12 170 05:31 11.05.2022
3738 Rain 7 997 93 10000 4.12 170 05:31 11.05.2022
3739 Rain 7 1000 75 10000 6.69 190 00:45 11.05.2022
3740 Clear 6 1001 81 10000 5.66 200 22:32 10.05.2022
3741 Clear 6 1000 81 10000 5.66 220 21:57 10.05.2022
3742 Clear 7 1001 75 10000 5.66 220 20:58 10.05.2022
3743 Clear 10 1001 61 10000 6.17 200 19:47 10.05.2022
3744 Clear 10 1002 61 10000 11.83 210 17:59 10.05.2022
3745 Clear 11 1002 57 10000 9.77 210 17:29 10.05.2022
3746 Clear 12 1003 54 10000 9.77 200 15:31 10.05.2022
3747 Clear 11 1005 53 10000 8.23 210 12:45 10.05.2022
3748 Clouds 10 1006 57 10000 7.2 210 11:51 10.05.2022
3749 Clouds 9 1006 57 10000 6.69 190 11:20 10.05.2022
3750 Clouds 9 1006 57 10000 6.69 190 10:53 10.05.2022
3751 Clear 9 1007 66 10000 5.14 210 09:26 10.05.2022
3752 Clouds 6 1008 81 10000 7.2 220 07:22 10.05.2022
3753 Rain 4 1009 93 10000 6.69 220 03:57 10.05.2022
3754 Clear 3 1010 80 10000 6.69 210 00:57 10.05.2022
3755 Clouds 3 1011 87 10000 6.69 200 22:56 09.05.2022
3756 Clouds 5 1013 70 10000 7.72 210 21:50 09.05.2022
3757 Rain 6 1013 60 10000 8.23 200 20:52 09.05.2022
3758 Clouds 7 1014 61 10000 7.2 200 19:23 09.05.2022
3759 Clear 8 1015 57 10000 8.23 220 17:51 09.05.2022
3760 Clear 8 1016 53 10000 8.23 220 16:33 09.05.2022
3761 Clear 8 1017 53 10000 7.2 230 15:52 09.05.2022
3762 Clear 8 1017 53 10000 8.23 210 15:21 09.05.2022
3763 Clear 8 1017 49 10000 7.72 230 14:29 09.05.2022
3764 Clear 9 1017 46 10000 8.23 220 13:49 09.05.2022
3765 Clear 9 1017 36 10000 6.69 210 12:21 09.05.2022
3766 Clear 8 1018 36 10000 5.66 220 11:18 09.05.2022
3767 Clear 8 1018 36 10000 6.69 240 10:42 09.05.2022
3768 Clear 5 1018 48 10000 4.12 210 08:36 09.05.2022
3769 Clear 4 1018 52 10000 3.09 210 07:53 09.05.2022
3770 Clear 1 1018 64 10000 2.06 300 03:19 09.05.2022
3771 Clear 3 1017 51 10000 3.09 290 23:34 08.05.2022
3772 Clear 3 1017 51 10000 2.57 280 22:52 08.05.2022
3773 Clear 5 1017 45 10000 2.57 250 21:48 08.05.2022
3774 Clear 5 1017 45 10000 2.57 250 21:48 08.05.2022
3775 Clear 5 1017 45 10000 2.57 260 20:35 08.05.2022
3776 Clear 6 1016 38 10000 2.57 270 19:43 08.05.2022
3777 Clear 7 1016 36 10000 4.63 300 18:52 08.05.2022
3778 Clear 8 1016 31 10000 4.12 280 17:52 08.05.2022
3779 Clear 7 1016 31 10000 4.12 280 16:42 08.05.2022
3780 Clear 6 1015 45 10000 4.12 280 15:26 08.05.2022
3781 Clear 7 1015 39 10000 5.14 280 14:39 08.05.2022
3782 Clear 8 1013 36 10000 4.12 300 12:21 08.05.2022
3783 Clouds 7 1012 42 10000 4.12 300 10:27 08.05.2022
3784 Clear 5 1012 45 10000 4.12 320 09:56 08.05.2022
3785 Clear 5 1011 45 10000 5.66 290 08:52 08.05.2022
3786 Clear 2 1009 55 10000 4.12 290 06:51 08.05.2022
3787 Clear 1 1007 59 10000 3.09 270 03:25 08.05.2022
3788 Clear 1 1007 59 10000 3.09 280 02:23 08.05.2022
3789 Clear 2 1005 55 10000 3.09 260 00:20 08.05.2022
3790 Clear 3 1005 48 10000 3.6 290 23:46 07.05.2022
3791 Clear 4 1005 41 10000 3.09 300 22:46 07.05.2022
3792 Clear 5 1004 38 10000 4.12 300 21:57 07.05.2022
3793 Clear 5 1004 41 10000 4.63 300 21:33 07.05.2022
3794 Clear 7 1003 42 10000 5.14 290 20:27 07.05.2022
3795 Clear 9 1001 36 10000 6.69 280 18:59 07.05.2022
3796 Clear 10 1000 34 10000 6.69 280 17:31 07.05.2022
3797 Clear 11 1000 32 10000 6.17 260 15:18 07.05.2022
3798 Clear 9 999 42 10000 6.17 230 12:34 07.05.2022
3799 Clear 7 999 70 10000 6.69 210 10:23 07.05.2022
3800 Clear 6 999 87 10000 5.66 210 08:37 07.05.2022
3801 Clouds 5 1000 93 10000 6.17 210 07:37 07.05.2022
3802 Clear 6 1000 81 10000 4.63 200 06:42 07.05.2022
3803 Rain 5 1000 75 10000 5.66 200 04:21 07.05.2022
3804 Clear 4 1003 75 10000 6.69 200 00:49 07.05.2022
3805 Clear 5 1004 75 10000 6.69 200 22:41 06.05.2022
3806 Clear 5 1005 75 10000 6.17 200 22:21 06.05.2022
3807 Clear 6 1005 70 10000 5.14 200 21:32 06.05.2022
3808 Clear 8 1006 57 10000 6.69 210 19:49 06.05.2022
3809 Clear 8 1006 57 10000 6.69 210 19:27 06.05.2022
3810 Clear 8 1006 57 10000 8.23 210 18:43 06.05.2022
3811 Clear 9 1007 53 10000 8.23 210 17:37 06.05.2022
3812 Clear 10 1007 46 10000 10.29 220 15:54 06.05.2022
3813 Clear 10 1007 46 10000 10.29 220 15:32 06.05.2022
3814 Clear 11 1008 43 10000 8.75 210 14:22 06.05.2022
3815 Clear 11 1008 40 10000 6.69 230 12:52 06.05.2022
3816 Clear 10 1008 43 10000 6.69 220 11:58 06.05.2022
3817 Clear 10 1008 43 10000 6.69 210 11:27 06.05.2022
3818 Clear 8 1008 53 10000 4.12 220 09:48 06.05.2022
3819 Clear 7 1008 56 10000 3.09 220 09:18 06.05.2022
3820 Clear 6 1008 60 10000 3.6 240 07:54 06.05.2022
3821 Clear 3 1008 80 10000 3.6 230 06:27 06.05.2022
3822 Clear 1 1007 93 10000 3.09 230 03:44 06.05.2022
3823 Clear 1 1007 93 10000 3.6 220 02:38 06.05.2022
3824 Clouds 4 1007 81 10000 5.66 220 23:24 05.05.2022
3825 Clear 5 1007 70 10000 4.12 170 21:50 05.05.2022
3826 Clear 6 1007 60 10000 4.12 170 20:37 05.05.2022
3827 Clouds 6 1008 60 10000 4.63 180 18:56 05.05.2022
3828 Rain 6 1009 52 10000 5.66 180 16:42 05.05.2022
3829 Rain 5 1010 60 10000 7.2 220 15:30 05.05.2022
3830 Rain 5 1010 60 10000 7.2 210 13:30 05.05.2022
3831 Rain 6 1011 56 10000 5.66 200 12:56 05.05.2022
3832 Rain 6 1011 45 10000 6.17 210 11:35 05.05.2022
3833 Clear 5 1011 45 10000 4.12 180 09:41 05.05.2022
3834 Clear 5 1011 45 10000 4.12 180 09:41 05.05.2022
3835 Clear 3 1012 60 10000 2.57 160 08:40 05.05.2022
3836 Clear 0 1012 59 10000 1.03 0 06:24 05.05.2022
3837 Clear -2 1012 68 10000 1.03 250 02:25 05.05.2022
3838 Clear -2 1012 68 10000 1.54 240 01:40 05.05.2022
3839 Clear -1 1012 64 10000 2.06 220 00:43 05.05.2022
3840 Clear 0 1012 51 10000 1.03 260 22:57 04.05.2022
3841 Clear 1 1012 47 10000 1.54 300 21:59 04.05.2022
3842 Clear 2 1012 44 10000 1.54 310 21:34 04.05.2022
3843 Clear 3 1012 41 10000 2.06 300 20:42 04.05.2022
3844 Clear 4 1012 38 10000 2.06 320 19:59 04.05.2022
3845 Clear 4 1011 35 10000 3.6 300 19:35 04.05.2022
3846 Clear 4 1011 35 10000 5.66 290 18:23 04.05.2022
3847 Clear 4 1011 35 10000 5.66 290 17:59 04.05.2022
3848 Clouds 4 1011 35 10000 4.63 310 16:30 04.05.2022
3849 Clear 4 1011 35 10000 5.14 280 15:32 04.05.2022
3850 Clear 4 1011 44 10000 5.66 310 14:38 04.05.2022
3851 Clouds 5 1011 33 10000 6.17 270 14:19 04.05.2022
3852 Clouds 4 1011 35 10000 5.14 300 12:36 04.05.2022
3853 Clouds 3 1011 41 10000 4.12 300 11:25 04.05.2022
3854 Clouds 2 1011 47 10000 3.09 300 09:50 04.05.2022
3855 Clouds 1 1010 51 10000 3.6 280 08:56 04.05.2022
3856 Clear 0 1010 59 10000 3.6 300 07:33 04.05.2022
3857 Clear -4 1009 68 10000 2.57 310 04:34 04.05.2022
3858 Clear -4 1009 58 10000 2.06 290 02:33 04.05.2022
3859 Clear -2 1008 54 10000 2.06 310 22:59 03.05.2022
3860 Clear -1 1007 64 10000 2.06 320 21:47 03.05.2022
3861 Clear -1 1007 64 10000 2.57 330 21:21 03.05.2022
3862 Clear -1 1007 64 10000 2.57 330 21:21 03.05.2022
3863 Clouds 0 1007 59 10000 3.09 350 20:39 03.05.2022
3864 Clear 1 1006 47 10000 3.6 320 19:21 03.05.2022
3865 Clear 1 1005 43 10000 5.66 320 18:42 03.05.2022
3866 Clear 2 1005 40 10000 6.17 340 17:20 03.05.2022
3867 Clear 2 1005 40 10000 6.17 340 17:20 03.05.2022
3868 Clouds 2 1004 51 10000 5.66 340 15:48 03.05.2022
3869 Clouds 1 1003 55 10000 5.14 340 14:22 03.05.2022
3870 Clouds 1 1001 55 10000 7.72 350 12:35 03.05.2022
3871 Clouds 0 1001 64 10000 7.72 340 11:24 03.05.2022
3872 Clouds 0 999 59 10000 8.23 330 10:25 03.05.2022
3873 Clouds -1 996 69 10000 9.77 340 08:18 03.05.2022
3874 Clouds -2 994 80 5000 8.23 340 06:45 03.05.2022
3875 Snow 0 988 93 3800 6.69 340 01:59 03.05.2022
3876 Clear 1 987 80 10000 3.09 290 22:56 02.05.2022
3877 Clear 1 987 74 10000 2.06 290 22:28 02.05.2022
3878 Clear 2 987 64 10000 3.09 290 21:27 02.05.2022
3879 Clear 5 986 52 10000 3.6 250 19:22 02.05.2022
3880 Clear 5 986 81 10000 3.09 210 18:25 02.05.2022
3881 Clouds 4 987 87 10000 3.6 250 17:38 02.05.2022
3882 Snow 2 987 93 10000 3.09 230 16:37 02.05.2022
3883 Snow 1 987 100 900 6.69 270 15:41 02.05.2022
3884 Clouds 4 987 93 10000 4.12 210 14:20 02.05.2022
3885 Snow 2 989 100 7000 6.17 210 12:52 02.05.2022
3886 Rain 4 990 87 10000 7.72 200 11:24 02.05.2022
3887 Rain 4 992 87 10000 5.66 190 09:32 02.05.2022
3888 Rain 4 994 81 10000 6.17 200 07:57 02.05.2022
3889 Clouds 2 997 93 10000 4.63 190 05:59 02.05.2022
3890 Snow 0 1004 86 6000 4.63 180 00:40 02.05.2022
3891 Snow 1 1005 69 10000 4.63 190 00:21 02.05.2022
3892 Clouds 2 1007 64 10000 4.63 180 22:49 01.05.2022
3893 Snow 2 1008 69 10000 5.66 210 21:41 01.05.2022
3894 Clear 3 1008 64 10000 4.63 210 20:29 01.05.2022
3895 Clear 4 1009 56 10000 5.14 210 19:20 01.05.2022
3896 Clouds 5 1009 52 10000 4.63 210 18:51 01.05.2022
3897 Clouds 4 1010 52 10000 4.12 220 17:47 01.05.2022
3898 Clouds 4 1011 48 10000 4.12 210 16:26 01.05.2022
3899 Clear 4 1011 41 10000 4.12 210 15:45 01.05.2022
3900 Clear 5 1012 38 10000 3.6 240 14:41 01.05.2022
3901 Rain 4 1014 38 10000 4.63 250 11:53 01.05.2022
3902 Clear 3 1015 41 10000 2.57 0 09:33 01.05.2022
3903 Clear 2 1015 44 10000 2.57 330 08:49 01.05.2022
3904 Clear -1 1016 59 10000 1.54 300 05:31 01.05.2022
3905 Clear 0 1016 51 10000 2.57 340 00:43 01.05.2022
3906 Clear 1 1016 47 10000 1.54 330 21:59 30.04.2022
3907 Clear 2 1016 44 10000 1.54 340 21:30 30.04.2022
3908 Clear 2 1016 44 10000 1.54 340 21:30 30.04.2022
3909 Clear 2 1016 44 10000 1.54 340 21:30 30.04.2022
3910 Clear 2 1016 44 10000 1.54 340 21:30 30.04.2022
3911 Clear 4 1016 32 10000 2.06 340 19:48 30.04.2022
3912 Clear 4 1016 32 10000 2.06 340 18:50 30.04.2022
3913 Clear 4 1016 32 10000 3.09 340 17:20 30.04.2022
3914 Clear 4 1015 35 10000 3.09 340 15:50 30.04.2022
3915 Clear 4 1015 35 10000 3.09 360 14:54 30.04.2022
3916 Clouds 3 1015 38 10000 3.6 360 13:41 30.04.2022
3917 Clouds 3 1015 44 10000 3.09 330 11:34 30.04.2022
3918 Clouds 3 1015 51 10000 3.6 350 10:55 30.04.2022
3919 Snow 2 1014 55 10000 3.6 340 09:51 30.04.2022
3920 Clear 0 1014 59 10000 3.6 30 07:35 30.04.2022
3921 Clear -3 1013 74 10000 1.54 200 03:45 30.04.2022
3922 Clear -1 1015 54 10000 2.57 220 23:54 29.04.2022
3923 Clear 0 1015 47 10000 2.57 260 22:35 29.04.2022
3924 Clear 0 1015 47 10000 2.06 250 21:54 29.04.2022
3925 Clear 1 1016 43 10000 2.06 260 21:19 29.04.2022
3926 Clouds 2 1016 40 10000 2.57 240 19:48 29.04.2022
3927 Clear 3 1016 38 10000 4.12 280 18:47 29.04.2022
3928 Clear 4 1016 35 10000 3.6 290 17:26 29.04.2022
3929 Clear 3 1017 30 10000 5.14 270 15:58 29.04.2022
3930 Clouds 3 1017 32 10000 5.14 300 14:34 29.04.2022
3931 Clouds 3 1019 80 10000 3.6 290 13:27 29.04.2022
3932 Clear 1 1017 37 10000 3.09 310 11:51 29.04.2022
3933 Clouds 0 1017 47 10000 4.12 290 09:48 29.04.2022
3934 Clear -2 1017 54 10000 3.09 310 07:42 29.04.2022
3935 Clear -2 1017 54 10000 3.09 310 07:23 29.04.2022
3936 Clear -3 1017 63 10000 3.09 310 05:55 29.04.2022
3937 Clear -3 1017 54 10000 2.06 290 00:47 29.04.2022
3938 Clear -2 1017 50 10000 2.57 300 23:48 28.04.2022
3939 Clear -2 1016 46 10000 2.57 300 22:45 28.04.2022
3940 Clear -1 1016 43 10000 2.06 280 21:47 28.04.2022
3941 Clear 0 1016 40 10000 2.06 300 21:22 28.04.2022
3942 Clear 0 1016 37 10000 4.63 310 20:35 28.04.2022
3943 Clear 1 1015 32 10000 4.63 310 19:46 28.04.2022
3944 Clear 1 1015 32 10000 4.63 310 19:23 28.04.2022
3945 Clear 1 1015 34 10000 3.6 320 18:36 28.04.2022
3946 Clear 2 1015 29 10000 6.17 320 17:26 28.04.2022
3947 Clear 2 1014 29 10000 4.63 340 16:41 28.04.2022
3948 Clear 2 1014 27 10000 6.17 310 16:19 28.04.2022
3949 Clear 2 1014 27 10000 5.66 310 15:29 28.04.2022
3950 Clear 3 1014 35 10000 5.14 270 14:36 28.04.2022
3951 Clear 2 1013 37 10000 5.14 270 12:55 28.04.2022
3952 Clouds 2 1013 44 10000 4.12 280 11:59 28.04.2022
3953 Snow 0 1013 64 10000 2.57 260 10:47 28.04.2022
3954 Snow 0 1013 64 10000 2.57 260 10:26 28.04.2022
3955 Clear -1 1012 64 10000 3.6 240 08:44 28.04.2022
3956 Clear -2 1012 63 10000 3.6 230 07:36 28.04.2022
3957 Clear -3 1012 68 10000 3.6 220 05:56 28.04.2022
3958 Clear -3 1012 68 10000 3.09 220 05:38 28.04.2022
3959 Clear -4 1012 68 10000 2.57 220 04:40 28.04.2022
3960 Clear -2 1014 68 10000 4.12 230 00:30 28.04.2022
3961 Clear -2 1014 74 10000 4.12 220 22:40 27.04.2022
3962 Clear -1 1014 64 10000 4.63 220 21:55 27.04.2022
3963 Clear -1 1015 64 10000 4.63 220 21:18 27.04.2022
3964 Clear 0 1015 51 10000 3.6 240 20:37 27.04.2022
3965 Clear 1 1015 40 10000 4.12 250 19:38 27.04.2022
3966 Clear 1 1015 40 10000 4.63 260 19:18 27.04.2022
3967 Clouds 1 1015 37 10000 3.6 260 18:22 27.04.2022
3968 Clouds 1 1015 37 10000 3.6 260 18:22 27.04.2022
3969 Clouds 1 1015 37 10000 3.6 260 18:22 27.04.2022
3970 Clouds 1 1015 37 10000 3.6 260 18:22 27.04.2022
3971 Clear 2 1016 34 10000 5.66 250 17:23 27.04.2022
3972 Clouds 1 1017 37 10000 4.63 240 15:21 27.04.2022
3973 Clear 0 1018 43 10000 4.12 260 12:25 27.04.2022
3974 Clouds -1 1018 43 10000 3.6 280 11:20 27.04.2022
3975 Clouds -1 1018 50 10000 3.09 280 09:43 27.04.2022
3976 Clear -4 1018 58 10000 1.54 320 07:18 27.04.2022
3977 Clear -6 1017 68 10000 2.06 320 04:45 27.04.2022
3978 Clear -6 1016 68 10000 2.57 330 01:34 27.04.2022
3979 Clouds -5 1015 63 10000 2.06 320 00:37 27.04.2022
3980 Clear -4 1015 58 10000 3.09 340 23:39 26.04.2022
3981 Clear -4 1015 63 10000 2.06 320 23:18 26.04.2022
3982 Clear -4 1014 63 10000 2.06 320 22:39 26.04.2022
3983 Clear -2 1014 46 10000 4.12 330 21:35 26.04.2022
3984 Clear -2 1013 50 10000 2.57 320 20:42 26.04.2022
3985 Clear 0 1013 40 10000 6.17 340 19:53 26.04.2022
3986 Clear 0 1012 37 10000 5.66 330 19:32 26.04.2022
3987 Clear 0 1012 40 10000 5.14 340 18:45 26.04.2022
3988 Clear 0 1011 47 10000 4.12 360 17:59 26.04.2022
3989 Clouds 0 1011 55 10000 2.57 300 16:49 26.04.2022
3990 Snow -1 1010 74 10000 3.6 330 13:59 26.04.2022
3991 Snow -1 1010 74 10000 3.6 330 13:32 26.04.2022
3992 Clouds 1 1009 47 10000 5.66 330 11:49 26.04.2022
3993 Clouds 0 1008 59 10000 5.66 330 10:37 26.04.2022
3994 Clouds -1 1007 69 10000 5.66 340 08:54 26.04.2022
3995 Clouds -1 1007 80 10000 5.66 340 06:57 26.04.2022
3996 Clouds -1 1006 93 10000 3.6 350 04:23 26.04.2022
3997 Snow 1 1004 100 10000 4.12 350 01:22 26.04.2022
3998 Snow 1 1004 100 10000 5.14 340 00:25 26.04.2022
3999 Rain 2 1004 100 10000 4.12 340 22:33 25.04.2022
4000 Rain 3 1004 93 10000 4.12 350 21:39 25.04.2022
4001 Rain 4 1004 87 10000 1.03 290 20:35 25.04.2022
4002 Rain 6 1004 70 10000 3.09 320 18:54 25.04.2022
4003 Clear 6 1005 65 10000 2.06 220 17:43 25.04.2022
4004 Clear 6 1005 65 10000 2.57 210 16:52 25.04.2022
4005 Rain 6 1006 65 10000 1.54 350 15:24 25.04.2022
4006 Rain 5 1006 75 10000 2.06 10 14:34 25.04.2022
4007 Rain 6 1007 65 10000 2.06 340 13:30 25.04.2022
4008 Clouds 6 1007 56 10000 2.57 260 11:37 25.04.2022
4009 Clear 4 1008 60 10000 3.6 250 10:20 25.04.2022
4010 Clear 3 1009 69 10000 3.6 230 08:33 25.04.2022
4011 Clear 2 1009 69 10000 3.6 220 06:27 25.04.2022
4012 Clear 2 1012 75 10000 2.06 230 02:20 25.04.2022
4013 Clear 3 1013 69 10000 3.09 230 23:58 24.04.2022
4014 Clear 3 1013 69 10000 3.6 230 23:30 24.04.2022
4015 Clear 4 1014 65 10000 4.12 230 22:40 24.04.2022
4016 Clear 4 1014 65 10000 4.12 230 21:58 24.04.2022
4017 Clear 4 1014 65 10000 4.63 230 21:23 24.04.2022
4018 Clear 5 1014 60 10000 6.17 220 20:47 24.04.2022
4019 Clear 5 1014 60 10000 6.17 220 20:47 24.04.2022
4020 Clear 6 1014 56 10000 5.14 220 20:21 24.04.2022
4021 Clear 7 1015 52 10000 4.63 220 18:58 24.04.2022
4022 Clear 8 1015 49 10000 5.14 220 17:55 24.04.2022
4023 Clear 9 1016 46 10000 6.17 210 17:22 24.04.2022
4024 Clear 9 1016 46 10000 6.17 210 16:56 24.04.2022
4025 Clear 9 1016 46 10000 4.63 220 16:29 24.04.2022
4026 Clear 9 1016 46 10000 4.63 220 16:29 24.04.2022
4027 Clear 9 1016 46 10000 6.17 220 15:52 24.04.2022
4028 Clear 8 1017 49 10000 5.14 230 14:40 24.04.2022
4029 Clear 8 1018 49 10000 5.66 220 13:38 24.04.2022
4030 Clear 8 1018 49 10000 5.66 220 13:18 24.04.2022
4031 Clear 7 1019 49 10000 5.66 210 11:50 24.04.2022
4032 Clear 7 1020 65 10000 4.12 250 10:59 24.04.2022
4033 Clear 5 1020 52 10000 4.63 210 09:47 24.04.2022
4034 Clear 3 1020 60 10000 3.6 230 08:23 24.04.2022
4035 Clear -1 1022 80 10000 2.06 240 05:46 24.04.2022
4036 Clear 1 1023 59 10000 1.03 240 02:48 24.04.2022
4037 Clear 2 1023 55 10000 1.54 270 00:47 24.04.2022
4038 Clear 1 1024 64 10000 1.03 270 23:55 23.04.2022
4039 Clear 1 1024 59 10000 0.51 260 23:25 23.04.2022
4040 Clear 2 1024 55 10000 0.51 230 22:39 23.04.2022
4041 Clear 2 1024 60 10000 0.51 350 21:41 23.04.2022
4042 Clear 2 1024 60 10000 1.03 20 21:22 23.04.2022
4043 Clear 5 1024 45 10000 1.54 50 19:56 23.04.2022
4044 Clear 5 1024 45 10000 2.57 20 19:20 23.04.2022
4045 Clear 5 1024 45 10000 2.57 20 18:54 23.04.2022
4046 Clear 5 1024 45 10000 2.57 340 18:32 23.04.2022
4047 Clear 5 1024 48 10000 3.6 340 17:46 23.04.2022
4048 Clouds 5 1025 45 10000 1.54 0 16:45 23.04.2022
4049 Clouds 5 1025 48 10000 2.57 20 15:43 23.04.2022
4050 Clouds 4 1026 56 10000 3.09 10 13:31 23.04.2022
4051 Clouds 4 1026 60 10000 4.12 20 11:29 23.04.2022
4052 Clear 3 1026 69 10000 4.63 10 09:41 23.04.2022
4053 Clouds 3 1026 80 10000 3.6 360 07:52 23.04.2022
4054 Clouds 3 1025 80 10000 3.09 360 03:57 23.04.2022
4055 Clear 3 1025 80 10000 3.09 350 02:34 23.04.2022
4056 Clear 4 1025 75 10000 1.54 340 23:34 22.04.2022
4057 Clear 4 1025 75 10000 2.57 350 22:40 22.04.2022
4058 Clear 4 1025 75 10000 2.57 340 21:55 22.04.2022
4059 Clear 4 1025 75 10000 2.57 340 21:55 22.04.2022
4060 Clouds 5 1025 70 10000 2.06 350 21:37 22.04.2022
4061 Clear 5 1025 70 10000 2.57 360 20:29 22.04.2022
4062 Clouds 6 1025 65 10000 3.09 350 19:23 22.04.2022
4063 Clouds 6 1025 65 10000 3.09 350 18:53 22.04.2022
4064 Clouds 7 1025 61 10000 3.6 340 18:20 22.04.2022
4065 Clear 7 1025 56 10000 4.12 360 16:53 22.04.2022
4066 Clear 7 1025 56 10000 5.66 360 15:56 22.04.2022
4067 Clouds 8 1025 53 10000 3.6 350 15:23 22.04.2022
4068 Clouds 8 1025 53 10000 4.63 350 14:21 22.04.2022
4069 Clouds 8 1024 53 10000 3.6 330 13:27 22.04.2022
4070 Clouds 7 1025 56 10000 4.63 30 12:30 22.04.2022
4071 Clouds 7 1024 56 10000 4.63 10 11:23 22.04.2022
4072 Clouds 7 1024 56 10000 5.14 350 10:53 22.04.2022
4073 Clouds 7 1024 61 10000 5.14 350 10:32 22.04.2022
4074 Clear 6 1024 65 10000 4.12 340 09:54 22.04.2022
4075 Clear 6 1024 65 10000 3.09 340 08:56 22.04.2022
4076 Clear 5 1024 70 10000 4.12 360 08:25 22.04.2022
4077 Clear 2 1024 80 10000 4.12 340 05:20 22.04.2022
4078 Clear 5 1024 65 10000 3.6 340 00:53 22.04.2022
4079 Clear 6 1024 65 10000 3.6 340 23:29 21.04.2022
4080 Clear 7 1024 61 10000 3.09 350 22:29 21.04.2022
4081 Clear 7 1024 61 10000 3.09 350 22:29 21.04.2022
4082 Clear 9 1023 53 10000 3.6 350 20:55 21.04.2022
4083 Clear 10 1023 49 10000 3.09 350 20:27 21.04.2022
4084 Clear 12 1023 46 10000 4.12 220 18:48 21.04.2022
4085 Clear 12 1023 46 10000 4.63 220 18:19 21.04.2022
4086 Clear 13 1023 43 10000 4.63 220 16:49 21.04.2022
4087 Clear 13 1024 43 10000 4.63 210 15:23 21.04.2022
4088 Clear 13 1024 43 10000 4.63 220 14:50 21.04.2022
4089 Clear 12 1025 46 10000 3.09 210 13:44 21.04.2022
4090 Clear 12 1025 50 10000 3.09 220 13:18 21.04.2022
4091 Clear 11 1026 53 10000 2.57 210 11:19 21.04.2022
4092 Clear 8 1026 65 10000 2.57 200 08:59 21.04.2022
4093 Clear 7 1026 70 10000 1.54 250 07:55 21.04.2022
4094 Clear 5 1026 75 10000 1.54 90 06:21 21.04.2022
4095 Clear 6 1027 70 10000 1.54 180 03:34 21.04.2022
4096 Clear 6 1027 70 10000 1.54 200 02:48 21.04.2022
4097 Clear 6 1027 70 10000 1.54 200 02:48 21.04.2022
4098 Clear 7 1027 65 10000 1.03 150 01:50 21.04.2022
4099 Clear 8 1027 65 10000 2.57 220 23:51 20.04.2022
4100 Clear 8 1027 65 10000 2.57 220 23:23 20.04.2022
4101 Clear 8 1026 65 10000 3.6 220 22:51 20.04.2022
4102 Clear 8 1026 65 10000 3.6 220 22:32 20.04.2022
4103 Clear 8 1026 65 10000 3.6 220 22:32 20.04.2022
4104 Clear 9 1026 57 10000 3.09 220 21:33 20.04.2022
4105 Clear 8 1026 61 10000 2.57 220 20:41 20.04.2022
4106 Clear 9 1026 57 10000 4.12 220 19:53 20.04.2022
4107 Clear 11 1026 46 10000 4.12 220 19:25 20.04.2022
4108 Clear 11 1026 46 10000 5.14 210 18:26 20.04.2022
4109 Clear 11 1026 46 10000 5.14 220 16:57 20.04.2022
4110 Clear 12 1026 43 10000 5.14 220 16:38 20.04.2022
4111 Clear 12 1027 46 10000 5.14 220 14:26 20.04.2022
4112 Clear 11 1026 53 10000 4.63 210 11:55 20.04.2022
4113 Clear 9 1026 61 10000 3.6 210 11:25 20.04.2022
4114 Clear 9 1026 61 10000 3.6 210 10:24 20.04.2022
4115 Clear 7 1026 70 10000 1.54 220 09:26 20.04.2022
4116 Clear 6 1026 75 10000 1.54 220 08:22 20.04.2022
4117 Clear 5 1026 81 10000 1.03 200 07:42 20.04.2022
4118 Clear 5 1026 81 10000 1.03 200 07:42 20.04.2022
4119 Clear 3 1025 93 10000 1.03 0 03:54 20.04.2022
4120 Clear 7 1025 70 10000 1.03 0 00:24 20.04.2022
4121 Clear 8 1025 65 10000 2.57 250 23:59 19.04.2022
4122 Clear 7 1024 70 10000 1.54 220 22:28 19.04.2022
4123 Clear 10 1024 61 10000 3.09 210 21:57 19.04.2022
4124 Clear 10 1024 57 10000 1.54 160 21:33 19.04.2022
4125 Clear 10 1023 61 10000 1.54 100 20:50 19.04.2022
4126 Clear 10 1023 61 10000 1.54 100 20:32 19.04.2022
4127 Clear 13 1023 50 10000 0.51 200 19:24 19.04.2022
4128 Clear 14 1023 47 10000 2.06 220 17:51 19.04.2022
4129 Clear 14 1023 44 10000 1.03 30 16:43 19.04.2022
4130 Clear 14 1023 44 10000 1.03 60 16:24 19.04.2022
4131 Clear 13 1023 50 10000 1.03 0 14:51 19.04.2022
4132 Clear 12 1023 50 10000 1.54 30 14:30 19.04.2022
4133 Clear 12 1023 54 10000 2.06 30 12:51 19.04.2022
4134 Clear 12 1023 54 10000 2.06 30 12:26 19.04.2022
4135 Clear 10 1023 61 10000 1.03 0 10:50 19.04.2022
4136 Clear 9 1022 61 10000 0.51 0 09:23 19.04.2022
4137 Clear 5 1021 75 10000 1.03 0 06:30 19.04.2022
4138 Clear 2 1020 93 10000 2.06 240 03:59 19.04.2022
4139 Clear 4 1020 87 10000 2.06 240 00:56 19.04.2022
4140 Clear 5 1019 81 10000 3.09 230 23:38 18.04.2022
4141 Clear 6 1019 75 10000 4.12 230 21:38 18.04.2022
4142 Clear 7 1019 70 10000 4.12 230 21:20 18.04.2022
4143 Clear 7 1019 65 10000 4.12 230 20:36 18.04.2022
4144 Clear 8 1019 61 10000 3.09 220 19:57 18.04.2022
4145 Clear 9 1018 57 10000 4.12 220 18:58 18.04.2022
4146 Clear 10 1018 53 10000 4.63 210 18:32 18.04.2022
4147 Clear 10 1018 57 10000 5.14 220 17:38 18.04.2022
4148 Clear 10 1019 53 10000 5.14 220 17:18 18.04.2022
4149 Clear 10 1019 53 10000 5.14 220 16:34 18.04.2022
4150 Clear 10 1019 53 10000 5.14 210 15:18 18.04.2022
4151 Clear 10 1019 53 10000 6.17 210 13:42 18.04.2022
4152 Clear 10 1019 53 10000 6.17 210 13:42 18.04.2022
4153 Clear 10 1019 53 10000 5.14 220 12:40 18.04.2022
4154 Clear 10 1020 53 10000 4.12 230 11:42 18.04.2022
4155 Clear 8 1020 65 10000 4.12 210 10:42 18.04.2022
4156 Clear 8 1020 65 10000 4.12 210 09:31 18.04.2022
4157 Clear 6 1020 70 10000 1.54 210 08:28 18.04.2022
4158 Clear 3 1020 87 10000 1.54 210 05:51 18.04.2022
4159 Clouds 5 1021 75 10000 1.54 90 01:34 18.04.2022
4160 Clouds 9 1021 57 10000 1.54 50 22:43 17.04.2022
4161 Clouds 7 1022 65 10000 1.03 270 21:50 17.04.2022
4162 Clouds 7 1022 65 10000 1.03 270 21:27 17.04.2022
4163 Clear 8 1022 61 10000 0.51 260 20:50 17.04.2022
4164 Clear 8 1022 61 10000 0.51 350 19:52 17.04.2022
4165 Clear 11 1022 50 10000 1.54 340 18:24 17.04.2022
4166 Clear 12 1022 46 10000 4.12 310 16:32 17.04.2022
4167 Clear 12 1022 46 10000 3.6 270 15:28 17.04.2022
4168 Clear 12 1022 46 10000 2.57 280 14:27 17.04.2022
4169 Clear 10 1022 53 10000 2.57 280 13:20 17.04.2022
4170 Clear 10 1022 53 10000 2.57 250 12:28 17.04.2022
4171 Clear 8 1022 61 10000 2.06 280 10:47 17.04.2022
4172 Clear 6 1022 70 10000 3.09 290 10:28 17.04.2022
4173 Clear 4 1022 75 10000 2.57 270 09:37 17.04.2022
4174 Clear 2 1022 80 10000 2.57 250 08:54 17.04.2022
4175 Clear 2 1022 80 10000 2.06 280 07:53 17.04.2022
4176 Clear 0 1022 86 10000 3.09 230 04:51 17.04.2022
4177 Clear 0 1022 86 10000 3.6 240 01:38 17.04.2022
4178 Clouds 1 1023 86 10000 4.63 230 23:54 16.04.2022
4179 Clouds 2 1023 80 10000 4.63 220 22:39 16.04.2022
4180 Clear 2 1023 75 10000 5.66 220 21:41 16.04.2022
4181 Clouds 3 1023 69 10000 5.14 220 20:35 16.04.2022
4182 Clouds 4 1024 65 10000 4.63 220 19:18 16.04.2022
4183 Clear 5 1024 52 10000 5.66 220 18:28 16.04.2022
4184 Clear 6 1024 45 10000 7.2 210 16:40 16.04.2022
4185 Clear 6 1025 42 10000 6.69 220 15:46 16.04.2022
4186 Clear 5 1025 48 10000 6.17 220 14:57 16.04.2022
4187 Clear 5 1025 48 10000 6.17 210 13:58 16.04.2022
4188 Clear 5 1026 45 10000 5.66 230 13:37 16.04.2022
4189 Clear 5 1026 45 10000 5.66 230 13:37 16.04.2022
4190 Clear 4 1026 52 10000 5.66 220 12:27 16.04.2022
4191 Clear 4 1027 56 10000 4.63 220 11:18 16.04.2022
4192 Clear 2 1027 60 10000 4.12 210 09:56 16.04.2022
4193 Clear 0 1028 64 10000 3.09 220 08:59 16.04.2022
4194 Clear 0 1028 64 10000 2.57 220 07:57 16.04.2022
4195 Clear 0 1028 59 10000 2.57 220 06:58 16.04.2022
4196 Clear -2 1029 68 10000 0.51 10 02:52 16.04.2022
4197 Clear -1 1029 64 10000 2.57 340 00:30 16.04.2022
4198 Clear 0 1029 59 10000 2.57 360 23:23 15.04.2022
4199 Clear 1 1029 55 10000 2.57 360 22:36 15.04.2022
4200 Clear 3 1029 48 10000 2.57 350 21:55 15.04.2022
4201 Clear 3 1029 48 10000 2.06 350 21:18 15.04.2022
4202 Clear 3 1028 48 10000 2.06 350 20:22 15.04.2022
4203 Clear 4 1028 44 10000 1.54 320 19:40 15.04.2022
4204 Clear 4 1028 44 10000 1.54 330 18:54 15.04.2022
4205 Clear 5 1028 41 10000 2.06 350 18:25 15.04.2022
4206 Rain 4 1028 44 10000 3.09 350 17:34 15.04.2022
4207 Clear 4 1028 56 10000 3.6 20 16:48 15.04.2022
4208 Rain 5 1027 45 10000 3.6 330 16:18 15.04.2022
4209 Rain 5 1027 45 10000 4.12 340 15:24 15.04.2022
4210 Clear 5 1027 41 10000 3.6 340 13:41 15.04.2022
4211 Clear 5 1027 41 10000 4.12 330 12:42 15.04.2022
4212 Clear 4 1029 81 10000 3.09 350 11:57 15.04.2022
4213 Clear 4 1027 52 10000 3.6 330 11:34 15.04.2022
4214 Clear 3 1027 55 10000 3.09 340 10:43 15.04.2022
4215 Clear 2 1027 60 10000 2.57 340 09:46 15.04.2022
4216 Clear 1 1027 64 10000 3.09 330 09:21 15.04.2022
4217 Clear -1 1026 80 10000 3.6 340 07:32 15.04.2022
4218 Clear -2 1025 86 10000 4.12 340 06:36 15.04.2022
4219 Clear -1 1023 80 10000 5.14 340 02:48 15.04.2022
4220 Clear 0 1022 80 10000 4.12 340 23:31 14.04.2022
4221 Clear 1 1021 80 10000 3.09 330 22:49 14.04.2022
4222 Clear 1 1021 80 10000 2.57 340 22:30 14.04.2022
4223 Clear 1 1021 80 10000 2.57 340 21:59 14.04.2022
4224 Clouds 2 1020 75 10000 2.57 330 20:43 14.04.2022
4225 Clear 3 1019 69 10000 4.63 340 19:23 14.04.2022
4226 Clear 4 1019 65 10000 2.57 360 18:22 14.04.2022
4227 Clouds 4 1018 70 10000 4.63 10 17:40 14.04.2022
4228 Snow 4 1018 70 10000 5.66 330 16:46 14.04.2022
4229 Clouds 4 1017 65 10000 2.57 20 15:24 14.04.2022
4230 Clouds 3 1017 75 10000 2.57 40 13:46 14.04.2022
4231 Clouds 3 1016 75 10000 2.57 10 12:56 14.04.2022
4232 Clouds 3 1016 75 10000 2.57 10 12:31 14.04.2022
4233 Clouds 3 1016 80 10000 2.06 40 11:29 14.04.2022
4234 Clouds 2 1016 86 10000 3.09 70 10:52 14.04.2022
4235 Clouds 2 1016 93 10000 2.57 50 10:26 14.04.2022
4236 Snow 1 1016 100 4000 1.54 70 08:54 14.04.2022
4237 Clouds 1 1016 93 9000 2.06 100 07:27 14.04.2022
4238 Snow 1 1016 80 10000 3.09 150 03:32 14.04.2022
4239 Snow 2 1017 69 10000 2.57 180 23:26 13.04.2022
4240 Clear 2 1018 69 10000 3.09 220 22:20 13.04.2022
4241 Clear 2 1018 69 10000 3.09 230 21:36 13.04.2022
4242 Clear 3 1018 64 10000 3.6 220 20:22 13.04.2022
4243 Clear 4 1018 60 10000 3.6 220 19:36 13.04.2022
4244 Clear 5 1018 56 10000 3.09 230 18:27 13.04.2022
4245 Clear 5 1019 56 10000 3.6 230 17:24 13.04.2022
4246 Clear 5 1019 52 10000 4.63 210 16:34 13.04.2022
4247 Clear 6 1019 48 10000 6.69 220 15:40 13.04.2022
4248 Clear 6 1019 52 10000 5.66 210 14:51 13.04.2022
4249 Clouds 6 1019 52 10000 5.14 210 14:26 13.04.2022
4250 Clouds 6 1020 52 10000 4.12 210 13:28 13.04.2022
4251 Clouds 5 1020 56 10000 3.6 200 12:25 13.04.2022
4252 Clear 4 1020 60 10000 3.6 210 10:54 13.04.2022
4253 Clear 2 1020 69 10000 3.09 210 09:44 13.04.2022
4254 Clear 1 1020 74 10000 3.09 210 08:43 13.04.2022
4255 Clear 0 1020 80 10000 1.54 210 06:52 13.04.2022
4256 Clear 0 1020 74 10000 1.03 0 06:26 13.04.2022
4257 Clear 1 1020 69 10000 1.03 0 05:36 13.04.2022
4258 Clear 3 1019 51 10000 2.57 140 00:22 13.04.2022
4259 Clear 3 1019 51 10000 2.06 130 23:45 12.04.2022
4260 Clear 4 1018 52 10000 1.54 70 22:19 12.04.2022
4261 Clear 3 1018 60 10000 1.03 70 21:18 12.04.2022
4262 Clear 3 1017 55 10000 1.03 80 20:41 12.04.2022
4263 Clear 4 1017 60 10000 1.54 20 19:49 12.04.2022
4264 Clear 5 1017 45 10000 1.54 330 19:30 12.04.2022
4265 Rain 5 1016 52 10000 0.51 0 18:26 12.04.2022
4266 Clear 6 1016 42 10000 1.54 310 17:28 12.04.2022
4267 Clear 6 1016 42 10000 1.54 310 17:28 12.04.2022
4268 Clear 5 1015 45 10000 2.06 290 16:22 12.04.2022
4269 Clear 5 1015 45 10000 2.57 300 15:33 12.04.2022
4270 Clouds 5 1014 48 10000 2.57 310 14:26 12.04.2022
4271 Clouds 5 1013 52 10000 3.09 330 13:36 12.04.2022
4272 Clouds 4 1013 56 10000 2.57 300 12:52 12.04.2022
4273 Clouds 4 1012 60 10000 2.57 280 11:46 12.04.2022
4274 Clouds 3 1011 69 10000 2.57 310 10:35 12.04.2022
4275 Clouds 2 1010 80 10000 2.57 280 09:18 12.04.2022
4276 Clear 1 1009 86 10000 2.57 260 07:55 12.04.2022
4277 Clouds -1 1007 93 10000 1.54 210 05:50 12.04.2022
4278 Clear -2 1007 100 10000 1.54 230 04:55 12.04.2022
4279 Clear 1 1004 93 10000 3.09 230 23:53 11.04.2022
4280 Clouds 1 1003 93 10000 3.6 240 22:44 11.04.2022
4281 Clouds 1 1002 93 10000 3.09 240 21:37 11.04.2022
4282 Clouds 1 1002 93 10000 3.09 240 20:55 11.04.2022
4283 Clouds 2 1001 86 10000 3.09 240 20:28 11.04.2022
4284 Clouds 2 1000 86 10000 3.09 260 19:37 11.04.2022
4285 Clouds 2 1000 86 10000 4.63 270 19:18 11.04.2022
4286 Clear 2 999 93 10000 4.12 270 18:40 11.04.2022
4287 Clouds 2 999 93 6000 4.12 270 17:56 11.04.2022
4288 Clouds 3 997 87 10000 5.14 270 16:54 11.04.2022
4289 Snow 2 995 100 10000 5.66 250 15:24 11.04.2022
4290 Snow 1 994 100 800 5.66 220 13:51 11.04.2022
4291 Snow 0 993 100 1500 6.17 210 12:43 11.04.2022
4292 Snow 0 993 100 1500 6.17 210 12:22 11.04.2022
4293 Snow -1 992 100 6000 6.69 210 10:58 11.04.2022
4294 Clouds -1 992 93 700 6.17 210 09:58 11.04.2022
4295 Fog -2 991 100 400 5.14 220 08:24 11.04.2022
4296 Fog -2 991 100 450 2.57 220 05:26 11.04.2022
4297 Fog 0 990 100 10000 1.54 180 00:49 11.04.2022
4298 Fog 0 990 100 1100 1.03 0 22:33 10.04.2022
4299 Clouds 0 990 100 10000 2.06 120 21:54 10.04.2022
4300 Clouds 0 990 100 10000 2.06 110 21:23 10.04.2022
4301 Clouds 1 990 93 10000 1.03 0 20:21 10.04.2022
4302 Clouds 1 990 93 10000 1.03 170 19:37 10.04.2022
4303 Clouds 3 990 69 10000 3.6 90 18:50 10.04.2022
4304 Clouds 3 990 69 10000 3.6 90 18:27 10.04.2022
4305 Clouds 3 990 75 10000 3.09 90 17:46 10.04.2022
4306 Clouds 3 990 69 10000 3.09 90 16:59 10.04.2022
4307 Clouds 4 990 60 10000 5.14 100 15:40 10.04.2022
4308 Clouds 4 990 60 10000 5.66 90 14:42 10.04.2022
4309 Clouds 4 990 60 10000 5.66 90 14:42 10.04.2022
4310 Clouds 4 990 65 10000 5.66 90 13:44 10.04.2022
4311 Clouds 3 990 69 10000 6.17 110 12:32 10.04.2022
4312 Clouds 3 990 75 10000 6.17 100 11:44 10.04.2022
4313 Clouds 2 990 80 10000 5.66 100 11:18 10.04.2022
4314 Clouds 2 990 80 10000 6.17 110 10:31 10.04.2022
4315 Clouds 1 990 86 10000 5.66 120 09:41 10.04.2022
4316 Clouds 1 990 86 10000 5.66 120 08:28 10.04.2022
4317 Clear 0 990 93 10000 5.66 120 07:56 10.04.2022
4318 Clouds 0 990 86 10000 5.66 120 06:59 10.04.2022
4319 Clouds -2 989 93 10000 4.12 110 03:37 10.04.2022
4320 Clouds -1 988 93 10000 4.12 130 02:18 10.04.2022
4321 Clear 0 988 93 10000 5.14 170 23:53 09.04.2022
4322 Clouds 0 987 93 10000 5.66 170 22:54 09.04.2022
4323 Clouds 0 987 93 10000 5.66 170 22:54 09.04.2022
4324 Clouds 0 987 100 10000 5.14 170 22:24 09.04.2022
4325 Clouds 0 985 93 10000 5.66 180 21:18 09.04.2022
4326 Clear 0 985 93 10000 5.66 180 20:27 09.04.2022
4327 Clouds 0 985 93 10000 7.2 190 19:56 09.04.2022
4328 Clouds 0 984 93 10000 6.69 190 19:37 09.04.2022
4329 Clouds 0 983 93 7000 9.26 210 18:23 09.04.2022
4330 Clouds 0 982 100 1200 10.29 210 17:48 09.04.2022
4331 Clouds 1 982 100 1200 8.75 220 16:56 09.04.2022
4332 Clouds 1 981 100 1200 3.09 220 16:29 09.04.2022
4333 Clouds 1 981 100 1300 2.06 230 15:49 09.04.2022
4334 Clouds 1 981 100 1900 0.51 220 15:25 09.04.2022
4335 Clouds 1 982 100 2200 2.57 40 14:25 09.04.2022
4336 Clouds 2 982 93 8000 4.12 50 13:24 09.04.2022
4337 Clouds 2 982 93 8000 4.12 50 12:53 09.04.2022
4338 Clouds 3 983 93 10000 5.66 60 11:44 09.04.2022
4339 Clouds 3 983 93 10000 6.17 70 10:41 09.04.2022
4340 Clouds 3 983 93 10000 5.66 60 10:18 09.04.2022
4341 Clouds 2 984 100 10000 5.66 60 09:21 09.04.2022
4342 Clouds 2 984 100 6000 4.12 70 07:49 09.04.2022
4343 Clouds 1 984 100 6000 4.12 80 03:22 09.04.2022
4344 Clouds 1 984 100 10000 4.63 90 00:32 09.04.2022
4345 Clouds 1 983 93 5000 5.66 100 22:58 08.04.2022
4346 Clouds 1 983 93 2300 6.69 80 21:35 08.04.2022
4347 Clouds 0 983 100 2300 7.72 80 20:41 08.04.2022
4348 Clouds 1 983 93 1200 8.23 90 19:41 08.04.2022
4349 Clouds 1 983 86 4400 10.29 80 18:38 08.04.2022
4350 Clouds 2 983 80 10000 11.32 80 17:59 08.04.2022
4351 Clouds 1 983 80 10000 12.35 70 17:27 08.04.2022
4352 Clouds 1 984 80 10000 11.83 70 16:52 08.04.2022
4353 Clouds 1 984 80 10000 12.35 70 16:22 08.04.2022
4354 Clouds 0 985 86 8000 11.83 60 15:28 08.04.2022
4355 Clouds 0 986 86 1200 11.83 60 14:40 08.04.2022
4356 Snow 0 987 86 2500 10.8 70 13:55 08.04.2022
4357 Snow 0 988 80 6000 10.8 70 13:30 08.04.2022
4358 Snow 0 988 80 10000 10.29 70 12:42 08.04.2022
4359 Clouds 0 989 74 10000 10.8 80 10:56 08.04.2022
4360 Clouds -2 990 80 10000 8.75 70 09:41 08.04.2022
4361 Clouds -2 991 74 10000 8.23 70 08:58 08.04.2022
4362 Clear -4 991 86 10000 6.69 60 07:42 08.04.2022
4363 Clear -5 992 86 10000 6.17 60 06:44 08.04.2022
4364 Clear -4 992 93 10000 4.63 70 02:29 08.04.2022
4365 Clear -3 992 86 10000 4.12 70 00:28 08.04.2022
4366 Clear -2 992 86 10000 4.12 80 23:41 07.04.2022
4367 Clear -2 992 86 10000 4.63 90 22:41 07.04.2022
4368 Clear -2 992 86 10000 4.63 90 22:22 07.04.2022
4369 Clouds -1 992 80 10000 4.63 90 21:56 07.04.2022
4370 Snow -1 992 86 3700 4.12 90 21:23 07.04.2022
4371 Snow -1 992 80 10000 4.63 90 20:42 07.04.2022
4372 Clouds -1 991 80 10000 4.63 90 18:58 07.04.2022
4373 Snow 0 991 69 10000 6.69 100 17:28 07.04.2022
4374 Snow 0 991 59 10000 6.17 100 16:45 07.04.2022
4375 Snow 1 991 51 10000 6.69 100 16:25 07.04.2022
4376 Clouds 1 990 51 10000 6.69 90 15:37 07.04.2022
4377 Clouds 0 990 51 10000 6.69 100 13:51 07.04.2022
4378 Snow 0 990 51 10000 6.69 100 13:23 07.04.2022
4379 Clouds -1 990 59 10000 7.2 90 11:49 07.04.2022
4380 Clouds -1 990 64 10000 6.17 80 10:30 07.04.2022
4381 Clear -4 991 74 10000 4.63 60 08:40 07.04.2022
4382 Clear -7 990 86 10000 4.63 60 06:58 07.04.2022
4383 Clear -7 990 86 10000 4.63 60 06:58 07.04.2022
4384 Clouds -5 990 79 10000 3.09 70 04:26 07.04.2022
4385 Clouds -3 990 80 10000 2.57 110 02:29 07.04.2022
4386 Clouds -3 989 80 10000 2.57 110 00:42 07.04.2022
4387 Clouds -2 989 80 10000 1.54 100 22:58 06.04.2022
4388 Clouds -2 989 74 10000 2.06 130 22:39 06.04.2022
4389 Clouds -1 988 80 10000 2.06 140 21:47 06.04.2022
4390 Clouds -1 988 93 8000 2.06 90 20:41 06.04.2022
4391 Clouds -1 988 100 10000 3.09 70 19:59 06.04.2022
4392 Snow -1 987 100 2200 2.57 90 18:53 06.04.2022
4393 Snow -1 987 100 1100 4.12 120 18:34 06.04.2022
4394 Snow 1 986 86 2600 6.69 70 17:35 06.04.2022
4395 Snow 1 985 80 10000 7.72 60 16:39 06.04.2022
4396 Snow 1 985 80 10000 7.72 50 15:49 06.04.2022
4397 Clouds 1 985 80 10000 7.72 50 15:30 06.04.2022
4398 Clouds 1 984 74 10000 7.2 80 13:30 06.04.2022
4399 Clouds 1 984 80 10000 7.2 70 12:28 06.04.2022
4400 Clouds 1 983 80 10000 7.2 70 10:54 06.04.2022
4401 Clouds 1 983 80 10000 8.23 70 10:31 06.04.2022
4402 Clouds 0 982 86 10000 8.23 70 09:42 06.04.2022
4403 Snow 0 982 86 10000 7.72 70 08:36 06.04.2022
4404 Snow 0 982 86 10000 7.72 70 08:36 06.04.2022
4405 Snow 0 982 86 10000 6.69 70 07:55 06.04.2022
4406 Snow 0 980 93 10000 7.72 70 04:31 06.04.2022
4407 Snow 0 979 93 9000 7.2 70 23:56 05.04.2022
4408 Snow 0 979 93 10000 7.2 70 23:22 05.04.2022
4409 Snow 0 980 93 10000 7.2 70 21:29 05.04.2022
4410 Snow 0 980 93 10000 7.2 70 20:44 05.04.2022
4411 Snow 0 980 93 4900 7.2 70 20:19 05.04.2022
4412 Snow 0 980 93 4700 6.69 70 18:24 05.04.2022
4413 Snow 0 979 93 3100 6.69 70 16:55 05.04.2022
4414 Snow 1 979 86 6000 7.2 90 16:35 05.04.2022
4415 Snow 1 979 86 4000 6.69 80 15:43 05.04.2022
4416 Snow 1 979 86 4000 6.69 80 15:43 05.04.2022
4417 Snow 1 979 86 4000 6.69 80 15:24 05.04.2022
4418 Snow 0 979 86 5000 6.17 80 13:38 05.04.2022
4419 Snow 0 978 86 3000 5.66 90 11:51 05.04.2022
4420 Snow 0 978 86 3000 5.66 90 11:33 05.04.2022
4421 Snow 0 978 86 4000 6.17 90 10:52 05.04.2022
4422 Snow -1 978 93 2500 5.14 80 08:55 05.04.2022
4423 Snow -4 978 93 1500 5.14 60 07:24 05.04.2022
4424 Snow -6 983 86 3800 8.23 30 02:39 05.04.2022
4425 Clear -6 987 73 10000 6.69 40 23:18 04.04.2022
4426 Clear -6 988 73 10000 6.17 40 22:29 04.04.2022
4427 Clear -7 989 73 10000 5.14 30 21:22 04.04.2022
4428 Clear -8 989 79 10000 5.14 30 20:53 04.04.2022
4429 Clear -6 989 68 10000 4.63 30 20:35 04.04.2022
4430 Clear -6 990 73 10000 4.12 30 19:26 04.04.2022
4431 Clear -3 990 63 10000 2.57 50 18:39 04.04.2022
4432 Snow -3 991 58 10000 3.6 40 16:41 04.04.2022
4433 Clouds -3 991 58 10000 3.6 40 16:23 04.04.2022
4434 Clouds -2 991 54 10000 1.54 20 15:33 04.04.2022
4435 Clouds -2 991 54 10000 1.03 0 14:46 04.04.2022
4436 Clouds -3 992 58 10000 3.09 40 13:40 04.04.2022
4437 Clouds -3 992 58 10000 1.54 50 12:26 04.04.2022
4438 Clouds -5 992 79 10000 1.54 70 11:29 04.04.2022
4439 Clear -7 993 93 10000 0.51 0 09:51 04.04.2022
4440 Snow -9 993 92 10000 0.51 0 05:33 04.04.2022
4441 Clouds -7 994 93 10000 3.6 350 02:47 04.04.2022
4442 Clear -5 995 93 10000 3.09 330 22:49 03.04.2022
4443 Clouds -5 995 93 10000 2.06 330 21:58 03.04.2022
4444 Clouds -4 995 93 10000 2.06 340 21:25 03.04.2022
4445 Clouds -4 996 86 10000 1.03 0 19:52 03.04.2022
4446 Clouds -3 996 74 10000 1.54 280 18:34 03.04.2022
4447 Clouds -3 996 80 10000 2.06 260 17:50 03.04.2022
4448 Snow -3 996 80 10000 2.06 260 17:32 03.04.2022
4449 Snow -3 996 80 10000 1.03 0 16:49 03.04.2022
4450 Snow -3 996 68 10000 2.06 320 15:42 03.04.2022
4451 Snow -3 997 74 10000 2.57 330 13:58 03.04.2022
4452 Snow -4 997 80 10000 2.06 330 12:58 03.04.2022
4453 Clouds -5 997 79 10000 1.54 330 11:33 03.04.2022
4454 Clouds -7 997 86 10000 1.54 320 09:41 03.04.2022
4455 Clouds -8 997 86 10000 3.6 320 08:52 03.04.2022
4456 Clear -10 998 92 10000 3.09 310 05:44 03.04.2022
4457 Clouds -7 999 86 10000 1.54 260 02:55 03.04.2022
4458 Clouds -6 999 93 10000 2.06 230 23:22 02.04.2022
4459 Clouds -5 999 86 10000 2.57 240 22:41 02.04.2022
4460 Clouds -5 999 93 10000 2.57 230 21:55 02.04.2022
4461 Clouds -4 999 86 10000 3.09 210 21:19 02.04.2022
4462 Clouds -3 1000 86 10000 3.09 210 20:35 02.04.2022
4463 Snow -2 999 74 10000 5.14 190 18:47 02.04.2022
4464 Clouds -1 999 69 10000 6.17 190 18:19 02.04.2022
4465 Clouds -2 1000 74 10000 5.66 210 16:45 02.04.2022
4466 Clouds -2 1001 80 10000 5.66 200 15:27 02.04.2022
4467 Clouds -3 1001 86 10000 5.66 210 14:52 02.04.2022
4468 Clouds -3 1001 86 10000 6.17 220 14:20 02.04.2022
4469 Clouds -3 1001 80 10000 6.17 220 13:29 02.04.2022
4470 Snow -4 1002 93 1000 7.72 200 11:56 02.04.2022
4471 Snow -4 1002 74 10000 6.17 200 09:57 02.04.2022
4472 Clouds -8 1004 92 10000 3.6 170 07:33 02.04.2022
4473 Clouds -8 1007 100 5000 3.09 170 04:25 02.04.2022
4474 Clear -7 1010 79 10000 3.6 200 00:27 02.04.2022
4475 Clear -6 1010 73 10000 4.12 200 23:53 01.04.2022
4476 Clear -5 1011 63 10000 4.63 210 22:34 01.04.2022
4477 Clear -4 1012 58 10000 4.63 220 20:54 01.04.2022
4478 Clear -3 1012 54 10000 4.12 210 20:32 01.04.2022
4479 Clear -2 1012 46 10000 3.6 210 19:39 01.04.2022
4480 Clear -2 1012 46 10000 3.6 210 19:39 01.04.2022
4481 Clear -2 1012 46 10000 2.06 220 19:18 01.04.2022
4482 Clear -2 1012 43 10000 2.06 230 18:35 01.04.2022
4483 Clear -2 1013 39 10000 3.09 210 17:36 01.04.2022
4484 Clear -2 1014 39 10000 2.57 280 15:45 01.04.2022
4485 Clear -2 1014 39 10000 3.09 250 14:47 01.04.2022
4486 Clear -2 1014 36 10000 3.6 240 13:38 01.04.2022
4487 Clouds -2 1015 46 10000 3.6 240 12:33 01.04.2022
4488 Clear -4 1015 63 10000 2.57 220 11:45 01.04.2022
4489 Clear -5 1014 63 10000 2.57 230 10:41 01.04.2022
4490 Clear -7 1014 67 10000 1.54 260 09:34 01.04.2022
4491 Clear -8 1014 73 10000 1.54 260 07:19 01.04.2022
4492 Clear -8 1014 73 10000 3.09 320 04:56 01.04.2022
4493 Clear -8 1014 73 10000 3.6 320 04:37 01.04.2022
4494 Clear -7 1013 67 10000 3.6 350 02:19 01.04.2022
4495 Clear -7 1013 67 10000 3.6 340 00:46 01.04.2022
4496 Clear -5 1012 58 10000 3.6 330 22:20 31.03.2022
4497 Clear -4 1012 58 10000 3.09 340 21:37 31.03.2022
4498 Clear -3 1012 58 10000 2.57 330 20:43 31.03.2022
4499 Clear -3 1012 58 10000 2.57 330 20:25 31.03.2022
4500 Clouds -2 1011 54 10000 2.57 350 18:57 31.03.2022
4501 Clear -2 1011 63 10000 2.06 40 17:55 31.03.2022
4502 Clear -1 1010 54 10000 3.6 350 16:45 31.03.2022
4503 Clouds -1 1010 54 10000 3.09 20 15:50 31.03.2022
4504 Clouds -1 1010 50 10000 4.12 70 15:21 31.03.2022
4505 Clouds -1 1010 54 10000 4.63 20 14:44 31.03.2022
4506 Clouds -2 1009 63 10000 4.12 360 12:48 31.03.2022
4507 Clouds -3 1008 68 10000 3.6 350 11:29 31.03.2022
4508 Clouds -4 1007 80 10000 3.09 360 10:19 31.03.2022
4509 Clouds -6 1006 86 10000 3.6 340 08:29 31.03.2022
4510 Clouds -6 1005 86 10000 4.12 340 07:24 31.03.2022
4511 Clear -5 1002 86 10000 3.6 340 00:46 31.03.2022
4512 Clouds -5 1001 86 10000 4.63 340 23:23 30.03.2022
4513 Clear -4 1000 74 10000 4.12 340 21:43 30.03.2022
4514 Clear -4 1000 74 10000 4.12 340 21:25 30.03.2022
4515 Clouds -3 999 74 10000 4.12 340 20:21 30.03.2022
4516 Clear -2 999 68 10000 4.63 340 19:36 30.03.2022
4517 Clear -2 999 68 10000 4.12 340 18:34 30.03.2022
4518 Clouds -1 998 64 10000 6.17 350 17:48 30.03.2022
4519 Clouds -1 998 64 10000 6.17 340 16:57 30.03.2022
4520 Clouds -1 998 64 10000 6.17 340 16:38 30.03.2022
4521 Clouds -1 998 59 10000 6.17 340 15:24 30.03.2022
4522 Clouds -1 997 64 10000 6.17 360 13:44 30.03.2022
4523 Clouds -1 997 59 10000 6.17 350 12:58 30.03.2022
4524 Clouds -2 997 63 10000 5.14 350 11:34 30.03.2022
4525 Clouds -2 997 63 10000 5.14 350 11:34 30.03.2022
4526 Clouds -3 996 68 10000 5.14 350 10:28 30.03.2022
4527 Clouds -4 995 74 10000 5.66 350 09:25 30.03.2022
4528 Clouds -5 995 79 10000 4.63 340 07:33 30.03.2022
4529 Snow -6 994 93 8000 4.12 330 05:41 30.03.2022
4530 Clouds -6 994 93 10000 3.6 340 03:59 30.03.2022
4531 Snow -4 994 80 10000 5.14 330 00:42 30.03.2022
4532 Clouds -4 994 80 10000 6.69 320 22:28 29.03.2022
4533 Clouds -3 994 68 10000 6.17 330 21:45 29.03.2022
4534 Clouds -3 994 68 10000 5.66 320 20:53 29.03.2022
4535 Clouds -3 995 74 10000 5.14 320 20:18 29.03.2022
4536 Clouds -3 995 80 10000 5.66 330 18:55 29.03.2022
4537 Clouds -3 995 86 4200 7.2 330 18:19 29.03.2022
4538 Snow -1 995 64 10000 6.69 330 17:22 29.03.2022
4539 Snow -1 995 64 10000 6.69 330 16:56 29.03.2022
4540 Snow -2 995 86 800 7.2 320 15:57 29.03.2022
4541 Snow -1 996 59 10000 7.2 330 14:52 29.03.2022
4542 Snow -2 996 63 10000 5.14 330 13:56 29.03.2022
4543 Snow -2 996 63 10000 7.2 330 12:51 29.03.2022
4544 Clouds -3 996 63 10000 5.14 330 11:43 29.03.2022
4545 Clouds -4 997 68 10000 6.17 330 10:28 29.03.2022
4546 Clouds -6 997 68 10000 6.17 330 09:33 29.03.2022
4547 Clear -10 998 79 10000 5.14 330 06:56 29.03.2022
4548 Clear -10 999 85 10000 4.63 320 03:49 29.03.2022
4549 Clear -9 1001 79 10000 5.14 330 23:54 28.03.2022
4550 Clear -8 1001 73 10000 4.63 340 23:19 28.03.2022
4551 Clear -8 1001 73 10000 4.12 340 22:47 28.03.2022
4552 Clear -8 1001 73 10000 4.12 340 22:22 28.03.2022
4553 Clear -7 1001 62 10000 3.09 350 20:53 28.03.2022
4554 Clear -6 1001 58 10000 2.57 350 19:59 28.03.2022
4555 Clear -5 1001 53 10000 3.6 10 19:40 28.03.2022
4556 Clouds -4 1001 50 10000 4.63 10 18:52 28.03.2022
4557 Clouds -4 1001 50 10000 4.63 20 18:19 28.03.2022
4558 Clouds -4 1000 50 10000 4.63 20 17:30 28.03.2022
4559 Clouds -4 1000 46 10000 6.69 20 15:48 28.03.2022
4560 Clouds -4 999 42 10000 6.17 20 14:24 28.03.2022
4561 Clouds -5 999 45 10000 6.17 20 13:33 28.03.2022
4562 Clouds -6 998 49 10000 7.72 50 11:54 28.03.2022
4563 Clouds -6 997 49 10000 5.66 50 10:39 28.03.2022
4564 Clear -8 997 53 10000 5.66 60 09:21 28.03.2022
4565 Clear -8 996 53 10000 5.66 50 08:45 28.03.2022
4566 Clear -8 996 53 10000 5.14 60 08:21 28.03.2022
4567 Clear -9 996 57 10000 5.66 60 07:23 28.03.2022
4568 Snow -8 997 79 5000 5.14 80 02:44 28.03.2022
4569 Snow -6 1000 49 10000 4.12 120 22:57 27.03.2022
4570 Snow -6 1002 53 10000 3.6 130 21:48 27.03.2022
4571 Snow -6 1002 53 10000 3.6 130 21:28 27.03.2022
4572 Snow -5 1004 49 10000 4.12 160 20:41 27.03.2022
4573 Clear -5 1006 49 10000 3.09 180 19:43 27.03.2022
4574 Clear -4 1007 46 10000 3.6 190 18:47 27.03.2022
4575 Clear -4 1007 46 10000 3.6 190 18:24 27.03.2022
4576 Clear -4 1009 42 10000 3.09 200 17:37 27.03.2022
4577 Clouds -3 1012 42 10000 3.09 210 15:51 27.03.2022
4578 Clear -4 1013 46 10000 4.12 210 13:59 27.03.2022
4579 Clear -3 1014 36 10000 2.06 0 13:25 27.03.2022
4580 Clear -4 1017 46 10000 2.06 300 11:41 27.03.2022
4581 Clear -7 1018 62 10000 2.06 320 09:49 27.03.2022
4582 Clear -10 1019 73 10000 4.12 330 07:40 27.03.2022
4583 Clear -10 1020 73 10000 4.63 320 04:49 27.03.2022
4584 Clear -9 1020 67 10000 4.12 320 00:26 27.03.2022
4585 Clear -8 1021 62 10000 3.6 320 22:52 26.03.2022
4586 Clear -8 1021 57 10000 3.09 320 22:22 26.03.2022
4587 Clear -8 1021 57 10000 2.57 320 21:30 26.03.2022
4588 Clear -6 1020 49 10000 4.12 320 19:38 26.03.2022
4589 Clear -5 1020 45 10000 4.63 340 18:44 26.03.2022
4590 Clouds -4 1019 39 10000 7.2 340 17:41 26.03.2022
4591 Clouds -4 1019 39 10000 6.69 340 16:40 26.03.2022
4592 Clouds -3 1018 46 10000 5.66 360 15:42 26.03.2022
4593 Clouds -3 1017 50 10000 6.69 360 13:56 26.03.2022
4594 Clouds -2 1016 46 10000 8.23 350 13:36 26.03.2022
4595 Clouds -3 1014 63 10000 6.17 360 11:50 26.03.2022
4596 Clouds -4 1013 74 10000 6.69 10 10:48 26.03.2022
4597 Clouds -4 1009 68 10000 7.2 10 08:50 26.03.2022
4598 Snow -5 1006 79 7000 6.17 360 06:39 26.03.2022
4599 Snow -5 1004 79 10000 6.17 10 05:30 26.03.2022
4600 Snow -4 997 80 10000 8.23 30 01:47 26.03.2022
4601 Clouds -4 995 86 10000 7.2 40 22:30 25.03.2022
4602 Clouds -3 995 80 10000 6.17 60 20:58 25.03.2022
4603 Clouds -3 995 80 10000 6.69 60 20:26 25.03.2022
4604 Clouds -3 996 86 10000 5.14 50 19:19 25.03.2022
4605 Clouds -2 996 80 10000 5.14 60 18:34 25.03.2022
4606 Clouds -2 997 86 10000 6.17 70 17:29 25.03.2022
4607 Clouds -2 997 86 10000 5.66 70 16:27 25.03.2022
4608 Clouds -2 999 86 10000 6.69 60 15:33 25.03.2022
4609 Clouds -2 1001 86 10000 4.63 80 13:28 25.03.2022
4610 Snow -2 1004 86 5000 4.63 90 10:50 25.03.2022
4611 Snow -3 1005 93 2500 3.6 90 09:28 25.03.2022
4612 Snow -3 1007 93 1000 4.12 90 08:43 25.03.2022
4613 Snow -4 1007 93 1500 4.12 110 07:32 25.03.2022
4614 Snow -4 1009 100 2000 4.12 110 06:29 25.03.2022
4615 Snow -4 1014 68 10000 3.09 130 02:28 25.03.2022
4616 Clear -3 1017 58 10000 5.14 150 22:56 24.03.2022
4617 Clear -3 1018 58 10000 4.12 150 21:56 24.03.2022
4618 Clear -2 1019 54 10000 2.57 160 20:51 24.03.2022
4619 Clear -1 1019 50 10000 3.09 130 19:49 24.03.2022
4620 Clear -1 1020 46 10000 3.09 120 18:34 24.03.2022
4621 Clear 0 1020 43 10000 1.54 110 17:32 24.03.2022
4622 Clear 1 1020 47 10000 2.57 50 15:56 24.03.2022
4623 Clear 1 1020 43 10000 3.09 40 14:51 24.03.2022
4624 Clear 1 1020 43 10000 3.09 50 14:21 24.03.2022
4625 Clear 1 1020 47 10000 3.6 30 13:26 24.03.2022
4626 Clear 0 1019 55 10000 5.14 20 11:59 24.03.2022
4627 Clear 0 1018 51 10000 6.69 20 10:28 24.03.2022
4628 Clouds -1 1016 64 10000 5.66 20 09:22 24.03.2022
4629 Clouds -1 1014 69 10000 4.63 20 07:39 24.03.2022
4630 Clouds 0 1009 80 10000 7.2 10 04:34 24.03.2022
4631 Clear 4 1004 81 10000 6.69 240 23:21 23.03.2022
4632 Clear 4 1005 81 10000 5.66 240 21:53 23.03.2022
4633 Clear 4 1005 81 10000 7.2 230 21:20 23.03.2022
4634 Clear 3 1006 80 10000 7.72 220 19:46 23.03.2022
4635 Clear 3 1007 80 10000 7.2 230 18:59 23.03.2022
4636 Clear 3 1008 80 10000 8.75 230 17:38 23.03.2022
4637 Clear 4 1009 70 10000 9.26 230 16:50 23.03.2022
4638 Clear 5 1011 65 10000 9.26 220 14:51 23.03.2022
4639 Clear 5 1011 65 10000 9.26 220 14:32 23.03.2022
4640 Clear 4 1013 70 10000 6.17 220 13:21 23.03.2022
4641 Clear -1 1015 93 10000 3.09 210 10:20 23.03.2022
4642 Fog -5 1016 100 10000 2.57 240 06:55 23.03.2022
4643 Clouds -6 1016 100 10000 2.57 240 05:27 23.03.2022
4644 Clear -3 1018 93 10000 2.57 240 00:35 23.03.2022
4645 Clear -3 1019 100 10000 3.09 250 23:41 22.03.2022
4646 Clear -1 1019 86 10000 3.09 240 21:30 22.03.2022
4647 Clear 0 1020 86 10000 3.09 240 20:49 22.03.2022
4648 Clear 1 1020 86 10000 5.14 230 19:51 22.03.2022
4649 Clear 1 1020 86 10000 5.14 230 19:23 22.03.2022
4650 Clear 2 1020 80 10000 5.66 220 18:38 22.03.2022
4651 Clear 4 1021 75 10000 5.66 220 17:37 22.03.2022
4652 Clear 6 1021 65 10000 5.66 230 16:27 22.03.2022
4653 Clear 6 1022 65 10000 6.69 220 15:23 22.03.2022
4654 Clear 6 1022 65 10000 7.2 220 14:47 22.03.2022
4655 Clear 6 1022 65 10000 7.2 220 14:27 22.03.2022
4656 Clear 7 1023 61 10000 6.17 210 13:35 22.03.2022
4657 Clear 5 1025 56 10000 5.66 210 11:52 22.03.2022
4658 Clear 3 1026 60 10000 5.14 210 10:40 22.03.2022
4659 Clear 0 1026 69 10000 3.09 210 08:36 22.03.2022
4660 Clear -1 1027 74 10000 1.54 270 06:53 22.03.2022
4661 Clear -1 1027 69 10000 1.54 250 03:49 22.03.2022
4662 Clear 1 1027 74 10000 2.57 320 00:28 22.03.2022
4663 Clear 4 1027 65 10000 3.6 290 22:42 21.03.2022
4664 Clear 5 1026 60 10000 3.6 270 20:57 21.03.2022
4665 Clear 5 1026 60 10000 4.63 260 20:38 21.03.2022
4666 Clear 6 1025 52 10000 4.12 260 19:58 21.03.2022
4667 Clear 6 1025 52 10000 4.12 260 19:33 21.03.2022
4668 Clear 7 1025 45 10000 3.09 250 18:22 21.03.2022
4669 Clear 9 1024 36 10000 4.12 270 17:19 21.03.2022
4670 Clear 9 1024 34 10000 3.6 260 16:44 21.03.2022
4671 Clear 10 1024 31 10000 4.63 270 15:52 21.03.2022
4672 Clear 10 1024 29 10000 5.14 280 15:19 21.03.2022
4673 Clear 10 1023 31 10000 4.63 270 14:25 21.03.2022
4674 Clear 7 1023 49 10000 4.63 230 12:40 21.03.2022
4675 Clear 6 1023 56 10000 6.69 230 11:52 21.03.2022
4676 Clear 4 1023 60 10000 6.69 220 10:40 21.03.2022
4677 Clear 3 1024 60 10000 6.69 200 08:30 21.03.2022
4678 Clear 2 1026 64 10000 4.12 220 06:48 21.03.2022
4679 Clear 3 1029 60 10000 3.09 240 02:51 21.03.2022
4680 Clear 4 1030 56 10000 3.6 240 00:19 21.03.2022
4681 Clear 4 1031 60 10000 3.09 230 22:44 20.03.2022
4682 Clear 5 1031 60 10000 3.09 230 21:52 20.03.2022
4683 Clear 5 1031 60 10000 3.09 230 21:52 20.03.2022
4684 Clear 5 1031 60 10000 3.6 230 21:25 20.03.2022
4685 Clear 5 1031 60 10000 3.6 230 20:43 20.03.2022
4686 Clear 5 1031 60 10000 3.6 230 19:59 20.03.2022
4687 Clear 5 1031 65 10000 3.6 230 19:31 20.03.2022
4688 Clear 5 1031 65 10000 4.63 220 18:22 20.03.2022
4689 Clear 6 1031 60 10000 4.63 230 17:33 20.03.2022
4690 Clear 7 1031 56 10000 4.63 230 16:57 20.03.2022
4691 Clear 8 1031 49 10000 5.66 230 15:34 20.03.2022
4692 Clear 7 1031 56 10000 5.14 230 14:34 20.03.2022
4693 Clear 8 1032 53 10000 4.12 240 12:30 20.03.2022
4694 Clear 6 1032 65 10000 5.66 220 11:22 20.03.2022
4695 Clear 5 1031 70 10000 6.17 230 08:59 20.03.2022
4696 Clear 3 1030 80 10000 6.17 230 07:26 20.03.2022
4697 Clear 3 1028 80 10000 6.17 230 04:23 20.03.2022
4698 Clear 4 1027 81 10000 6.17 230 01:50 20.03.2022
4699 Clear 5 1026 75 10000 5.66 230 00:39 20.03.2022
4700 Clear 5 1026 81 10000 6.17 240 23:19 19.03.2022
4701 Clear 6 1025 75 10000 6.69 230 21:27 19.03.2022
4702 Clear 5 1024 75 10000 6.17 230 20:39 19.03.2022
4703 Clear 5 1024 75 10000 6.69 230 18:58 19.03.2022
4704 Clear 5 1024 75 10000 6.17 230 18:23 19.03.2022
4705 Clear 5 1023 75 10000 7.72 220 17:35 19.03.2022
4706 Clear 5 1023 75 10000 7.72 220 17:35 19.03.2022
4707 Clear 6 1022 65 10000 9.26 220 15:43 19.03.2022
4708 Clear 6 1022 60 10000 9.26 230 14:34 19.03.2022
4709 Clear 5 1021 65 10000 9.77 230 12:59 19.03.2022
4710 Clear 5 1021 60 10000 10.8 230 12:39 19.03.2022
4711 Clear 5 1022 60 10000 10.29 230 11:51 19.03.2022
4712 Clear 4 1022 60 10000 9.77 230 10:45 19.03.2022
4713 Clear -1 1026 80 10000 7.72 210 06:29 19.03.2022
4714 Clear -3 1029 80 10000 7.72 220 03:24 19.03.2022
4715 Clear -2 1030 74 10000 5.14 220 01:41 19.03.2022
4716 Clear -1 1030 74 10000 4.63 230 23:36 18.03.2022
4717 Clear -1 1030 80 10000 3.6 240 22:26 18.03.2022
4718 Clear -1 1029 93 10000 3.09 240 21:19 18.03.2022
4719 Clouds 0 1028 100 10000 5.66 230 19:50 18.03.2022
4720 Clouds 1 1028 93 9000 4.63 230 19:21 18.03.2022
4721 Clouds 1 1026 100 9000 7.2 210 17:39 18.03.2022
4722 Mist 1 1025 100 3900 7.2 220 16:46 18.03.2022
4723 Mist 1 1024 100 2000 8.23 220 14:45 18.03.2022
4724 Fog 1 1024 93 600 8.23 210 14:20 18.03.2022
4725 Fog 0 1024 100 700 9.26 210 12:23 18.03.2022
4726 Clouds 0 1023 93 7000 8.23 210 10:39 18.03.2022
4727 Snow 0 1023 93 1800 8.23 200 09:23 18.03.2022
4728 Clear 1 1024 59 10000 9.26 200 07:45 18.03.2022
4729 Clear 0 1025 64 10000 5.66 170 05:46 18.03.2022
4730 Clear 2 1027 60 10000 7.72 190 02:50 18.03.2022
4731 Clear 3 1028 64 10000 9.26 210 00:21 18.03.2022
4732 Clear 4 1028 60 10000 8.75 210 22:56 17.03.2022
4733 Clear 4 1028 60 10000 9.26 210 22:22 17.03.2022
4734 Clear 4 1029 60 10000 8.75 210 21:47 17.03.2022
4735 Clear 4 1029 60 10000 8.75 210 21:19 17.03.2022
4736 Clear 4 1029 60 10000 8.23 210 20:32 17.03.2022
4737 Clear 4 1029 60 10000 8.75 200 19:41 17.03.2022
4738 Clear 4 1029 60 10000 8.75 210 18:57 17.03.2022
4739 Clear 4 1029 60 10000 9.26 210 17:55 17.03.2022
4740 Clear 5 1029 60 10000 7.2 200 16:34 17.03.2022
4741 Clear 5 1029 60 10000 7.72 200 15:44 17.03.2022
4742 Clear 5 1030 60 10000 8.23 200 15:21 17.03.2022
4743 Clear 6 1029 60 10000 7.72 200 13:48 17.03.2022
4744 Clear 5 1030 65 10000 7.2 220 12:48 17.03.2022
4745 Clear 4 1030 65 10000 5.14 210 11:47 17.03.2022
4746 Clear 4 1030 65 10000 5.66 210 11:22 17.03.2022
4747 Clear 1 1030 74 10000 7.2 200 09:41 17.03.2022
4748 Clouds -1 1030 80 10000 5.66 200 08:21 17.03.2022
4749 Clear -2 1030 86 10000 5.14 210 06:18 17.03.2022
4750 Clear -2 1030 86 10000 4.12 210 05:25 17.03.2022
4751 Clear 1 1029 69 10000 6.17 210 00:33 17.03.2022
4752 Clear 0 1029 74 10000 5.14 230 22:58 16.03.2022
4753 Clear 1 1029 69 10000 5.66 220 22:37 16.03.2022
4754 Clear 0 1029 74 10000 4.63 220 21:58 16.03.2022
4755 Clear 0 1028 74 10000 4.12 230 20:47 16.03.2022
4756 Clear 1 1028 74 10000 6.69 210 19:24 16.03.2022
4757 Clear 1 1027 74 10000 7.72 200 18:43 16.03.2022
4758 Clear 2 1027 64 10000 6.69 200 17:50 16.03.2022
4759 Clear 2 1027 64 10000 6.69 200 17:31 16.03.2022
4760 Clear 3 1027 60 10000 7.2 200 16:35 16.03.2022
4761 Clear 5 1027 52 10000 7.72 190 14:58 16.03.2022
4762 Clear 5 1027 56 10000 6.17 200 13:41 16.03.2022
4763 Clear 4 1027 60 10000 7.72 200 12:56 16.03.2022
4764 Clear 2 1027 69 10000 6.69 200 11:24 16.03.2022
4765 Clear 1 1027 80 10000 7.2 200 10:37 16.03.2022
4766 Clear -1 1027 93 10000 6.17 200 09:57 16.03.2022
4767 Clouds -3 1026 93 8000 4.12 200 08:24 16.03.2022
4768 Fog -5 1025 93 900 3.09 180 02:46 16.03.2022
4769 Clouds -5 1024 93 10000 3.09 220 22:56 15.03.2022
4770 Clouds -4 1024 93 10000 3.6 200 22:36 15.03.2022
4771 Clear -2 1024 86 10000 2.57 170 20:59 15.03.2022
4772 Clear -2 1024 86 10000 2.57 190 19:39 15.03.2022
4773 Clear -4 1024 74 10000 1.03 0 17:46 15.03.2022
4774 Clear -1 1024 69 10000 1.54 110 16:38 15.03.2022
4775 Clear -1 1024 69 10000 1.03 0 15:38 15.03.2022
4776 Clear -1 1024 69 10000 2.06 110 14:54 15.03.2022
4777 Clear -2 1024 80 10000 2.06 100 13:56 15.03.2022
4778 Clear -4 1024 86 10000 1.54 110 13:22 15.03.2022
4779 Clouds -5 1024 93 10000 2.57 120 11:33 15.03.2022
4780 Fog -7 1024 93 10000 0.51 0 10:27 15.03.2022
4781 Fog -8 1024 92 10000 1.54 90 09:20 15.03.2022
4782 Fog -9 1024 92 500 1.54 120 08:21 15.03.2022
4783 Fog -9 1024 92 700 2.57 100 07:36 15.03.2022
4784 Clear -10 1024 92 10000 3.09 80 05:55 15.03.2022
4785 Clouds -6 1024 93 10000 2.57 90 00:25 15.03.2022
4786 Clouds -6 1024 93 10000 2.06 90 23:27 14.03.2022
4787 Clouds -6 1024 93 10000 3.6 120 22:44 14.03.2022
4788 Clouds -5 1024 93 10000 2.57 120 21:51 14.03.2022
4789 Clouds -4 1024 93 10000 3.09 120 20:55 14.03.2022
4790 Clear -3 1024 86 10000 2.57 140 20:24 14.03.2022
4791 Clear -2 1024 80 10000 2.57 150 19:22 14.03.2022
4792 Clear -2 1024 80 10000 2.57 130 17:55 14.03.2022
4793 Clear -2 1024 80 10000 2.06 100 17:25 14.03.2022
4794 Clear 0 1024 69 10000 1.54 130 16:26 14.03.2022
4795 Clear 0 1024 69 10000 1.03 50 14:41 14.03.2022
4796 Clear -3 1024 86 10000 0.51 0 12:55 14.03.2022
4797 Clear -5 1024 93 10000 0.51 0 10:57 14.03.2022
4798 Clouds -5 1024 93 10000 0.51 180 09:56 14.03.2022
4799 Clouds -7 1024 93 10000 2.06 50 09:22 14.03.2022
4800 Clouds -7 1024 93 10000 2.06 50 08:57 14.03.2022
4801 Fog -9 1024 92 6000 1.03 0 07:43 14.03.2022
4802 Fog -10 1024 92 450 1.03 280 05:46 14.03.2022
4803 Fog -8 1023 100 550 1.03 0 02:51 14.03.2022
4804 Fog -5 1023 93 300 1.03 220 01:29 14.03.2022
4805 Clear -6 1023 100 10000 1.54 260 22:56 13.03.2022
4806 Clear -4 1023 93 10000 2.57 240 21:31 13.03.2022
4807 Clear -5 1023 86 10000 2.06 250 20:59 13.03.2022
4808 Clear -3 1023 86 10000 2.57 240 20:37 13.03.2022
4809 Clear -1 1023 80 10000 2.57 220 20:19 13.03.2022
4810 Clear -1 1023 80 10000 3.6 230 19:39 13.03.2022
4811 Clear 0 1022 74 10000 4.12 210 19:18 13.03.2022
4812 Clear 0 1022 74 10000 3.6 200 18:38 13.03.2022
4813 Clear 1 1022 74 10000 2.06 210 17:47 13.03.2022
4814 Clear 2 1022 69 10000 2.06 220 17:20 13.03.2022
4815 Clear 2 1022 69 10000 3.6 220 16:30 13.03.2022
4816 Clear 4 1022 65 10000 4.63 220 15:47 13.03.2022
4817 Clear 5 1022 60 10000 4.12 210 14:56 13.03.2022
4818 Clear 5 1022 60 10000 3.6 190 13:45 13.03.2022
4819 Clear 5 1023 60 10000 1.54 200 12:57 13.03.2022
4820 Clear 3 1023 69 10000 2.06 170 11:53 13.03.2022
4821 Clear 2 1023 75 10000 3.09 180 11:32 13.03.2022
4822 Clear 1 1023 74 10000 2.06 120 10:47 13.03.2022
4823 Clear 1 1023 74 10000 2.06 120 10:22 13.03.2022
4824 Clouds 0 1023 80 10000 1.54 110 09:40 13.03.2022
4825 Clouds -2 1023 86 10000 2.57 90 08:45 13.03.2022
4826 Clear -3 1023 93 10000 2.06 110 07:41 13.03.2022
4827 Clouds -5 1022 93 7000 2.57 90 05:40 13.03.2022
4828 Fog -2 1022 93 900 1.54 120 02:39 13.03.2022
4829 Mist -1 1023 93 4800 1.54 220 23:56 12.03.2022
4830 Clear -2 1023 93 10000 2.57 240 22:27 12.03.2022
4831 Clear 1 1023 80 10000 3.09 230 20:34 12.03.2022
4832 Clear 3 1022 75 10000 2.57 220 19:47 12.03.2022
4833 Clear 4 1022 70 10000 2.57 220 18:58 12.03.2022
4834 Clear 4 1022 65 10000 3.09 230 18:22 12.03.2022
4835 Clear 4 1022 70 10000 3.09 230 17:23 12.03.2022
4836 Clear 6 1022 65 10000 3.09 230 16:23 12.03.2022
4837 Clear 6 1022 65 10000 3.09 220 15:22 12.03.2022
4838 Clear 7 1022 61 10000 3.09 210 14:27 12.03.2022
4839 Clear 5 1023 65 10000 2.06 210 12:45 12.03.2022
4840 Clear 5 1023 70 10000 1.54 200 11:56 12.03.2022
4841 Clear 4 1023 75 10000 1.54 190 11:34 12.03.2022
4842 Clear 3 1023 75 10000 1.54 210 10:52 12.03.2022
4843 Clear 1 1023 86 10000 1.54 220 09:44 12.03.2022
4844 Clear 0 1023 93 10000 2.57 250 08:53 12.03.2022
4845 Fog -1 1022 100 750 1.03 250 06:53 12.03.2022
4846 Clear 0 1022 93 10000 2.06 260 01:44 12.03.2022
4847 Clear 1 1022 86 10000 2.06 230 23:51 11.03.2022
4848 Clear 1 1022 86 10000 1.54 270 22:45 11.03.2022
4849 Clear 1 1021 86 10000 2.57 230 21:26 11.03.2022
4850 Clear 1 1021 80 10000 1.03 0 20:51 11.03.2022
4851 Clear 1 1021 80 10000 1.03 0 20:26 11.03.2022
4852 Clear 3 1021 75 10000 2.57 250 19:36 11.03.2022
4853 Clear 3 1021 75 10000 2.57 230 18:43 11.03.2022
4854 Clear 3 1020 75 10000 4.12 210 17:26 11.03.2022
4855 Clear 3 1020 75 10000 3.6 220 16:26 11.03.2022
4856 Clear 3 1020 75 10000 3.09 210 15:51 11.03.2022
4857 Clear 3 1020 75 10000 3.09 240 13:45 11.03.2022
4858 Clear 2 1020 75 10000 3.6 210 12:41 11.03.2022
4859 Clear 1 1020 80 10000 2.06 240 12:19 11.03.2022
4860 Clear 1 1020 80 10000 3.6 240 11:28 11.03.2022
4861 Clear -2 1019 93 10000 3.6 240 09:36 11.03.2022
4862 Clear -3 1019 93 10000 3.6 250 08:28 11.03.2022
4863 Clear -4 1018 93 10000 3.09 240 07:48 11.03.2022
4864 Clear -4 1018 93 10000 2.06 230 06:44 11.03.2022
4865 Clear -4 1017 100 10000 2.06 210 04:40 11.03.2022
4866 Clear -4 1017 100 10000 3.6 230 01:48 11.03.2022
4867 Clear -2 1016 93 10000 4.12 220 22:33 10.03.2022
4868 Clear -2 1016 93 10000 5.14 220 21:54 10.03.2022
4869 Clear -2 1016 100 10000 4.63 230 21:25 10.03.2022
4870 Clear -1 1016 93 10000 5.66 230 20:36 10.03.2022
4871 Clouds -1 1016 93 10000 6.69 230 19:20 10.03.2022
4872 Clouds 0 1015 93 10000 9.26 220 17:55 10.03.2022
4873 Clouds 0 1015 93 10000 9.77 220 16:53 10.03.2022
4874 Clouds 0 1016 93 9000 10.8 220 15:29 10.03.2022
4875 Clouds 0 1016 86 10000 12.35 220 13:46 10.03.2022
4876 Clouds -1 1017 100 10000 10.8 220 12:41 10.03.2022
4877 Clouds -1 1017 100 6000 9.77 220 11:28 10.03.2022
4878 Clouds -1 1018 93 2000 9.77 210 09:42 10.03.2022
4879 Mist -3 1019 100 1400 8.23 200 07:48 10.03.2022
4880 Clouds -3 1020 93 9000 7.72 200 05:32 10.03.2022
4881 Clouds -4 1022 93 10000 9.26 210 02:33 10.03.2022
4882 Clouds -5 1024 93 8000 8.23 200 23:32 09.03.2022
4883 Clouds -5 1025 93 10000 8.23 210 22:22 09.03.2022
4884 Clouds -6 1025 93 10000 8.23 200 21:44 09.03.2022
4885 Clouds -6 1026 93 9000 7.72 200 20:36 09.03.2022
4886 Clouds -6 1026 93 10000 7.72 200 18:41 09.03.2022
4887 Clouds -6 1026 93 10000 7.2 210 17:28 09.03.2022
4888 Clouds -6 1026 93 10000 7.2 210 16:36 09.03.2022
4889 Clouds -6 1026 93 10000 6.17 210 15:32 09.03.2022
4890 Clouds -6 1027 93 10000 6.17 200 13:58 09.03.2022
4891 Clouds -6 1027 93 10000 7.2 210 12:59 09.03.2022
4892 Clouds -7 1027 93 10000 6.69 210 12:19 09.03.2022
4893 Clouds -7 1027 93 10000 6.17 220 11:36 09.03.2022
4894 Clouds -7 1027 93 7000 6.69 210 10:39 09.03.2022
4895 Clouds -7 1026 93 8000 5.66 220 08:59 09.03.2022
4896 Clouds -7 1026 93 10000 5.66 220 08:25 09.03.2022
4897 Fog -7 1025 100 1100 4.12 230 03:50 09.03.2022
4898 Fog -7 1024 100 1200 2.57 240 00:52 09.03.2022
4899 Clouds -7 1023 100 10000 3.09 230 23:18 08.03.2022
4900 Clouds -7 1023 100 10000 2.57 260 22:44 08.03.2022
4901 Clouds -6 1023 93 10000 2.06 260 21:24 08.03.2022
4902 Clouds -6 1022 93 10000 2.57 260 20:49 08.03.2022
4903 Clouds -6 1022 93 10000 2.06 260 19:53 08.03.2022
4904 Clouds -6 1021 93 10000 2.06 260 18:44 08.03.2022
4905 Clouds -6 1021 93 10000 2.06 250 17:37 08.03.2022
4906 Clouds -6 1020 93 10000 1.03 0 16:29 08.03.2022
4907 Clouds -6 1019 93 10000 1.03 0 14:20 08.03.2022
4908 Clouds -6 1018 93 10000 1.54 260 12:44 08.03.2022
4909 Clouds -6 1018 93 10000 0.51 310 11:45 08.03.2022
4910 Clouds -7 1017 93 10000 1.54 60 10:50 08.03.2022
4911 Clouds -7 1017 93 10000 0.51 0 09:57 08.03.2022
4912 Fog -8 1016 92 800 2.06 140 07:32 08.03.2022
4913 Clouds -8 1015 92 5000 2.06 120 05:43 08.03.2022
4914 Clouds -8 1015 92 4700 4.12 170 23:51 07.03.2022
4915 Snow -8 1015 86 4000 3.6 150 21:57 07.03.2022
4916 Snow -8 1015 86 4000 3.6 150 21:32 07.03.2022
4917 Snow -8 1016 86 2000 3.09 160 20:46 07.03.2022
4918 Snow -9 1016 92 2300 4.12 160 19:55 07.03.2022
4919 Snow -9 1016 92 3100 4.63 160 19:31 07.03.2022
4920 Snow -8 1016 79 4100 5.14 160 18:42 07.03.2022
4921 Snow -8 1016 73 4300 5.14 160 17:48 07.03.2022
4922 Snow -7 1016 62 10000 4.63 160 16:55 07.03.2022
4923 Clouds -7 1017 67 10000 4.63 170 15:35 07.03.2022
4924 Clouds -6 1017 63 10000 4.12 170 13:24 07.03.2022
4925 Clouds -6 1018 68 10000 4.12 150 12:23 07.03.2022
4926 Clouds -7 1019 73 10000 3.6 170 10:38 07.03.2022
4927 Clouds -7 1019 73 10000 3.6 170 10:38 07.03.2022
4928 Clouds -7 1018 86 10000 4.12 130 08:48 07.03.2022
4929 Clouds -5 1016 86 10000 3.09 90 03:49 07.03.2022
4930 Snow -4 1014 93 10000 1.03 80 00:22 07.03.2022
4931 Clouds -4 1014 93 10000 1.54 40 23:35 06.03.2022
4932 Clouds -4 1013 93 10000 1.54 20 22:40 06.03.2022
4933 Clouds -4 1012 93 10000 1.54 360 21:46 06.03.2022
4934 Clouds -4 1012 93 10000 1.54 350 20:31 06.03.2022
4935 Clouds -4 1011 93 10000 2.06 20 19:51 06.03.2022
4936 Clouds -4 1010 93 10000 3.09 30 18:51 06.03.2022
4937 Clouds -4 1010 93 10000 2.57 20 17:57 06.03.2022
4938 Clouds -4 1009 93 10000 3.09 30 17:21 06.03.2022
4939 Clouds -3 1008 93 10000 3.09 60 16:41 06.03.2022
4940 Clouds -4 1007 93 10000 2.06 30 15:45 06.03.2022
4941 Clouds -4 1006 93 10000 3.09 40 14:49 06.03.2022
4942 Clouds -4 1006 93 10000 3.09 40 14:30 06.03.2022
4943 Clouds -3 1005 93 3500 1.54 80 12:50 06.03.2022
4944 Mist -3 1005 93 2800 1.54 100 11:56 06.03.2022
4945 Clouds -4 1004 93 9000 2.06 170 10:52 06.03.2022
4946 Clouds -4 1004 93 10000 3.09 120 09:43 06.03.2022
4947 Clouds -5 1004 93 10000 2.57 110 08:29 06.03.2022
4948 Clouds -5 1004 93 10000 2.06 120 07:34 06.03.2022
4949 Clouds -5 1004 93 10000 2.06 90 04:45 06.03.2022
4950 Snow -5 1005 100 7000 1.03 210 00:43 06.03.2022
4951 Snow -5 1005 100 7000 1.03 210 00:23 06.03.2022
4952 Snow -4 1006 100 3500 0.51 110 23:19 05.03.2022
4953 Snow -4 1006 100 2100 0 0 22:42 05.03.2022
4954 Fog -4 1006 93 1000 0.51 0 21:36 05.03.2022
4955 Fog -4 1006 93 2000 0.51 0 20:57 05.03.2022
4956 Mist -4 1007 93 2900 1.03 0 19:23 05.03.2022
4957 Fog -4 1007 93 1000 2.06 250 18:50 05.03.2022
4958 Fog -4 1008 93 900 3.09 250 17:41 05.03.2022
4959 Clouds -4 1008 93 10000 3.6 230 16:20 05.03.2022
4960 Snow -5 1009 100 2700 4.12 210 15:30 05.03.2022
4961 Snow -5 1009 100 2600 4.12 210 14:42 05.03.2022
4962 Snow -5 1009 100 2600 4.12 210 14:24 05.03.2022
4963 Snow -5 1010 100 3500 4.63 200 12:55 05.03.2022
4964 Clouds -5 1011 93 10000 4.12 190 11:39 05.03.2022
4965 Snow -5 1012 86 10000 4.12 190 11:18 05.03.2022
4966 Snow -6 1012 93 10000 5.14 190 09:40 05.03.2022
4967 Clouds -6 1013 86 10000 4.12 180 08:49 05.03.2022
4968 Clouds -7 1014 86 10000 4.63 170 07:23 05.03.2022
4969 Clear -7 1015 79 10000 4.63 160 05:41 05.03.2022
4970 Clouds -7 1019 79 10000 3.09 160 01:25 05.03.2022
4971 Clear -7 1021 79 10000 2.57 190 23:30 04.03.2022
4972 Clear -6 1021 73 10000 3.09 200 22:40 04.03.2022
4973 Clear -6 1021 73 10000 3.6 200 21:45 04.03.2022
4974 Clear -6 1022 73 10000 3.6 200 20:48 04.03.2022
4975 Clear -5 1022 63 10000 3.09 200 19:39 04.03.2022
4976 Clear -5 1022 63 10000 3.09 200 18:59 04.03.2022
4977 Clear -5 1022 68 10000 3.09 210 18:36 04.03.2022
4978 Clear -4 1022 63 10000 2.57 190 17:29 04.03.2022
4979 Clear -3 1023 58 10000 2.06 180 16:26 04.03.2022
4980 Clear -3 1023 63 10000 2.06 200 15:27 04.03.2022
4981 Clear -2 1023 54 10000 2.57 250 13:38 04.03.2022
4982 Clear -3 1023 58 10000 2.57 280 12:51 04.03.2022
4983 Clear -4 1024 63 10000 2.06 280 11:37 04.03.2022
4984 Clear -5 1024 73 10000 2.57 310 10:30 04.03.2022
4985 Clear -7 1023 79 10000 4.12 320 09:28 04.03.2022
4986 Clear -9 1023 92 10000 5.14 340 08:20 04.03.2022
4987 Clear -9 1022 92 10000 4.63 330 06:55 04.03.2022
4988 Clear -7 1022 86 10000 4.12 340 02:52 04.03.2022
4989 Clear -5 1021 79 10000 3.09 330 23:43 03.03.2022
4990 Clear -5 1021 86 10000 3.09 310 22:18 03.03.2022
4991 Clear -5 1020 86 10000 2.57 310 21:36 03.03.2022
4992 Clear -4 1020 74 10000 3.09 310 20:50 03.03.2022
4993 Clear -3 1019 63 10000 2.06 310 19:34 03.03.2022
4994 Clouds -2 1019 63 10000 2.06 320 18:33 03.03.2022
4995 Clear -2 1019 63 10000 2.06 330 17:39 03.03.2022
4996 Clear -2 1019 63 10000 2.06 310 17:18 03.03.2022
4997 Clear 0 1019 55 10000 4.12 320 15:46 03.03.2022
4998 Clear 0 1018 55 10000 5.14 330 14:45 03.03.2022
4999 Clear 0 1018 55 10000 5.14 330 14:27 03.03.2022
5000 Clouds 0 1018 55 10000 4.63 340 12:43 03.03.2022
5001 Clear -1 1017 59 10000 5.14 330 11:31 03.03.2022
5002 Clear -2 1017 63 10000 4.63 340 10:38 03.03.2022
5003 Clear -3 1015 68 10000 4.63 330 08:43 03.03.2022
5004 Clear -3 1015 74 10000 5.14 330 06:58 03.03.2022
5005 Clear -2 1013 68 10000 5.66 330 05:44 03.03.2022
5006 Clear -1 1010 74 10000 4.63 320 00:30 03.03.2022
5007 Clear 0 1009 80 10000 5.66 320 23:18 02.03.2022
5008 Clear 0 1008 86 10000 5.66 320 22:42 02.03.2022
5009 Clear 0 1007 86 10000 3.6 330 21:23 02.03.2022
5010 Clear 1 1006 93 10000 4.63 320 20:30 02.03.2022
5011 Clear 1 1006 93 10000 4.63 320 20:30 02.03.2022
5012 Clouds 1 1004 93 10000 5.14 330 19:43 02.03.2022
5013 Snow 1 1004 93 10000 5.14 330 19:24 02.03.2022
5014 Snow 0 1003 100 10000 2.57 260 18:39 02.03.2022
5015 Snow 0 1003 100 4100 3.6 240 17:45 02.03.2022
5016 Snow 0 1002 100 4100 4.12 230 16:54 02.03.2022
5017 Snow 0 1002 100 5000 4.63 220 16:25 02.03.2022
5018 Snow 0 1001 86 2800 6.69 210 14:39 02.03.2022
5019 Clouds 2 1001 69 10000 7.72 210 13:18 02.03.2022
5020 Clouds 2 1001 69 10000 7.2 210 12:39 02.03.2022
5021 Clouds 2 1001 64 10000 7.72 220 11:28 02.03.2022
5022 Clear 1 1001 69 10000 6.69 230 10:58 02.03.2022
5023 Clear 0 1001 74 10000 6.69 220 09:40 02.03.2022
5024 Clear -1 1001 80 10000 6.17 220 08:50 02.03.2022
5025 Clear -1 1002 80 10000 7.72 220 07:25 02.03.2022
5026 Clear -1 1002 80 10000 6.69 220 05:42 02.03.2022
5027 Clear -1 1005 80 10000 6.17 220 00:51 02.03.2022
5028 Clear -1 1005 80 10000 6.17 220 23:40 01.03.2022
5029 Clear -3 1005 86 10000 4.63 230 22:42 01.03.2022
5030 Clear -3 1006 93 10000 4.63 230 21:55 01.03.2022
5031 Clear -2 1006 86 10000 6.17 220 20:44 01.03.2022
5032 Clear -2 1006 86 10000 6.17 220 20:22 01.03.2022
5033 Clear -2 1006 86 10000 6.69 230 19:21 01.03.2022
5034 Clear -2 1006 93 10000 6.17 220 18:26 01.03.2022
5035 Clear -2 1006 86 10000 6.69 230 17:55 01.03.2022
5036 Clouds -1 1006 86 6000 7.2 220 16:50 01.03.2022
5037 Clouds -1 1005 93 5000 7.72 220 15:51 01.03.2022
5038 Snow -1 1006 93 10000 6.69 220 14:54 01.03.2022
5039 Snow -1 1006 93 7000 7.2 210 14:33 01.03.2022
5040 Snow -1 1007 93 2000 7.2 210 13:26 01.03.2022
5041 Snow -1 1007 86 10000 5.66 210 12:38 01.03.2022
5042 Clouds -1 1008 86 10000 5.66 200 11:44 01.03.2022
5043 Clouds -2 1009 86 10000 6.17 190 09:53 01.03.2022
5044 Clouds -3 1010 93 10000 6.17 200 08:31 01.03.2022
5045 Clouds -3 1010 93 10000 6.17 190 07:35 01.03.2022
5046 Clouds -2 1013 93 10000 5.14 210 03:29 01.03.2022
5047 Clear -2 1014 86 10000 2.57 140 00:58 01.03.2022
5048 Clouds -2 1016 86 10000 3.6 190 23:47 28.02.2022
5049 Clear -2 1017 86 10000 3.6 210 22:50 28.02.2022
5050 Clear -1 1017 80 10000 5.14 210 21:48 28.02.2022
5051 Clear -1 1017 80 10000 5.66 210 20:56 28.02.2022
5052 Clear 0 1018 86 10000 4.63 200 19:51 28.02.2022
5053 Clear 0 1019 86 10000 4.63 190 19:22 28.02.2022
5054 Clear 0 1019 86 10000 5.14 190 18:35 28.02.2022
5055 Clear 1 1019 80 10000 3.6 170 17:23 28.02.2022
5056 Clear 3 1020 69 10000 4.12 200 16:32 28.02.2022
5057 Clear 4 1020 65 10000 5.14 220 15:21 28.02.2022
5058 Clear 4 1020 60 10000 6.17 210 14:29 28.02.2022
5059 Clear 5 1020 56 10000 3.09 240 13:24 28.02.2022
5060 Clear 5 1020 52 10000 3.6 250 12:31 28.02.2022
5061 Clear 4 1020 60 10000 3.09 270 11:21 28.02.2022
5062 Clear 4 1020 60 10000 4.63 270 10:24 28.02.2022
5063 Clear 3 1019 64 10000 5.14 260 09:53 28.02.2022
5064 Clear 3 1019 64 10000 5.14 260 09:24 28.02.2022
5065 Clear 2 1019 69 10000 5.66 260 08:22 28.02.2022
5066 Clear 2 1018 75 10000 5.66 260 06:44 28.02.2022
5067 Clear 1 1016 80 10000 6.17 250 04:31 28.02.2022
5068 Clear 1 1014 74 10000 7.2 240 01:42 28.02.2022
5069 Clear 0 1012 80 10000 7.72 230 22:57 27.02.2022
5070 Clear 0 1012 80 10000 6.69 230 22:32 27.02.2022
5071 Clear -1 1011 86 10000 9.26 220 21:42 27.02.2022
5072 Clear -1 1012 86 10000 8.23 220 20:54 27.02.2022
5073 Clear -1 1012 86 10000 8.23 220 20:25 27.02.2022
5074 Clouds -1 1013 93 10000 8.75 210 19:50 27.02.2022
5075 Clouds -1 1013 93 10000 8.75 210 19:24 27.02.2022
5076 Clouds -1 1013 86 10000 9.26 210 18:38 27.02.2022
5077 Clear -1 1013 86 10000 8.75 220 17:53 27.02.2022
5078 Clear 0 1014 80 10000 8.23 220 16:31 27.02.2022
5079 Clear 0 1015 80 10000 8.75 210 15:42 27.02.2022
5080 Clear 1 1015 74 10000 9.77 220 12:53 27.02.2022
5081 Clear 1 1015 74 10000 10.8 220 12:29 27.02.2022
5082 Clouds 0 1016 86 10000 11.32 210 10:47 27.02.2022
5083 Clouds 0 1016 86 10000 10.29 220 09:58 27.02.2022
5084 Clouds 0 1015 86 7000 9.77 220 09:27 27.02.2022
5085 Clouds 0 1015 86 7000 9.77 220 08:54 27.02.2022
5086 Clear -1 1015 93 10000 9.26 220 06:43 27.02.2022
5087 Clouds -2 1015 93 9000 10.29 220 04:26 27.02.2022
5088 Snow -4 1017 80 5000 11.83 220 00:34 27.02.2022
5089 Snow -6 1019 73 10000 9.77 200 22:51 26.02.2022
5090 Clear -7 1020 67 10000 8.75 200 21:38 26.02.2022
5091 Clear -8 1020 73 10000 8.23 200 20:48 26.02.2022
5092 Clear -8 1021 73 10000 6.69 200 19:59 26.02.2022
5093 Clear -8 1021 73 10000 6.69 200 19:59 26.02.2022
5094 Clear -8 1021 73 10000 6.69 200 19:34 26.02.2022
5095 Clear -7 1021 73 10000 7.2 210 18:46 26.02.2022
5096 Clear -7 1022 79 10000 4.12 200 17:40 26.02.2022
5097 Clear -7 1022 79 10000 5.14 200 16:48 26.02.2022
5098 Clear -6 1022 79 10000 5.14 210 15:48 26.02.2022
5099 Clear -5 1022 68 10000 5.14 210 15:20 26.02.2022
5100 Clear -6 1021 73 10000 4.63 220 14:52 26.02.2022
5101 Clear -6 1021 73 10000 4.63 220 14:25 26.02.2022
5102 Clear -6 1021 68 10000 2.57 240 13:18 26.02.2022
5103 Clear -5 1020 63 10000 1.54 270 11:54 26.02.2022
5104 Clear -6 1020 68 10000 1.03 0 11:28 26.02.2022
5105 Clear -7 1019 73 10000 2.06 340 10:31 26.02.2022
5106 Clear -9 1016 85 10000 3.09 330 08:45 26.02.2022
5107 Clear -8 1013 79 10000 5.14 330 06:46 26.02.2022
5108 Clouds -3 1003 80 10000 5.66 330 00:38 26.02.2022
5109 Clouds -3 999 86 10000 5.66 330 22:45 25.02.2022
5110 Clouds -3 998 86 10000 4.63 330 21:37 25.02.2022
5111 Snow -3 997 86 10000 5.14 330 21:18 25.02.2022
5112 Clouds -3 996 86 10000 4.63 330 20:31 25.02.2022
5113 Clouds -2 993 80 10000 4.12 310 18:35 25.02.2022
5114 Clouds -2 991 93 10000 2.06 260 17:21 25.02.2022
5115 Clouds -2 990 93 10000 2.57 230 16:21 25.02.2022
5116 Clouds -2 990 86 10000 3.6 220 15:42 25.02.2022
5117 Clouds -2 989 86 10000 3.6 210 15:19 25.02.2022
5118 Clouds -2 989 93 10000 5.14 220 14:41 25.02.2022
5119 Clouds -2 988 93 10000 5.14 210 13:36 25.02.2022
5120 Clouds -2 987 93 10000 6.69 210 12:42 25.02.2022
5121 Clouds -2 986 93 10000 4.63 220 11:23 25.02.2022
5122 Clouds -2 986 86 10000 7.2 220 10:28 25.02.2022
5123 Clouds -3 985 93 10000 7.2 210 09:52 25.02.2022
5124 Clouds -3 985 93 10000 7.2 210 08:44 25.02.2022
5125 Clouds -3 985 93 10000 6.69 210 07:36 25.02.2022
5126 Clouds -3 983 93 10000 7.2 200 05:45 25.02.2022
5127 Clouds -2 982 86 10000 7.2 210 02:49 25.02.2022
5128 Clouds -1 981 93 10000 8.23 220 22:55 24.02.2022
5129 Clouds 0 980 93 10000 7.72 220 21:51 24.02.2022
5130 Clouds 0 980 93 10000 7.72 220 21:31 24.02.2022
5131 Clouds 0 979 93 5000 10.29 220 20:53 24.02.2022
5132 Clouds -1 979 93 6000 9.77 220 19:38 24.02.2022
5133 Clouds -1 979 93 10000 7.72 220 18:36 24.02.2022
5134 Clouds -1 979 100 10000 7.2 210 18:18 24.02.2022
5135 Clouds 0 978 93 10000 7.2 220 17:33 24.02.2022
5136 Clouds 0 977 93 10000 5.66 230 16:28 24.02.2022
5137 Clouds -1 976 100 10000 4.63 240 15:46 24.02.2022
5138 Snow 0 976 93 1700 3.6 230 14:52 24.02.2022
5139 Snow -1 975 100 1500 2.57 180 14:20 24.02.2022
5140 Snow -1 976 100 600 2.57 170 13:39 24.02.2022
5141 Snow -1 977 93 900 2.57 140 12:27 24.02.2022
5142 Snow -2 979 93 1000 4.63 160 10:39 24.02.2022
5143 Snow -4 981 93 5000 4.12 160 08:56 24.02.2022
5144 Snow -4 982 93 6000 5.66 170 08:38 24.02.2022
5145 Snow -6 986 93 5000 6.69 160 05:52 24.02.2022
5146 Clouds -10 994 92 6000 6.17 160 00:32 24.02.2022
5147 Clouds -12 996 92 4600 5.14 170 22:38 23.02.2022
5148 Clouds -13 997 92 4400 4.63 160 21:34 23.02.2022
5149 Clouds -14 998 85 10000 4.63 150 20:30 23.02.2022
5150 Snow -15 999 85 9000 3.6 140 19:44 23.02.2022
5151 Snow -15 999 85 7000 4.12 160 18:32 23.02.2022
5152 Clouds -15 1000 85 6000 5.14 160 17:21 23.02.2022
5153 Clouds -15 1001 85 10000 2.06 150 14:34 23.02.2022
5154 Clouds -16 1002 78 10000 2.57 200 12:37 23.02.2022
5155 Clouds -17 1002 85 10000 1.54 200 11:23 23.02.2022
5156 Mist -18 1002 78 8000 2.57 200 10:30 23.02.2022
5157 Clouds -19 1001 77 10000 1.03 110 08:57 23.02.2022
5158 Clouds -20 1001 84 7000 2.06 100 07:57 23.02.2022
5159 Clouds -19 1000 84 6000 1.54 40 03:48 23.02.2022
5160 Clear -19 1000 84 10000 1.03 0 00:19 23.02.2022
5161 Clear -19 1000 84 10000 0.51 0 23:35 22.02.2022
5162 Clear -19 999 84 10000 0.51 0 22:31 22.02.2022
5163 Clear -18 999 84 10000 3.09 20 21:48 22.02.2022
5164 Clear -18 999 84 10000 3.09 20 21:25 22.02.2022
5165 Clouds -18 999 84 10000 3.09 350 20:49 22.02.2022
5166 Clouds -18 999 84 10000 3.09 350 20:29 22.02.2022
5167 Clouds -17 999 85 3900 1.54 350 19:34 22.02.2022
5168 Clouds -16 998 85 10000 4.12 360 18:58 22.02.2022
5169 Clouds -15 998 85 10000 3.6 340 17:36 22.02.2022
5170 Clear -15 998 85 10000 3.6 340 17:18 22.02.2022
5171 Clear -15 998 85 10000 3.6 340 16:36 22.02.2022
5172 Clouds -13 998 85 10000 2.57 340 15:37 22.02.2022
5173 Clouds -13 998 92 10000 2.06 320 14:42 22.02.2022
5174 Clouds -14 998 92 10000 2.06 20 11:41 22.02.2022
5175 Fog -15 998 85 1400 0.51 50 10:24 22.02.2022
5176 Mist -17 997 85 9000 2.06 350 07:43 22.02.2022
5177 Mist -17 997 85 9000 2.06 350 07:25 22.02.2022
5178 Clouds -16 996 85 8000 2.57 20 02:51 22.02.2022
5179 Clouds -16 996 85 8000 2.06 20 00:44 22.02.2022
5180 Clouds -16 996 92 10000 2.57 360 22:38 21.02.2022
5181 Clouds -15 995 85 10000 1.54 350 21:24 21.02.2022
5182 Clear -13 995 85 10000 3.6 350 20:19 21.02.2022
5183 Clouds -13 994 85 10000 3.09 10 18:40 21.02.2022
5184 Clear -13 994 85 10000 3.09 360 16:40 21.02.2022
5185 Clouds -13 993 85 10000 1.54 10 14:24 21.02.2022
5186 Clear -11 993 85 10000 0.51 0 13:55 21.02.2022
5187 Clear -11 992 85 10000 1.03 0 12:57 21.02.2022
5188 Clear -11 992 85 10000 1.03 0 12:22 21.02.2022
5189 Fog -13 991 85 1500 2.57 10 10:32 21.02.2022
5190 Clouds -13 990 85 10000 3.6 30 07:52 21.02.2022
5191 Clouds -12 988 92 10000 3.09 360 00:56 21.02.2022
5192 Clouds -10 988 85 10000 3.6 10 22:39 20.02.2022
5193 Clouds -10 988 85 10000 3.6 360 21:51 20.02.2022
5194 Clouds -10 988 85 10000 3.6 360 21:25 20.02.2022
5195 Clouds -10 988 92 10000 3.6 360 20:50 20.02.2022
5196 Clouds -9 988 85 10000 3.09 360 19:59 20.02.2022
5197 Clouds -9 988 92 10000 3.09 360 18:57 20.02.2022
5198 Clouds -9 987 92 10000 3.09 360 18:37 20.02.2022
5199 Clouds -9 987 92 10000 3.09 360 18:37 20.02.2022
5200 Clouds -9 987 92 10000 3.09 360 17:56 20.02.2022
5201 Clouds -8 989 86 10000 4.12 10 17:24 20.02.2022
5202 Clouds -7 987 86 5000 3.6 10 15:29 20.02.2022
5203 Clouds -7 987 93 4000 3.6 10 14:20 20.02.2022
5204 Clouds -7 987 86 10000 2.57 360 12:49 20.02.2022
5205 Clouds -8 986 86 10000 3.6 360 11:56 20.02.2022
5206 Snow -9 986 92 10000 4.63 350 10:21 20.02.2022
5207 Snow -9 985 92 10000 4.63 350 09:51 20.02.2022
5208 Snow -8 984 92 10000 4.12 350 06:30 20.02.2022
5209 Snow -6 983 93 10000 3.6 360 00:33 20.02.2022
5210 Snow -6 983 93 10000 3.6 360 00:33 20.02.2022
5211 Snow -5 982 86 10000 4.63 10 23:39 19.02.2022
5212 Snow -5 982 86 10000 5.14 10 22:24 19.02.2022
5213 Clouds -5 981 93 10000 5.66 10 21:50 19.02.2022
5214 Snow -4 981 86 7000 4.63 10 20:41 19.02.2022
5215 Snow -4 980 86 10000 5.14 10 19:36 19.02.2022
5216 Snow -3 980 80 10000 3.6 10 18:41 19.02.2022
5217 Clouds -3 979 80 10000 4.63 10 17:58 19.02.2022
5218 Clouds -3 979 80 10000 4.63 10 17:23 19.02.2022
5219 Snow -3 978 80 10000 5.14 20 15:59 19.02.2022
5220 Snow -3 978 86 10000 4.12 10 14:55 19.02.2022
5221 Clouds -3 977 86 10000 4.12 20 13:58 19.02.2022
5222 Snow -3 976 86 10000 4.63 30 11:53 19.02.2022
5223 Snow -3 975 86 10000 4.63 20 10:54 19.02.2022
5224 Snow -4 974 93 10000 4.63 20 08:57 19.02.2022
5225 Snow -3 972 86 10000 4.12 20 06:48 19.02.2022
5226 Snow -2 970 86 10000 5.14 30 00:42 19.02.2022
5227 Snow -2 971 86 10000 5.14 30 22:28 18.02.2022
5228 Snow -2 971 86 10000 5.14 30 21:22 18.02.2022
5229 Clouds -2 969 86 10000 4.63 20 20:18 18.02.2022
5230 Snow -3 969 93 9000 5.14 20 19:25 18.02.2022
5231 Clouds -3 969 93 5000 5.66 20 18:29 18.02.2022
5232 Snow -2 968 86 10000 6.17 20 17:56 18.02.2022
5233 Snow -3 968 93 2200 6.17 30 16:19 18.02.2022
5234 Snow -3 968 93 2000 6.69 30 14:19 18.02.2022
5235 Snow -3 968 93 1400 6.69 30 13:45 18.02.2022
5236 Snow -3 968 93 1500 6.69 30 12:48 18.02.2022
5237 Snow -3 968 93 2000 7.72 30 11:56 18.02.2022
5238 Snow -3 968 86 2500 7.72 40 10:42 18.02.2022
5239 Snow -4 969 93 1500 8.75 40 07:20 18.02.2022
5240 Snow -4 969 86 3200 8.75 30 05:43 18.02.2022
5241 Snow -5 970 93 2500 8.23 30 03:47 18.02.2022
5242 Snow -5 973 86 6000 9.77 50 21:56 17.02.2022
5243 Snow -5 973 86 4700 9.26 50 21:33 17.02.2022
5244 Snow -5 973 86 3200 8.75 50 20:42 17.02.2022
5245 Snow -5 974 86 3100 8.75 50 19:54 17.02.2022
5246 Snow -5 974 86 4500 8.23 50 18:57 17.02.2022
5247 Snow -5 975 86 5000 8.75 50 18:18 17.02.2022
5248 Snow -5 976 86 5000 8.23 50 16:43 17.02.2022
5249 Clouds -5 977 86 10000 7.72 60 15:44 17.02.2022
5250 Clouds -5 977 86 10000 8.23 50 14:29 17.02.2022
5251 Snow -5 978 86 10000 6.69 70 12:51 17.02.2022
5252 Snow -6 979 93 6000 7.72 70 11:30 17.02.2022
5253 Snow -6 980 93 5000 7.72 70 09:30 17.02.2022
5254 Snow -6 981 93 10000 7.72 70 06:37 17.02.2022
5255 Snow -8 988 86 10000 7.72 80 23:21 16.02.2022
5256 Clouds -8 988 86 6000 7.72 70 22:20 16.02.2022
5257 Snow -8 990 92 10000 8.23 80 20:19 16.02.2022
5258 Snow -8 991 86 5000 7.72 70 18:43 16.02.2022
5259 Snow -8 991 86 5000 7.2 70 17:53 16.02.2022
5260 Snow -9 993 92 10000 5.14 60 15:58 16.02.2022
5261 Snow -8 994 86 10000 5.66 70 15:20 16.02.2022
5262 Clear -9 995 92 10000 4.12 70 13:31 16.02.2022
5263 Clear -9 995 92 10000 4.12 60 12:20 16.02.2022
5264 Clear -10 996 85 10000 4.63 60 11:31 16.02.2022
5265 Clear -11 996 85 10000 4.12 60 10:34 16.02.2022
5266 Clear -13 996 92 10000 4.12 30 08:24 16.02.2022
5267 Clear -13 997 85 10000 4.63 40 06:43 16.02.2022
5268 Clouds -11 1001 85 10000 4.63 50 23:45 15.02.2022
5269 Clouds -13 1001 92 10000 3.6 50 22:33 15.02.2022
5270 Clear -11 1002 85 10000 3.09 60 21:48 15.02.2022
5271 Clear -11 1002 85 10000 3.6 50 21:29 15.02.2022
5272 Clear -11 1002 85 10000 3.6 60 20:56 15.02.2022
5273 Clear -11 1003 85 10000 3.09 70 19:59 15.02.2022
5274 Clear -11 1003 92 10000 3.6 60 19:21 15.02.2022
5275 Clouds -11 1004 85 10000 4.12 60 18:23 15.02.2022
5276 Clear -12 1004 92 10000 3.09 70 17:50 15.02.2022
5277 Clear -12 1004 92 10000 3.09 70 17:19 15.02.2022
5278 Clear -14 1005 85 10000 3.09 60 15:30 15.02.2022
5279 Clear -16 1006 85 10000 3.09 60 13:28 15.02.2022
5280 Fog -16 1006 85 10000 1.54 80 12:37 15.02.2022
5281 Fog -15 1006 92 10000 1.03 0 11:40 15.02.2022
5282 Fog -17 1005 85 10000 0.51 0 09:47 15.02.2022
5283 Clear -13 1004 92 10000 0.51 150 06:59 15.02.2022
5284 Clear -11 1004 85 10000 3.09 330 05:32 15.02.2022
5285 Clear -15 1002 85 10000 2.06 270 23:33 14.02.2022
5286 Clear -13 1000 78 10000 2.06 300 21:47 14.02.2022
5287 Clear -13 1000 85 10000 2.57 280 20:40 14.02.2022
5288 Clear -14 999 85 10000 2.57 250 19:36 14.02.2022
5289 Clear -13 999 85 10000 2.06 270 18:44 14.02.2022
5290 Clear -12 998 85 10000 3.09 260 18:23 14.02.2022
5291 Clear -12 998 85 10000 3.09 260 17:26 14.02.2022
5292 Clear -12 997 92 10000 3.6 250 16:24 14.02.2022
5293 Clear -11 996 92 10000 3.6 240 14:29 14.02.2022
5294 Clear -11 995 92 10000 3.6 240 13:31 14.02.2022
5295 Clear -11 995 85 10000 3.09 240 12:48 14.02.2022
5296 Clear -12 994 85 10000 2.57 240 11:54 14.02.2022
5297 Clear -13 993 92 10000 3.09 250 10:44 14.02.2022
5298 Clear -15 992 85 10000 2.57 240 08:45 14.02.2022
5299 Clear -14 990 85 10000 3.09 250 07:31 14.02.2022
5300 Clouds -4 985 93 10000 4.12 290 01:18 14.02.2022
5301 Clouds -2 983 100 5000 3.6 190 22:42 13.02.2022
5302 Clouds -2 983 93 2500 4.12 180 22:24 13.02.2022
5303 Clouds -3 983 100 10000 4.63 160 21:32 13.02.2022
5304 Clouds -3 984 100 6000 4.12 160 20:35 13.02.2022
5305 Snow -4 985 93 7000 4.63 150 19:31 13.02.2022
5306 Clouds -4 985 93 10000 4.63 150 18:46 13.02.2022
5307 Clouds -4 986 93 10000 4.63 150 18:26 13.02.2022
5308 Clouds -5 988 93 10000 4.63 140 15:54 13.02.2022
5309 Clouds -6 989 93 10000 5.14 120 15:24 13.02.2022
5310 Clouds -7 990 93 10000 6.17 120 14:22 13.02.2022
5311 Clouds -9 992 92 10000 6.69 100 12:51 13.02.2022
5312 Clouds -11 994 85 10000 5.14 90 11:44 13.02.2022
5313 Clouds -14 996 85 10000 5.14 90 10:33 13.02.2022
5314 Clouds -14 997 85 10000 4.12 90 09:45 13.02.2022
5315 Clouds -13 999 85 1900 3.09 90 07:48 13.02.2022
5316 Clouds -19 1002 84 10000 2.57 100 00:35 13.02.2022
5317 Clouds -17 1002 78 10000 2.57 110 23:42 12.02.2022
5318 Clear -18 1002 84 10000 1.03 160 22:33 12.02.2022
5319 Clouds -18 1001 84 10000 1.54 200 21:30 12.02.2022
5320 Clouds -17 1001 78 10000 1.03 230 20:45 12.02.2022
5321 Clouds -17 1001 85 3400 3.09 250 19:30 12.02.2022
5322 Clouds -17 1000 92 10000 2.06 240 18:53 12.02.2022
5323 Clouds -17 1000 92 10000 2.06 240 18:35 12.02.2022
5324 Clear -18 999 84 10000 1.03 0 17:19 12.02.2022
5325 Clear -14 999 85 10000 2.06 220 16:29 12.02.2022
5326 Clear -15 999 92 10000 1.03 210 15:51 12.02.2022
5327 Clear -13 998 85 10000 0.51 0 14:31 12.02.2022
5328 Clear -11 997 85 10000 0.51 0 13:22 12.02.2022
5329 Clouds -17 997 85 7000 2.06 50 10:42 12.02.2022
5330 Clouds -16 996 85 10000 1.03 0 09:51 12.02.2022
5331 Clear -15 996 100 10000 1.54 210 09:27 12.02.2022
5332 Clear -16 996 85 10000 2.57 210 08:44 12.02.2022
5333 Clear -14 996 92 10000 1.03 250 05:40 12.02.2022
5334 Clear -13 997 92 10000 2.57 250 04:30 12.02.2022
5335 Clear -13 997 92 10000 2.06 250 02:18 12.02.2022
5336 Clear -9 997 92 10000 2.57 270 22:37 11.02.2022
5337 Clear -8 997 86 10000 2.57 260 22:18 11.02.2022
5338 Clear -8 997 86 10000 2.57 260 22:18 11.02.2022
5339 Clear -8 997 92 10000 2.06 270 20:43 11.02.2022
5340 Clouds -7 996 93 10000 2.57 270 19:48 11.02.2022
5341 Clear -7 996 93 10000 2.06 250 19:27 11.02.2022
5342 Clear -7 996 93 10000 2.06 260 18:26 11.02.2022
5343 Clear -6 996 86 10000 2.06 270 17:26 11.02.2022
5344 Clouds -6 995 86 10000 2.57 300 16:26 11.02.2022
5345 Clear -6 994 93 10000 2.06 270 14:44 11.02.2022
5346 Clear -5 994 86 10000 3.09 290 14:23 11.02.2022
5347 Clear -5 994 86 10000 3.09 290 13:59 11.02.2022
5348 Clear -5 994 86 10000 3.09 290 13:39 11.02.2022
5349 Clear -6 992 86 10000 3.09 270 12:19 11.02.2022
5350 Clear -8 991 92 10000 2.57 270 10:24 11.02.2022
5351 Clear -9 990 85 10000 2.57 290 08:49 11.02.2022
5352 Clear -9 989 85 10000 2.57 300 08:27 11.02.2022
5353 Clear -10 989 92 10000 3.09 280 07:22 11.02.2022
5354 Clouds -5 986 93 10000 4.12 310 02:39 11.02.2022
5355 Clouds -5 986 93 10000 4.12 310 02:39 11.02.2022
5356 Clouds -5 985 93 10000 4.63 320 02:18 11.02.2022
5357 Clouds -2 982 93 10000 4.12 330 23:20 10.02.2022
5358 Snow -2 980 100 10000 1.54 360 21:53 10.02.2022
5359 Clouds -2 980 100 4700 2.06 40 21:21 10.02.2022
5360 Clouds -2 979 100 10000 1.54 50 20:45 10.02.2022
5361 Clouds -2 979 100 10000 3.09 130 19:26 10.02.2022
5362 Snow -2 978 100 10000 2.57 140 18:47 10.02.2022
5363 Clouds -2 978 100 5000 4.12 160 17:27 10.02.2022
5364 Clouds -2 979 93 2600 4.12 180 16:55 10.02.2022
5365 Clouds -2 978 93 10000 4.63 180 15:51 10.02.2022
5366 Clouds -2 979 93 10000 5.14 180 15:31 10.02.2022
5367 Clouds -2 979 93 10000 5.66 190 14:49 10.02.2022
5368 Clouds -2 979 93 10000 5.14 180 14:24 10.02.2022
5369 Clouds -3 979 93 10000 4.63 170 13:29 10.02.2022
5370 Clouds -3 979 93 10000 4.63 180 12:50 10.02.2022
5371 Clouds -3 979 93 10000 4.63 180 11:34 10.02.2022
5372 Clouds -4 980 100 10000 5.66 210 10:55 10.02.2022
5373 Clouds -4 980 100 10000 6.69 200 09:59 10.02.2022
5374 Clouds -4 980 93 10000 5.66 200 09:24 10.02.2022
5375 Clouds -3 980 93 3000 4.63 200 07:28 10.02.2022
5376 Clouds -4 981 100 10000 6.17 190 04:58 10.02.2022
5377 Clouds -3 981 93 10000 6.17 200 01:51 10.02.2022
5378 Clouds -3 982 93 10000 6.69 190 00:49 10.02.2022
5379 Clouds -2 982 93 10000 6.69 200 00:28 10.02.2022
5380 Clouds -2 983 93 3500 5.14 200 23:23 09.02.2022
5381 Clouds -2 983 93 10000 5.66 200 22:35 09.02.2022
5382 Clouds -2 983 93 4100 5.14 190 21:51 09.02.2022
5383 Clouds -2 983 93 3200 5.66 190 21:29 09.02.2022
5384 Clouds -2 984 93 10000 6.17 200 20:47 09.02.2022
5385 Clouds -2 984 93 10000 6.17 200 20:27 09.02.2022
5386 Clouds -2 984 93 10000 6.69 200 19:46 09.02.2022
5387 Clouds -2 984 93 10000 6.69 200 19:27 09.02.2022
5388 Clouds -3 985 93 10000 6.69 190 17:37 09.02.2022
5389 Clouds -3 985 100 10000 7.2 190 16:34 09.02.2022
5390 Clouds -2 985 93 10000 6.17 180 15:40 09.02.2022
5391 Clouds -3 986 93 10000 6.69 180 14:28 09.02.2022
5392 Clouds -4 987 93 10000 4.63 180 12:28 09.02.2022
5393 Clouds -4 987 93 10000 4.63 180 12:28 09.02.2022
5394 Clouds -5 987 93 10000 5.66 200 10:51 09.02.2022
5395 Clouds -5 987 93 10000 5.66 200 10:26 09.02.2022
5396 Clouds -5 987 93 10000 5.66 190 09:35 09.02.2022
5397 Clouds -4 987 93 10000 6.69 210 08:59 09.02.2022
5398 Clouds -4 987 93 6000 5.66 200 07:47 09.02.2022
5399 Clouds -4 988 93 2400 3.6 190 05:30 09.02.2022
5400 Clouds -5 988 93 10000 3.09 180 03:50 09.02.2022
5401 Clouds -5 989 93 10000 4.63 170 00:38 09.02.2022
5402 Clouds -5 989 93 10000 3.6 170 23:31 08.02.2022
5403 Clouds -4 989 93 3500 3.6 180 22:46 08.02.2022
5404 Clouds -4 989 93 3700 4.12 170 22:21 08.02.2022
5405 Clouds -4 989 93 3700 4.12 170 22:21 08.02.2022
5406 Snow -4 989 93 6000 4.12 170 21:38 08.02.2022
5407 Snow -4 990 93 2300 4.12 150 21:20 08.02.2022
5408 Snow -4 990 93 7000 3.6 140 20:41 08.02.2022
5409 Snow -4 990 93 6000 3.6 150 19:45 08.02.2022
5410 Clouds -4 991 86 10000 3.6 160 18:34 08.02.2022
5411 Clouds -4 991 86 10000 3.6 150 17:38 08.02.2022
5412 Clouds -3 992 80 10000 3.6 150 16:22 08.02.2022
5413 Clouds -3 992 80 10000 4.63 170 15:29 08.02.2022
5414 Clouds -3 992 86 10000 3.09 160 13:59 08.02.2022
5415 Clouds -3 993 86 10000 4.12 180 12:40 08.02.2022
5416 Clouds -3 993 100 2000 2.57 180 11:20 08.02.2022
5417 Mist -3 994 93 3000 3.09 160 09:59 08.02.2022
5418 Clouds -3 994 93 10000 3.6 140 08:56 08.02.2022
5419 Clouds -3 994 93 10000 3.09 140 07:27 08.02.2022
5420 Clouds -3 995 93 10000 2.57 100 04:40 08.02.2022
5421 Clouds -3 996 93 10000 2.06 100 04:22 08.02.2022
5422 Clouds -3 996 93 10000 2.57 100 03:36 08.02.2022
5423 Clouds -3 996 93 10000 2.57 140 03:18 08.02.2022
5424 Clouds -3 996 93 10000 2.57 140 02:59 08.02.2022
5425 Clouds -3 996 93 10000 3.09 130 02:37 08.02.2022
5426 Clouds -3 996 93 10000 3.09 130 02:18 08.02.2022
5427 Clouds -3 996 93 10000 3.09 120 01:45 08.02.2022
5428 Clouds -3 996 93 10000 3.09 120 01:25 08.02.2022
5429 Clouds -3 996 93 10000 3.09 130 00:55 08.02.2022
5430 Clouds -3 996 93 10000 3.09 130 00:36 08.02.2022
5431 Clouds -2 996 86 10000 3.09 140 23:45 07.02.2022
5432 Clouds -2 996 86 10000 2.57 130 23:18 07.02.2022
5433 Clouds -2 996 86 10000 2.57 130 22:59 07.02.2022
5434 Clouds -3 996 93 10000 1.03 80 22:19 07.02.2022
5435 Clouds -3 995 93 10000 1.54 120 21:51 07.02.2022
5436 Clouds -3 995 93 10000 1.54 120 21:28 07.02.2022
5437 Clouds -3 995 93 10000 2.06 130 20:47 07.02.2022
5438 Clouds -3 995 100 10000 2.06 120 20:29 07.02.2022
5439 Clouds -3 995 100 10000 1.54 80 19:47 07.02.2022
5440 Clouds -3 994 100 10000 1.03 0 18:40 07.02.2022
5441 Clouds -2 994 93 10000 2.06 90 17:33 07.02.2022
5442 Clouds -2 993 93 10000 2.06 110 16:52 07.02.2022
5443 Clouds -2 992 93 10000 2.06 80 15:48 07.02.2022
5444 Clouds -2 991 93 10000 2.57 90 14:19 07.02.2022
5445 Clouds -2 990 93 10000 3.6 100 13:27 07.02.2022
5446 Clouds -2 989 93 10000 3.6 90 12:35 07.02.2022
5447 Clouds -2 989 93 10000 4.12 90 11:40 07.02.2022
5448 Clouds -2 989 93 10000 3.6 100 11:22 07.02.2022
5449 Clouds -2 988 93 10000 3.6 90 10:41 07.02.2022
5450 Clouds -3 988 100 10000 3.6 90 10:22 07.02.2022
5451 Clouds -2 987 93 3000 3.09 80 09:51 07.02.2022
5452 Clouds -2 987 93 10000 3.09 100 09:18 07.02.2022
5453 Clouds -2 985 93 10000 3.6 100 07:44 07.02.2022
5454 Clouds -2 984 93 10000 4.12 110 06:34 07.02.2022
5455 Clouds -3 982 93 10000 5.14 110 04:31 07.02.2022
5456 Clouds -3 982 93 10000 5.14 110 02:37 07.02.2022
5457 Clouds -4 980 93 10000 6.17 90 00:20 07.02.2022
5458 Clouds -4 980 93 10000 6.17 100 23:20 06.02.2022
5459 Clouds -4 980 93 4000 7.2 100 22:41 06.02.2022
5460 Snow -4 980 86 6000 5.66 90 21:38 06.02.2022
5461 Snow -4 980 86 6000 5.66 90 21:20 06.02.2022
5462 Clouds -5 980 93 10000 5.66 90 20:48 06.02.2022
5463 Snow -5 980 93 10000 5.66 90 20:23 06.02.2022
5464 Snow -5 980 86 10000 6.17 90 19:18 06.02.2022
5465 Clouds -5 981 86 10000 6.69 120 18:28 06.02.2022
5466 Clouds -5 981 86 10000 5.66 120 17:30 06.02.2022
5467 Clouds -5 981 86 10000 5.66 130 16:51 06.02.2022
5468 Clouds -5 982 86 10000 5.66 130 15:51 06.02.2022
5469 Clouds -5 982 93 10000 5.14 130 15:28 06.02.2022
5470 Clouds -5 982 93 10000 4.63 130 14:59 06.02.2022
5471 Clouds -5 982 93 10000 5.14 130 13:57 06.02.2022
5472 Clouds -5 982 93 10000 5.14 160 13:20 06.02.2022
5473 Clouds -5 983 93 10000 4.12 130 11:45 06.02.2022
5474 Clouds -5 983 93 10000 3.6 150 10:33 06.02.2022
5475 Clouds -5 983 93 10000 4.12 130 09:29 06.02.2022
5476 Clouds -5 983 93 10000 4.12 140 08:41 06.02.2022
5477 Clouds -5 984 93 10000 5.14 150 06:27 06.02.2022
5478 Clouds -5 984 93 10000 4.63 160 05:27 06.02.2022
5479 Clouds -4 984 93 10000 5.66 160 02:25 06.02.2022
5480 Clouds -5 984 100 10000 5.14 150 00:30 06.02.2022
5481 Clouds -4 984 93 10000 5.14 150 23:27 05.02.2022
5482 Clouds -4 984 93 10000 6.17 160 21:43 05.02.2022
5483 Clouds -5 984 100 10000 6.69 150 20:26 05.02.2022
5484 Clouds -5 984 100 10000 6.17 150 19:51 05.02.2022
5485 Clouds -5 984 100 10000 6.17 150 19:33 05.02.2022
5486 Clouds -5 984 100 10000 6.69 160 18:26 05.02.2022
5487 Clouds -5 984 100 10000 6.69 160 17:33 05.02.2022
5488 Clouds -5 984 93 10000 5.14 160 15:43 05.02.2022
5489 Clouds -5 985 93 10000 5.14 170 15:25 05.02.2022
5490 Clouds -5 984 93 10000 6.17 160 13:22 05.02.2022
5491 Clouds -5 985 93 9000 6.17 160 12:42 05.02.2022
5492 Clouds -6 985 93 10000 5.66 160 10:57 05.02.2022
5493 Clouds -6 985 93 10000 5.66 160 10:38 05.02.2022
5494 Clouds -6 985 93 10000 5.14 160 09:47 05.02.2022
5495 Clouds -6 985 93 10000 5.66 160 08:21 05.02.2022
5496 Clouds -6 985 93 10000 4.63 150 06:58 05.02.2022
5497 Clouds -6 986 93 9000 5.14 160 04:55 05.02.2022
5498 Snow -6 987 93 3400 5.14 150 01:19 05.02.2022
5499 Snow -6 987 93 3700 6.17 150 00:54 05.02.2022
5500 Snow -6 988 86 4200 5.66 150 23:59 04.02.2022
5501 Snow -6 988 86 4200 5.66 150 23:33 04.02.2022
5502 Snow -7 989 93 3700 6.69 150 22:18 04.02.2022
5503 Snow -7 989 86 4400 6.69 140 21:36 04.02.2022
5504 Snow -8 990 92 2100 6.69 140 21:18 04.02.2022
5505 Snow -8 991 92 1700 7.2 130 20:20 04.02.2022
5506 Snow -10 994 85 3100 7.72 120 17:45 04.02.2022
5507 Snow -11 997 85 3900 8.23 110 15:55 04.02.2022
5508 Snow -11 997 85 3900 8.23 110 15:55 04.02.2022
5509 Snow -12 999 92 3100 7.72 120 14:55 04.02.2022
5510 Snow -13 1001 92 5000 6.69 110 13:39 04.02.2022
5511 Snow -13 1002 85 10000 7.2 110 12:43 04.02.2022
5512 Clouds -14 1004 85 10000 6.17 110 11:42 04.02.2022
5513 Clouds -14 1004 85 10000 6.17 110 11:42 04.02.2022
5514 Clouds -15 1005 85 10000 6.17 110 10:36 04.02.2022
5515 Clouds -17 1006 85 8000 4.63 110 08:43 04.02.2022
5516 Clouds -18 1007 84 10000 4.12 110 06:57 04.02.2022
5517 Clouds -18 1009 84 10000 2.57 90 02:48 04.02.2022
5518 Clouds -17 1010 85 6000 2.06 80 01:56 04.02.2022
5519 Clear -17 1010 85 10000 2.57 60 23:29 03.02.2022
5520 Clear -17 1010 85 10000 3.6 70 22:40 03.02.2022
5521 Clear -16 1010 78 10000 3.09 70 21:49 03.02.2022
5522 Clear -16 1010 85 10000 3.09 80 20:39 03.02.2022
5523 Clear -16 1010 85 10000 3.09 80 20:19 03.02.2022
5524 Clear -15 1011 85 10000 3.6 80 19:32 03.02.2022
5525 Clouds -16 1011 85 10000 3.09 60 18:38 03.02.2022
5526 Clear -15 1011 85 10000 3.09 70 17:33 03.02.2022
5527 Clouds -14 1010 85 10000 2.57 70 16:26 03.02.2022
5528 Clouds -13 1011 85 10000 2.57 70 14:45 03.02.2022
5529 Clear -13 1011 92 10000 3.09 70 12:58 03.02.2022
5530 Clouds -13 1010 85 10000 3.6 70 11:22 03.02.2022
5531 Clouds -13 1010 85 3000 3.6 50 08:37 03.02.2022
5532 Clouds -13 1009 85 10000 3.6 30 05:26 03.02.2022
5533 Clouds -10 1009 85 10000 4.63 40 00:32 03.02.2022
5534 Clouds -10 1009 85 10000 4.63 50 23:39 02.02.2022
5535 Clouds -10 1008 92 2700 4.63 50 22:19 02.02.2022
5536 Clouds -11 1008 92 3500 4.12 40 21:34 02.02.2022
5537 Clouds -11 1008 85 5000 3.6 40 20:49 02.02.2022
5538 Clouds -11 1007 92 6000 3.09 40 19:58 02.02.2022
5539 Clouds -11 1007 92 10000 4.12 40 19:27 02.02.2022
5540 Clouds -10 1007 92 5000 4.12 40 18:45 02.02.2022
5541 Clouds -10 1007 92 3200 3.09 40 17:56 02.02.2022
5542 Clouds -11 1006 92 2800 3.09 30 17:19 02.02.2022
5543 Clouds -10 1006 85 10000 2.06 10 16:41 02.02.2022
5544 Clear -11 1005 92 10000 3.09 40 12:57 02.02.2022
5545 Clouds -11 1005 92 10000 2.57 30 12:20 02.02.2022
5546 Clouds -11 1004 92 5000 4.12 30 11:33 02.02.2022
5547 Clouds -12 1004 92 9000 4.12 20 09:47 02.02.2022
5548 Clear -12 1003 92 10000 3.6 40 07:33 02.02.2022
5549 Clouds -12 1001 92 10000 4.12 40 22:51 01.02.2022
5550 Clouds -11 1001 85 10000 4.63 70 21:50 01.02.2022
5551 Clouds -11 1000 85 10000 5.66 60 19:58 01.02.2022
5552 Clouds -13 1000 92 10000 5.66 40 17:43 01.02.2022
5553 Clouds -14 1001 92 6000 5.66 50 16:39 01.02.2022
5554 Clear -18 1001 84 10000 5.14 40 13:56 01.02.2022
5555 Fog -17 1002 85 2000 4.63 50 12:42 01.02.2022
5556 Fog -19 1002 84 1400 5.66 50 11:20 01.02.2022
5557 Clouds -19 1005 84 10000 1.54 360 02:34 01.02.2022
5558 Clear -19 1005 84 10000 3.6 50 23:41 31.01.2022
5559 Clear -18 1005 84 10000 2.57 50 22:57 31.01.2022
5560 Clear -16 1006 85 10000 0.51 0 21:39 31.01.2022
5561 Clear -16 1006 85 10000 1.03 0 20:50 31.01.2022
5562 Clear -16 1006 85 10000 1.03 0 20:27 31.01.2022
5563 Clear -15 1006 85 10000 2.06 360 19:20 31.01.2022
5564 Clear -15 1006 85 10000 0.51 0 18:25 31.01.2022
5565 Clear -16 1006 92 10000 1.03 0 17:26 31.01.2022
5566 Clear -14 1005 85 10000 2.57 10 16:26 31.01.2022
5567 Clouds -15 1006 85 10000 1.03 0 14:54 31.01.2022
5568 Clear -14 1005 85 10000 2.57 350 13:51 31.01.2022
5569 Clear -14 1005 92 10000 4.12 350 12:38 31.01.2022
5570 Clear -15 1005 85 10000 1.03 350 11:47 31.01.2022
5571 Clear -15 1005 85 10000 0.51 0 10:50 31.01.2022
5572 Clouds -16 1005 85 10000 2.57 360 09:59 31.01.2022
5573 Fog -16 1005 85 10000 1.54 330 08:59 31.01.2022
5574 Fog -16 1005 85 10000 1.54 330 08:39 31.01.2022
5575 Clear -16 1005 85 10000 2.57 350 08:20 31.01.2022
5576 Clear -16 1004 85 10000 2.57 360 06:18 31.01.2022
5577 Clear -15 1003 85 10000 3.09 360 00:44 31.01.2022
5578 Clear -15 1003 85 10000 3.6 350 22:38 30.01.2022
5579 Clear -14 1002 85 10000 5.14 350 22:20 30.01.2022
5580 Clear -14 1002 85 10000 4.63 350 21:38 30.01.2022
5581 Clear -14 1002 85 10000 4.63 350 21:18 30.01.2022
5582 Clear -14 1002 85 10000 4.12 350 20:45 30.01.2022
5583 Clear -14 1002 85 10000 3.09 360 20:26 30.01.2022
5584 Clear -14 1001 85 10000 3.09 350 19:24 30.01.2022
5585 Clear -14 1001 92 10000 3.6 360 18:35 30.01.2022
5586 Clouds -15 1001 85 10000 3.09 10 17:53 30.01.2022
5587 Clouds -14 1000 85 10000 4.12 10 17:20 30.01.2022
5588 Clear -15 1000 92 10000 3.09 10 16:37 30.01.2022
5589 Clouds -14 1000 85 10000 4.12 10 16:19 30.01.2022
5590 Clear -13 999 85 10000 4.12 10 15:49 30.01.2022
5591 Clear -13 999 92 10000 4.12 360 15:30 30.01.2022
5592 Clear -12 998 85 10000 3.6 360 14:45 30.01.2022
5593 Clouds -11 997 85 10000 4.63 10 12:46 30.01.2022
5594 Clouds -11 996 92 10000 5.66 20 11:53 30.01.2022
5595 Clouds -10 995 85 10000 4.63 10 10:27 30.01.2022
5596 Clouds -10 995 92 10000 5.14 10 09:48 30.01.2022
5597 Clouds -10 994 85 10000 5.14 20 08:48 30.01.2022
5598 Clouds -13 990 85 10000 7.2 30 05:30 30.01.2022
5599 Clouds -12 986 92 10000 6.69 40 01:55 30.01.2022
5600 Clouds -11 984 92 10000 7.2 40 00:19 30.01.2022
5601 Clouds -10 984 85 10000 6.17 50 22:58 29.01.2022
5602 Clouds -9 983 85 10000 7.2 50 21:46 29.01.2022
5603 Clouds -9 983 92 10000 7.2 50 21:22 29.01.2022
5604 Clouds -9 983 92 10000 6.69 60 20:22 29.01.2022
5605 Clouds -9 983 92 8000 6.17 60 19:33 29.01.2022
5606 Snow -9 983 92 4600 6.17 50 18:51 29.01.2022
5607 Clouds -9 983 92 10000 5.14 60 18:18 29.01.2022
5608 Clouds -9 984 92 8000 6.69 70 17:27 29.01.2022
5609 Snow -10 985 92 4100 5.14 70 15:42 29.01.2022
5610 Clouds -11 986 85 10000 4.12 80 13:58 29.01.2022
5611 Clouds -12 987 92 5000 4.63 80 13:37 29.01.2022
5612 Clouds -12 987 85 2800 4.63 80 13:18 29.01.2022
5613 Clouds -12 989 85 3400 4.12 90 11:40 29.01.2022
5614 Clouds -12 989 85 3400 4.12 90 11:40 29.01.2022
5615 Clouds -13 990 85 2100 4.12 90 10:38 29.01.2022
5616 Clouds -14 992 85 9000 3.09 80 08:36 29.01.2022
5617 Clear -14 996 85 10000 1.03 120 03:25 29.01.2022
5618 Clear -11 998 92 10000 1.54 240 00:32 29.01.2022
5619 Clear -10 999 85 10000 2.57 220 23:32 28.01.2022
5620 Clear -10 999 85 10000 2.57 220 23:32 28.01.2022
5621 Clear -12 999 92 10000 2.06 260 22:47 28.01.2022
5622 Clear -12 999 85 10000 2.06 280 22:19 28.01.2022
5623 Clear -11 1000 92 10000 2.57 260 20:41 28.01.2022
5624 Clear -10 1000 85 10000 2.06 250 19:58 28.01.2022
5625 Clear -9 1000 92 10000 2.06 260 18:52 28.01.2022
5626 Clear -9 1000 85 10000 2.06 270 18:34 28.01.2022
5627 Clear -9 1000 92 10000 2.06 260 16:37 28.01.2022
5628 Clear -8 1000 92 10000 2.57 250 14:58 28.01.2022
5629 Clear -7 1000 93 10000 2.06 240 13:21 28.01.2022
5630 Clouds -7 999 93 10000 2.06 250 11:50 28.01.2022
5631 Snow -7 999 100 4000 0.51 0 10:27 28.01.2022
5632 Snow -7 999 100 3000 0.51 0 09:47 28.01.2022
5633 Clouds -7 998 93 10000 1.54 310 07:42 28.01.2022
5634 Clouds -7 997 93 10000 0.51 0 06:29 28.01.2022
5635 Clouds -7 996 93 10000 1.54 40 03:51 28.01.2022
5636 Clouds -7 996 93 10000 1.54 350 02:27 28.01.2022
5637 Clouds -7 996 93 10000 1.03 340 01:37 28.01.2022
5638 Clouds -7 996 93 10000 1.03 340 01:37 28.01.2022
5639 Clouds -7 995 93 10000 2.06 350 00:42 28.01.2022
5640 Clouds -7 995 93 10000 2.06 30 22:20 27.01.2022
5641 Clouds -7 994 93 10000 2.57 40 21:37 27.01.2022
5642 Clouds -7 997 93 10000 2.57 40 20:59 27.01.2022
5643 Clouds -7 997 93 10000 2.57 40 20:59 27.01.2022
5644 Clouds -7 994 93 10000 2.57 40 19:38 27.01.2022
5645 Clouds -7 994 93 10000 3.6 70 18:19 27.01.2022
5646 Clouds -7 994 93 10000 2.06 70 16:45 27.01.2022
5647 Clouds -7 993 93 5000 3.6 70 13:58 27.01.2022
5648 Clouds -7 993 93 6000 3.09 80 12:49 27.01.2022
5649 Clouds -7 993 93 10000 2.57 80 11:53 27.01.2022
5650 Clouds -7 993 93 10000 3.6 80 09:48 27.01.2022
5651 Clouds -7 993 93 10000 4.12 70 08:40 27.01.2022
5652 Clouds -7 993 93 10000 3.09 90 07:31 27.01.2022
5653 Clouds -7 995 93 10000 2.06 90 03:19 27.01.2022
5654 Clouds -7 996 93 2500 3.6 110 00:23 27.01.2022
5655 Mist -7 997 93 4100 2.57 150 22:27 26.01.2022
5656 Clouds -7 997 93 10000 3.09 150 21:42 26.01.2022
5657 Clouds -7 998 93 7000 4.12 160 20:42 26.01.2022
5658 Clouds -7 998 93 10000 3.6 170 20:24 26.01.2022
5659 Mist -7 998 100 3200 3.6 160 19:28 26.01.2022
5660 Clouds -6 998 93 2600 3.6 150 18:46 26.01.2022
5661 Mist -6 998 93 4300 4.12 160 17:52 26.01.2022
5662 Mist -6 998 93 4300 4.12 160 17:24 26.01.2022
5663 Clouds -5 999 93 5000 4.63 180 16:40 26.01.2022
5664 Clouds -5 999 93 3500 3.6 170 15:50 26.01.2022
5665 Snow -6 999 93 4000 4.12 170 14:23 26.01.2022
5666 Clouds -8 1000 92 8000 2.57 150 11:56 26.01.2022
5667 Fog -9 1000 92 600 2.06 120 10:45 26.01.2022
5668 Fog -11 1001 92 300 3.09 140 09:49 26.01.2022
5669 Clouds -12 1002 92 1500 2.57 110 08:32 26.01.2022
5670 Clouds -10 1003 85 10000 2.06 190 06:20 26.01.2022
5671 Clouds -10 1003 85 10000 2.06 190 06:20 26.01.2022
5672 Clear -10 1005 85 10000 3.09 230 00:18 26.01.2022
5673 Clear -10 1006 85 10000 2.57 230 23:28 25.01.2022
5674 Clear -9 1006 85 10000 2.57 240 22:48 25.01.2022
5675 Clear -10 1006 85 10000 1.54 240 22:18 25.01.2022
5676 Clear -9 1006 85 10000 2.06 260 21:22 25.01.2022
5677 Clear -9 1006 79 10000 2.57 240 20:44 25.01.2022
5678 Clear -9 1006 85 10000 3.6 240 19:53 25.01.2022
5679 Clear -9 1006 85 10000 3.6 240 19:53 25.01.2022
5680 Clear -9 1007 85 10000 3.09 230 18:43 25.01.2022
5681 Clear -9 1007 79 10000 3.09 230 17:45 25.01.2022
5682 Clear -8 1007 79 10000 4.12 230 16:47 25.01.2022
5683 Clear -8 1007 79 10000 4.63 220 16:21 25.01.2022
5684 Clear -8 1007 79 10000 3.6 220 15:38 25.01.2022
5685 Clear -7 1007 73 10000 5.14 230 14:58 25.01.2022
5686 Clear -7 1007 73 10000 2.57 230 13:46 25.01.2022
5687 Clear -6 1007 73 10000 3.6 260 10:58 25.01.2022
5688 Clear -5 1006 68 10000 3.6 290 08:38 25.01.2022
5689 Clear -6 1005 73 10000 2.57 290 07:29 25.01.2022
5690 Clear -6 1004 73 10000 2.57 270 06:49 25.01.2022
5691 Clear -5 1003 73 10000 2.06 270 05:22 25.01.2022
5692 Clear -2 998 86 10000 3.6 270 23:37 24.01.2022
5693 Clear -2 998 93 10000 3.6 290 23:18 24.01.2022
5694 Clouds -2 998 93 10000 2.57 280 22:59 24.01.2022
5695 Clouds -2 998 93 10000 2.57 280 22:41 24.01.2022
5696 Clouds -1 997 86 10000 2.06 260 21:53 24.01.2022
5697 Clouds -1 996 86 10000 4.12 240 21:29 24.01.2022
5698 Clouds 0 997 74 10000 3.6 290 20:30 24.01.2022
5699 Snow 0 997 64 10000 3.6 240 19:50 24.01.2022
5700 Snow 0 997 64 10000 3.6 250 19:24 24.01.2022
5701 Clear -1 997 80 10000 3.6 240 18:18 24.01.2022
5702 Clear -1 997 86 10000 3.6 250 17:24 24.01.2022
5703 Clear -1 997 86 10000 4.12 240 16:52 24.01.2022
5704 Clear 0 996 74 10000 5.14 240 16:19 24.01.2022
5705 Clear 1 996 86 10000 4.63 240 14:38 24.01.2022
5706 Snow 1 995 93 10000 6.69 220 13:24 24.01.2022
5707 Clouds 1 995 93 10000 7.2 230 12:23 24.01.2022
5708 Clouds 2 995 86 10000 9.77 220 10:30 24.01.2022
5709 Clouds 2 995 86 10000 9.77 220 10:30 24.01.2022
5710 Clouds 2 995 86 10000 9.77 220 09:48 24.01.2022
5711 Clouds 3 995 80 10000 9.77 220 08:34 24.01.2022
5712 Clear 4 995 75 10000 10.8 220 06:40 24.01.2022
5713 Clear 4 1000 87 10000 9.26 220 01:31 24.01.2022
5714 Clear 4 1000 87 10000 8.75 220 00:36 24.01.2022
5715 Clear 4 1001 87 10000 8.75 220 23:52 23.01.2022
5716 Clear 3 1001 93 10000 8.23 220 22:32 23.01.2022
5717 Clear 3 1002 87 10000 8.75 220 21:49 23.01.2022
5718 Clear 3 1002 87 10000 8.23 230 21:26 23.01.2022
5719 Clear 3 1003 87 10000 7.72 220 20:44 23.01.2022
5720 Clear 3 1003 93 10000 7.72 210 19:44 23.01.2022
5721 Clear 3 1003 93 10000 7.72 220 18:51 23.01.2022
5722 Clear 2 1004 100 10000 7.2 220 17:49 23.01.2022
5723 Clear 3 1004 93 10000 7.72 230 16:47 23.01.2022
5724 Clear 1 1005 100 10000 7.2 230 14:59 23.01.2022
5725 Clear 1 1005 100 10000 7.2 220 14:25 23.01.2022
5726 Clouds 1 1005 100 10000 6.17 210 12:59 23.01.2022
5727 Clouds 0 1006 100 10000 5.14 220 12:22 23.01.2022
5728 Clouds 0 1006 100 10000 5.14 220 11:59 23.01.2022
5729 Fog 0 1006 100 450 6.17 220 11:19 23.01.2022
5730 Fog 0 1006 100 450 5.14 220 10:27 23.01.2022
5731 Fog 0 1006 100 400 5.14 210 09:51 23.01.2022
5732 Fog 0 1005 100 450 5.66 210 08:54 23.01.2022
5733 Clouds 0 1003 100 600 8.75 220 05:57 23.01.2022
5734 Clouds -3 1005 93 10000 10.8 200 01:52 23.01.2022
5735 Clouds -4 1005 100 10000 10.29 190 01:27 23.01.2022
5736 Clouds -4 1007 100 7000 10.8 200 00:23 23.01.2022
5737 Clouds -4 1007 93 9000 10.8 200 23:57 22.01.2022
5738 Clouds -4 1007 93 9000 10.8 200 22:46 22.01.2022
5739 Clouds -4 1009 93 10000 9.77 200 21:36 22.01.2022
5740 Clouds -5 1010 93 10000 8.75 190 20:21 22.01.2022
5741 Clouds -6 1011 93 7000 10.29 190 18:56 22.01.2022
5742 Clouds -6 1012 93 10000 7.72 190 18:24 22.01.2022
5743 Clouds -7 1012 93 10000 6.17 180 17:40 22.01.2022
5744 Clouds -7 1012 86 10000 6.17 170 16:56 22.01.2022
5745 Clear -9 1013 92 10000 4.12 170 15:53 22.01.2022
5746 Clear -9 1013 92 10000 5.14 160 15:26 22.01.2022
5747 Clear -11 1014 92 10000 5.14 160 13:46 22.01.2022
5748 Clouds -12 1014 85 10000 3.6 150 12:52 22.01.2022
5749 Clear -13 1014 85 10000 3.09 150 12:29 22.01.2022
5750 Clouds -13 1015 85 10000 3.6 170 11:31 22.01.2022
5751 Clouds -12 1015 85 10000 3.09 170 10:29 22.01.2022
5752 Clouds -12 1015 92 2000 2.57 190 09:59 22.01.2022
5753 Clouds -13 1015 92 5000 3.09 160 08:52 22.01.2022
5754 Clouds -13 1016 85 10000 1.54 90 07:39 22.01.2022
5755 Clouds -14 1016 92 10000 0.51 0 04:53 22.01.2022
5756 Clear -12 1017 92 10000 1.03 0 01:35 22.01.2022
5757 Clouds -12 1016 85 10000 3.6 360 23:45 21.01.2022
5758 Clear -11 1016 85 10000 4.12 340 22:28 21.01.2022
5759 Clear -10 1015 85 10000 4.63 340 20:28 21.01.2022
5760 Clear -10 1014 85 10000 5.14 340 18:40 21.01.2022
5761 Clear -9 1013 85 10000 5.14 340 17:31 21.01.2022
5762 Clear -8 1012 79 10000 5.14 340 15:42 21.01.2022
5763 Clear -7 1010 79 10000 4.63 350 13:51 21.01.2022
5764 Clear -7 1010 79 10000 4.63 350 13:51 21.01.2022
5765 Clouds -7 1012 82 10000 5.36 356 12:38 21.01.2022
5766 Clear -6 1007 79 10000 5.14 350 11:28 21.01.2022
5767 Clear -6 1006 79 10000 5.14 350 10:19 21.01.2022
5768 Clear -5 1004 79 10000 5.66 350 08:24 21.01.2022
5769 Clear -5 1002 79 10000 6.69 350 06:57 21.01.2022
5770 Clear -4 994 74 10000 6.17 320 23:36 20.01.2022
5771 Clear -4 994 80 10000 5.66 320 22:24 20.01.2022
5772 Clear -4 994 80 10000 5.14 330 21:43 20.01.2022
5773 Clear -4 993 80 10000 4.12 330 20:43 20.01.2022
5774 Clear -5 991 86 10000 4.12 330 19:20 20.01.2022
5775 Clear -4 991 80 10000 4.63 330 18:50 20.01.2022
5776 Clouds -5 990 86 10000 3.09 310 17:29 20.01.2022
5777 Clouds -6 989 86 10000 3.09 320 15:43 20.01.2022
5778 Snow -8 988 86 10000 2.06 300 15:19 20.01.2022
5779 Clear -8 987 86 10000 1.54 280 13:41 20.01.2022
5780 Clear -7 987 79 10000 2.06 270 12:34 20.01.2022
5781 Clear -7 987 79 10000 3.09 310 11:50 20.01.2022
5782 Clear -7 986 79 10000 2.57 280 10:39 20.01.2022
5783 Clear -6 986 79 10000 2.06 260 09:36 20.01.2022
5784 Clear -5 985 73 10000 5.14 330 07:51 20.01.2022
5785 Clear -2 981 86 10000 4.12 330 00:46 20.01.2022
5786 Clear 0 979 86 10000 5.66 340 22:59 19.01.2022
5787 Clear 1 979 86 10000 4.63 330 22:21 19.01.2022
5788 Clear 1 978 93 10000 3.09 330 21:23 19.01.2022
5789 Clouds 1 978 100 10000 3.09 340 20:46 19.01.2022
5790 Snow 1 977 100 5000 4.12 330 19:42 19.01.2022
5791 Clouds 1 977 100 2600 3.6 240 18:18 19.01.2022
5792 Clouds 1 977 100 6000 4.12 230 17:44 19.01.2022
5793 Clouds 1 976 100 6000 5.14 220 16:47 19.01.2022
5794 Clouds 2 977 93 10000 6.69 220 14:42 19.01.2022
5795 Rain 3 979 93 10000 5.66 210 12:42 19.01.2022
5796 Clouds 2 979 93 10000 6.17 200 11:39 19.01.2022
5797 Clouds 2 980 93 10000 8.75 210 10:20 19.01.2022
5798 Clouds 2 981 93 10000 7.72 210 09:34 19.01.2022
5799 Clear 1 984 93 10000 7.72 230 06:35 19.01.2022
5800 Clouds 0 988 100 10000 4.63 220 02:38 19.01.2022
5801 Clouds -1 992 100 10000 5.14 210 23:19 18.01.2022
5802 Clouds -1 993 93 10000 6.17 210 22:18 18.01.2022
5803 Clouds -2 994 93 10000 6.17 220 20:55 18.01.2022
5804 Clouds -2 995 93 10000 6.69 220 19:54 18.01.2022
5805 Clouds -2 995 93 10000 7.2 220 19:36 18.01.2022
5806 Clouds -3 995 100 10000 7.2 220 18:36 18.01.2022
5807 Clouds -3 997 93 10000 4.63 210 17:57 18.01.2022
5808 Clouds -4 998 100 7000 6.69 210 16:38 18.01.2022
5809 Clouds -4 999 93 10000 7.72 210 15:39 18.01.2022
5810 Clouds -5 999 93 10000 7.2 200 15:19 18.01.2022
5811 Clear -10 1004 85 10000 3.6 220 11:53 18.01.2022
5812 Clear -10 1005 85 10000 2.57 220 10:43 18.01.2022
5813 Clear -10 1007 85 10000 3.09 230 08:49 18.01.2022
5814 Clear -11 1007 85 10000 3.09 240 07:46 18.01.2022
5815 Clear -8 1006 79 10000 2.57 280 02:31 18.01.2022
5816 Clear -7 1003 79 10000 4.12 310 23:22 17.01.2022
5817 Clear -8 1002 79 10000 4.63 310 22:19 17.01.2022
5818 Clear -7 1001 79 10000 4.63 320 21:32 17.01.2022
5819 Clear -7 999 79 10000 4.63 310 19:51 17.01.2022
5820 Clouds -8 998 86 10000 4.63 310 18:29 17.01.2022
5821 Clear -7 996 73 10000 5.66 320 17:24 17.01.2022
5822 Clear -8 994 79 10000 5.66 310 16:27 17.01.2022
5823 Clear -7 992 79 10000 5.66 310 14:59 17.01.2022
5824 Clear -7 992 79 10000 5.66 310 14:33 17.01.2022
5825 Clouds -6 989 73 10000 7.72 320 13:20 17.01.2022
5826 Clouds -7 989 79 10000 6.17 310 12:54 17.01.2022
5827 Clouds -7 987 79 10000 5.66 320 11:48 17.01.2022
5828 Clouds -7 985 79 10000 7.2 330 10:21 17.01.2022
5829 Clouds -6 982 73 10000 8.23 330 08:51 17.01.2022
5830 Clouds -6 980 79 10000 7.2 330 07:22 17.01.2022
5831 Snow -4 966 86 1900 7.72 350 02:23 17.01.2022
5832 Snow -5 961 93 1700 5.66 300 00:53 17.01.2022
5833 Snow -4 962 86 8000 8.23 290 21:26 16.01.2022
5834 Clouds -1 962 86 6000 7.2 260 20:33 16.01.2022
5835 Clouds -1 962 86 6000 7.2 260 20:33 16.01.2022
5836 Snow 1 963 86 10000 7.2 260 18:50 16.01.2022
5837 Snow 1 963 93 9000 7.2 270 17:55 16.01.2022
5838 Snow 1 965 100 3400 7.2 220 16:56 16.01.2022
5839 Snow 1 967 100 2800 8.75 220 15:50 16.01.2022
5840 Snow 1 969 100 3700 8.23 210 14:30 16.01.2022
5841 Clouds 1 971 100 8000 7.72 220 13:33 16.01.2022
5842 Clouds 1 972 93 10000 7.72 210 12:27 16.01.2022
5843 Clouds 1 974 93 10000 5.66 220 11:38 16.01.2022
5844 Snow 0 976 93 10000 6.69 220 10:45 16.01.2022
5845 Snow 0 977 93 10000 7.2 220 09:59 16.01.2022
5846 Snow 0 977 93 10000 5.66 220 09:38 16.01.2022
5847 Clear -1 978 100 10000 5.14 210 09:20 16.01.2022
5848 Clear -2 981 100 10000 5.14 220 07:21 16.01.2022
5849 Clouds -3 989 100 4100 9.77 220 00:36 16.01.2022
5850 Snow -6 994 93 4400 6.17 200 22:55 15.01.2022
5851 Clear -7 996 86 10000 4.12 200 21:22 15.01.2022
5852 Clear -7 997 86 10000 3.6 200 20:45 15.01.2022
5853 Clear -7 998 86 10000 4.12 210 20:22 15.01.2022
5854 Clear -8 999 92 10000 3.6 220 19:27 15.01.2022
5855 Clear -8 1001 92 10000 3.09 220 18:20 15.01.2022
5856 Clear -6 1002 79 10000 2.06 220 16:49 15.01.2022
5857 Clear -6 1003 86 10000 3.09 310 14:38 15.01.2022
5858 Clouds -5 1002 79 10000 3.6 310 12:52 15.01.2022
5859 Clear -4 1001 74 10000 5.14 310 11:32 15.01.2022
5860 Clear -4 1000 80 10000 4.12 300 09:46 15.01.2022
5861 Clear -2 997 80 10000 5.14 310 04:46 15.01.2022
5862 Clear -4 993 86 10000 4.12 320 23:21 14.01.2022
5863 Clear -4 991 86 10000 4.63 320 21:18 14.01.2022
5864 Clear -3 990 86 10000 4.63 330 20:25 14.01.2022
5865 Clear -3 989 86 10000 4.63 330 19:50 14.01.2022
5866 Clear -3 988 86 10000 4.12 320 18:41 14.01.2022
5867 Clear -3 987 86 10000 4.63 320 17:36 14.01.2022
5868 Clear -3 985 86 10000 4.12 320 16:42 14.01.2022
5869 Clear -3 984 86 10000 5.14 310 15:30 14.01.2022
5870 Clear -2 982 80 10000 6.17 320 14:26 14.01.2022
5871 Clear -2 980 80 10000 5.66 310 12:58 14.01.2022
5872 Clear -2 979 74 10000 6.17 320 11:52 14.01.2022
5873 Clouds -3 977 86 10000 5.66 320 10:30 14.01.2022
5874 Clear -5 976 93 10000 4.12 290 08:52 14.01.2022
5875 Clear -5 975 86 10000 4.12 290 07:30 14.01.2022
5876 Clear -5 975 86 10000 2.57 300 02:20 14.01.2022
5877 Clear -7 975 93 10000 1.03 0 23:40 13.01.2022
5878 Clear -5 976 86 10000 3.09 260 21:47 13.01.2022
5879 Clear -5 976 86 10000 3.09 260 21:29 13.01.2022
5880 Clear -5 977 86 10000 2.06 260 19:45 13.01.2022
5881 Clear -5 977 86 10000 2.06 260 19:23 13.01.2022
5882 Clear -5 978 86 10000 3.6 240 18:36 13.01.2022
5883 Clear -4 979 86 10000 5.14 240 16:48 13.01.2022
5884 Clear -3 979 86 10000 4.12 250 15:38 13.01.2022
5885 Clear -3 979 86 10000 4.12 250 15:18 13.01.2022
5886 Clear -3 979 93 10000 4.63 250 13:28 13.01.2022
5887 Clear -3 980 86 10000 3.6 250 10:39 13.01.2022
5888 Clear -2 980 86 10000 5.14 250 09:23 13.01.2022
5889 Clear -2 980 86 10000 4.12 260 08:28 13.01.2022
5890 Clear -1 979 86 10000 4.12 270 07:58 13.01.2022
5891 Clear -1 979 86 10000 4.63 270 07:18 13.01.2022
5892 Clouds -1 979 93 10000 4.12 270 05:20 13.01.2022
5893 Clouds -1 979 93 10000 3.09 250 03:33 13.01.2022
5894 Clear 0 981 86 10000 5.66 230 00:57 13.01.2022
5895 Clouds 0 981 93 10000 6.69 230 23:53 12.01.2022
5896 Clouds 1 981 93 10000 6.17 230 23:32 12.01.2022
5897 Clouds 1 982 93 10000 5.66 230 21:58 12.01.2022
5898 Clouds 1 983 93 10000 7.2 220 21:24 12.01.2022
5899 Snow 1 985 93 10000 7.2 220 20:57 12.01.2022
5900 Clouds 0 985 100 10000 6.69 220 20:19 12.01.2022
5901 Clouds 0 987 100 3500 8.75 220 18:48 12.01.2022
5902 Clouds 0 987 100 8000 8.75 210 17:53 12.01.2022
5903 Clouds 0 990 100 6000 11.32 210 16:42 12.01.2022
5904 Clouds 0 994 100 2400 11.83 210 14:49 12.01.2022
5905 Clouds 0 995 93 10000 12.35 210 13:37 12.01.2022
5906 Clouds 0 996 100 600 13.38 210 12:56 12.01.2022
5907 Clouds -1 1002 100 10000 9.26 210 08:55 12.01.2022
5908 Clouds -1 1004 100 10000 9.26 210 07:55 12.01.2022
5909 Clouds 0 1005 93 10000 9.77 220 07:32 12.01.2022
5910 Clouds -1 1009 100 6000 7.72 210 01:34 12.01.2022
5911 Clouds -1 1011 100 7000 7.2 220 23:25 11.01.2022
5912 Clouds -1 1011 93 6000 8.23 210 22:24 11.01.2022
5913 Clouds -2 1011 93 4400 6.69 200 21:28 11.01.2022
5914 Clouds -2 1012 93 3900 7.2 200 20:36 11.01.2022
5915 Snow -3 1012 100 2600 7.2 200 19:23 11.01.2022
5916 Clouds -4 1013 100 9000 8.75 200 17:46 11.01.2022
5917 Clouds -4 1014 93 8000 8.75 200 16:39 11.01.2022
5918 Clouds -4 1014 93 9000 8.23 200 16:18 11.01.2022
5919 Clouds -5 1015 100 6000 7.2 200 14:48 11.01.2022
5920 Clouds -5 1015 100 6000 7.2 200 14:30 11.01.2022
5921 Clouds -5 1016 93 10000 7.72 200 13:46 11.01.2022
5922 Snow -5 1016 93 10000 7.72 200 13:25 11.01.2022
5923 Clouds -6 1016 93 10000 8.23 190 12:24 11.01.2022
5924 Clouds -7 1018 93 6000 8.75 200 10:26 11.01.2022
5925 Clouds -7 1020 93 4000 6.69 190 07:38 11.01.2022
5926 Clouds -9 1024 92 10000 6.69 190 02:57 11.01.2022
5927 Clouds -11 1026 85 10000 4.12 170 00:24 11.01.2022
5928 Clouds -12 1026 85 10000 2.06 0 23:38 10.01.2022
5929 Clouds -14 1027 85 10000 2.06 160 22:20 10.01.2022
5930 Clouds -14 1027 85 10000 2.06 160 21:56 10.01.2022
5931 Clouds -14 1027 85 10000 1.54 140 21:33 10.01.2022
5932 Clouds -15 1027 85 10000 1.54 140 20:58 10.01.2022
5933 Clouds -15 1027 85 5000 1.54 140 20:29 10.01.2022
5934 Clouds -16 1027 85 10000 1.54 120 19:48 10.01.2022
5935 Snow -16 1027 85 10000 1.54 120 19:23 10.01.2022
5936 Clouds -16 1027 85 10000 1.03 0 18:55 10.01.2022
5937 Clouds -16 1027 85 10000 1.03 0 18:37 10.01.2022
5938 Clouds -17 1026 85 10000 1.03 0 16:48 10.01.2022
5939 Clouds -17 1026 85 7000 2.06 210 16:18 10.01.2022
5940 Clouds -19 1026 84 9000 2.06 240 14:41 10.01.2022
5941 Fog -19 1025 84 500 0.51 0 12:43 10.01.2022
5942 Fog -21 1024 84 1500 1.03 0 11:40 10.01.2022
5943 Fog -20 1024 84 700 2.06 190 10:46 10.01.2022
5944 Fog -21 1023 77 3000 3.09 220 08:59 10.01.2022
5945 Clear -20 1020 84 10000 0.51 0 05:51 10.01.2022
5946 Clear -17 1018 85 10000 1.54 300 01:35 10.01.2022
5947 Clear -17 1017 85 10000 0.51 0 00:44 10.01.2022
5948 Clear -18 1017 84 10000 0.51 0 00:19 10.01.2022
5949 Clear -17 1016 78 10000 1.03 0 22:43 09.01.2022
5950 Clear -18 1015 78 10000 1.54 240 21:47 09.01.2022
5951 Clear -19 1015 77 10000 1.54 250 21:25 09.01.2022
5952 Clear -19 1014 84 10000 2.06 250 20:58 09.01.2022
5953 Clear -19 1014 84 10000 2.06 250 20:39 09.01.2022
5954 Clear -19 1014 77 10000 1.03 0 20:21 09.01.2022
5955 Clear -19 1013 84 10000 1.03 0 19:38 09.01.2022
5956 Clear -19 1013 77 10000 1.54 240 19:18 09.01.2022
5957 Clear -19 1012 84 10000 2.06 270 18:37 09.01.2022
5958 Clear -19 1012 84 10000 1.03 0 17:48 09.01.2022
5959 Clear -18 1012 84 10000 1.03 230 17:29 09.01.2022
5960 Clear -17 1011 85 10000 1.54 280 16:40 09.01.2022
5961 Clear -17 1010 85 10000 2.06 320 15:40 09.01.2022
5962 Clear -18 1010 84 10000 2.06 270 14:50 09.01.2022
5963 Clear -18 1010 84 10000 2.06 280 14:23 09.01.2022
5964 Clear -19 1010 84 10000 1.54 270 13:48 09.01.2022
5965 Clear -17 1008 85 10000 1.03 0 11:56 09.01.2022
5966 Clear -16 1008 85 10000 1.03 280 11:25 09.01.2022
5967 Clear -15 1007 85 10000 1.03 260 09:55 09.01.2022
5968 Clouds -15 1007 85 10000 1.54 240 08:56 09.01.2022
5969 Clouds -15 1005 85 10000 2.57 250 06:56 09.01.2022
5970 Clouds -14 1004 85 3400 3.6 240 01:29 09.01.2022
5971 Clouds -14 1004 92 3200 4.12 230 00:37 09.01.2022
5972 Clouds -14 1004 85 3700 4.63 230 23:31 08.01.2022
5973 Clouds -14 1004 85 3700 4.63 240 22:44 08.01.2022
5974 Clouds -16 1003 85 9000 5.66 230 21:27 08.01.2022
5975 Clouds -16 1004 85 9000 5.14 220 20:43 08.01.2022
5976 Clouds -16 1004 85 10000 5.14 230 20:21 08.01.2022
5977 Clear -16 1004 85 10000 5.14 230 19:22 08.01.2022
5978 Clouds -16 1004 85 10000 4.63 220 17:31 08.01.2022
5979 Clouds -17 1004 85 10000 4.63 220 16:42 08.01.2022
5980 Clear -17 1004 85 10000 5.66 220 15:28 08.01.2022
5981 Clear -16 1004 85 10000 5.66 230 13:57 08.01.2022
5982 Clouds -17 1005 85 10000 4.12 230 11:30 08.01.2022
5983 Clear -17 1005 85 10000 4.12 230 10:33 08.01.2022
5984 Clear -17 1005 85 10000 4.12 230 09:57 08.01.2022
5985 Clear -16 1005 85 10000 4.63 230 09:30 08.01.2022
5986 Clear -16 1006 85 10000 4.12 220 05:51 08.01.2022
5987 Clear -18 1006 84 10000 2.06 250 01:24 08.01.2022
5988 Clouds -14 1009 85 10000 1.54 230 23:30 07.01.2022
5989 Clear -14 1006 85 10000 0.51 0 21:47 07.01.2022
5990 Clear -14 1006 85 10000 1.54 0 20:26 07.01.2022
5991 Clear -14 1006 85 10000 0.51 0 19:26 07.01.2022
5992 Clear -14 1005 85 10000 4.63 350 18:46 07.01.2022
5993 Clear -13 1005 78 10000 5.14 350 18:18 07.01.2022
5994 Clear -13 1005 85 10000 5.66 340 17:23 07.01.2022
5995 Clear -13 1004 85 10000 5.66 340 14:55 07.01.2022
5996 Clear -12 1003 85 10000 5.66 330 13:52 07.01.2022
5997 Clear -11 1002 85 10000 5.14 340 12:50 07.01.2022
5998 Clear -10 1001 85 10000 5.14 340 10:21 07.01.2022
5999 Clouds -11 998 92 10000 5.14 340 02:59 07.01.2022
6000 Clouds -10 998 85 10000 5.14 340 02:22 07.01.2022
6001 Clouds -10 997 85 10000 5.66 340 01:48 07.01.2022
6002 Clouds -10 997 85 10000 5.66 340 01:25 07.01.2022
6003 Clouds -12 997 92 10000 5.14 340 00:29 07.01.2022
6004 Clear -14 996 85 10000 5.14 340 22:33 06.01.2022
6005 Clear -17 995 85 10000 5.14 340 20:43 06.01.2022
6006 Clouds -18 994 84 10000 6.17 350 19:58 06.01.2022
6007 Clouds -18 994 84 10000 6.17 350 19:36 06.01.2022
6008 Clouds -20 993 84 7000 5.14 350 17:51 06.01.2022
6009 Clear -20 993 77 10000 5.66 350 17:19 06.01.2022
6010 Clear -20 993 77 10000 5.14 340 16:22 06.01.2022
6011 Clouds -20 992 77 10000 5.66 350 15:41 06.01.2022
6012 Clear -20 992 77 10000 5.14 340 15:20 06.01.2022
6013 Clear -20 991 84 10000 5.14 340 14:19 06.01.2022
6014 Clouds -19 991 77 10000 5.66 340 13:30 06.01.2022
6015 Clear -19 991 84 10000 5.66 340 12:20 06.01.2022
6016 Clouds -19 990 84 10000 5.14 340 11:29 06.01.2022
6017 Snow -18 990 84 10000 5.14 340 09:50 06.01.2022
6018 Snow -17 988 85 10000 0.51 0 05:55 06.01.2022
6019 Clear -15 988 85 10000 2.57 330 23:56 05.01.2022
6020 Clear -14 988 85 10000 3.09 330 23:21 05.01.2022
6021 Clear -14 988 85 10000 3.09 330 22:41 05.01.2022
6022 Clear -14 988 85 10000 3.09 330 21:59 05.01.2022
6023 Snow -13 987 85 10000 3.09 330 21:22 05.01.2022
6024 Snow -13 991 85 10000 3.09 330 20:30 05.01.2022
6025 Snow -13 987 85 10000 2.57 340 19:29 05.01.2022
6026 Snow -13 986 85 10000 2.57 350 18:20 05.01.2022
6027 Snow -13 986 85 10000 2.57 360 16:56 05.01.2022
6028 Snow -14 986 85 10000 1.54 340 16:18 05.01.2022
6029 Snow -15 985 85 10000 2.06 360 14:54 05.01.2022
6030 Snow -13 985 85 10000 2.06 30 13:33 05.01.2022
6031 Snow -12 985 85 10000 2.06 60 11:59 05.01.2022
6032 Snow -12 985 85 8000 3.09 90 08:21 05.01.2022
6033 Snow -12 985 85 7000 3.6 90 06:37 05.01.2022
6034 Snow -12 985 85 7000 3.6 90 06:37 05.01.2022
6035 Snow -11 987 85 5000 5.66 100 01:20 05.01.2022
6036 Snow -11 987 85 10000 6.17 100 23:41 04.01.2022
6037 Snow -11 988 85 7000 6.69 100 23:19 04.01.2022
6038 Snow -11 988 85 10000 7.2 100 21:36 04.01.2022
6039 Snow -10 989 79 10000 7.72 100 20:27 04.01.2022
6040 Snow -10 990 79 10000 7.72 100 18:35 04.01.2022
6041 Snow -10 991 79 5000 8.23 100 17:19 04.01.2022
6042 Snow -10 991 79 7000 8.23 100 16:31 04.01.2022
6043 Snow -11 992 85 10000 6.17 100 14:58 04.01.2022
6044 Snow -11 992 85 10000 6.17 100 14:37 04.01.2022
6045 Snow -11 993 85 10000 7.2 100 13:55 04.01.2022
6046 Snow -11 994 85 2500 6.17 110 11:44 04.01.2022
6047 Snow -11 994 79 10000 6.69 110 10:18 04.01.2022
6048 Snow -12 995 85 10000 6.17 120 08:36 04.01.2022
6049 Snow -13 995 85 10000 6.17 100 04:24 04.01.2022
6050 Snow -12 997 78 10000 5.14 100 00:42 04.01.2022
6051 Snow -12 997 78 10000 5.14 110 23:44 03.01.2022
6052 Clear -12 997 78 10000 5.14 100 22:21 03.01.2022
6053 Clear -12 997 78 10000 5.66 100 21:38 03.01.2022
6054 Clear -12 998 85 10000 4.12 110 20:34 03.01.2022
6055 Clouds -13 998 85 10000 4.12 90 18:54 03.01.2022
6056 Clouds -13 998 85 10000 4.63 100 18:29 03.01.2022
6057 Clouds -13 998 85 10000 4.63 90 17:20 03.01.2022
6058 Snow -14 998 85 10000 4.12 80 16:28 03.01.2022
6059 Snow -14 1000 85 10000 5.14 90 14:31 03.01.2022
6060 Clouds -14 998 85 10000 5.14 70 12:51 03.01.2022
6061 Clear -14 998 92 10000 4.63 90 11:50 03.01.2022
6062 Clear -14 998 92 10000 4.63 90 10:37 03.01.2022
6063 Clouds -14 998 85 10000 5.14 70 08:54 03.01.2022
6064 Clear -14 998 85 10000 4.12 70 07:51 03.01.2022
6065 Snow -14 1000 85 10000 4.63 80 01:55 03.01.2022
6066 Clear -15 1001 85 10000 5.14 70 23:22 02.01.2022
6067 Clear -15 1001 85 10000 5.14 70 22:55 02.01.2022
6068 Clear -15 1002 85 10000 4.63 80 21:52 02.01.2022
6069 Clear -15 1002 85 10000 5.66 80 20:41 02.01.2022
6070 Clear -14 1002 85 10000 4.63 80 20:22 02.01.2022
6071 Clear -15 1002 85 10000 4.12 80 19:31 02.01.2022
6072 Clear -14 1003 85 10000 5.14 90 18:47 02.01.2022
6073 Clear -15 1003 92 10000 5.66 90 17:56 02.01.2022
6074 Clear -14 1003 85 10000 4.63 90 17:37 02.01.2022
6075 Clear -15 1004 92 10000 4.63 90 17:18 02.01.2022
6076 Clear -15 1005 92 10000 4.12 90 16:26 02.01.2022
6077 Snow -15 1005 85 10000 4.12 80 14:34 02.01.2022
6078 Clear -15 1006 85 10000 4.63 90 12:54 02.01.2022
6079 Clear -15 1007 85 10000 4.12 90 12:22 02.01.2022
6080 Clear -15 1007 85 10000 4.63 80 11:32 02.01.2022
6081 Clouds -14 1008 85 10000 3.6 100 10:46 02.01.2022
6082 Clouds -14 1008 85 10000 3.09 90 09:45 02.01.2022
6083 Clear -13 1010 92 10000 3.6 50 05:21 02.01.2022
6084 Clear -12 1011 85 10000 1.03 0 01:48 02.01.2022
6085 Clear -11 1011 85 10000 4.63 330 23:39 01.01.2022
6086 Clear -10 1011 85 10000 5.66 330 22:57 01.01.2022
6087 Clear -10 1011 85 10000 5.14 330 22:22 01.01.2022
6088 Clear -10 1011 85 10000 5.14 330 21:43 01.01.2022
6089 Clear -10 1011 85 10000 4.12 330 20:55 01.01.2022
6090 Clear -10 1011 85 10000 3.6 320 19:58 01.01.2022
6091 Clear -9 1011 79 10000 4.12 320 19:19 01.01.2022
6092 Clear -10 1011 85 10000 4.63 330 17:58 01.01.2022
6093 Clear -9 1010 79 10000 4.63 310 16:37 01.01.2022
6094 Clear -9 1010 79 10000 4.63 320 16:19 01.01.2022
6095 Clear -10 1010 85 10000 4.12 330 15:26 01.01.2022
6096 Clear -10 1009 85 10000 4.12 310 13:58 01.01.2022
6097 Clear -10 1009 85 10000 4.12 320 12:50 01.01.2022
6098 Clear -10 1008 85 10000 4.63 320 11:56 01.01.2022
6099 Clear -10 1008 85 10000 5.14 330 11:22 01.01.2022
6100 Clear -11 1007 85 10000 5.14 320 10:27 01.01.2022
6101 Clear -11 1007 85 10000 5.14 320 09:45 01.01.2022
6102 Clear -11 1006 85 10000 5.66 320 08:25 01.01.2022
6103 Clear -11 1005 85 10000 5.14 320 07:44 01.01.2022
6104 Clear -11 1005 85 10000 5.66 320 06:47 01.01.2022
6105 Clear -11 1004 85 10000 5.14 320 05:26 01.01.2022
6106 Clear -11 1004 85 10000 6.17 330 04:37 01.01.2022
6107 Clear -11 1002 85 10000 5.14 330 01:28 01.01.2022
6108 Clear -11 1001 85 10000 5.66 330 23:35 31.12.2021
6109 Clear -10 999 85 10000 5.66 330 21:53 31.12.2021
6110 Clear -8 998 86 10000 5.66 330 20:37 31.12.2021
6111 Clear -6 997 86 10000 5.14 340 19:30 31.12.2021
6112 Clear -6 996 86 10000 4.63 350 18:35 31.12.2021
6113 Snow -6 995 86 10000 5.14 350 17:38 31.12.2021
6114 Snow -6 995 93 10000 5.66 350 17:18 31.12.2021
6115 Snow -5 994 93 10000 5.66 360 16:24 31.12.2021
6116 Snow -5 994 93 10000 5.66 360 15:56 31.12.2021
6117 Snow -5 993 86 10000 5.66 360 15:28 31.12.2021
6118 Snow -6 992 93 10000 4.63 350 14:52 31.12.2021
6119 Snow -6 992 93 10000 4.63 350 14:29 31.12.2021
6120 Clouds -6 992 93 10000 4.63 360 13:36 31.12.2021
6121 Snow -6 991 93 6000 5.66 360 12:45 31.12.2021
6122 Snow -6 990 93 5000 5.66 360 11:43 31.12.2021
6123 Snow -6 990 93 5000 5.66 360 11:24 31.12.2021
6124 Snow -5 990 93 8000 4.12 360 10:34 31.12.2021
6125 Snow -5 989 93 3000 5.14 10 09:54 31.12.2021
6126 Snow -4 989 93 3000 4.63 10 09:32 31.12.2021
6127 Snow -4 989 100 2000 3.09 340 08:27 31.12.2021
6128 Snow -4 988 100 2800 2.57 10 07:30 31.12.2021
6129 Snow -2 990 100 4500 3.09 120 23:23 30.12.2021
6130 Snow -2 991 100 3700 3.09 110 22:33 30.12.2021
6131 Snow -2 991 100 3700 3.09 110 22:33 30.12.2021
6132 Snow -2 991 100 3300 2.57 120 21:56 30.12.2021
6133 Snow -2 991 100 4700 2.57 130 21:36 30.12.2021
6134 Snow -2 991 100 4300 3.6 160 20:46 30.12.2021
6135 Snow -1 991 93 4000 3.09 160 20:25 30.12.2021
6136 Snow -1 991 93 3500 3.6 160 19:45 30.12.2021
6137 Snow -1 992 93 4200 3.6 170 18:45 30.12.2021
6138 Snow -1 992 100 3500 3.6 170 18:18 30.12.2021
6139 Snow -1 993 100 3500 3.6 180 16:19 30.12.2021
6140 Snow -1 993 100 2500 3.6 180 15:51 30.12.2021
6141 Snow -1 993 100 8000 5.14 190 14:39 30.12.2021
6142 Snow -1 993 100 2500 6.69 200 13:55 30.12.2021
6143 Snow -1 994 100 2500 5.14 210 12:40 30.12.2021
6144 Snow -2 994 100 2000 6.17 210 10:58 30.12.2021
6145 Snow -2 995 100 1800 8.23 210 09:59 30.12.2021
6146 Snow -2 995 100 1600 7.2 220 08:58 30.12.2021
6147 Snow -3 995 100 1200 7.2 200 06:52 30.12.2021
6148 Snow -3 997 93 7000 5.14 180 03:43 30.12.2021
6149 Clouds -3 998 93 8000 5.14 180 02:47 30.12.2021
6150 Clouds -5 999 100 9000 3.09 160 23:50 29.12.2021
6151 Clouds -5 999 93 8000 3.09 150 23:23 29.12.2021
6152 Clouds -5 1000 93 4000 4.12 160 22:22 29.12.2021
6153 Clouds -5 1000 93 4600 4.12 160 21:43 29.12.2021
6154 Clouds -5 1001 93 5000 2.57 150 20:39 29.12.2021
6155 Snow -6 1001 100 7000 2.57 150 19:50 29.12.2021
6156 Snow -6 1001 93 7000 3.09 150 18:54 29.12.2021
6157 Snow -6 1001 93 10000 3.09 160 17:56 29.12.2021
6158 Snow -6 1002 93 10000 2.06 140 17:28 29.12.2021
6159 Snow -6 1002 93 10000 1.54 130 16:41 29.12.2021
6160 Clouds -6 1002 93 10000 2.57 160 15:59 29.12.2021
6161 Clouds -7 1002 93 10000 2.06 140 14:24 29.12.2021
6162 Snow -7 1003 93 10000 2.06 140 12:39 29.12.2021
6163 Snow -7 1002 93 10000 3.6 160 11:43 29.12.2021
6164 Snow -7 1003 100 10000 2.57 150 09:59 29.12.2021
6165 Snow -6 1003 93 4000 4.12 170 07:52 29.12.2021
6166 Snow -6 1003 93 4000 4.12 170 07:52 29.12.2021
6167 Snow -6 1003 100 5000 4.12 160 06:40 29.12.2021
6168 Snow -5 1003 93 7000 3.6 160 06:22 29.12.2021
6169 Snow -5 1003 93 7000 3.09 160 05:39 29.12.2021
6170 Snow -5 1004 93 4500 5.66 180 02:48 29.12.2021
6171 Snow -4 1004 93 6000 5.14 170 00:23 29.12.2021
6172 Snow -4 1004 93 5000 4.63 170 23:45 28.12.2021
6173 Snow -4 1004 93 10000 4.12 170 22:42 28.12.2021
6174 Snow -4 1005 93 10000 3.6 170 22:24 28.12.2021
6175 Snow -5 1005 100 10000 2.06 160 21:52 28.12.2021
6176 Snow -5 1005 93 10000 3.09 170 20:40 28.12.2021
6177 Snow -6 1005 93 10000 2.57 160 19:31 28.12.2021
6178 Clouds -7 1005 93 10000 2.57 160 18:41 28.12.2021
6179 Snow -8 1005 92 10000 2.06 150 17:59 28.12.2021
6180 Snow -10 1006 92 10000 3.09 120 16:34 28.12.2021
6181 Snow -11 1006 92 5000 4.12 110 15:50 28.12.2021
6182 Snow -12 1006 85 10000 4.63 110 15:22 28.12.2021
6183 Snow -12 1006 85 10000 3.6 110 14:50 28.12.2021
6184 Snow -12 1006 85 5000 3.6 90 14:21 28.12.2021
6185 Snow -13 1006 92 1500 2.57 80 13:42 28.12.2021
6186 Snow -13 1006 92 1500 2.57 80 13:24 28.12.2021
6187 Snow -13 1007 85 1500 2.57 70 12:49 28.12.2021
6188 Fog -15 1007 85 400 3.6 90 11:46 28.12.2021
6189 Clear -17 1007 78 10000 3.6 100 08:53 28.12.2021
6190 Fog -19 1006 84 1500 0.51 90 06:58 28.12.2021
6191 Clear -16 1005 92 10000 2.06 230 00:34 28.12.2021
6192 Clear -15 1005 85 10000 1.54 200 23:24 27.12.2021
6193 Clear -14 1004 85 10000 1.54 210 21:42 27.12.2021
6194 Clear -15 1004 92 10000 1.03 0 21:21 27.12.2021
6195 Clear -15 1004 85 10000 2.06 240 20:24 27.12.2021
6196 Snow -15 1004 85 10000 2.57 230 19:41 27.12.2021
6197 Snow -15 1004 85 10000 2.06 220 18:52 27.12.2021
6198 Clear -16 1003 85 10000 1.54 260 17:49 27.12.2021
6199 Clear -16 1003 85 10000 3.6 250 16:55 27.12.2021
6200 Snow -15 1003 92 10000 3.09 260 15:52 27.12.2021
6201 Clear -15 1003 85 10000 3.09 270 14:33 27.12.2021
6202 Clouds -14 1003 85 10000 3.6 250 13:40 27.12.2021
6203 Clear -15 1002 85 10000 3.09 240 12:40 27.12.2021
6204 Snow -14 1002 85 10000 2.57 240 10:32 27.12.2021
6205 Mist -14 1002 85 1500 3.09 230 09:47 27.12.2021
6206 Mist -13 1002 85 1200 1.54 220 07:50 27.12.2021
6207 Fog -13 1002 92 800 1.03 250 07:29 27.12.2021
6208 Snow -12 1001 85 10000 5.14 350 02:21 27.12.2021
6209 Clouds -11 1000 85 10000 4.63 340 23:58 26.12.2021
6210 Snow -11 1000 85 10000 5.14 340 23:39 26.12.2021
6211 Snow -12 1000 92 4300 5.66 330 22:34 26.12.2021
6212 Clouds -12 999 85 10000 5.14 340 20:59 26.12.2021
6213 Clear -12 999 85 10000 5.14 340 19:47 26.12.2021
6214 Clouds -12 998 92 10000 5.14 330 18:24 26.12.2021
6215 Clouds -11 998 85 10000 5.14 330 17:24 26.12.2021
6216 Clear -12 998 92 10000 5.66 340 14:29 26.12.2021
6217 Clouds -13 998 92 10000 5.66 330 13:41 26.12.2021
6218 Snow -13 997 92 10000 6.17 330 13:20 26.12.2021
6219 Snow -13 998 85 10000 5.66 330 12:33 26.12.2021
6220 Clouds -13 998 85 10000 6.17 330 12:33 26.12.2021
6221 Snow -14 998 85 10000 6.17 330 10:42 26.12.2021
6222 Clear -16 998 85 10000 7.2 330 09:26 26.12.2021
6223 Clear -16 998 85 10000 5.66 330 08:44 26.12.2021
6224 Clear -16 998 85 10000 5.14 340 07:59 26.12.2021
6225 Clear -16 997 85 10000 4.12 360 01:30 26.12.2021
6226 Clear -15 996 85 10000 5.14 10 23:58 25.12.2021
6227 Clear -15 996 85 10000 5.14 10 23:27 25.12.2021
6228 Clear -15 996 85 10000 5.14 360 22:28 25.12.2021
6229 Clear -15 995 85 10000 5.66 350 21:00 25.12.2021
6230 Clear -14 995 85 10000 3.6 350 19:28 25.12.2021
6231 Clear -14 995 85 10000 3.6 350 18:56 25.12.2021
6232 Clear -14 994 78 10000 4.12 10 18:21 25.12.2021
6233 Clear -15 993 85 10000 3.6 20 16:42 25.12.2021
6234 Clear -13 992 78 10000 3.6 10 15:26 25.12.2021
6235 Snow -14 991 85 10000 5.66 20 13:41 25.12.2021
6236 Snow -12 989 85 10000 4.63 30 11:54 25.12.2021
6237 Snow -11 988 79 10000 7.2 40 10:18 25.12.2021
6238 Snow -11 988 79 10000 7.2 50 09:42 25.12.2021
6239 Snow -11 986 92 5000 3.6 350 04:36 25.12.2021
6240 Snow -11 986 85 10000 3.6 340 01:27 25.12.2021
6241 Clear -11 987 85 10000 4.63 340 23:55 24.12.2021
6242 Clouds -11 988 92 10000 4.63 340 20:53 24.12.2021
6243 Snow -10 988 92 10000 4.12 330 19:25 24.12.2021
6244 Snow -8 988 86 10000 5.14 360 18:23 24.12.2021
6245 Snow -8 989 86 10000 5.66 10 16:29 24.12.2021
6246 Snow -8 989 86 5000 5.66 10 15:49 24.12.2021
6247 Snow -7 989 79 7000 5.66 10 15:20 24.12.2021
6248 Snow -8 989 86 10000 5.14 10 14:31 24.12.2021
6249 Snow -8 989 86 10000 4.63 10 13:44 24.12.2021
6250 Snow -8 989 86 10000 6.17 20 12:49 24.12.2021
6251 Snow -8 989 86 10000 6.17 20 12:23 24.12.2021
6252 Snow -8 990 86 10000 5.66 10 11:40 24.12.2021
6253 Snow -9 990 85 10000 5.66 10 11:18 24.12.2021
6254 Clouds -9 990 85 10000 6.69 20 10:33 24.12.2021
6255 Snow -8 989 79 10000 6.69 20 08:36 24.12.2021
6256 Snow -8 989 86 6000 6.69 20 07:58 24.12.2021
6257 Snow -7 988 86 10000 6.17 10 06:18 24.12.2021
6258 Snow -9 987 85 10000 4.12 360 00:20 24.12.2021
6259 Snow -10 987 85 10000 4.12 340 23:33 23.12.2021
6260 Snow -10 987 85 10000 4.63 340 22:44 23.12.2021
6261 Snow -9 987 85 10000 4.63 350 22:22 23.12.2021
6262 Snow -10 987 85 10000 4.63 350 21:39 23.12.2021
6263 Clear -10 987 85 10000 6.17 340 20:22 23.12.2021
6264 Snow -10 987 85 10000 5.66 340 19:27 23.12.2021
6265 Snow -10 987 85 6000 5.14 330 17:58 23.12.2021
6266 Snow -11 987 92 9000 5.66 330 17:18 23.12.2021
6267 Snow -11 988 85 3900 5.66 330 16:26 23.12.2021
6268 Snow -12 988 85 5000 5.66 340 15:32 23.12.2021
6269 Snow -12 988 85 5000 5.66 340 14:56 23.12.2021
6270 Snow -13 988 92 2800 6.17 330 14:38 23.12.2021
6271 Clouds -12 989 85 10000 5.66 340 13:23 23.12.2021
6272 Snow -11 990 85 10000 4.12 340 10:54 23.12.2021
6273 Clouds -12 990 85 10000 5.14 360 09:52 23.12.2021
6274 Clouds -12 990 85 10000 5.14 360 09:32 23.12.2021
6275 Snow -13 990 85 10000 5.66 340 08:25 23.12.2021
6276 Snow -16 992 85 10000 0.51 0 04:39 23.12.2021
6277 Snow -17 998 85 7000 4.12 240 23:43 22.12.2021
6278 Snow -18 1000 84 10000 4.12 250 22:49 22.12.2021
6279 Snow -18 1000 84 10000 4.63 240 21:57 22.12.2021
6280 Snow -18 1002 84 10000 4.63 240 21:30 22.12.2021
6281 Clear -18 1002 84 10000 4.63 240 20:52 22.12.2021
6282 Clear -18 1002 84 10000 4.12 240 20:33 22.12.2021
6283 Clear -17 1004 78 10000 4.12 240 19:35 22.12.2021
6284 Clear -17 1006 85 10000 3.09 260 18:18 22.12.2021
6285 Clear -18 1007 84 10000 3.09 250 17:35 22.12.2021
6286 Clear -18 1010 84 10000 4.63 240 15:46 22.12.2021
6287 Clear -18 1013 84 10000 3.09 240 13:44 22.12.2021
6288 Clear -18 1014 84 10000 3.09 240 12:44 22.12.2021
6289 Clear -17 1017 85 10000 2.57 250 10:48 22.12.2021
6290 Clear -18 1018 84 10000 2.06 250 09:40 22.12.2021
6291 Clear -14 1019 85 10000 1.03 280 07:48 22.12.2021
6292 Clear -15 1020 85 10000 4.12 330 05:51 22.12.2021
6293 Clear -14 1020 85 10000 4.63 330 05:28 22.12.2021
6294 Clear -14 1021 85 10000 5.66 330 04:54 22.12.2021
6295 Clear -14 1021 85 10000 6.17 330 04:30 22.12.2021
6296 Clear -14 1021 85 10000 6.17 330 04:30 22.12.2021
6297 Clear -14 1021 85 10000 5.14 330 03:33 22.12.2021
6298 Clouds -11 1022 79 10000 5.66 340 00:57 22.12.2021
6299 Clouds -12 1022 85 10000 5.14 340 23:32 21.12.2021
6300 Clouds -12 1022 85 10000 5.14 340 22:29 21.12.2021
6301 Clouds -11 1022 79 10000 5.66 340 21:44 21.12.2021
6302 Clouds -11 1022 79 10000 5.66 340 21:23 21.12.2021
6303 Clouds -12 1022 85 10000 5.14 340 20:22 21.12.2021
6304 Clouds -11 1023 79 10000 5.14 340 19:43 21.12.2021
6305 Snow -12 1023 78 10000 5.14 340 19:19 21.12.2021
6306 Clouds -12 1023 78 10000 5.14 340 18:22 21.12.2021
6307 Clear -13 1023 85 10000 5.14 340 17:47 21.12.2021
6308 Clear -13 1023 85 10000 5.14 340 16:35 21.12.2021
6309 Clear -14 1023 85 10000 6.17 340 15:25 21.12.2021
6310 Clear -13 1023 85 10000 6.17 340 13:51 21.12.2021
6311 Clear -13 1023 85 10000 6.17 340 13:31 21.12.2021
6312 Clear -13 1023 85 10000 4.63 340 11:57 21.12.2021
6313 Clear -13 1023 85 10000 5.14 350 10:25 21.12.2021
6314 Clear -13 1023 85 10000 3.6 350 09:27 21.12.2021
6315 Mist -13 1022 92 3000 2.57 10 07:59 21.12.2021
6316 Clouds -12 1023 85 10000 4.12 350 07:29 21.12.2021
6317 Clouds -12 1022 92 10000 3.6 10 06:50 21.12.2021
6318 Clouds -12 1022 92 10000 4.63 350 02:51 21.12.2021
6319 Clear -10 1022 92 10000 3.09 360 23:59 20.12.2021
6320 Clouds -10 1022 85 10000 4.12 10 23:29 20.12.2021
6321 Clear -10 1022 85 10000 4.12 20 22:30 20.12.2021
6322 Clouds -10 1021 85 10000 4.63 30 21:47 20.12.2021
6323 Clouds -10 1021 85 10000 4.63 10 21:23 20.12.2021
6324 Snow -10 1021 85 10000 4.63 360 20:44 20.12.2021
6325 Clear -11 1021 92 10000 5.14 340 19:53 20.12.2021
6326 Clear -11 1021 92 10000 4.63 340 19:31 20.12.2021
6327 Clear -11 1021 85 10000 4.63 340 18:54 20.12.2021
6328 Clear -11 1021 85 10000 4.12 340 17:52 20.12.2021
6329 Clear -12 1020 92 10000 4.12 340 17:25 20.12.2021
6330 Clear -12 1021 92 10000 4.63 330 16:40 20.12.2021
6331 Clear -12 1020 92 10000 4.63 330 15:50 20.12.2021
6332 Clear -12 1020 92 10000 5.14 330 14:43 20.12.2021
6333 Clear -12 1020 85 10000 5.14 330 12:51 20.12.2021
6334 Clear -13 1020 85 10000 6.17 340 11:19 20.12.2021
6335 Clear -14 1020 85 10000 5.66 340 09:47 20.12.2021
6336 Clear -14 1020 85 10000 5.66 340 08:58 20.12.2021
6337 Clear -14 1020 85 10000 5.66 340 08:40 20.12.2021
6338 Clear -13 1020 78 10000 5.14 330 07:49 20.12.2021
6339 Clear -13 1020 85 10000 5.14 330 07:25 20.12.2021
6340 Clear -13 1021 85 10000 5.14 340 03:42 20.12.2021
6341 Clear -12 1021 92 10000 3.6 360 23:51 19.12.2021
6342 Clear -11 1020 92 10000 2.57 30 22:45 19.12.2021
6343 Clouds -10 1019 85 10000 4.12 30 21:49 19.12.2021
6344 Clouds -10 1019 85 10000 4.12 30 21:26 19.12.2021
6345 Snow -9 1018 85 10000 5.14 40 20:30 19.12.2021
6346 Snow -9 1018 92 10000 5.14 40 19:46 19.12.2021
6347 Clouds -9 1017 92 10000 4.12 30 18:58 19.12.2021
6348 Clouds -9 1017 92 10000 4.12 30 18:27 19.12.2021
6349 Clear -8 1016 86 10000 4.63 50 17:49 19.12.2021
6350 Snow -8 1015 86 10000 6.17 40 17:18 19.12.2021
6351 Clear -8 1015 86 10000 4.12 30 16:25 19.12.2021
6352 Clouds -8 1013 92 10000 5.14 50 15:28 19.12.2021
6353 Clouds -8 1013 92 10000 5.14 50 14:57 19.12.2021
6354 Clouds -8 1013 92 10000 8.23 50 14:36 19.12.2021
6355 Clouds -8 1011 92 10000 5.14 40 13:22 19.12.2021
6356 Clouds -7 1010 93 10000 4.63 30 12:33 19.12.2021
6357 Clouds -7 1008 93 10000 4.12 40 11:42 19.12.2021
6358 Clouds -6 1007 86 10000 6.17 50 10:53 19.12.2021
6359 Clouds -6 1007 86 10000 6.17 50 10:23 19.12.2021
6360 Clouds -6 1007 86 10000 6.17 50 10:23 19.12.2021
6361 Snow -6 1004 93 10000 5.14 50 09:26 19.12.2021
6362 Snow -6 1001 93 10000 6.17 60 07:47 19.12.2021
6363 Clouds -3 997 100 3900 4.12 350 02:35 19.12.2021
6364 Clear -3 997 93 10000 4.12 340 00:55 19.12.2021
6365 Clear -3 997 93 10000 4.63 330 23:31 18.12.2021
6366 Clear -3 997 100 10000 5.14 340 22:30 18.12.2021
6367 Clouds -3 997 100 10000 4.63 340 21:54 18.12.2021
6368 Clouds -3 997 100 10000 4.63 340 21:33 18.12.2021
6369 Clouds -3 997 93 10000 5.14 330 20:43 18.12.2021
6370 Clouds -3 997 100 10000 4.63 330 19:50 18.12.2021
6371 Clear -2 997 100 10000 3.09 320 18:26 18.12.2021
6372 Clear -2 997 100 10000 3.6 330 17:50 18.12.2021
6373 Clouds -2 998 100 10000 3.09 330 16:55 18.12.2021
6374 Clouds -2 998 93 10000 3.09 320 16:21 18.12.2021
6375 Clouds -2 998 93 9000 2.06 310 15:25 18.12.2021
6376 Snow -1 999 93 10000 1.03 0 14:19 18.12.2021
6377 Snow -2 1001 93 10000 1.03 0 12:21 18.12.2021
6378 Clear -4 1002 100 10000 2.57 240 10:43 18.12.2021
6379 Clear -4 1002 93 10000 3.09 240 09:32 18.12.2021
6380 Clear -4 1003 100 10000 1.54 210 08:37 18.12.2021
6381 Clouds -4 1004 93 5000 3.6 240 07:42 18.12.2021
6382 Clouds -4 1009 100 700 4.12 230 01:47 18.12.2021
6383 Clouds -4 1010 93 1900 5.66 220 23:56 17.12.2021
6384 Clouds -5 1010 100 10000 5.66 220 23:35 17.12.2021
6385 Snow -5 1013 93 10000 7.2 210 21:50 17.12.2021
6386 Clouds -5 1014 93 10000 5.66 220 20:49 17.12.2021
6387 Snow -5 1014 93 10000 4.12 180 19:58 17.12.2021
6388 Snow -5 1017 93 10000 3.6 200 18:40 17.12.2021
6389 Clouds -5 1017 93 10000 3.6 200 18:18 17.12.2021
6390 Fog -5 1017 100 2200 4.12 200 17:20 17.12.2021
6391 Clouds -5 1019 100 10000 2.57 240 16:28 17.12.2021
6392 Clouds -5 1019 100 2400 1.54 210 15:51 17.12.2021
6393 Snow -5 1019 100 3900 1.03 0 14:43 17.12.2021
6394 Mist -5 1019 100 1200 1.54 90 13:56 17.12.2021
6395 Clouds -5 1019 100 10000 3.09 50 12:38 17.12.2021
6396 Clouds -4 1018 93 10000 4.63 10 10:42 17.12.2021
6397 Clouds -4 1017 93 10000 4.63 10 09:47 17.12.2021
6398 Clouds -4 1016 93 10000 4.12 10 08:43 17.12.2021
6399 Clouds -4 1015 93 10000 4.63 360 08:18 17.12.2021
6400 Clouds -2 1011 100 5000 4.12 350 04:57 17.12.2021
6401 Clear -3 1005 100 10000 4.12 320 00:57 17.12.2021
6402 Clear -4 1004 93 10000 3.09 310 22:44 16.12.2021
6403 Clear -4 1004 93 10000 3.09 310 22:22 16.12.2021
6404 Clear -4 1003 93 10000 2.06 270 21:43 16.12.2021
6405 Clear -4 1002 93 10000 1.54 260 20:42 16.12.2021
6406 Clear -4 1002 93 10000 2.06 300 20:21 16.12.2021
6407 Clear -4 1002 93 10000 2.06 300 20:21 16.12.2021
6408 Clear -5 1001 100 10000 1.54 310 19:27 16.12.2021
6409 Clouds -5 1000 100 10000 2.06 250 18:31 16.12.2021
6410 Clear -4 1000 93 10000 2.06 270 17:36 16.12.2021
6411 Clouds -4 999 93 10000 2.06 280 16:24 16.12.2021
6412 Clear -4 998 93 10000 2.06 270 15:26 16.12.2021
6413 Clear -3 997 93 10000 3.09 320 13:45 16.12.2021
6414 Clear -3 995 93 10000 2.57 330 11:48 16.12.2021
6415 Clouds -3 994 93 10000 3.09 330 11:18 16.12.2021
6416 Clouds -3 994 93 10000 2.06 290 10:39 16.12.2021
6417 Clear -4 994 100 10000 2.57 250 09:42 16.12.2021
6418 Clear -1 991 93 10000 1.54 270 06:23 16.12.2021
6419 Clouds -1 990 100 10000 3.09 250 03:54 16.12.2021
6420 Clouds 0 989 100 3300 4.12 210 23:36 15.12.2021
6421 Clouds 0 989 100 7000 4.63 210 22:49 15.12.2021
6422 Clouds 0 989 100 6000 4.63 220 22:20 15.12.2021
6423 Clouds 0 989 93 10000 4.12 220 21:31 15.12.2021
6424 Clouds 0 989 93 10000 4.63 210 20:36 15.12.2021
6425 Clouds 0 989 93 10000 5.14 220 19:53 15.12.2021
6426 Clouds 0 990 93 10000 4.63 230 18:41 15.12.2021
6427 Clouds 0 990 93 10000 7.2 220 18:18 15.12.2021
6428 Clouds 0 990 93 10000 9.26 220 17:40 15.12.2021
6429 Snow 0 990 93 10000 8.23 220 16:57 15.12.2021
6430 Snow 0 991 100 10000 7.72 210 15:47 15.12.2021
6431 Clouds 0 991 100 10000 6.69 220 15:29 15.12.2021
6432 Clouds 0 992 100 10000 6.69 220 14:44 15.12.2021
6433 Clouds 0 992 100 10000 7.72 210 13:27 15.12.2021
6434 Clouds -1 994 100 4000 6.69 190 10:58 15.12.2021
6435 Snow -1 995 93 2500 6.69 170 09:31 15.12.2021
6436 Snow -1 997 93 10000 7.72 180 07:47 15.12.2021
6437 Clouds -1 1000 100 10000 7.2 200 03:58 15.12.2021
6438 Snow -3 1003 100 10000 3.6 180 23:46 14.12.2021
6439 Snow -2 1003 93 7000 6.69 200 22:52 14.12.2021
6440 Snow -2 1003 93 7000 6.69 200 22:34 14.12.2021
6441 Fog -2 1003 93 1300 3.09 160 21:24 14.12.2021
6442 Clouds -3 1003 100 800 3.09 170 19:44 14.12.2021
6443 Clouds -3 1004 93 800 2.57 160 19:21 14.12.2021
6444 Clouds -3 1004 100 600 2.06 150 18:34 14.12.2021
6445 Clouds -2 1004 93 1100 3.09 190 17:34 14.12.2021
6446 Clouds -3 1004 100 10000 2.57 110 16:43 14.12.2021
6447 Snow -3 1005 100 9000 2.57 110 15:41 14.12.2021
6448 Snow -3 1005 93 10000 3.09 90 13:33 14.12.2021
6449 Snow -3 1005 93 5000 3.09 90 12:27 14.12.2021
6450 Snow -3 1006 93 2500 3.6 90 11:24 14.12.2021
6451 Snow -3 1006 93 2800 3.6 100 10:27 14.12.2021
6452 Snow -3 1006 93 2000 3.09 100 09:53 14.12.2021
6453 Snow -3 1007 93 7000 2.57 140 08:29 14.12.2021
6454 Snow -3 1007 93 6000 2.57 140 07:59 14.12.2021
6455 Clouds -4 1007 100 6000 2.06 160 05:52 14.12.2021
6456 Clouds -3 1009 93 10000 2.06 210 23:39 13.12.2021
6457 Clouds -3 1010 93 10000 2.06 250 21:54 13.12.2021
6458 Clouds -3 1010 93 10000 2.06 250 21:34 13.12.2021
6459 Clouds -3 1010 100 10000 2.06 270 20:50 13.12.2021
6460 Clouds -3 1010 100 10000 1.54 250 19:59 13.12.2021
6461 Clouds -2 1010 93 10000 1.54 260 19:20 13.12.2021
6462 Snow -1 1009 100 2400 1.54 280 17:26 13.12.2021
6463 Snow -1 1010 100 7000 2.06 240 16:20 13.12.2021
6464 Snow -1 1010 100 7000 2.06 240 15:38 13.12.2021
6465 Mist -1 1010 100 2500 2.57 230 13:49 13.12.2021
6466 Mist -1 1010 100 3500 3.09 220 13:18 13.12.2021
6467 Clouds -1 1010 100 3000 4.12 210 12:22 13.12.2021
6468 Clouds -1 1010 100 2500 4.63 210 11:36 13.12.2021
6469 Snow 0 1011 93 2500 4.12 200 10:53 13.12.2021
6470 Snow -1 1011 100 2000 4.12 190 10:21 13.12.2021
6471 Snow -1 1011 100 1200 4.63 190 08:28 13.12.2021
6472 Snow -1 1012 100 10000 4.12 170 05:37 13.12.2021
6473 Fog -2 1013 100 1200 3.6 160 03:31 13.12.2021
6474 Clouds -3 1014 100 4700 4.12 150 23:27 12.12.2021
6475 Clouds -3 1015 93 10000 3.6 160 21:50 12.12.2021
6476 Clouds -3 1015 93 10000 3.6 170 20:45 12.12.2021
6477 Clouds -3 1015 93 1100 3.6 170 19:30 12.12.2021
6478 Clouds -3 1015 93 600 3.6 160 17:46 12.12.2021
6479 Clouds -3 1015 93 1000 3.09 170 16:28 12.12.2021
6480 Clouds -3 1016 93 900 3.09 180 15:51 12.12.2021
6481 Clouds -3 1016 93 1500 3.09 180 15:26 12.12.2021
6482 Mist -3 1016 93 3600 3.09 190 14:37 12.12.2021
6483 Snow -4 1016 100 10000 3.6 170 13:34 12.12.2021
6484 Snow -4 1016 93 10000 4.12 170 12:32 12.12.2021
6485 Snow -4 1016 93 10000 4.12 160 11:44 12.12.2021
6486 Clouds -4 1016 93 7000 4.12 170 11:24 12.12.2021
6487 Snow -4 1016 93 10000 3.6 160 10:32 12.12.2021
6488 Snow -4 1016 93 6000 3.09 160 09:39 12.12.2021
6489 Snow -4 1016 93 10000 3.09 150 08:34 12.12.2021
6490 Snow -4 1016 100 8000 3.09 150 06:20 12.12.2021
6491 Snow -4 1017 100 2500 3.09 160 04:56 12.12.2021
6492 Snow -3 1017 93 10000 3.6 160 03:57 12.12.2021
6493 Mist -3 1018 93 2200 2.57 120 23:48 11.12.2021
6494 Clouds -3 1019 93 1200 2.57 140 22:23 11.12.2021
6495 Fog -3 1018 93 900 2.57 130 21:52 11.12.2021
6496 Fog -3 1018 93 650 2.57 120 21:18 11.12.2021
6497 Clouds -4 1019 100 1100 3.09 120 19:30 11.12.2021
6498 Fog -4 1019 100 1300 2.57 90 18:52 11.12.2021
6499 Clouds -4 1019 100 10000 2.57 120 18:26 11.12.2021
6500 Snow -4 1019 100 10000 2.06 90 17:24 11.12.2021
6501 Snow -4 1019 100 10000 2.57 110 15:55 11.12.2021
6502 Snow -3 1019 93 10000 2.06 140 15:30 11.12.2021
6503 Snow -4 1019 100 4600 3.09 150 12:59 11.12.2021
6504 Snow -4 1019 93 10000 2.57 140 11:26 11.12.2021
6505 Snow -4 1019 93 6000 2.06 170 09:47 11.12.2021
6506 Snow -4 1018 93 4500 3.09 160 08:28 11.12.2021
6507 Snow -6 1017 93 1100 2.57 140 02:29 11.12.2021
6508 Snow -7 1017 93 9000 2.57 120 00:36 11.12.2021
6509 Snow -7 1018 86 10000 2.06 130 23:21 10.12.2021
6510 Snow -7 1018 86 7000 3.09 150 21:57 10.12.2021
6511 Snow -8 1018 92 10000 3.6 160 21:31 10.12.2021
6512 Snow -8 1018 86 7000 4.12 160 19:22 10.12.2021
6513 Clouds -9 1018 85 10000 2.57 160 18:21 10.12.2021
6514 Clear -9 1018 85 10000 6.69 160 16:56 10.12.2021
6515 Clear -9 1018 79 10000 6.69 160 16:28 10.12.2021
6516 Clear -9 1018 79 10000 6.17 160 15:41 10.12.2021
6517 Clear -9 1018 85 10000 6.69 160 15:21 10.12.2021
6518 Clear -9 1018 85 10000 6.17 150 13:52 10.12.2021
6519 Clear -9 1018 85 10000 4.12 150 13:26 10.12.2021
6520 Clear -9 1018 85 10000 3.6 140 12:39 10.12.2021
6521 Clear -10 1018 85 10000 4.12 140 11:29 10.12.2021
6522 Clear -10 1018 85 10000 4.63 150 10:37 10.12.2021
6523 Clear -11 1019 92 10000 4.12 170 08:58 10.12.2021
6524 Clear -11 1019 85 10000 5.14 170 06:56 10.12.2021
6525 Clouds -10 1019 92 10000 4.12 150 02:48 10.12.2021
6526 Clouds -10 1019 92 10000 4.12 150 02:48 10.12.2021
6527 Snow -10 1020 85 10000 4.63 160 00:38 10.12.2021
6528 Clouds -10 1020 92 10000 5.14 160 23:22 09.12.2021
6529 Snow -10 1019 92 10000 4.63 160 22:26 09.12.2021
6530 Snow -10 1019 92 10000 4.12 150 21:59 09.12.2021
6531 Clouds -10 1020 92 10000 5.14 150 21:18 09.12.2021
6532 Snow -10 1020 85 10000 5.14 160 20:22 09.12.2021
6533 Snow -11 1020 92 10000 4.12 140 19:21 09.12.2021
6534 Snow -11 1020 85 10000 4.63 160 18:48 09.12.2021
6535 Snow -12 1021 92 10000 3.09 140 17:52 09.12.2021
6536 Snow -13 1021 92 10000 2.57 160 17:26 09.12.2021
6537 Snow -13 1021 92 10000 2.57 160 16:54 09.12.2021
6538 Clouds -13 1021 85 10000 2.57 150 15:34 09.12.2021
6539 Snow -14 1021 92 10000 4.12 170 14:46 09.12.2021
6540 Snow -13 1021 85 1500 2.57 150 13:23 09.12.2021
6541 Mist -13 1021 85 1100 3.6 170 12:40 09.12.2021
6542 Clouds -15 1021 85 10000 2.06 210 11:24 09.12.2021
6543 Clouds -15 1021 92 10000 1.54 230 09:21 09.12.2021
6544 Clear -14 1021 85 10000 1.54 100 06:44 09.12.2021
6545 Clear -16 1020 85 10000 0.51 0 03:40 09.12.2021
6546 Clouds -14 1020 85 10000 3.09 60 23:43 08.12.2021
6547 Clouds -16 1020 85 10000 1.03 90 23:21 08.12.2021
6548 Clear -15 1020 85 10000 2.57 70 22:47 08.12.2021
6549 Clear -15 1020 85 10000 2.57 80 21:40 08.12.2021
6550 Clear -14 1020 85 10000 2.57 90 20:59 08.12.2021
6551 Clear -13 1020 85 10000 2.57 80 19:58 08.12.2021
6552 Clear -13 1020 85 10000 2.57 80 19:33 08.12.2021
6553 Clear -12 1019 85 10000 3.6 80 18:45 08.12.2021
6554 Clouds -12 1020 85 10000 3.6 80 17:36 08.12.2021
6555 Clouds -12 1020 85 10000 3.6 80 17:36 08.12.2021
6556 Snow -11 1019 85 10000 3.09 70 15:49 08.12.2021
6557 Snow -11 1019 85 10000 3.6 70 15:28 08.12.2021
6558 Snow -11 1019 85 10000 4.12 60 14:30 08.12.2021
6559 Snow -11 1019 85 10000 5.14 60 10:55 08.12.2021
6560 Snow -11 1019 85 10000 5.14 60 10:31 08.12.2021
6561 Snow -11 1019 85 10000 5.14 60 10:31 08.12.2021
6562 Snow -11 1019 85 10000 5.66 60 08:55 08.12.2021
6563 Snow -11 1018 79 10000 6.17 60 07:25 08.12.2021
6564 Snow -13 1019 85 10000 5.66 50 04:24 08.12.2021
6565 Clear -14 1019 78 10000 5.14 70 23:33 07.12.2021
6566 Clear -15 1020 85 10000 4.63 80 21:43 07.12.2021
6567 Clear -15 1020 78 10000 5.14 70 21:23 07.12.2021
6568 Clear -15 1020 78 10000 5.14 70 20:20 07.12.2021
6569 Clear -15 1020 78 10000 4.63 70 18:43 07.12.2021
6570 Clear -15 1020 78 10000 4.63 60 17:48 07.12.2021
6571 Clear -15 1021 78 10000 4.63 60 17:19 07.12.2021
6572 Clear -15 1021 85 10000 4.63 70 16:28 07.12.2021
6573 Clear -16 1021 85 10000 4.63 70 15:23 07.12.2021
6574 Clear -16 1021 85 10000 4.63 70 13:53 07.12.2021
6575 Clear -16 1021 85 10000 4.63 70 12:49 07.12.2021
6576 Clear -16 1021 78 10000 5.66 70 11:27 07.12.2021
6577 Clear -17 1021 85 10000 5.66 70 10:33 07.12.2021
6578 Clear -17 1021 85 10000 4.63 70 07:57 07.12.2021
6579 Clear -18 1021 84 10000 4.12 60 05:59 07.12.2021
6580 Clear -18 1021 84 10000 4.12 60 05:33 07.12.2021
6581 Clear -19 1023 84 10000 3.6 70 23:45 06.12.2021
6582 Clear -16 1023 85 10000 2.57 80 22:44 06.12.2021
6583 Clear -19 1023 84 10000 3.09 70 22:22 06.12.2021
6584 Clear -17 1023 85 10000 3.6 80 21:46 06.12.2021
6585 Clear -18 1023 84 10000 2.57 80 20:33 06.12.2021
6586 Clear -17 1023 85 10000 2.06 80 19:27 06.12.2021
6587 Clouds -18 1024 84 10000 2.57 80 18:59 06.12.2021
6588 Snow -19 1024 84 8000 3.09 60 17:56 06.12.2021
6589 Snow -19 1024 84 8000 3.09 60 17:37 06.12.2021
6590 Mist -18 1024 84 2000 2.57 60 16:22 06.12.2021
6591 Fog -18 1024 84 1100 2.57 60 15:38 06.12.2021
6592 Snow -17 1025 85 2200 2.57 70 13:46 06.12.2021
6593 Clouds -20 1025 77 10000 3.09 60 12:39 06.12.2021
6594 Clear -18 1026 84 10000 1.54 110 10:32 06.12.2021
6595 Snow -16 1026 92 10000 3.6 160 08:45 06.12.2021
6596 Mist -24 1027 77 1400 2.57 70 04:56 06.12.2021
6597 Mist -22 1028 84 4200 2.06 100 22:52 05.12.2021
6598 Clouds -22 1028 84 10000 1.54 90 21:26 05.12.2021
6599 Clouds -22 1028 84 10000 1.54 90 20:59 05.12.2021
6600 Fog -22 1028 84 1100 3.09 100 20:19 05.12.2021
6601 Fog -22 1028 84 4900 2.06 100 19:33 05.12.2021
6602 Snow -21 1028 84 10000 1.03 0 18:41 05.12.2021
6603 Fog -20 1028 84 10000 0.51 0 18:19 05.12.2021
6604 Snow -20 1028 84 10000 1.54 180 17:47 05.12.2021
6605 Snow -21 1028 77 10000 1.03 240 16:45 05.12.2021
6606 Clear -22 1028 84 10000 0.51 0 16:24 05.12.2021
6607 Clear -20 1028 84 10000 2.06 120 14:49 05.12.2021
6608 Clear -20 1027 77 10000 1.54 120 14:30 05.12.2021
6609 Clear -20 1027 77 10000 2.06 120 13:43 05.12.2021
6610 Clear -20 1027 84 10000 2.06 110 12:55 05.12.2021
6611 Clear -22 1027 84 10000 2.06 70 12:29 05.12.2021
6612 Clear -22 1027 84 10000 2.06 90 11:49 05.12.2021
6613 Clear -21 1027 77 10000 2.57 70 10:52 05.12.2021
6614 Clear -21 1027 77 10000 2.57 70 09:58 05.12.2021
6615 Clouds -20 1026 84 10000 2.57 70 07:33 05.12.2021
6616 Clear -17 1024 85 10000 4.12 80 02:25 05.12.2021
6617 Clear -17 1023 85 10000 4.12 60 23:28 04.12.2021
6618 Clear -16 1022 85 10000 3.6 80 21:53 04.12.2021
6619 Clear -16 1022 85 10000 3.6 70 20:50 04.12.2021
6620 Clear -16 1022 85 10000 3.6 70 19:54 04.12.2021
6621 Clear -15 1021 85 10000 3.09 70 19:31 04.12.2021
6622 Clear -15 1020 85 10000 3.09 70 17:58 04.12.2021
6623 Clear -15 1020 85 10000 3.09 70 17:37 04.12.2021
6624 Clear -15 1020 85 10000 4.12 60 16:48 04.12.2021
6625 Clear -15 1020 85 10000 4.12 60 16:30 04.12.2021
6626 Clear -15 1020 85 10000 4.12 60 16:30 04.12.2021
6627 Clear -14 1019 85 10000 4.63 80 14:39 04.12.2021
6628 Snow -14 1018 85 10000 5.14 70 11:46 04.12.2021
6629 Snow -14 1017 85 10000 5.66 70 11:25 04.12.2021
6630 Clear -14 1017 85 10000 5.14 70 10:42 04.12.2021
6631 Clear -13 1016 85 10000 5.14 70 08:45 04.12.2021
6632 Clear -13 1015 85 10000 5.66 70 06:24 04.12.2021
6633 Clear -13 1014 85 10000 5.66 70 04:41 04.12.2021
6634 Clear -10 1012 85 10000 4.63 60 23:49 03.12.2021
6635 Clear -10 1012 85 10000 4.63 60 23:49 03.12.2021
6636 Clear -10 1012 85 10000 4.12 70 22:57 03.12.2021
6637 Clear -9 1011 85 10000 4.63 60 22:38 03.12.2021
6638 Clear -9 1011 85 10000 4.63 50 21:25 03.12.2021
6639 Clear -9 1011 85 10000 4.12 60 20:44 03.12.2021
6640 Clear -9 1010 85 10000 3.6 60 19:36 03.12.2021
6641 Snow -9 1010 85 10000 4.12 60 18:28 03.12.2021
6642 Clear -9 1009 85 10000 4.12 60 17:58 03.12.2021
6643 Clear -9 1008 85 10000 5.66 60 14:23 03.12.2021
6644 Clear -7 1007 79 10000 5.66 50 12:52 03.12.2021
6645 Clouds -7 1007 79 10000 4.63 50 11:25 03.12.2021
6646 Clear -8 1006 86 10000 5.14 50 09:57 03.12.2021
6647 Clear -8 1005 86 10000 5.14 50 08:25 03.12.2021
6648 Clear -8 1005 86 10000 5.66 50 07:38 03.12.2021
6649 Clear -7 1003 86 10000 5.14 40 02:24 03.12.2021
6650 Clouds -8 1003 92 10000 4.12 30 00:47 03.12.2021
6651 Clouds -7 1002 86 10000 4.12 50 23:46 02.12.2021
6652 Clouds -6 1001 86 10000 6.17 30 21:42 02.12.2021
6653 Snow -5 1001 86 10000 6.17 40 20:57 02.12.2021
6654 Clouds -5 1001 86 10000 5.66 50 20:38 02.12.2021
6655 Snow -5 1001 86 10000 6.17 40 19:31 02.12.2021
6656 Snow -4 999 93 7000 6.69 40 17:43 02.12.2021
6657 Snow -3 998 86 10000 7.72 40 15:42 02.12.2021
6658 Snow -4 997 93 6000 8.23 50 14:59 02.12.2021
6659 Snow -4 997 93 6000 8.23 50 14:33 02.12.2021
6660 Snow -4 996 93 5000 8.23 50 12:52 02.12.2021
6661 Snow -4 996 93 7000 7.72 50 12:18 02.12.2021
6662 Snow -4 994 86 2800 9.26 50 09:41 02.12.2021
6663 Snow